<?xml version="1.0" encoding="UTF-8" standalone="no" ?>
<gpx xmlns="http://www.topografix.com/GPX/1/1" xmlns:xsi="http://www.w3.org/2001/XMLSchema-instance" xsi:schemaLocation="http://www.topografix.com/GPX/1/1 http://www.topografix.com/GPX/1/1/gpx.xsd" version="1.1" creator="VisuGPX - https://www.visugpx.com">
  <metadata>
    <name>trail urbain à Lyon</name>
    <desc><![CDATA[avec le Circuit city-trail avec Running Conseil et Salomon]]></desc>
  </metadata>
  <trk>
    <name><![CDATA[2012-03-04T07:40:09Z]]></name>
    <trkseg>
      <trkpt lat="45.7745" lon="4.80755">
        <ele>175</ele>
        <time>2012-03-04T07:40:09Z</time>
      </trkpt>
      <trkpt lat="45.77453" lon="4.80754">
        <ele>175</ele>
        <time>2012-03-04T07:40:12Z</time>
      </trkpt>
      <trkpt lat="45.77471" lon="4.80761">
        <ele>174</ele>
        <time>2012-03-04T07:40:15Z</time>
      </trkpt>
      <trkpt lat="45.77475" lon="4.80765">
        <ele>174</ele>
        <time>2012-03-04T07:40:16Z</time>
      </trkpt>
      <trkpt lat="45.77487" lon="4.80772">
        <ele>174</ele>
        <time>2012-03-04T07:40:19Z</time>
      </trkpt>
      <trkpt lat="45.77498" lon="4.80776">
        <ele>174</ele>
        <time>2012-03-04T07:40:21Z</time>
      </trkpt>
      <trkpt lat="45.77507" lon="4.80782">
        <ele>173</ele>
        <time>2012-03-04T07:40:23Z</time>
      </trkpt>
      <trkpt lat="45.77523" lon="4.80791">
        <ele>172</ele>
        <time>2012-03-04T07:40:26Z</time>
      </trkpt>
      <trkpt lat="45.7748" lon="4.80806">
        <ele>174</ele>
        <time>2012-03-04T07:40:27Z</time>
      </trkpt>
      <trkpt lat="45.77457" lon="4.80816">
        <ele>174</ele>
        <time>2012-03-04T07:40:29Z</time>
      </trkpt>
      <trkpt lat="45.7746" lon="4.80819">
        <ele>174</ele>
        <time>2012-03-04T07:40:30Z</time>
      </trkpt>
      <trkpt lat="45.77461" lon="4.8082">
        <ele>174</ele>
        <time>2012-03-04T07:40:31Z</time>
      </trkpt>
      <trkpt lat="45.77468" lon="4.80818">
        <ele>174</ele>
        <time>2012-03-04T07:40:33Z</time>
      </trkpt>
      <trkpt lat="45.77455" lon="4.80823">
        <ele>174</ele>
        <time>2012-03-04T07:40:34Z</time>
      </trkpt>
      <trkpt lat="45.7745" lon="4.80824">
        <ele>174</ele>
        <time>2012-03-04T07:40:36Z</time>
      </trkpt>
      <trkpt lat="45.77442" lon="4.80825">
        <ele>175</ele>
        <time>2012-03-04T07:40:41Z</time>
      </trkpt>
      <trkpt lat="45.7744" lon="4.80825">
        <ele>175</ele>
        <time>2012-03-04T07:40:42Z</time>
      </trkpt>
      <trkpt lat="45.77431" lon="4.80829">
        <ele>175</ele>
        <time>2012-03-04T07:40:44Z</time>
      </trkpt>
      <trkpt lat="45.77431" lon="4.80831">
        <ele>175</ele>
        <time>2012-03-04T07:40:45Z</time>
      </trkpt>
      <trkpt lat="45.77407" lon="4.80831">
        <ele>176</ele>
        <time>2012-03-04T07:40:49Z</time>
      </trkpt>
      <trkpt lat="45.77397" lon="4.80831">
        <ele>176</ele>
        <time>2012-03-04T07:40:50Z</time>
      </trkpt>
      <trkpt lat="45.77381" lon="4.8083">
        <ele>176</ele>
        <time>2012-03-04T07:40:52Z</time>
      </trkpt>
      <trkpt lat="45.77367" lon="4.80831">
        <ele>176</ele>
        <time>2012-03-04T07:40:55Z</time>
      </trkpt>
      <trkpt lat="45.77362" lon="4.80837">
        <ele>176</ele>
        <time>2012-03-04T07:40:56Z</time>
      </trkpt>
      <trkpt lat="45.77351" lon="4.80847">
        <ele>176</ele>
        <time>2012-03-04T07:41:00Z</time>
      </trkpt>
      <trkpt lat="45.7734" lon="4.80848">
        <ele>176</ele>
        <time>2012-03-04T07:41:02Z</time>
      </trkpt>
      <trkpt lat="45.77322" lon="4.8085">
        <ele>179</ele>
        <time>2012-03-04T07:41:06Z</time>
      </trkpt>
      <trkpt lat="45.77319" lon="4.80851">
        <ele>180</ele>
        <time>2012-03-04T07:41:07Z</time>
      </trkpt>
      <trkpt lat="45.77315" lon="4.80851">
        <ele>180</ele>
        <time>2012-03-04T07:41:08Z</time>
      </trkpt>
      <trkpt lat="45.77306" lon="4.80853">
        <ele>180</ele>
        <time>2012-03-04T07:41:12Z</time>
      </trkpt>
      <trkpt lat="45.77304" lon="4.80852">
        <ele>180</ele>
        <time>2012-03-04T07:41:17Z</time>
      </trkpt>
      <trkpt lat="45.77307" lon="4.80856">
        <ele>180</ele>
        <time>2012-03-04T07:41:26Z</time>
      </trkpt>
      <trkpt lat="45.77303" lon="4.80856">
        <ele>181</ele>
        <time>2012-03-04T07:41:28Z</time>
      </trkpt>
      <trkpt lat="45.77167" lon="4.80845">
        <ele>184</ele>
        <time>2012-03-04T07:41:33Z</time>
      </trkpt>
      <trkpt lat="45.77125" lon="4.80843">
        <ele>188</ele>
        <time>2012-03-04T07:41:34Z</time>
      </trkpt>
      <trkpt lat="45.77115" lon="4.80844">
        <ele>188</ele>
        <time>2012-03-04T07:41:36Z</time>
      </trkpt>
      <trkpt lat="45.77111" lon="4.80844">
        <ele>188</ele>
        <time>2012-03-04T07:41:38Z</time>
      </trkpt>
      <trkpt lat="45.77108" lon="4.80846">
        <ele>188</ele>
        <time>2012-03-04T07:41:40Z</time>
      </trkpt>
      <trkpt lat="45.77106" lon="4.80847">
        <ele>188</ele>
        <time>2012-03-04T07:41:42Z</time>
      </trkpt>
      <trkpt lat="45.77105" lon="4.80847">
        <ele>188</ele>
        <time>2012-03-04T07:41:43Z</time>
      </trkpt>
      <trkpt lat="45.77105" lon="4.80846">
        <ele>188</ele>
        <time>2012-03-04T07:41:44Z</time>
      </trkpt>
      <trkpt lat="45.77103" lon="4.80847">
        <ele>188</ele>
        <time>2012-03-04T07:41:46Z</time>
      </trkpt>
      <trkpt lat="45.771" lon="4.80847">
        <ele>188</ele>
        <time>2012-03-04T07:41:48Z</time>
      </trkpt>
      <trkpt lat="45.77097" lon="4.80849">
        <ele>188</ele>
        <time>2012-03-04T07:41:52Z</time>
      </trkpt>
      <trkpt lat="45.7709" lon="4.80852">
        <ele>188</ele>
        <time>2012-03-04T07:42:00Z</time>
      </trkpt>
      <trkpt lat="45.77087" lon="4.80853">
        <ele>188</ele>
        <time>2012-03-04T07:42:02Z</time>
      </trkpt>
      <trkpt lat="45.77084" lon="4.80857">
        <ele>189</ele>
        <time>2012-03-04T07:42:07Z</time>
      </trkpt>
      <trkpt lat="45.77083" lon="4.80858">
        <ele>193</ele>
        <time>2012-03-04T07:42:09Z</time>
      </trkpt>
      <trkpt lat="45.77081" lon="4.80862">
        <ele>194</ele>
        <time>2012-03-04T07:42:12Z</time>
      </trkpt>
      <trkpt lat="45.77074" lon="4.80861">
        <ele>194</ele>
        <time>2012-03-04T07:42:18Z</time>
      </trkpt>
      <trkpt lat="45.77069" lon="4.8086">
        <ele>194</ele>
        <time>2012-03-04T07:42:22Z</time>
      </trkpt>
      <trkpt lat="45.77065" lon="4.80858">
        <ele>195</ele>
        <time>2012-03-04T07:42:25Z</time>
      </trkpt>
      <trkpt lat="45.7706" lon="4.8086">
        <ele>195</ele>
        <time>2012-03-04T07:42:29Z</time>
      </trkpt>
      <trkpt lat="45.77058" lon="4.80861">
        <ele>196</ele>
        <time>2012-03-04T07:42:31Z</time>
      </trkpt>
      <trkpt lat="45.77053" lon="4.80863">
        <ele>196</ele>
        <time>2012-03-04T07:42:38Z</time>
      </trkpt>
      <trkpt lat="45.77052" lon="4.80863">
        <ele>196</ele>
        <time>2012-03-04T07:42:39Z</time>
      </trkpt>
      <trkpt lat="45.7705" lon="4.80863">
        <ele>197</ele>
        <time>2012-03-04T07:42:40Z</time>
      </trkpt>
      <trkpt lat="45.77043" lon="4.80864">
        <ele>197</ele>
        <time>2012-03-04T07:42:47Z</time>
      </trkpt>
      <trkpt lat="45.77038" lon="4.80866">
        <ele>198</ele>
        <time>2012-03-04T07:42:53Z</time>
      </trkpt>
      <trkpt lat="45.77037" lon="4.80867">
        <ele>198</ele>
        <time>2012-03-04T07:42:54Z</time>
      </trkpt>
      <trkpt lat="45.77035" lon="4.80868">
        <ele>198</ele>
        <time>2012-03-04T07:42:56Z</time>
      </trkpt>
      <trkpt lat="45.77032" lon="4.8087">
        <ele>199</ele>
        <time>2012-03-04T07:42:59Z</time>
      </trkpt>
      <trkpt lat="45.7703" lon="4.8087">
        <ele>199</ele>
        <time>2012-03-04T07:43:01Z</time>
      </trkpt>
      <trkpt lat="45.77023" lon="4.8087">
        <ele>199</ele>
        <time>2012-03-04T07:43:09Z</time>
      </trkpt>
      <trkpt lat="45.77022" lon="4.8087">
        <ele>199</ele>
        <time>2012-03-04T07:43:10Z</time>
      </trkpt>
      <trkpt lat="45.77021" lon="4.8087">
        <ele>199</ele>
        <time>2012-03-04T07:43:11Z</time>
      </trkpt>
      <trkpt lat="45.77018" lon="4.80871">
        <ele>200</ele>
        <time>2012-03-04T07:43:15Z</time>
      </trkpt>
      <trkpt lat="45.77013" lon="4.80869">
        <ele>200</ele>
        <time>2012-03-04T07:43:20Z</time>
      </trkpt>
      <trkpt lat="45.77013" lon="4.80869">
        <ele>200</ele>
        <time>2012-03-04T07:43:21Z</time>
      </trkpt>
      <trkpt lat="45.7701" lon="4.80868">
        <ele>199</ele>
        <time>2012-03-04T07:43:23Z</time>
      </trkpt>
      <trkpt lat="45.77009" lon="4.80866">
        <ele>199</ele>
        <time>2012-03-04T07:43:25Z</time>
      </trkpt>
      <trkpt lat="45.7701" lon="4.80867">
        <ele>199</ele>
        <time>2012-03-04T07:43:28Z</time>
      </trkpt>
      <trkpt lat="45.77004" lon="4.80865">
        <ele>199</ele>
        <time>2012-03-04T07:43:35Z</time>
      </trkpt>
      <trkpt lat="45.76998" lon="4.80871">
        <ele>207</ele>
        <time>2012-03-04T07:43:41Z</time>
      </trkpt>
      <trkpt lat="45.76997" lon="4.80872">
        <ele>207</ele>
        <time>2012-03-04T07:43:42Z</time>
      </trkpt>
      <trkpt lat="45.7699" lon="4.80873">
        <ele>208</ele>
        <time>2012-03-04T07:43:48Z</time>
      </trkpt>
      <trkpt lat="45.76981" lon="4.80874">
        <ele>208</ele>
        <time>2012-03-04T07:43:56Z</time>
      </trkpt>
      <trkpt lat="45.76977" lon="4.80875">
        <ele>208</ele>
        <time>2012-03-04T07:43:59Z</time>
      </trkpt>
      <trkpt lat="45.76976" lon="4.80876">
        <ele>209</ele>
        <time>2012-03-04T07:44:00Z</time>
      </trkpt>
      <trkpt lat="45.76974" lon="4.80877">
        <ele>209</ele>
        <time>2012-03-04T07:44:02Z</time>
      </trkpt>
      <trkpt lat="45.76974" lon="4.80878">
        <ele>209</ele>
        <time>2012-03-04T07:44:03Z</time>
      </trkpt>
      <trkpt lat="45.76971" lon="4.8088">
        <ele>210</ele>
        <time>2012-03-04T07:44:07Z</time>
      </trkpt>
      <trkpt lat="45.7697" lon="4.8088">
        <ele>210</ele>
        <time>2012-03-04T07:44:08Z</time>
      </trkpt>
      <trkpt lat="45.76966" lon="4.80881">
        <ele>210</ele>
        <time>2012-03-04T07:44:13Z</time>
      </trkpt>
      <trkpt lat="45.76964" lon="4.80882">
        <ele>210</ele>
        <time>2012-03-04T07:44:15Z</time>
      </trkpt>
      <trkpt lat="45.7696" lon="4.80879">
        <ele>210</ele>
        <time>2012-03-04T07:44:19Z</time>
      </trkpt>
      <trkpt lat="45.76956" lon="4.80876">
        <ele>210</ele>
        <time>2012-03-04T07:44:22Z</time>
      </trkpt>
      <trkpt lat="45.76954" lon="4.80875">
        <ele>210</ele>
        <time>2012-03-04T07:44:23Z</time>
      </trkpt>
      <trkpt lat="45.76951" lon="4.80878">
        <ele>210</ele>
        <time>2012-03-04T07:44:27Z</time>
      </trkpt>
      <trkpt lat="45.76951" lon="4.8088">
        <ele>211</ele>
        <time>2012-03-04T07:44:28Z</time>
      </trkpt>
      <trkpt lat="45.7695" lon="4.80892">
        <ele>212</ele>
        <time>2012-03-04T07:44:33Z</time>
      </trkpt>
      <trkpt lat="45.76949" lon="4.80893">
        <ele>213</ele>
        <time>2012-03-04T07:44:34Z</time>
      </trkpt>
      <trkpt lat="45.76945" lon="4.80894">
        <ele>213</ele>
        <time>2012-03-04T07:44:36Z</time>
      </trkpt>
      <trkpt lat="45.76943" lon="4.80894">
        <ele>213</ele>
        <time>2012-03-04T07:44:37Z</time>
      </trkpt>
      <trkpt lat="45.7693" lon="4.80885">
        <ele>213</ele>
        <time>2012-03-04T07:44:41Z</time>
      </trkpt>
      <trkpt lat="45.76925" lon="4.8088">
        <ele>212</ele>
        <time>2012-03-04T07:44:42Z</time>
      </trkpt>
      <trkpt lat="45.76911" lon="4.80868">
        <ele>216</ele>
        <time>2012-03-04T07:44:46Z</time>
      </trkpt>
      <trkpt lat="45.76908" lon="4.80867">
        <ele>216</ele>
        <time>2012-03-04T07:44:47Z</time>
      </trkpt>
      <trkpt lat="45.76893" lon="4.80862">
        <ele>216</ele>
        <time>2012-03-04T07:44:53Z</time>
      </trkpt>
      <trkpt lat="45.76886" lon="4.80868">
        <ele>218</ele>
        <time>2012-03-04T07:44:58Z</time>
      </trkpt>
      <trkpt lat="45.76887" lon="4.80873">
        <ele>219</ele>
        <time>2012-03-04T07:45:00Z</time>
      </trkpt>
      <trkpt lat="45.76885" lon="4.80879">
        <ele>220</ele>
        <time>2012-03-04T07:45:03Z</time>
      </trkpt>
      <trkpt lat="45.76884" lon="4.80883">
        <ele>220</ele>
        <time>2012-03-04T07:45:05Z</time>
      </trkpt>
      <trkpt lat="45.76883" lon="4.8089">
        <ele>221</ele>
        <time>2012-03-04T07:45:07Z</time>
      </trkpt>
      <trkpt lat="45.7689" lon="4.80925">
        <ele>229</ele>
        <time>2012-03-04T07:45:12Z</time>
      </trkpt>
      <trkpt lat="45.76894" lon="4.80951">
        <ele>229</ele>
        <time>2012-03-04T07:45:14Z</time>
      </trkpt>
      <trkpt lat="45.76897" lon="4.80998">
        <ele>228</ele>
        <time>2012-03-04T07:45:23Z</time>
      </trkpt>
      <trkpt lat="45.76898" lon="4.81004">
        <ele>223</ele>
        <time>2012-03-04T07:45:24Z</time>
      </trkpt>
      <trkpt lat="45.76894" lon="4.81008">
        <ele>222</ele>
        <time>2012-03-04T07:45:27Z</time>
      </trkpt>
      <trkpt lat="45.7689" lon="4.81003">
        <ele>222</ele>
        <time>2012-03-04T07:45:28Z</time>
      </trkpt>
      <trkpt lat="45.76883" lon="4.80999">
        <ele>230</ele>
        <time>2012-03-04T07:45:31Z</time>
      </trkpt>
      <trkpt lat="45.76881" lon="4.81">
        <ele>223</ele>
        <time>2012-03-04T07:45:32Z</time>
      </trkpt>
      <trkpt lat="45.7688" lon="4.81002">
        <ele>223</ele>
        <time>2012-03-04T07:45:33Z</time>
      </trkpt>
      <trkpt lat="45.76875" lon="4.80996">
        <ele>230</ele>
        <time>2012-03-04T07:45:38Z</time>
      </trkpt>
      <trkpt lat="45.7687" lon="4.80997">
        <ele>231</ele>
        <time>2012-03-04T07:45:41Z</time>
      </trkpt>
      <trkpt lat="45.76866" lon="4.81">
        <ele>231</ele>
        <time>2012-03-04T07:45:44Z</time>
      </trkpt>
      <trkpt lat="45.76865" lon="4.81004">
        <ele>224</ele>
        <time>2012-03-04T07:45:47Z</time>
      </trkpt>
      <trkpt lat="45.76864" lon="4.81006">
        <ele>224</ele>
        <time>2012-03-04T07:45:50Z</time>
      </trkpt>
      <trkpt lat="45.76856" lon="4.81013">
        <ele>224</ele>
        <time>2012-03-04T07:45:55Z</time>
      </trkpt>
      <trkpt lat="45.76849" lon="4.81016">
        <ele>225</ele>
        <time>2012-03-04T07:46:00Z</time>
      </trkpt>
      <trkpt lat="45.76847" lon="4.81015">
        <ele>226</ele>
        <time>2012-03-04T07:46:01Z</time>
      </trkpt>
      <trkpt lat="45.76839" lon="4.81012">
        <ele>228</ele>
        <time>2012-03-04T07:46:07Z</time>
      </trkpt>
      <trkpt lat="45.76832" lon="4.81002">
        <ele>233</ele>
        <time>2012-03-04T07:46:11Z</time>
      </trkpt>
      <trkpt lat="45.76831" lon="4.80999">
        <ele>234</ele>
        <time>2012-03-04T07:46:13Z</time>
      </trkpt>
      <trkpt lat="45.7683" lon="4.81">
        <ele>234</ele>
        <time>2012-03-04T07:46:14Z</time>
      </trkpt>
      <trkpt lat="45.76826" lon="4.80999">
        <ele>235</ele>
        <time>2012-03-04T07:46:17Z</time>
      </trkpt>
      <trkpt lat="45.7682" lon="4.80999">
        <ele>236</ele>
        <time>2012-03-04T07:46:25Z</time>
      </trkpt>
      <trkpt lat="45.76819" lon="4.81002">
        <ele>230</ele>
        <time>2012-03-04T07:46:27Z</time>
      </trkpt>
      <trkpt lat="45.76818" lon="4.81004">
        <ele>230</ele>
        <time>2012-03-04T07:46:30Z</time>
      </trkpt>
      <trkpt lat="45.76817" lon="4.81005">
        <ele>230</ele>
        <time>2012-03-04T07:46:31Z</time>
      </trkpt>
      <trkpt lat="45.76812" lon="4.81">
        <ele>236</ele>
        <time>2012-03-04T07:46:33Z</time>
      </trkpt>
      <trkpt lat="45.7681" lon="4.80998">
        <ele>236</ele>
        <time>2012-03-04T07:46:34Z</time>
      </trkpt>
      <trkpt lat="45.76806" lon="4.8099">
        <ele>237</ele>
        <time>2012-03-04T07:46:40Z</time>
      </trkpt>
      <trkpt lat="45.76805" lon="4.80982">
        <ele>237</ele>
        <time>2012-03-04T07:46:47Z</time>
      </trkpt>
      <trkpt lat="45.76801" lon="4.80975">
        <ele>237</ele>
        <time>2012-03-04T07:46:50Z</time>
      </trkpt>
      <trkpt lat="45.76793" lon="4.80959">
        <ele>238</ele>
        <time>2012-03-04T07:46:56Z</time>
      </trkpt>
      <trkpt lat="45.76777" lon="4.80933">
        <ele>240</ele>
        <time>2012-03-04T07:47:01Z</time>
      </trkpt>
      <trkpt lat="45.76766" lon="4.8091">
        <ele>239</ele>
        <time>2012-03-04T07:47:07Z</time>
      </trkpt>
      <trkpt lat="45.76766" lon="4.80912">
        <ele>239</ele>
        <time>2012-03-04T07:47:08Z</time>
      </trkpt>
      <trkpt lat="45.76763" lon="4.80918">
        <ele>242</ele>
        <time>2012-03-04T07:47:15Z</time>
      </trkpt>
      <trkpt lat="45.76757" lon="4.8092">
        <ele>243</ele>
        <time>2012-03-04T07:47:22Z</time>
      </trkpt>
      <trkpt lat="45.76734" lon="4.80916">
        <ele>246</ele>
        <time>2012-03-04T07:47:30Z</time>
      </trkpt>
      <trkpt lat="45.76718" lon="4.80919">
        <ele>248</ele>
        <time>2012-03-04T07:47:36Z</time>
      </trkpt>
      <trkpt lat="45.76716" lon="4.80923">
        <ele>248</ele>
        <time>2012-03-04T07:47:37Z</time>
      </trkpt>
      <trkpt lat="45.76713" lon="4.80924">
        <ele>248</ele>
        <time>2012-03-04T07:47:38Z</time>
      </trkpt>
      <trkpt lat="45.76707" lon="4.8093">
        <ele>249</ele>
        <time>2012-03-04T07:47:41Z</time>
      </trkpt>
      <trkpt lat="45.76701" lon="4.80932">
        <ele>249</ele>
        <time>2012-03-04T07:47:45Z</time>
      </trkpt>
      <trkpt lat="45.76698" lon="4.80931">
        <ele>249</ele>
        <time>2012-03-04T07:47:46Z</time>
      </trkpt>
      <trkpt lat="45.7669" lon="4.80932">
        <ele>250</ele>
        <time>2012-03-04T07:47:49Z</time>
      </trkpt>
      <trkpt lat="45.7668" lon="4.80935">
        <ele>252</ele>
        <time>2012-03-04T07:47:53Z</time>
      </trkpt>
      <trkpt lat="45.7667" lon="4.80942">
        <ele>251</ele>
        <time>2012-03-04T07:47:57Z</time>
      </trkpt>
      <trkpt lat="45.76662" lon="4.80947">
        <ele>258</ele>
        <time>2012-03-04T07:48:01Z</time>
      </trkpt>
      <trkpt lat="45.76658" lon="4.80949">
        <ele>258</ele>
        <time>2012-03-04T07:48:03Z</time>
      </trkpt>
      <trkpt lat="45.76645" lon="4.80958">
        <ele>258</ele>
        <time>2012-03-04T07:48:09Z</time>
      </trkpt>
      <trkpt lat="45.76633" lon="4.80964">
        <ele>258</ele>
        <time>2012-03-04T07:48:15Z</time>
      </trkpt>
      <trkpt lat="45.76628" lon="4.80968">
        <ele>259</ele>
        <time>2012-03-04T07:48:18Z</time>
      </trkpt>
      <trkpt lat="45.76622" lon="4.80972">
        <ele>259</ele>
        <time>2012-03-04T07:48:21Z</time>
      </trkpt>
      <trkpt lat="45.76612" lon="4.80976">
        <ele>260</ele>
        <time>2012-03-04T07:48:26Z</time>
      </trkpt>
      <trkpt lat="45.7661" lon="4.80977">
        <ele>261</ele>
        <time>2012-03-04T07:48:27Z</time>
      </trkpt>
      <trkpt lat="45.76606" lon="4.80979">
        <ele>261</ele>
        <time>2012-03-04T07:48:29Z</time>
      </trkpt>
      <trkpt lat="45.76603" lon="4.8098">
        <ele>262</ele>
        <time>2012-03-04T07:48:31Z</time>
      </trkpt>
      <trkpt lat="45.76593" lon="4.80988">
        <ele>263</ele>
        <time>2012-03-04T07:48:36Z</time>
      </trkpt>
      <trkpt lat="45.76592" lon="4.80988">
        <ele>264</ele>
        <time>2012-03-04T07:48:37Z</time>
      </trkpt>
      <trkpt lat="45.76589" lon="4.80991">
        <ele>264</ele>
        <time>2012-03-04T07:48:41Z</time>
      </trkpt>
      <trkpt lat="45.76584" lon="4.80993">
        <ele>265</ele>
        <time>2012-03-04T07:48:44Z</time>
      </trkpt>
      <trkpt lat="45.7658" lon="4.80996">
        <ele>268</ele>
        <time>2012-03-04T07:48:46Z</time>
      </trkpt>
      <trkpt lat="45.76575" lon="4.80999">
        <ele>268</ele>
        <time>2012-03-04T07:48:48Z</time>
      </trkpt>
      <trkpt lat="45.7657" lon="4.81006">
        <ele>268</ele>
        <time>2012-03-04T07:48:51Z</time>
      </trkpt>
      <trkpt lat="45.76568" lon="4.81011">
        <ele>269</ele>
        <time>2012-03-04T07:48:53Z</time>
      </trkpt>
      <trkpt lat="45.76567" lon="4.81012">
        <ele>269</ele>
        <time>2012-03-04T07:48:54Z</time>
      </trkpt>
      <trkpt lat="45.76567" lon="4.81014">
        <ele>269</ele>
        <time>2012-03-04T07:48:55Z</time>
      </trkpt>
      <trkpt lat="45.76566" lon="4.81023">
        <ele>269</ele>
        <time>2012-03-04T07:48:58Z</time>
      </trkpt>
      <trkpt lat="45.76564" lon="4.81029">
        <ele>269</ele>
        <time>2012-03-04T07:49:00Z</time>
      </trkpt>
      <trkpt lat="45.76562" lon="4.81033">
        <ele>269</ele>
        <time>2012-03-04T07:49:01Z</time>
      </trkpt>
      <trkpt lat="45.76553" lon="4.81046">
        <ele>269</ele>
        <time>2012-03-04T07:49:06Z</time>
      </trkpt>
      <trkpt lat="45.76538" lon="4.81051">
        <ele>270</ele>
        <time>2012-03-04T07:49:12Z</time>
      </trkpt>
      <trkpt lat="45.76534" lon="4.81052">
        <ele>270</ele>
        <time>2012-03-04T07:49:14Z</time>
      </trkpt>
      <trkpt lat="45.76527" lon="4.81055">
        <ele>271</ele>
        <time>2012-03-04T07:49:19Z</time>
      </trkpt>
      <trkpt lat="45.76517" lon="4.81062">
        <ele>272</ele>
        <time>2012-03-04T07:49:25Z</time>
      </trkpt>
      <trkpt lat="45.76517" lon="4.81064">
        <ele>272</ele>
        <time>2012-03-04T07:49:26Z</time>
      </trkpt>
      <trkpt lat="45.76517" lon="4.81065">
        <ele>272</ele>
        <time>2012-03-04T07:49:27Z</time>
      </trkpt>
      <trkpt lat="45.76515" lon="4.81073">
        <ele>272</ele>
        <time>2012-03-04T07:49:31Z</time>
      </trkpt>
      <trkpt lat="45.76509" lon="4.81086">
        <ele>271</ele>
        <time>2012-03-04T07:49:37Z</time>
      </trkpt>
      <trkpt lat="45.76507" lon="4.81088">
        <ele>271</ele>
        <time>2012-03-04T07:49:38Z</time>
      </trkpt>
      <trkpt lat="45.76501" lon="4.81098">
        <ele>269</ele>
        <time>2012-03-04T07:49:43Z</time>
      </trkpt>
      <trkpt lat="45.76493" lon="4.81105">
        <ele>275</ele>
        <time>2012-03-04T07:49:48Z</time>
      </trkpt>
      <trkpt lat="45.76492" lon="4.81106">
        <ele>275</ele>
        <time>2012-03-04T07:49:49Z</time>
      </trkpt>
      <trkpt lat="45.76484" lon="4.81113">
        <ele>275</ele>
        <time>2012-03-04T07:49:55Z</time>
      </trkpt>
      <trkpt lat="45.7648" lon="4.81116">
        <ele>275</ele>
        <time>2012-03-04T07:49:58Z</time>
      </trkpt>
      <trkpt lat="45.7648" lon="4.81115">
        <ele>275</ele>
        <time>2012-03-04T07:50:01Z</time>
      </trkpt>
      <trkpt lat="45.76478" lon="4.81109">
        <ele>275</ele>
        <time>2012-03-04T07:50:07Z</time>
      </trkpt>
      <trkpt lat="45.76478" lon="4.81105">
        <ele>275</ele>
        <time>2012-03-04T07:50:10Z</time>
      </trkpt>
      <trkpt lat="45.76478" lon="4.81102">
        <ele>275</ele>
        <time>2012-03-04T07:50:12Z</time>
      </trkpt>
      <trkpt lat="45.76479" lon="4.81099">
        <ele>275</ele>
        <time>2012-03-04T07:50:14Z</time>
      </trkpt>
      <trkpt lat="45.76479" lon="4.81097">
        <ele>275</ele>
        <time>2012-03-04T07:50:16Z</time>
      </trkpt>
      <trkpt lat="45.76481" lon="4.81086">
        <ele>275</ele>
        <time>2012-03-04T07:50:23Z</time>
      </trkpt>
      <trkpt lat="45.76481" lon="4.81085">
        <ele>275</ele>
        <time>2012-03-04T07:50:24Z</time>
      </trkpt>
      <trkpt lat="45.76484" lon="4.81081">
        <ele>277</ele>
        <time>2012-03-04T07:50:28Z</time>
      </trkpt>
      <trkpt lat="45.76485" lon="4.81083">
        <ele>276</ele>
        <time>2012-03-04T07:50:31Z</time>
      </trkpt>
      <trkpt lat="45.76485" lon="4.81082">
        <ele>276</ele>
        <time>2012-03-04T07:50:34Z</time>
      </trkpt>
      <trkpt lat="45.7649" lon="4.81099">
        <ele>275</ele>
        <time>2012-03-04T07:51:09Z</time>
      </trkpt>
      <trkpt lat="45.76489" lon="4.81102">
        <ele>275</ele>
        <time>2012-03-04T07:51:10Z</time>
      </trkpt>
      <trkpt lat="45.76488" lon="4.81113">
        <ele>275</ele>
        <time>2012-03-04T07:51:14Z</time>
      </trkpt>
      <trkpt lat="45.76483" lon="4.81127">
        <ele>274</ele>
        <time>2012-03-04T07:51:20Z</time>
      </trkpt>
      <trkpt lat="45.76482" lon="4.81131">
        <ele>274</ele>
        <time>2012-03-04T07:51:21Z</time>
      </trkpt>
      <trkpt lat="45.76481" lon="4.81149">
        <ele>273</ele>
        <time>2012-03-04T07:51:26Z</time>
      </trkpt>
      <trkpt lat="45.76482" lon="4.8116">
        <ele>272</ele>
        <time>2012-03-04T07:51:30Z</time>
      </trkpt>
      <trkpt lat="45.76479" lon="4.81181">
        <ele>270</ele>
        <time>2012-03-04T07:51:36Z</time>
      </trkpt>
      <trkpt lat="45.76477" lon="4.81186">
        <ele>270</ele>
        <time>2012-03-04T07:51:38Z</time>
      </trkpt>
      <trkpt lat="45.76475" lon="4.812">
        <ele>270</ele>
        <time>2012-03-04T07:51:42Z</time>
      </trkpt>
      <trkpt lat="45.76469" lon="4.81209">
        <ele>270</ele>
        <time>2012-03-04T07:51:45Z</time>
      </trkpt>
      <trkpt lat="45.76462" lon="4.81216">
        <ele>270</ele>
        <time>2012-03-04T07:51:48Z</time>
      </trkpt>
      <trkpt lat="45.76459" lon="4.81221">
        <ele>270</ele>
        <time>2012-03-04T07:51:50Z</time>
      </trkpt>
      <trkpt lat="45.76459" lon="4.81228">
        <ele>270</ele>
        <time>2012-03-04T07:51:52Z</time>
      </trkpt>
      <trkpt lat="45.76452" lon="4.81239">
        <ele>270</ele>
        <time>2012-03-04T07:51:57Z</time>
      </trkpt>
      <trkpt lat="45.76445" lon="4.81247">
        <ele>271</ele>
        <time>2012-03-04T07:52:01Z</time>
      </trkpt>
      <trkpt lat="45.76444" lon="4.81248">
        <ele>271</ele>
        <time>2012-03-04T07:52:02Z</time>
      </trkpt>
      <trkpt lat="45.76434" lon="4.81262">
        <ele>270</ele>
        <time>2012-03-04T07:52:09Z</time>
      </trkpt>
      <trkpt lat="45.76432" lon="4.81266">
        <ele>270</ele>
        <time>2012-03-04T07:52:11Z</time>
      </trkpt>
      <trkpt lat="45.76427" lon="4.81274">
        <ele>269</ele>
        <time>2012-03-04T07:52:15Z</time>
      </trkpt>
      <trkpt lat="45.7642" lon="4.81283">
        <ele>269</ele>
        <time>2012-03-04T07:52:21Z</time>
      </trkpt>
      <trkpt lat="45.76418" lon="4.81284">
        <ele>269</ele>
        <time>2012-03-04T07:52:22Z</time>
      </trkpt>
      <trkpt lat="45.76411" lon="4.81288">
        <ele>278</ele>
        <time>2012-03-04T07:52:26Z</time>
      </trkpt>
      <trkpt lat="45.76404" lon="4.81294">
        <ele>279</ele>
        <time>2012-03-04T07:52:31Z</time>
      </trkpt>
      <trkpt lat="45.76402" lon="4.81295">
        <ele>279</ele>
        <time>2012-03-04T07:52:32Z</time>
      </trkpt>
      <trkpt lat="45.76396" lon="4.81306">
        <ele>279</ele>
        <time>2012-03-04T07:52:37Z</time>
      </trkpt>
      <trkpt lat="45.76391" lon="4.81318">
        <ele>279</ele>
        <time>2012-03-04T07:52:42Z</time>
      </trkpt>
      <trkpt lat="45.7639" lon="4.81321">
        <ele>279</ele>
        <time>2012-03-04T07:52:43Z</time>
      </trkpt>
      <trkpt lat="45.76387" lon="4.81326">
        <ele>279</ele>
        <time>2012-03-04T07:52:45Z</time>
      </trkpt>
      <trkpt lat="45.7638" lon="4.81329">
        <ele>280</ele>
        <time>2012-03-04T07:52:48Z</time>
      </trkpt>
      <trkpt lat="45.76376" lon="4.8133">
        <ele>280</ele>
        <time>2012-03-04T07:52:50Z</time>
      </trkpt>
      <trkpt lat="45.76366" lon="4.8133">
        <ele>280</ele>
        <time>2012-03-04T07:52:54Z</time>
      </trkpt>
      <trkpt lat="45.76357" lon="4.81329">
        <ele>281</ele>
        <time>2012-03-04T07:52:58Z</time>
      </trkpt>
      <trkpt lat="45.76352" lon="4.81328">
        <ele>281</ele>
        <time>2012-03-04T07:53:00Z</time>
      </trkpt>
      <trkpt lat="45.76341" lon="4.81324">
        <ele>282</ele>
        <time>2012-03-04T07:53:06Z</time>
      </trkpt>
      <trkpt lat="45.76339" lon="4.81323">
        <ele>282</ele>
        <time>2012-03-04T07:53:07Z</time>
      </trkpt>
      <trkpt lat="45.76329" lon="4.81319">
        <ele>284</ele>
        <time>2012-03-04T07:53:13Z</time>
      </trkpt>
      <trkpt lat="45.76326" lon="4.81319">
        <ele>284</ele>
        <time>2012-03-04T07:53:15Z</time>
      </trkpt>
      <trkpt lat="45.76321" lon="4.81323">
        <ele>285</ele>
        <time>2012-03-04T07:53:18Z</time>
      </trkpt>
      <trkpt lat="45.76318" lon="4.81326">
        <ele>285</ele>
        <time>2012-03-04T07:53:20Z</time>
      </trkpt>
      <trkpt lat="45.76311" lon="4.81333">
        <ele>285</ele>
        <time>2012-03-04T07:53:24Z</time>
      </trkpt>
      <trkpt lat="45.76306" lon="4.81338">
        <ele>287</ele>
        <time>2012-03-04T07:53:27Z</time>
      </trkpt>
      <trkpt lat="45.76301" lon="4.81342">
        <ele>287</ele>
        <time>2012-03-04T07:53:30Z</time>
      </trkpt>
      <trkpt lat="45.76298" lon="4.81345">
        <ele>287</ele>
        <time>2012-03-04T07:53:32Z</time>
      </trkpt>
      <trkpt lat="45.76297" lon="4.81352">
        <ele>288</ele>
        <time>2012-03-04T07:53:35Z</time>
      </trkpt>
      <trkpt lat="45.76298" lon="4.81355">
        <ele>288</ele>
        <time>2012-03-04T07:53:36Z</time>
      </trkpt>
      <trkpt lat="45.76298" lon="4.81358">
        <ele>288</ele>
        <time>2012-03-04T07:53:37Z</time>
      </trkpt>
      <trkpt lat="45.763" lon="4.81365">
        <ele>288</ele>
        <time>2012-03-04T07:53:39Z</time>
      </trkpt>
      <trkpt lat="45.76302" lon="4.81384">
        <ele>288</ele>
        <time>2012-03-04T07:53:45Z</time>
      </trkpt>
      <trkpt lat="45.76303" lon="4.81404">
        <ele>288</ele>
        <time>2012-03-04T07:53:51Z</time>
      </trkpt>
      <trkpt lat="45.76304" lon="4.81411">
        <ele>288</ele>
        <time>2012-03-04T07:53:53Z</time>
      </trkpt>
      <trkpt lat="45.76305" lon="4.81421">
        <ele>288</ele>
        <time>2012-03-04T07:53:56Z</time>
      </trkpt>
      <trkpt lat="45.76306" lon="4.81438">
        <ele>288</ele>
        <time>2012-03-04T07:54:01Z</time>
      </trkpt>
      <trkpt lat="45.76309" lon="4.81457">
        <ele>288</ele>
        <time>2012-03-04T07:54:07Z</time>
      </trkpt>
      <trkpt lat="45.7631" lon="4.81463">
        <ele>288</ele>
        <time>2012-03-04T07:54:09Z</time>
      </trkpt>
      <trkpt lat="45.76314" lon="4.81481">
        <ele>288</ele>
        <time>2012-03-04T07:54:15Z</time>
      </trkpt>
      <trkpt lat="45.76315" lon="4.81489">
        <ele>288</ele>
        <time>2012-03-04T07:54:18Z</time>
      </trkpt>
      <trkpt lat="45.76318" lon="4.81497">
        <ele>288</ele>
        <time>2012-03-04T07:54:21Z</time>
      </trkpt>
      <trkpt lat="45.7632" lon="4.81502">
        <ele>287</ele>
        <time>2012-03-04T07:54:23Z</time>
      </trkpt>
      <trkpt lat="45.76325" lon="4.81506">
        <ele>287</ele>
        <time>2012-03-04T07:54:26Z</time>
      </trkpt>
      <trkpt lat="45.76329" lon="4.81505">
        <ele>286</ele>
        <time>2012-03-04T07:54:28Z</time>
      </trkpt>
      <trkpt lat="45.76335" lon="4.81504">
        <ele>284</ele>
        <time>2012-03-04T07:54:32Z</time>
      </trkpt>
      <trkpt lat="45.76344" lon="4.81495">
        <ele>284</ele>
        <time>2012-03-04T07:54:39Z</time>
      </trkpt>
      <trkpt lat="45.76346" lon="4.81493">
        <ele>284</ele>
        <time>2012-03-04T07:54:41Z</time>
      </trkpt>
      <trkpt lat="45.76349" lon="4.81491">
        <ele>284</ele>
        <time>2012-03-04T07:54:45Z</time>
      </trkpt>
      <trkpt lat="45.76352" lon="4.8149">
        <ele>283</ele>
        <time>2012-03-04T07:54:51Z</time>
      </trkpt>
      <trkpt lat="45.76349" lon="4.8149">
        <ele>284</ele>
        <time>2012-03-04T07:55:02Z</time>
      </trkpt>
      <trkpt lat="45.7635" lon="4.81492">
        <ele>284</ele>
        <time>2012-03-04T07:55:38Z</time>
      </trkpt>
      <trkpt lat="45.7635" lon="4.81492">
        <ele>284</ele>
        <time>2012-03-04T07:55:43Z</time>
      </trkpt>
      <trkpt lat="45.76352" lon="4.81487">
        <ele>283</ele>
        <time>2012-03-04T07:56:14Z</time>
      </trkpt>
      <trkpt lat="45.7635" lon="4.81489">
        <ele>284</ele>
        <time>2012-03-04T07:56:17Z</time>
      </trkpt>
      <trkpt lat="45.76347" lon="4.8149">
        <ele>284</ele>
        <time>2012-03-04T07:56:19Z</time>
      </trkpt>
      <trkpt lat="45.76342" lon="4.81492">
        <ele>284</ele>
        <time>2012-03-04T07:56:24Z</time>
      </trkpt>
      <trkpt lat="45.76339" lon="4.81491">
        <ele>285</ele>
        <time>2012-03-04T07:56:27Z</time>
      </trkpt>
      <trkpt lat="45.76338" lon="4.8149">
        <ele>285</ele>
        <time>2012-03-04T07:56:29Z</time>
      </trkpt>
      <trkpt lat="45.76337" lon="4.81491">
        <ele>285</ele>
        <time>2012-03-04T07:56:33Z</time>
      </trkpt>
      <trkpt lat="45.76339" lon="4.81489">
        <ele>284</ele>
        <time>2012-03-04T07:56:38Z</time>
      </trkpt>
      <trkpt lat="45.76342" lon="4.81486">
        <ele>284</ele>
        <time>2012-03-04T07:56:54Z</time>
      </trkpt>
      <trkpt lat="45.76342" lon="4.81487">
        <ele>284</ele>
        <time>2012-03-04T07:56:55Z</time>
      </trkpt>
      <trkpt lat="45.76342" lon="4.81484">
        <ele>284</ele>
        <time>2012-03-04T07:57:04Z</time>
      </trkpt>
      <trkpt lat="45.76345" lon="4.81487">
        <ele>284</ele>
        <time>2012-03-04T07:57:26Z</time>
      </trkpt>
      <trkpt lat="45.76346" lon="4.81489">
        <ele>284</ele>
        <time>2012-03-04T07:57:27Z</time>
      </trkpt>
      <trkpt lat="45.76352" lon="4.81487">
        <ele>283</ele>
        <time>2012-03-04T07:57:31Z</time>
      </trkpt>
      <trkpt lat="45.76353" lon="4.81487">
        <ele>283</ele>
        <time>2012-03-04T07:57:32Z</time>
      </trkpt>
      <trkpt lat="45.76355" lon="4.81489">
        <ele>283</ele>
        <time>2012-03-04T07:57:37Z</time>
      </trkpt>
      <trkpt lat="45.76354" lon="4.8149">
        <ele>283</ele>
        <time>2012-03-04T07:57:39Z</time>
      </trkpt>
      <trkpt lat="45.76351" lon="4.81491">
        <ele>283</ele>
        <time>2012-03-04T07:57:44Z</time>
      </trkpt>
      <trkpt lat="45.76353" lon="4.81492">
        <ele>283</ele>
        <time>2012-03-04T07:57:56Z</time>
      </trkpt>
      <trkpt lat="45.76355" lon="4.81493">
        <ele>283</ele>
        <time>2012-03-04T07:57:59Z</time>
      </trkpt>
      <trkpt lat="45.76358" lon="4.81496">
        <ele>283</ele>
        <time>2012-03-04T07:58:03Z</time>
      </trkpt>
      <trkpt lat="45.76359" lon="4.81498">
        <ele>283</ele>
        <time>2012-03-04T07:58:05Z</time>
      </trkpt>
      <trkpt lat="45.76359" lon="4.81501">
        <ele>279</ele>
        <time>2012-03-04T07:58:10Z</time>
      </trkpt>
      <trkpt lat="45.76358" lon="4.81501">
        <ele>280</ele>
        <time>2012-03-04T07:58:11Z</time>
      </trkpt>
      <trkpt lat="45.76356" lon="4.81499">
        <ele>283</ele>
        <time>2012-03-04T07:58:14Z</time>
      </trkpt>
      <trkpt lat="45.76354" lon="4.81496">
        <ele>283</ele>
        <time>2012-03-04T07:58:17Z</time>
      </trkpt>
      <trkpt lat="45.76351" lon="4.81494">
        <ele>284</ele>
        <time>2012-03-04T07:58:21Z</time>
      </trkpt>
      <trkpt lat="45.76351" lon="4.81492">
        <ele>284</ele>
        <time>2012-03-04T07:58:24Z</time>
      </trkpt>
      <trkpt lat="45.76354" lon="4.81489">
        <ele>283</ele>
        <time>2012-03-04T07:58:31Z</time>
      </trkpt>
      <trkpt lat="45.76349" lon="4.81489">
        <ele>284</ele>
        <time>2012-03-04T07:58:43Z</time>
      </trkpt>
      <trkpt lat="45.76351" lon="4.81487">
        <ele>283</ele>
        <time>2012-03-04T07:59:03Z</time>
      </trkpt>
      <trkpt lat="45.7635" lon="4.81488">
        <ele>283</ele>
        <time>2012-03-04T07:59:05Z</time>
      </trkpt>
      <trkpt lat="45.76349" lon="4.81491">
        <ele>284</ele>
        <time>2012-03-04T07:59:12Z</time>
      </trkpt>
      <trkpt lat="45.76353" lon="4.81494">
        <ele>283</ele>
        <time>2012-03-04T07:59:20Z</time>
      </trkpt>
      <trkpt lat="45.76354" lon="4.81498">
        <ele>283</ele>
        <time>2012-03-04T07:59:36Z</time>
      </trkpt>
      <trkpt lat="45.76358" lon="4.81501">
        <ele>280</ele>
        <time>2012-03-04T07:59:54Z</time>
      </trkpt>
      <trkpt lat="45.76358" lon="4.81506">
        <ele>279</ele>
        <time>2012-03-04T07:59:59Z</time>
      </trkpt>
      <trkpt lat="45.76359" lon="4.81507">
        <ele>279</ele>
        <time>2012-03-04T08:00:00Z</time>
      </trkpt>
      <trkpt lat="45.76359" lon="4.8151">
        <ele>279</ele>
        <time>2012-03-04T08:00:07Z</time>
      </trkpt>
      <trkpt lat="45.7636" lon="4.81512">
        <ele>279</ele>
        <time>2012-03-04T08:00:12Z</time>
      </trkpt>
      <trkpt lat="45.76357" lon="4.8151">
        <ele>279</ele>
        <time>2012-03-04T08:00:31Z</time>
      </trkpt>
      <trkpt lat="45.76358" lon="4.81509">
        <ele>279</ele>
        <time>2012-03-04T08:00:42Z</time>
      </trkpt>
      <trkpt lat="45.76353" lon="4.81506">
        <ele>280</ele>
        <time>2012-03-04T08:00:57Z</time>
      </trkpt>
      <trkpt lat="45.76349" lon="4.81503">
        <ele>281</ele>
        <time>2012-03-04T08:01:03Z</time>
      </trkpt>
      <trkpt lat="45.76348" lon="4.81501">
        <ele>282</ele>
        <time>2012-03-04T08:01:06Z</time>
      </trkpt>
      <trkpt lat="45.76347" lon="4.81498">
        <ele>284</ele>
        <time>2012-03-04T08:01:12Z</time>
      </trkpt>
      <trkpt lat="45.76346" lon="4.81496">
        <ele>284</ele>
        <time>2012-03-04T08:01:41Z</time>
      </trkpt>
      <trkpt lat="45.76346" lon="4.81496">
        <ele>284</ele>
        <time>2012-03-04T08:01:56Z</time>
      </trkpt>
      <trkpt lat="45.76349" lon="4.81498">
        <ele>284</ele>
        <time>2012-03-04T08:02:04Z</time>
      </trkpt>
      <trkpt lat="45.76349" lon="4.81496">
        <ele>284</ele>
        <time>2012-03-04T08:02:09Z</time>
      </trkpt>
      <trkpt lat="45.7635" lon="4.81496">
        <ele>284</ele>
        <time>2012-03-04T08:02:32Z</time>
      </trkpt>
      <trkpt lat="45.76349" lon="4.81496">
        <ele>284</ele>
        <time>2012-03-04T08:02:37Z</time>
      </trkpt>
      <trkpt lat="45.76345" lon="4.81496">
        <ele>284</ele>
        <time>2012-03-04T08:02:41Z</time>
      </trkpt>
      <trkpt lat="45.76343" lon="4.81495">
        <ele>284</ele>
        <time>2012-03-04T08:02:44Z</time>
      </trkpt>
      <trkpt lat="45.76341" lon="4.81492">
        <ele>284</ele>
        <time>2012-03-04T08:02:54Z</time>
      </trkpt>
      <trkpt lat="45.76344" lon="4.81494">
        <ele>284</ele>
        <time>2012-03-04T08:03:20Z</time>
      </trkpt>
      <trkpt lat="45.76347" lon="4.81493">
        <ele>284</ele>
        <time>2012-03-04T08:03:50Z</time>
      </trkpt>
      <trkpt lat="45.76349" lon="4.81493">
        <ele>284</ele>
        <time>2012-03-04T08:03:55Z</time>
      </trkpt>
      <trkpt lat="45.76351" lon="4.815">
        <ele>284</ele>
        <time>2012-03-04T08:04:01Z</time>
      </trkpt>
      <trkpt lat="45.76351" lon="4.81501">
        <ele>281</ele>
        <time>2012-03-04T08:04:02Z</time>
      </trkpt>
      <trkpt lat="45.76351" lon="4.81502">
        <ele>281</ele>
        <time>2012-03-04T08:04:06Z</time>
      </trkpt>
      <trkpt lat="45.76351" lon="4.81502">
        <ele>281</ele>
        <time>2012-03-04T08:04:10Z</time>
      </trkpt>
      <trkpt lat="45.76348" lon="4.81506">
        <ele>281</ele>
        <time>2012-03-04T08:04:16Z</time>
      </trkpt>
      <trkpt lat="45.76345" lon="4.81511">
        <ele>281</ele>
        <time>2012-03-04T08:04:22Z</time>
      </trkpt>
      <trkpt lat="45.7634" lon="4.81514">
        <ele>281</ele>
        <time>2012-03-04T08:04:29Z</time>
      </trkpt>
      <trkpt lat="45.76339" lon="4.81514">
        <ele>281</ele>
        <time>2012-03-04T08:04:53Z</time>
      </trkpt>
      <trkpt lat="45.7634" lon="4.81515">
        <ele>281</ele>
        <time>2012-03-04T08:05:18Z</time>
      </trkpt>
      <trkpt lat="45.76341" lon="4.81519">
        <ele>280</ele>
        <time>2012-03-04T08:06:50Z</time>
      </trkpt>
      <trkpt lat="45.76341" lon="4.81521">
        <ele>280</ele>
        <time>2012-03-04T08:08:24Z</time>
      </trkpt>
      <trkpt lat="45.76345" lon="4.81524">
        <ele>280</ele>
        <time>2012-03-04T08:08:28Z</time>
      </trkpt>
      <trkpt lat="45.7635" lon="4.81519">
        <ele>280</ele>
        <time>2012-03-04T08:08:31Z</time>
      </trkpt>
      <trkpt lat="45.76352" lon="4.81517">
        <ele>280</ele>
        <time>2012-03-04T08:08:32Z</time>
      </trkpt>
      <trkpt lat="45.76362" lon="4.81505">
        <ele>279</ele>
        <time>2012-03-04T08:08:38Z</time>
      </trkpt>
      <trkpt lat="45.76363" lon="4.815">
        <ele>279</ele>
        <time>2012-03-04T08:08:40Z</time>
      </trkpt>
      <trkpt lat="45.76363" lon="4.81498">
        <ele>282</ele>
        <time>2012-03-04T08:08:41Z</time>
      </trkpt>
      <trkpt lat="45.76362" lon="4.81496">
        <ele>283</ele>
        <time>2012-03-04T08:08:42Z</time>
      </trkpt>
      <trkpt lat="45.76354" lon="4.81497">
        <ele>283</ele>
        <time>2012-03-04T08:08:46Z</time>
      </trkpt>
      <trkpt lat="45.7635" lon="4.815">
        <ele>284</ele>
        <time>2012-03-04T08:08:48Z</time>
      </trkpt>
      <trkpt lat="45.76348" lon="4.81501">
        <ele>282</ele>
        <time>2012-03-04T08:08:49Z</time>
      </trkpt>
      <trkpt lat="45.76341" lon="4.81507">
        <ele>283</ele>
        <time>2012-03-04T08:08:53Z</time>
      </trkpt>
      <trkpt lat="45.76338" lon="4.81517">
        <ele>281</ele>
        <time>2012-03-04T08:08:57Z</time>
      </trkpt>
      <trkpt lat="45.76338" lon="4.8152">
        <ele>281</ele>
        <time>2012-03-04T08:08:58Z</time>
      </trkpt>
      <trkpt lat="45.76343" lon="4.81523">
        <ele>280</ele>
        <time>2012-03-04T08:09:01Z</time>
      </trkpt>
      <trkpt lat="45.76353" lon="4.81514">
        <ele>280</ele>
        <time>2012-03-04T08:09:06Z</time>
      </trkpt>
      <trkpt lat="45.76355" lon="4.81513">
        <ele>279</ele>
        <time>2012-03-04T08:09:07Z</time>
      </trkpt>
      <trkpt lat="45.76362" lon="4.81501">
        <ele>279</ele>
        <time>2012-03-04T08:09:13Z</time>
      </trkpt>
      <trkpt lat="45.76356" lon="4.81494">
        <ele>283</ele>
        <time>2012-03-04T08:09:16Z</time>
      </trkpt>
      <trkpt lat="45.7635" lon="4.81496">
        <ele>284</ele>
        <time>2012-03-04T08:09:19Z</time>
      </trkpt>
      <trkpt lat="45.76349" lon="4.81498">
        <ele>284</ele>
        <time>2012-03-04T08:09:20Z</time>
      </trkpt>
      <trkpt lat="45.7634" lon="4.81505">
        <ele>283</ele>
        <time>2012-03-04T08:09:25Z</time>
      </trkpt>
      <trkpt lat="45.76335" lon="4.81515">
        <ele>282</ele>
        <time>2012-03-04T08:09:29Z</time>
      </trkpt>
      <trkpt lat="45.76336" lon="4.81518">
        <ele>281</ele>
        <time>2012-03-04T08:09:30Z</time>
      </trkpt>
      <trkpt lat="45.76339" lon="4.81523">
        <ele>280</ele>
        <time>2012-03-04T08:09:32Z</time>
      </trkpt>
      <trkpt lat="45.76342" lon="4.81525">
        <ele>280</ele>
        <time>2012-03-04T08:09:34Z</time>
      </trkpt>
      <trkpt lat="45.76349" lon="4.81519">
        <ele>280</ele>
        <time>2012-03-04T08:09:38Z</time>
      </trkpt>
      <trkpt lat="45.76358" lon="4.81509">
        <ele>279</ele>
        <time>2012-03-04T08:09:43Z</time>
      </trkpt>
      <trkpt lat="45.76359" lon="4.81507">
        <ele>279</ele>
        <time>2012-03-04T08:09:44Z</time>
      </trkpt>
      <trkpt lat="45.76362" lon="4.81499">
        <ele>283</ele>
        <time>2012-03-04T08:09:47Z</time>
      </trkpt>
      <trkpt lat="45.76361" lon="4.81496">
        <ele>283</ele>
        <time>2012-03-04T08:09:48Z</time>
      </trkpt>
      <trkpt lat="45.76355" lon="4.81493">
        <ele>283</ele>
        <time>2012-03-04T08:09:51Z</time>
      </trkpt>
      <trkpt lat="45.76353" lon="4.81494">
        <ele>283</ele>
        <time>2012-03-04T08:09:52Z</time>
      </trkpt>
      <trkpt lat="45.76351" lon="4.81495">
        <ele>284</ele>
        <time>2012-03-04T08:09:53Z</time>
      </trkpt>
      <trkpt lat="45.76346" lon="4.81499">
        <ele>284</ele>
        <time>2012-03-04T08:09:56Z</time>
      </trkpt>
      <trkpt lat="45.76337" lon="4.81507">
        <ele>283</ele>
        <time>2012-03-04T08:10:01Z</time>
      </trkpt>
      <trkpt lat="45.76335" lon="4.81512">
        <ele>282</ele>
        <time>2012-03-04T08:10:03Z</time>
      </trkpt>
      <trkpt lat="45.76335" lon="4.81518">
        <ele>281</ele>
        <time>2012-03-04T08:10:05Z</time>
      </trkpt>
      <trkpt lat="45.76338" lon="4.81523">
        <ele>280</ele>
        <time>2012-03-04T08:10:07Z</time>
      </trkpt>
      <trkpt lat="45.76344" lon="4.81524">
        <ele>280</ele>
        <time>2012-03-04T08:10:10Z</time>
      </trkpt>
      <trkpt lat="45.76345" lon="4.81523">
        <ele>280</ele>
        <time>2012-03-04T08:10:11Z</time>
      </trkpt>
      <trkpt lat="45.76347" lon="4.81521">
        <ele>280</ele>
        <time>2012-03-04T08:10:12Z</time>
      </trkpt>
      <trkpt lat="45.7636" lon="4.8151">
        <ele>279</ele>
        <time>2012-03-04T08:10:18Z</time>
      </trkpt>
      <trkpt lat="45.76366" lon="4.81498">
        <ele>282</ele>
        <time>2012-03-04T08:10:23Z</time>
      </trkpt>
      <trkpt lat="45.76359" lon="4.81491">
        <ele>283</ele>
        <time>2012-03-04T08:10:27Z</time>
      </trkpt>
      <trkpt lat="45.76352" lon="4.81497">
        <ele>284</ele>
        <time>2012-03-04T08:10:31Z</time>
      </trkpt>
      <trkpt lat="45.7635" lon="4.81498">
        <ele>284</ele>
        <time>2012-03-04T08:10:32Z</time>
      </trkpt>
      <trkpt lat="45.76342" lon="4.81502">
        <ele>283</ele>
        <time>2012-03-04T08:10:36Z</time>
      </trkpt>
      <trkpt lat="45.76338" lon="4.81504">
        <ele>284</ele>
        <time>2012-03-04T08:10:38Z</time>
      </trkpt>
      <trkpt lat="45.76333" lon="4.81509">
        <ele>283</ele>
        <time>2012-03-04T08:10:41Z</time>
      </trkpt>
      <trkpt lat="45.76334" lon="4.81516">
        <ele>282</ele>
        <time>2012-03-04T08:10:43Z</time>
      </trkpt>
      <trkpt lat="45.76336" lon="4.81521">
        <ele>280</ele>
        <time>2012-03-04T08:10:45Z</time>
      </trkpt>
      <trkpt lat="45.76342" lon="4.81524">
        <ele>280</ele>
        <time>2012-03-04T08:10:48Z</time>
      </trkpt>
      <trkpt lat="45.76346" lon="4.81522">
        <ele>280</ele>
        <time>2012-03-04T08:10:50Z</time>
      </trkpt>
      <trkpt lat="45.76352" lon="4.81517">
        <ele>280</ele>
        <time>2012-03-04T08:10:53Z</time>
      </trkpt>
      <trkpt lat="45.76353" lon="4.81515">
        <ele>280</ele>
        <time>2012-03-04T08:10:54Z</time>
      </trkpt>
      <trkpt lat="45.76361" lon="4.81506">
        <ele>279</ele>
        <time>2012-03-04T08:10:59Z</time>
      </trkpt>
      <trkpt lat="45.76364" lon="4.81502">
        <ele>279</ele>
        <time>2012-03-04T08:11:01Z</time>
      </trkpt>
      <trkpt lat="45.76365" lon="4.81496">
        <ele>282</ele>
        <time>2012-03-04T08:11:03Z</time>
      </trkpt>
      <trkpt lat="45.76364" lon="4.81494">
        <ele>282</ele>
        <time>2012-03-04T08:11:04Z</time>
      </trkpt>
      <trkpt lat="45.76359" lon="4.81493">
        <ele>283</ele>
        <time>2012-03-04T08:11:07Z</time>
      </trkpt>
      <trkpt lat="45.76349" lon="4.81497">
        <ele>284</ele>
        <time>2012-03-04T08:11:12Z</time>
      </trkpt>
      <trkpt lat="45.76348" lon="4.81498">
        <ele>284</ele>
        <time>2012-03-04T08:11:13Z</time>
      </trkpt>
      <trkpt lat="45.76337" lon="4.81505">
        <ele>284</ele>
        <time>2012-03-04T08:11:19Z</time>
      </trkpt>
      <trkpt lat="45.76336" lon="4.81508">
        <ele>283</ele>
        <time>2012-03-04T08:11:20Z</time>
      </trkpt>
      <trkpt lat="45.76337" lon="4.81516">
        <ele>281</ele>
        <time>2012-03-04T08:11:23Z</time>
      </trkpt>
      <trkpt lat="45.76343" lon="4.81519">
        <ele>280</ele>
        <time>2012-03-04T08:11:27Z</time>
      </trkpt>
      <trkpt lat="45.76345" lon="4.81518">
        <ele>280</ele>
        <time>2012-03-04T08:11:28Z</time>
      </trkpt>
      <trkpt lat="45.76353" lon="4.8151">
        <ele>280</ele>
        <time>2012-03-04T08:11:33Z</time>
      </trkpt>
      <trkpt lat="45.76355" lon="4.81509">
        <ele>280</ele>
        <time>2012-03-04T08:11:34Z</time>
      </trkpt>
      <trkpt lat="45.76362" lon="4.81499">
        <ele>283</ele>
        <time>2012-03-04T08:11:40Z</time>
      </trkpt>
      <trkpt lat="45.76361" lon="4.81498">
        <ele>283</ele>
        <time>2012-03-04T08:11:41Z</time>
      </trkpt>
      <trkpt lat="45.76355" lon="4.81498">
        <ele>283</ele>
        <time>2012-03-04T08:11:45Z</time>
      </trkpt>
      <trkpt lat="45.76353" lon="4.81499">
        <ele>283</ele>
        <time>2012-03-04T08:11:46Z</time>
      </trkpt>
      <trkpt lat="45.76346" lon="4.81503">
        <ele>282</ele>
        <time>2012-03-04T08:11:50Z</time>
      </trkpt>
      <trkpt lat="45.7634" lon="4.81512">
        <ele>282</ele>
        <time>2012-03-04T08:11:55Z</time>
      </trkpt>
      <trkpt lat="45.7634" lon="4.81515">
        <ele>281</ele>
        <time>2012-03-04T08:11:56Z</time>
      </trkpt>
      <trkpt lat="45.76347" lon="4.81523">
        <ele>279</ele>
        <time>2012-03-04T08:12:01Z</time>
      </trkpt>
      <trkpt lat="45.76353" lon="4.81518">
        <ele>279</ele>
        <time>2012-03-04T08:12:04Z</time>
      </trkpt>
      <trkpt lat="45.7636" lon="4.81513">
        <ele>279</ele>
        <time>2012-03-04T08:12:07Z</time>
      </trkpt>
      <trkpt lat="45.76366" lon="4.81504">
        <ele>278</ele>
        <time>2012-03-04T08:12:11Z</time>
      </trkpt>
      <trkpt lat="45.76365" lon="4.81501">
        <ele>278</ele>
        <time>2012-03-04T08:12:12Z</time>
      </trkpt>
      <trkpt lat="45.76359" lon="4.81496">
        <ele>283</ele>
        <time>2012-03-04T08:12:16Z</time>
      </trkpt>
      <trkpt lat="45.76357" lon="4.81496">
        <ele>283</ele>
        <time>2012-03-04T08:12:17Z</time>
      </trkpt>
      <trkpt lat="45.76349" lon="4.81499">
        <ele>284</ele>
        <time>2012-03-04T08:12:21Z</time>
      </trkpt>
      <trkpt lat="45.76347" lon="4.81499">
        <ele>284</ele>
        <time>2012-03-04T08:12:22Z</time>
      </trkpt>
      <trkpt lat="45.7634" lon="4.81506">
        <ele>283</ele>
        <time>2012-03-04T08:12:26Z</time>
      </trkpt>
      <trkpt lat="45.76336" lon="4.81515">
        <ele>282</ele>
        <time>2012-03-04T08:12:30Z</time>
      </trkpt>
      <trkpt lat="45.76336" lon="4.81516">
        <ele>281</ele>
        <time>2012-03-04T08:12:31Z</time>
      </trkpt>
      <trkpt lat="45.76336" lon="4.81519">
        <ele>281</ele>
        <time>2012-03-04T08:12:33Z</time>
      </trkpt>
      <trkpt lat="45.76337" lon="4.81521">
        <ele>280</ele>
        <time>2012-03-04T08:12:37Z</time>
      </trkpt>
      <trkpt lat="45.76336" lon="4.81521">
        <ele>281</ele>
        <time>2012-03-04T08:12:58Z</time>
      </trkpt>
      <trkpt lat="45.76339" lon="4.81522">
        <ele>280</ele>
        <time>2012-03-04T08:14:12Z</time>
      </trkpt>
      <trkpt lat="45.76337" lon="4.81523">
        <ele>280</ele>
        <time>2012-03-04T08:14:23Z</time>
      </trkpt>
      <trkpt lat="45.76338" lon="4.81524">
        <ele>280</ele>
        <time>2012-03-04T08:14:24Z</time>
      </trkpt>
      <trkpt lat="45.76339" lon="4.81526">
        <ele>280</ele>
        <time>2012-03-04T08:14:25Z</time>
      </trkpt>
      <trkpt lat="45.7634" lon="4.81528">
        <ele>279</ele>
        <time>2012-03-04T08:14:26Z</time>
      </trkpt>
      <trkpt lat="45.76343" lon="4.81538">
        <ele>279</ele>
        <time>2012-03-04T08:14:31Z</time>
      </trkpt>
      <trkpt lat="45.76345" lon="4.81552">
        <ele>278</ele>
        <time>2012-03-04T08:14:34Z</time>
      </trkpt>
      <trkpt lat="45.76346" lon="4.81558">
        <ele>278</ele>
        <time>2012-03-04T08:14:35Z</time>
      </trkpt>
      <trkpt lat="45.76347" lon="4.81575">
        <ele>279</ele>
        <time>2012-03-04T08:14:39Z</time>
      </trkpt>
      <trkpt lat="45.76348" lon="4.81579">
        <ele>279</ele>
        <time>2012-03-04T08:14:40Z</time>
      </trkpt>
      <trkpt lat="45.76353" lon="4.81592">
        <ele>274</ele>
        <time>2012-03-04T08:14:44Z</time>
      </trkpt>
      <trkpt lat="45.76356" lon="4.81604">
        <ele>272</ele>
        <time>2012-03-04T08:14:48Z</time>
      </trkpt>
      <trkpt lat="45.76358" lon="4.81611">
        <ele>272</ele>
        <time>2012-03-04T08:14:50Z</time>
      </trkpt>
      <trkpt lat="45.76359" lon="4.81612">
        <ele>272</ele>
        <time>2012-03-04T08:14:54Z</time>
      </trkpt>
      <trkpt lat="45.76359" lon="4.8161">
        <ele>272</ele>
        <time>2012-03-04T08:14:55Z</time>
      </trkpt>
      <trkpt lat="45.76361" lon="4.816">
        <ele>272</ele>
        <time>2012-03-04T08:14:58Z</time>
      </trkpt>
      <trkpt lat="45.76366" lon="4.816">
        <ele>271</ele>
        <time>2012-03-04T08:15:01Z</time>
      </trkpt>
      <trkpt lat="45.76371" lon="4.81611">
        <ele>270</ele>
        <time>2012-03-04T08:15:05Z</time>
      </trkpt>
      <trkpt lat="45.76372" lon="4.81615">
        <ele>270</ele>
        <time>2012-03-04T08:15:06Z</time>
      </trkpt>
      <trkpt lat="45.76372" lon="4.81619">
        <ele>269</ele>
        <time>2012-03-04T08:15:07Z</time>
      </trkpt>
      <trkpt lat="45.76373" lon="4.81624">
        <ele>269</ele>
        <time>2012-03-04T08:15:09Z</time>
      </trkpt>
      <trkpt lat="45.76375" lon="4.81625">
        <ele>269</ele>
        <time>2012-03-04T08:15:10Z</time>
      </trkpt>
      <trkpt lat="45.76381" lon="4.81618">
        <ele>268</ele>
        <time>2012-03-04T08:15:14Z</time>
      </trkpt>
      <trkpt lat="45.76383" lon="4.81612">
        <ele>268</ele>
        <time>2012-03-04T08:15:16Z</time>
      </trkpt>
      <trkpt lat="45.76384" lon="4.81603">
        <ele>268</ele>
        <time>2012-03-04T08:15:19Z</time>
      </trkpt>
      <trkpt lat="45.76387" lon="4.81598">
        <ele>267</ele>
        <time>2012-03-04T08:15:21Z</time>
      </trkpt>
      <trkpt lat="45.76392" lon="4.81595">
        <ele>266</ele>
        <time>2012-03-04T08:15:23Z</time>
      </trkpt>
      <trkpt lat="45.76395" lon="4.81595">
        <ele>266</ele>
        <time>2012-03-04T08:15:24Z</time>
      </trkpt>
      <trkpt lat="45.764" lon="4.816">
        <ele>265</ele>
        <time>2012-03-04T08:15:26Z</time>
      </trkpt>
      <trkpt lat="45.76401" lon="4.81613">
        <ele>266</ele>
        <time>2012-03-04T08:15:29Z</time>
      </trkpt>
      <trkpt lat="45.76401" lon="4.81618">
        <ele>266</ele>
        <time>2012-03-04T08:15:30Z</time>
      </trkpt>
      <trkpt lat="45.764" lon="4.81636">
        <ele>265</ele>
        <time>2012-03-04T08:15:35Z</time>
      </trkpt>
      <trkpt lat="45.764" lon="4.81639">
        <ele>264</ele>
        <time>2012-03-04T08:15:36Z</time>
      </trkpt>
      <trkpt lat="45.764" lon="4.81644">
        <ele>264</ele>
        <time>2012-03-04T08:15:38Z</time>
      </trkpt>
      <trkpt lat="45.764" lon="4.81647">
        <ele>263</ele>
        <time>2012-03-04T08:15:39Z</time>
      </trkpt>
      <trkpt lat="45.76401" lon="4.81648">
        <ele>263</ele>
        <time>2012-03-04T08:15:40Z</time>
      </trkpt>
      <trkpt lat="45.764" lon="4.81645">
        <ele>263</ele>
        <time>2012-03-04T08:15:45Z</time>
      </trkpt>
      <trkpt lat="45.76402" lon="4.81637">
        <ele>264</ele>
        <time>2012-03-04T08:15:58Z</time>
      </trkpt>
      <trkpt lat="45.76404" lon="4.81623">
        <ele>265</ele>
        <time>2012-03-04T08:16:02Z</time>
      </trkpt>
      <trkpt lat="45.76408" lon="4.8162">
        <ele>265</ele>
        <time>2012-03-04T08:16:04Z</time>
      </trkpt>
      <trkpt lat="45.76408" lon="4.81623">
        <ele>265</ele>
        <time>2012-03-04T08:16:05Z</time>
      </trkpt>
      <trkpt lat="45.76405" lon="4.81638">
        <ele>264</ele>
        <time>2012-03-04T08:16:08Z</time>
      </trkpt>
      <trkpt lat="45.76405" lon="4.81644">
        <ele>263</ele>
        <time>2012-03-04T08:16:09Z</time>
      </trkpt>
      <trkpt lat="45.76405" lon="4.81649">
        <ele>262</ele>
        <time>2012-03-04T08:16:10Z</time>
      </trkpt>
      <trkpt lat="45.76406" lon="4.81656">
        <ele>260</ele>
        <time>2012-03-04T08:16:12Z</time>
      </trkpt>
      <trkpt lat="45.76412" lon="4.81647">
        <ele>261</ele>
        <time>2012-03-04T08:16:15Z</time>
      </trkpt>
      <trkpt lat="45.76415" lon="4.81644">
        <ele>262</ele>
        <time>2012-03-04T08:16:16Z</time>
      </trkpt>
      <trkpt lat="45.76424" lon="4.81639">
        <ele>249</ele>
        <time>2012-03-04T08:16:19Z</time>
      </trkpt>
      <trkpt lat="45.76426" lon="4.81649">
        <ele>249</ele>
        <time>2012-03-04T08:16:23Z</time>
      </trkpt>
      <trkpt lat="45.76425" lon="4.81654">
        <ele>249</ele>
        <time>2012-03-04T08:16:24Z</time>
      </trkpt>
      <trkpt lat="45.76425" lon="4.81658">
        <ele>250</ele>
        <time>2012-03-04T08:16:26Z</time>
      </trkpt>
      <trkpt lat="45.76426" lon="4.81656">
        <ele>250</ele>
        <time>2012-03-04T08:16:28Z</time>
      </trkpt>
      <trkpt lat="45.76434" lon="4.81655">
        <ele>248</ele>
        <time>2012-03-04T08:16:31Z</time>
      </trkpt>
      <trkpt lat="45.76438" lon="4.81658">
        <ele>248</ele>
        <time>2012-03-04T08:16:32Z</time>
      </trkpt>
      <trkpt lat="45.76441" lon="4.81663">
        <ele>247</ele>
        <time>2012-03-04T08:16:33Z</time>
      </trkpt>
      <trkpt lat="45.76449" lon="4.81673">
        <ele>241</ele>
        <time>2012-03-04T08:16:35Z</time>
      </trkpt>
      <trkpt lat="45.76454" lon="4.81685">
        <ele>240</ele>
        <time>2012-03-04T08:16:37Z</time>
      </trkpt>
      <trkpt lat="45.76456" lon="4.81692">
        <ele>239</ele>
        <time>2012-03-04T08:16:39Z</time>
      </trkpt>
      <trkpt lat="45.7646" lon="4.81698">
        <ele>238</ele>
        <time>2012-03-04T08:16:41Z</time>
      </trkpt>
      <trkpt lat="45.76464" lon="4.81702">
        <ele>238</ele>
        <time>2012-03-04T08:16:42Z</time>
      </trkpt>
      <trkpt lat="45.76467" lon="4.81705">
        <ele>237</ele>
        <time>2012-03-04T08:16:43Z</time>
      </trkpt>
      <trkpt lat="45.76475" lon="4.81701">
        <ele>236</ele>
        <time>2012-03-04T08:16:46Z</time>
      </trkpt>
      <trkpt lat="45.76483" lon="4.81695">
        <ele>235</ele>
        <time>2012-03-04T08:16:49Z</time>
      </trkpt>
      <trkpt lat="45.76487" lon="4.81697">
        <ele>235</ele>
        <time>2012-03-04T08:16:50Z</time>
      </trkpt>
      <trkpt lat="45.7649" lon="4.81699">
        <ele>234</ele>
        <time>2012-03-04T08:16:51Z</time>
      </trkpt>
      <trkpt lat="45.76501" lon="4.81703">
        <ele>219</ele>
        <time>2012-03-04T08:16:54Z</time>
      </trkpt>
      <trkpt lat="45.76508" lon="4.81705">
        <ele>219</ele>
        <time>2012-03-04T08:16:56Z</time>
      </trkpt>
      <trkpt lat="45.7652" lon="4.81711">
        <ele>218</ele>
        <time>2012-03-04T08:17:00Z</time>
      </trkpt>
      <trkpt lat="45.76529" lon="4.81711">
        <ele>216</ele>
        <time>2012-03-04T08:17:04Z</time>
      </trkpt>
      <trkpt lat="45.76531" lon="4.81709">
        <ele>216</ele>
        <time>2012-03-04T08:17:05Z</time>
      </trkpt>
      <trkpt lat="45.76531" lon="4.81703">
        <ele>217</ele>
        <time>2012-03-04T08:17:09Z</time>
      </trkpt>
      <trkpt lat="45.7653" lon="4.81702">
        <ele>217</ele>
        <time>2012-03-04T08:17:10Z</time>
      </trkpt>
      <trkpt lat="45.76528" lon="4.817">
        <ele>217</ele>
        <time>2012-03-04T08:17:12Z</time>
      </trkpt>
      <trkpt lat="45.76526" lon="4.81698">
        <ele>217</ele>
        <time>2012-03-04T08:17:14Z</time>
      </trkpt>
      <trkpt lat="45.7653" lon="4.81691">
        <ele>217</ele>
        <time>2012-03-04T08:17:18Z</time>
      </trkpt>
      <trkpt lat="45.76531" lon="4.8169">
        <ele>217</ele>
        <time>2012-03-04T08:17:19Z</time>
      </trkpt>
      <trkpt lat="45.76533" lon="4.81689">
        <ele>217</ele>
        <time>2012-03-04T08:17:24Z</time>
      </trkpt>
      <trkpt lat="45.76534" lon="4.81692">
        <ele>217</ele>
        <time>2012-03-04T08:18:04Z</time>
      </trkpt>
      <trkpt lat="45.76537" lon="4.81693">
        <ele>216</ele>
        <time>2012-03-04T08:18:05Z</time>
      </trkpt>
      <trkpt lat="45.76546" lon="4.81705">
        <ele>214</ele>
        <time>2012-03-04T08:18:10Z</time>
      </trkpt>
      <trkpt lat="45.76545" lon="4.81712">
        <ele>214</ele>
        <time>2012-03-04T08:18:12Z</time>
      </trkpt>
      <trkpt lat="45.76543" lon="4.81718">
        <ele>214</ele>
        <time>2012-03-04T08:18:14Z</time>
      </trkpt>
      <trkpt lat="45.76538" lon="4.81731">
        <ele>214</ele>
        <time>2012-03-04T08:18:19Z</time>
      </trkpt>
      <trkpt lat="45.7654" lon="4.81733">
        <ele>214</ele>
        <time>2012-03-04T08:18:21Z</time>
      </trkpt>
      <trkpt lat="45.76543" lon="4.81731">
        <ele>214</ele>
        <time>2012-03-04T08:18:22Z</time>
      </trkpt>
      <trkpt lat="45.7655" lon="4.81722">
        <ele>213</ele>
        <time>2012-03-04T08:18:27Z</time>
      </trkpt>
      <trkpt lat="45.76552" lon="4.81719">
        <ele>213</ele>
        <time>2012-03-04T08:18:28Z</time>
      </trkpt>
      <trkpt lat="45.76555" lon="4.81711">
        <ele>213</ele>
        <time>2012-03-04T08:18:32Z</time>
      </trkpt>
      <trkpt lat="45.76554" lon="4.81708">
        <ele>213</ele>
        <time>2012-03-04T08:18:34Z</time>
      </trkpt>
      <trkpt lat="45.76555" lon="4.81707">
        <ele>213</ele>
        <time>2012-03-04T08:18:35Z</time>
      </trkpt>
      <trkpt lat="45.76554" lon="4.81706">
        <ele>213</ele>
        <time>2012-03-04T08:18:42Z</time>
      </trkpt>
      <trkpt lat="45.76551" lon="4.81708">
        <ele>213</ele>
        <time>2012-03-04T08:19:02Z</time>
      </trkpt>
      <trkpt lat="45.76553" lon="4.81708">
        <ele>213</ele>
        <time>2012-03-04T08:19:06Z</time>
      </trkpt>
      <trkpt lat="45.76555" lon="4.81709">
        <ele>213</ele>
        <time>2012-03-04T08:19:38Z</time>
      </trkpt>
      <trkpt lat="45.76553" lon="4.81711">
        <ele>213</ele>
        <time>2012-03-04T08:19:43Z</time>
      </trkpt>
      <trkpt lat="45.76551" lon="4.81705">
        <ele>214</ele>
        <time>2012-03-04T08:19:58Z</time>
      </trkpt>
      <trkpt lat="45.76554" lon="4.81705">
        <ele>213</ele>
        <time>2012-03-04T08:20:13Z</time>
      </trkpt>
      <trkpt lat="45.76554" lon="4.81706">
        <ele>213</ele>
        <time>2012-03-04T08:20:16Z</time>
      </trkpt>
      <trkpt lat="45.76551" lon="4.81712">
        <ele>213</ele>
        <time>2012-03-04T08:20:46Z</time>
      </trkpt>
      <trkpt lat="45.76552" lon="4.81714">
        <ele>213</ele>
        <time>2012-03-04T08:20:47Z</time>
      </trkpt>
      <trkpt lat="45.76554" lon="4.81714">
        <ele>213</ele>
        <time>2012-03-04T08:20:49Z</time>
      </trkpt>
      <trkpt lat="45.76555" lon="4.81715">
        <ele>212</ele>
        <time>2012-03-04T08:20:50Z</time>
      </trkpt>
      <trkpt lat="45.76555" lon="4.81724">
        <ele>212</ele>
        <time>2012-03-04T08:20:54Z</time>
      </trkpt>
      <trkpt lat="45.76553" lon="4.81729">
        <ele>212</ele>
        <time>2012-03-04T08:20:56Z</time>
      </trkpt>
      <trkpt lat="45.7655" lon="4.81734">
        <ele>212</ele>
        <time>2012-03-04T08:20:58Z</time>
      </trkpt>
      <trkpt lat="45.76549" lon="4.81737">
        <ele>212</ele>
        <time>2012-03-04T08:20:59Z</time>
      </trkpt>
      <trkpt lat="45.76543" lon="4.8175">
        <ele>213</ele>
        <time>2012-03-04T08:21:03Z</time>
      </trkpt>
      <trkpt lat="45.76539" lon="4.81758">
        <ele>209</ele>
        <time>2012-03-04T08:21:06Z</time>
      </trkpt>
      <trkpt lat="45.76538" lon="4.81762">
        <ele>209</ele>
        <time>2012-03-04T08:21:07Z</time>
      </trkpt>
      <trkpt lat="45.76531" lon="4.81777">
        <ele>210</ele>
        <time>2012-03-04T08:21:12Z</time>
      </trkpt>
      <trkpt lat="45.76529" lon="4.81783">
        <ele>210</ele>
        <time>2012-03-04T08:21:14Z</time>
      </trkpt>
      <trkpt lat="45.76526" lon="4.81793">
        <ele>210</ele>
        <time>2012-03-04T08:21:17Z</time>
      </trkpt>
      <trkpt lat="45.76523" lon="4.81809">
        <ele>211</ele>
        <time>2012-03-04T08:21:22Z</time>
      </trkpt>
      <trkpt lat="45.76522" lon="4.81815">
        <ele>211</ele>
        <time>2012-03-04T08:21:24Z</time>
      </trkpt>
      <trkpt lat="45.7652" lon="4.81835">
        <ele>209</ele>
        <time>2012-03-04T08:21:30Z</time>
      </trkpt>
      <trkpt lat="45.7652" lon="4.81839">
        <ele>209</ele>
        <time>2012-03-04T08:21:31Z</time>
      </trkpt>
      <trkpt lat="45.76518" lon="4.81861">
        <ele>207</ele>
        <time>2012-03-04T08:21:37Z</time>
      </trkpt>
      <trkpt lat="45.76514" lon="4.8188">
        <ele>206</ele>
        <time>2012-03-04T08:21:42Z</time>
      </trkpt>
      <trkpt lat="45.76513" lon="4.81888">
        <ele>206</ele>
        <time>2012-03-04T08:21:44Z</time>
      </trkpt>
      <trkpt lat="45.76512" lon="4.81903">
        <ele>207</ele>
        <time>2012-03-04T08:21:48Z</time>
      </trkpt>
      <trkpt lat="45.76511" lon="4.81915">
        <ele>209</ele>
        <time>2012-03-04T08:21:51Z</time>
      </trkpt>
      <trkpt lat="45.76511" lon="4.81923">
        <ele>208</ele>
        <time>2012-03-04T08:21:53Z</time>
      </trkpt>
      <trkpt lat="45.76508" lon="4.81941">
        <ele>206</ele>
        <time>2012-03-04T08:21:58Z</time>
      </trkpt>
      <trkpt lat="45.76504" lon="4.81962">
        <ele>206</ele>
        <time>2012-03-04T08:22:03Z</time>
      </trkpt>
      <trkpt lat="45.76503" lon="4.81969">
        <ele>206</ele>
        <time>2012-03-04T08:22:05Z</time>
      </trkpt>
      <trkpt lat="45.765" lon="4.81981">
        <ele>208</ele>
        <time>2012-03-04T08:22:08Z</time>
      </trkpt>
      <trkpt lat="45.76497" lon="4.81996">
        <ele>218</ele>
        <time>2012-03-04T08:22:12Z</time>
      </trkpt>
      <trkpt lat="45.76497" lon="4.82004">
        <ele>219</ele>
        <time>2012-03-04T08:22:14Z</time>
      </trkpt>
      <trkpt lat="45.76498" lon="4.82018">
        <ele>224</ele>
        <time>2012-03-04T08:22:18Z</time>
      </trkpt>
      <trkpt lat="45.76501" lon="4.82024">
        <ele>213</ele>
        <time>2012-03-04T08:22:20Z</time>
      </trkpt>
      <trkpt lat="45.76505" lon="4.82029">
        <ele>213</ele>
        <time>2012-03-04T08:22:23Z</time>
      </trkpt>
      <trkpt lat="45.76514" lon="4.82041">
        <ele>213</ele>
        <time>2012-03-04T08:22:28Z</time>
      </trkpt>
      <trkpt lat="45.76516" lon="4.82044">
        <ele>213</ele>
        <time>2012-03-04T08:22:29Z</time>
      </trkpt>
      <trkpt lat="45.76522" lon="4.82058">
        <ele>215</ele>
        <time>2012-03-04T08:22:34Z</time>
      </trkpt>
      <trkpt lat="45.76523" lon="4.82064">
        <ele>215</ele>
        <time>2012-03-04T08:22:36Z</time>
      </trkpt>
      <trkpt lat="45.76529" lon="4.82074">
        <ele>215</ele>
        <time>2012-03-04T08:22:40Z</time>
      </trkpt>
      <trkpt lat="45.76534" lon="4.82084">
        <ele>225</ele>
        <time>2012-03-04T08:22:45Z</time>
      </trkpt>
      <trkpt lat="45.76535" lon="4.82085">
        <ele>225</ele>
        <time>2012-03-04T08:22:46Z</time>
      </trkpt>
      <trkpt lat="45.76542" lon="4.82093">
        <ele>225</ele>
        <time>2012-03-04T08:22:50Z</time>
      </trkpt>
      <trkpt lat="45.7655" lon="4.82104">
        <ele>225</ele>
        <time>2012-03-04T08:22:55Z</time>
      </trkpt>
      <trkpt lat="45.76551" lon="4.82107">
        <ele>225</ele>
        <time>2012-03-04T08:22:56Z</time>
      </trkpt>
      <trkpt lat="45.76555" lon="4.82115">
        <ele>225</ele>
        <time>2012-03-04T08:22:59Z</time>
      </trkpt>
      <trkpt lat="45.76563" lon="4.82118">
        <ele>225</ele>
        <time>2012-03-04T08:23:02Z</time>
      </trkpt>
      <trkpt lat="45.76565" lon="4.8212">
        <ele>225</ele>
        <time>2012-03-04T08:23:03Z</time>
      </trkpt>
      <trkpt lat="45.76567" lon="4.82125">
        <ele>226</ele>
        <time>2012-03-04T08:23:05Z</time>
      </trkpt>
      <trkpt lat="45.76579" lon="4.82132">
        <ele>226</ele>
        <time>2012-03-04T08:23:11Z</time>
      </trkpt>
      <trkpt lat="45.76582" lon="4.82132">
        <ele>226</ele>
        <time>2012-03-04T08:23:12Z</time>
      </trkpt>
      <trkpt lat="45.76594" lon="4.82133">
        <ele>208</ele>
        <time>2012-03-04T08:23:17Z</time>
      </trkpt>
      <trkpt lat="45.76601" lon="4.82135">
        <ele>207</ele>
        <time>2012-03-04T08:23:20Z</time>
      </trkpt>
      <trkpt lat="45.76609" lon="4.82135">
        <ele>205</ele>
        <time>2012-03-04T08:23:22Z</time>
      </trkpt>
      <trkpt lat="45.7662" lon="4.82143">
        <ele>204</ele>
        <time>2012-03-04T08:23:27Z</time>
      </trkpt>
      <trkpt lat="45.76629" lon="4.82158">
        <ele>203</ele>
        <time>2012-03-04T08:23:32Z</time>
      </trkpt>
      <trkpt lat="45.76632" lon="4.82163">
        <ele>203</ele>
        <time>2012-03-04T08:23:34Z</time>
      </trkpt>
      <trkpt lat="45.76635" lon="4.82177">
        <ele>212</ele>
        <time>2012-03-04T08:23:38Z</time>
      </trkpt>
      <trkpt lat="45.76634" lon="4.8219">
        <ele>213</ele>
        <time>2012-03-04T08:23:41Z</time>
      </trkpt>
      <trkpt lat="45.76631" lon="4.82201">
        <ele>214</ele>
        <time>2012-03-04T08:23:44Z</time>
      </trkpt>
      <trkpt lat="45.76628" lon="4.82216">
        <ele>216</ele>
        <time>2012-03-04T08:23:49Z</time>
      </trkpt>
      <trkpt lat="45.76627" lon="4.8223">
        <ele>216</ele>
        <time>2012-03-04T08:23:54Z</time>
      </trkpt>
      <trkpt lat="45.76627" lon="4.82244">
        <ele>217</ele>
        <time>2012-03-04T08:23:58Z</time>
      </trkpt>
      <trkpt lat="45.76627" lon="4.82248">
        <ele>217</ele>
        <time>2012-03-04T08:23:59Z</time>
      </trkpt>
      <trkpt lat="45.76627" lon="4.82257">
        <ele>219</ele>
        <time>2012-03-04T08:24:01Z</time>
      </trkpt>
      <trkpt lat="45.76626" lon="4.82265">
        <ele>219</ele>
        <time>2012-03-04T08:24:03Z</time>
      </trkpt>
      <trkpt lat="45.76625" lon="4.82272">
        <ele>219</ele>
        <time>2012-03-04T08:24:05Z</time>
      </trkpt>
      <trkpt lat="45.76628" lon="4.82288">
        <ele>218</ele>
        <time>2012-03-04T08:24:09Z</time>
      </trkpt>
      <trkpt lat="45.76626" lon="4.82299">
        <ele>219</ele>
        <time>2012-03-04T08:24:12Z</time>
      </trkpt>
      <trkpt lat="45.76623" lon="4.82305">
        <ele>219</ele>
        <time>2012-03-04T08:24:14Z</time>
      </trkpt>
      <trkpt lat="45.76621" lon="4.82325">
        <ele>220</ele>
        <time>2012-03-04T08:24:19Z</time>
      </trkpt>
      <trkpt lat="45.76621" lon="4.82341">
        <ele>217</ele>
        <time>2012-03-04T08:24:23Z</time>
      </trkpt>
      <trkpt lat="45.7662" lon="4.82344">
        <ele>217</ele>
        <time>2012-03-04T08:24:24Z</time>
      </trkpt>
      <trkpt lat="45.7662" lon="4.82351">
        <ele>217</ele>
        <time>2012-03-04T08:24:26Z</time>
      </trkpt>
      <trkpt lat="45.76617" lon="4.82368">
        <ele>216</ele>
        <time>2012-03-04T08:24:30Z</time>
      </trkpt>
      <trkpt lat="45.76613" lon="4.82379">
        <ele>216</ele>
        <time>2012-03-04T08:24:34Z</time>
      </trkpt>
      <trkpt lat="45.76617" lon="4.82389">
        <ele>215</ele>
        <time>2012-03-04T08:24:36Z</time>
      </trkpt>
      <trkpt lat="45.76623" lon="4.82403">
        <ele>214</ele>
        <time>2012-03-04T08:24:40Z</time>
      </trkpt>
      <trkpt lat="45.76623" lon="4.82417">
        <ele>209</ele>
        <time>2012-03-04T08:24:43Z</time>
      </trkpt>
      <trkpt lat="45.76621" lon="4.82426">
        <ele>210</ele>
        <time>2012-03-04T08:24:47Z</time>
      </trkpt>
      <trkpt lat="45.76618" lon="4.82427">
        <ele>211</ele>
        <time>2012-03-04T08:24:56Z</time>
      </trkpt>
      <trkpt lat="45.76614" lon="4.82426">
        <ele>212</ele>
        <time>2012-03-04T08:25:06Z</time>
      </trkpt>
      <trkpt lat="45.76617" lon="4.82425">
        <ele>211</ele>
        <time>2012-03-04T08:25:36Z</time>
      </trkpt>
      <trkpt lat="45.76616" lon="4.82424">
        <ele>211</ele>
        <time>2012-03-04T08:25:41Z</time>
      </trkpt>
      <trkpt lat="45.76616" lon="4.82432">
        <ele>211</ele>
        <time>2012-03-04T08:26:20Z</time>
      </trkpt>
      <trkpt lat="45.76614" lon="4.82441">
        <ele>211</ele>
        <time>2012-03-04T08:26:24Z</time>
      </trkpt>
      <trkpt lat="45.76615" lon="4.82445">
        <ele>211</ele>
        <time>2012-03-04T08:26:26Z</time>
      </trkpt>
      <trkpt lat="45.76614" lon="4.8245">
        <ele>210</ele>
        <time>2012-03-04T08:26:29Z</time>
      </trkpt>
      <trkpt lat="45.76614" lon="4.82452">
        <ele>210</ele>
        <time>2012-03-04T08:26:30Z</time>
      </trkpt>
      <trkpt lat="45.76612" lon="4.82461">
        <ele>210</ele>
        <time>2012-03-04T08:26:36Z</time>
      </trkpt>
      <trkpt lat="45.76614" lon="4.82463">
        <ele>210</ele>
        <time>2012-03-04T08:26:53Z</time>
      </trkpt>
      <trkpt lat="45.76612" lon="4.82461">
        <ele>210</ele>
        <time>2012-03-04T08:26:55Z</time>
      </trkpt>
      <trkpt lat="45.76611" lon="4.8246">
        <ele>211</ele>
        <time>2012-03-04T08:27:06Z</time>
      </trkpt>
      <trkpt lat="45.76613" lon="4.82459">
        <ele>210</ele>
        <time>2012-03-04T08:29:34Z</time>
      </trkpt>
      <trkpt lat="45.76613" lon="4.82458">
        <ele>210</ele>
        <time>2012-03-04T08:29:41Z</time>
      </trkpt>
      <trkpt lat="45.76614" lon="4.82459">
        <ele>210</ele>
        <time>2012-03-04T08:29:50Z</time>
      </trkpt>
      <trkpt lat="45.76617" lon="4.82461">
        <ele>209</ele>
        <time>2012-03-04T08:31:28Z</time>
      </trkpt>
      <trkpt lat="45.76613" lon="4.82457">
        <ele>210</ele>
        <time>2012-03-04T08:31:53Z</time>
      </trkpt>
      <trkpt lat="45.76612" lon="4.82457">
        <ele>211</ele>
        <time>2012-03-04T08:31:57Z</time>
      </trkpt>
      <trkpt lat="45.7661" lon="4.82456">
        <ele>211</ele>
        <time>2012-03-04T08:31:59Z</time>
      </trkpt>
      <trkpt lat="45.76606" lon="4.82454">
        <ele>212</ele>
        <time>2012-03-04T08:32:01Z</time>
      </trkpt>
      <trkpt lat="45.76605" lon="4.82455">
        <ele>212</ele>
        <time>2012-03-04T08:32:02Z</time>
      </trkpt>
      <trkpt lat="45.766" lon="4.82451">
        <ele>213</ele>
        <time>2012-03-04T08:32:05Z</time>
      </trkpt>
      <trkpt lat="45.76599" lon="4.82449">
        <ele>213</ele>
        <time>2012-03-04T08:32:06Z</time>
      </trkpt>
      <trkpt lat="45.76595" lon="4.82438">
        <ele>216</ele>
        <time>2012-03-04T08:32:12Z</time>
      </trkpt>
      <trkpt lat="45.76594" lon="4.82437">
        <ele>216</ele>
        <time>2012-03-04T08:32:13Z</time>
      </trkpt>
      <trkpt lat="45.76593" lon="4.82436">
        <ele>217</ele>
        <time>2012-03-04T08:32:14Z</time>
      </trkpt>
      <trkpt lat="45.76592" lon="4.82431">
        <ele>218</ele>
        <time>2012-03-04T08:32:17Z</time>
      </trkpt>
      <trkpt lat="45.76588" lon="4.8243">
        <ele>220</ele>
        <time>2012-03-04T08:32:19Z</time>
      </trkpt>
      <trkpt lat="45.76583" lon="4.82427">
        <ele>230</ele>
        <time>2012-03-04T08:32:22Z</time>
      </trkpt>
      <trkpt lat="45.76578" lon="4.82423">
        <ele>230</ele>
        <time>2012-03-04T08:32:26Z</time>
      </trkpt>
      <trkpt lat="45.76575" lon="4.8242">
        <ele>230</ele>
        <time>2012-03-04T08:32:28Z</time>
      </trkpt>
      <trkpt lat="45.76572" lon="4.82417">
        <ele>233</ele>
        <time>2012-03-04T08:32:31Z</time>
      </trkpt>
      <trkpt lat="45.76569" lon="4.82416">
        <ele>234</ele>
        <time>2012-03-04T08:32:33Z</time>
      </trkpt>
      <trkpt lat="45.76567" lon="4.82416">
        <ele>235</ele>
        <time>2012-03-04T08:32:35Z</time>
      </trkpt>
      <trkpt lat="45.76563" lon="4.82415">
        <ele>236</ele>
        <time>2012-03-04T08:32:38Z</time>
      </trkpt>
      <trkpt lat="45.76561" lon="4.82414">
        <ele>237</ele>
        <time>2012-03-04T08:32:40Z</time>
      </trkpt>
      <trkpt lat="45.76559" lon="4.8241">
        <ele>238</ele>
        <time>2012-03-04T08:32:44Z</time>
      </trkpt>
      <trkpt lat="45.76558" lon="4.82408">
        <ele>238</ele>
        <time>2012-03-04T08:32:45Z</time>
      </trkpt>
      <trkpt lat="45.76557" lon="4.824">
        <ele>239</ele>
        <time>2012-03-04T08:32:50Z</time>
      </trkpt>
      <trkpt lat="45.76556" lon="4.82397">
        <ele>239</ele>
        <time>2012-03-04T08:32:52Z</time>
      </trkpt>
      <trkpt lat="45.76553" lon="4.82396">
        <ele>240</ele>
        <time>2012-03-04T08:32:54Z</time>
      </trkpt>
      <trkpt lat="45.76552" lon="4.82392">
        <ele>240</ele>
        <time>2012-03-04T08:32:57Z</time>
      </trkpt>
      <trkpt lat="45.7655" lon="4.8239">
        <ele>241</ele>
        <time>2012-03-04T08:33:01Z</time>
      </trkpt>
      <trkpt lat="45.76549" lon="4.8239">
        <ele>241</ele>
        <time>2012-03-04T08:33:03Z</time>
      </trkpt>
      <trkpt lat="45.76547" lon="4.82389">
        <ele>241</ele>
        <time>2012-03-04T08:33:05Z</time>
      </trkpt>
      <trkpt lat="45.76541" lon="4.82383">
        <ele>242</ele>
        <time>2012-03-04T08:33:12Z</time>
      </trkpt>
      <trkpt lat="45.76541" lon="4.82377">
        <ele>243</ele>
        <time>2012-03-04T08:33:16Z</time>
      </trkpt>
      <trkpt lat="45.7654" lon="4.82376">
        <ele>243</ele>
        <time>2012-03-04T08:33:17Z</time>
      </trkpt>
      <trkpt lat="45.76538" lon="4.82374">
        <ele>243</ele>
        <time>2012-03-04T08:33:19Z</time>
      </trkpt>
      <trkpt lat="45.76537" lon="4.82372">
        <ele>243</ele>
        <time>2012-03-04T08:33:20Z</time>
      </trkpt>
      <trkpt lat="45.76535" lon="4.8237">
        <ele>244</ele>
        <time>2012-03-04T08:33:23Z</time>
      </trkpt>
      <trkpt lat="45.7653" lon="4.82365">
        <ele>245</ele>
        <time>2012-03-04T08:33:28Z</time>
      </trkpt>
      <trkpt lat="45.76528" lon="4.82363">
        <ele>246</ele>
        <time>2012-03-04T08:33:30Z</time>
      </trkpt>
      <trkpt lat="45.76526" lon="4.82361">
        <ele>246</ele>
        <time>2012-03-04T08:33:32Z</time>
      </trkpt>
      <trkpt lat="45.76523" lon="4.8236">
        <ele>247</ele>
        <time>2012-03-04T08:33:35Z</time>
      </trkpt>
      <trkpt lat="45.76522" lon="4.82359">
        <ele>247</ele>
        <time>2012-03-04T08:33:38Z</time>
      </trkpt>
      <trkpt lat="45.76521" lon="4.82358">
        <ele>247</ele>
        <time>2012-03-04T08:33:39Z</time>
      </trkpt>
      <trkpt lat="45.76516" lon="4.82351">
        <ele>250</ele>
        <time>2012-03-04T08:33:46Z</time>
      </trkpt>
      <trkpt lat="45.76511" lon="4.82347">
        <ele>252</ele>
        <time>2012-03-04T08:33:51Z</time>
      </trkpt>
      <trkpt lat="45.76509" lon="4.82344">
        <ele>253</ele>
        <time>2012-03-04T08:33:54Z</time>
      </trkpt>
      <trkpt lat="45.76506" lon="4.82343">
        <ele>254</ele>
        <time>2012-03-04T08:33:56Z</time>
      </trkpt>
      <trkpt lat="45.76503" lon="4.82342">
        <ele>255</ele>
        <time>2012-03-04T08:33:58Z</time>
      </trkpt>
      <trkpt lat="45.765" lon="4.8234">
        <ele>257</ele>
        <time>2012-03-04T08:34:00Z</time>
      </trkpt>
      <trkpt lat="45.76498" lon="4.82337">
        <ele>261</ele>
        <time>2012-03-04T08:34:03Z</time>
      </trkpt>
      <trkpt lat="45.76498" lon="4.82337">
        <ele>261</ele>
        <time>2012-03-04T08:34:04Z</time>
      </trkpt>
      <trkpt lat="45.76493" lon="4.82332">
        <ele>263</ele>
        <time>2012-03-04T08:34:09Z</time>
      </trkpt>
      <trkpt lat="45.76491" lon="4.82331">
        <ele>264</ele>
        <time>2012-03-04T08:34:11Z</time>
      </trkpt>
      <trkpt lat="45.76488" lon="4.82326">
        <ele>265</ele>
        <time>2012-03-04T08:34:15Z</time>
      </trkpt>
      <trkpt lat="45.76487" lon="4.82325">
        <ele>265</ele>
        <time>2012-03-04T08:34:16Z</time>
      </trkpt>
      <trkpt lat="45.76483" lon="4.82317">
        <ele>266</ele>
        <time>2012-03-04T08:34:22Z</time>
      </trkpt>
      <trkpt lat="45.76481" lon="4.82314">
        <ele>267</ele>
        <time>2012-03-04T08:34:25Z</time>
      </trkpt>
      <trkpt lat="45.76478" lon="4.82313">
        <ele>267</ele>
        <time>2012-03-04T08:34:27Z</time>
      </trkpt>
      <trkpt lat="45.76478" lon="4.82311">
        <ele>267</ele>
        <time>2012-03-04T08:34:28Z</time>
      </trkpt>
      <trkpt lat="45.76477" lon="4.82307">
        <ele>268</ele>
        <time>2012-03-04T08:34:32Z</time>
      </trkpt>
      <trkpt lat="45.76477" lon="4.82306">
        <ele>268</ele>
        <time>2012-03-04T08:34:35Z</time>
      </trkpt>
      <trkpt lat="45.76469" lon="4.82299">
        <ele>269</ele>
        <time>2012-03-04T08:34:42Z</time>
      </trkpt>
      <trkpt lat="45.76466" lon="4.82295">
        <ele>269</ele>
        <time>2012-03-04T08:34:47Z</time>
      </trkpt>
      <trkpt lat="45.76466" lon="4.82294">
        <ele>269</ele>
        <time>2012-03-04T08:34:48Z</time>
      </trkpt>
      <trkpt lat="45.76463" lon="4.82291">
        <ele>270</ele>
        <time>2012-03-04T08:34:52Z</time>
      </trkpt>
      <trkpt lat="45.76461" lon="4.82291">
        <ele>270</ele>
        <time>2012-03-04T08:34:53Z</time>
      </trkpt>
      <trkpt lat="45.76457" lon="4.8229">
        <ele>270</ele>
        <time>2012-03-04T08:34:57Z</time>
      </trkpt>
      <trkpt lat="45.76453" lon="4.82287">
        <ele>271</ele>
        <time>2012-03-04T08:35:02Z</time>
      </trkpt>
      <trkpt lat="45.76447" lon="4.82282">
        <ele>272</ele>
        <time>2012-03-04T08:35:05Z</time>
      </trkpt>
      <trkpt lat="45.76445" lon="4.82281">
        <ele>272</ele>
        <time>2012-03-04T08:35:06Z</time>
      </trkpt>
      <trkpt lat="45.7644" lon="4.8228">
        <ele>273</ele>
        <time>2012-03-04T08:35:09Z</time>
      </trkpt>
      <trkpt lat="45.76437" lon="4.82279">
        <ele>273</ele>
        <time>2012-03-04T08:35:11Z</time>
      </trkpt>
      <trkpt lat="45.76435" lon="4.82279">
        <ele>273</ele>
        <time>2012-03-04T08:35:13Z</time>
      </trkpt>
      <trkpt lat="45.76435" lon="4.82279">
        <ele>273</ele>
        <time>2012-03-04T08:35:14Z</time>
      </trkpt>
      <trkpt lat="45.76433" lon="4.82281">
        <ele>273</ele>
        <time>2012-03-04T08:35:19Z</time>
      </trkpt>
      <trkpt lat="45.76432" lon="4.8228">
        <ele>274</ele>
        <time>2012-03-04T08:35:20Z</time>
      </trkpt>
      <trkpt lat="45.76431" lon="4.82278">
        <ele>274</ele>
        <time>2012-03-04T08:35:22Z</time>
      </trkpt>
      <trkpt lat="45.76428" lon="4.82275">
        <ele>275</ele>
        <time>2012-03-04T08:35:26Z</time>
      </trkpt>
      <trkpt lat="45.76425" lon="4.82272">
        <ele>276</ele>
        <time>2012-03-04T08:35:32Z</time>
      </trkpt>
      <trkpt lat="45.76421" lon="4.82271">
        <ele>276</ele>
        <time>2012-03-04T08:35:35Z</time>
      </trkpt>
      <trkpt lat="45.76417" lon="4.82271">
        <ele>276</ele>
        <time>2012-03-04T08:35:38Z</time>
      </trkpt>
      <trkpt lat="45.76414" lon="4.82269">
        <ele>283</ele>
        <time>2012-03-04T08:35:41Z</time>
      </trkpt>
      <trkpt lat="45.76409" lon="4.82267">
        <ele>284</ele>
        <time>2012-03-04T08:35:43Z</time>
      </trkpt>
      <trkpt lat="45.76404" lon="4.82263">
        <ele>284</ele>
        <time>2012-03-04T08:35:46Z</time>
      </trkpt>
      <trkpt lat="45.76398" lon="4.82265">
        <ele>284</ele>
        <time>2012-03-04T08:35:50Z</time>
      </trkpt>
      <trkpt lat="45.76395" lon="4.82265">
        <ele>284</ele>
        <time>2012-03-04T08:35:52Z</time>
      </trkpt>
      <trkpt lat="45.76392" lon="4.82267">
        <ele>284</ele>
        <time>2012-03-04T08:35:54Z</time>
      </trkpt>
      <trkpt lat="45.76389" lon="4.8227">
        <ele>284</ele>
        <time>2012-03-04T08:35:56Z</time>
      </trkpt>
      <trkpt lat="45.76382" lon="4.82263">
        <ele>285</ele>
        <time>2012-03-04T08:36:01Z</time>
      </trkpt>
      <trkpt lat="45.7638" lon="4.82259">
        <ele>285</ele>
        <time>2012-03-04T08:36:02Z</time>
      </trkpt>
      <trkpt lat="45.76378" lon="4.82247">
        <ele>288</ele>
        <time>2012-03-04T08:36:06Z</time>
      </trkpt>
      <trkpt lat="45.76379" lon="4.82232">
        <ele>287</ele>
        <time>2012-03-04T08:36:11Z</time>
      </trkpt>
      <trkpt lat="45.76378" lon="4.82227">
        <ele>287</ele>
        <time>2012-03-04T08:36:13Z</time>
      </trkpt>
      <trkpt lat="45.7637" lon="4.82225">
        <ele>288</ele>
        <time>2012-03-04T08:36:16Z</time>
      </trkpt>
      <trkpt lat="45.76363" lon="4.82222">
        <ele>289</ele>
        <time>2012-03-04T08:36:19Z</time>
      </trkpt>
      <trkpt lat="45.76359" lon="4.8222">
        <ele>289</ele>
        <time>2012-03-04T08:36:21Z</time>
      </trkpt>
      <trkpt lat="45.76356" lon="4.82213">
        <ele>289</ele>
        <time>2012-03-04T08:36:25Z</time>
      </trkpt>
      <trkpt lat="45.76356" lon="4.82213">
        <ele>289</ele>
        <time>2012-03-04T08:36:26Z</time>
      </trkpt>
      <trkpt lat="45.76354" lon="4.82218">
        <ele>290</ele>
        <time>2012-03-04T08:36:38Z</time>
      </trkpt>
      <trkpt lat="45.76354" lon="4.82219">
        <ele>290</ele>
        <time>2012-03-04T08:36:39Z</time>
      </trkpt>
      <trkpt lat="45.76354" lon="4.82218">
        <ele>290</ele>
        <time>2012-03-04T08:36:42Z</time>
      </trkpt>
      <trkpt lat="45.76355" lon="4.82215">
        <ele>289</ele>
        <time>2012-03-04T08:36:52Z</time>
      </trkpt>
      <trkpt lat="45.76355" lon="4.82213">
        <ele>289</ele>
        <time>2012-03-04T08:36:57Z</time>
      </trkpt>
      <trkpt lat="45.76355" lon="4.8221">
        <ele>289</ele>
        <time>2012-03-04T08:37:03Z</time>
      </trkpt>
      <trkpt lat="45.76355" lon="4.8221">
        <ele>289</ele>
        <time>2012-03-04T08:37:22Z</time>
      </trkpt>
      <trkpt lat="45.76354" lon="4.82213">
        <ele>289</ele>
        <time>2012-03-04T08:37:44Z</time>
      </trkpt>
      <trkpt lat="45.76355" lon="4.82212">
        <ele>289</ele>
        <time>2012-03-04T08:37:49Z</time>
      </trkpt>
      <trkpt lat="45.76354" lon="4.82207">
        <ele>289</ele>
        <time>2012-03-04T08:38:18Z</time>
      </trkpt>
      <trkpt lat="45.76354" lon="4.82204">
        <ele>289</ele>
        <time>2012-03-04T08:38:22Z</time>
      </trkpt>
      <trkpt lat="45.76354" lon="4.82202">
        <ele>289</ele>
        <time>2012-03-04T08:38:23Z</time>
      </trkpt>
      <trkpt lat="45.76355" lon="4.82198">
        <ele>289</ele>
        <time>2012-03-04T08:38:25Z</time>
      </trkpt>
      <trkpt lat="45.76355" lon="4.82192">
        <ele>289</ele>
        <time>2012-03-04T08:38:27Z</time>
      </trkpt>
      <trkpt lat="45.76352" lon="4.82184">
        <ele>290</ele>
        <time>2012-03-04T08:38:30Z</time>
      </trkpt>
      <trkpt lat="45.76351" lon="4.82181">
        <ele>290</ele>
        <time>2012-03-04T08:38:31Z</time>
      </trkpt>
      <trkpt lat="45.76347" lon="4.82167">
        <ele>292</ele>
        <time>2012-03-04T08:38:36Z</time>
      </trkpt>
      <trkpt lat="45.76347" lon="4.8216">
        <ele>286</ele>
        <time>2012-03-04T08:38:41Z</time>
      </trkpt>
      <trkpt lat="45.76347" lon="4.8216">
        <ele>285</ele>
        <time>2012-03-04T08:38:42Z</time>
      </trkpt>
      <trkpt lat="45.76346" lon="4.82157">
        <ele>285</ele>
        <time>2012-03-04T08:38:52Z</time>
      </trkpt>
      <trkpt lat="45.76345" lon="4.82154">
        <ele>285</ele>
        <time>2012-03-04T08:40:11Z</time>
      </trkpt>
      <trkpt lat="45.76345" lon="4.82149">
        <ele>283</ele>
        <time>2012-03-04T08:40:14Z</time>
      </trkpt>
      <trkpt lat="45.76345" lon="4.82145">
        <ele>282</ele>
        <time>2012-03-04T08:40:17Z</time>
      </trkpt>
      <trkpt lat="45.76345" lon="4.82144">
        <ele>281</ele>
        <time>2012-03-04T08:40:19Z</time>
      </trkpt>
      <trkpt lat="45.76346" lon="4.82143">
        <ele>281</ele>
        <time>2012-03-04T08:40:43Z</time>
      </trkpt>
      <trkpt lat="45.76344" lon="4.82148">
        <ele>283</ele>
        <time>2012-03-04T08:42:09Z</time>
      </trkpt>
      <trkpt lat="45.76344" lon="4.82151">
        <ele>284</ele>
        <time>2012-03-04T08:42:34Z</time>
      </trkpt>
      <trkpt lat="45.76342" lon="4.82144">
        <ele>282</ele>
        <time>2012-03-04T08:43:01Z</time>
      </trkpt>
      <trkpt lat="45.76339" lon="4.82145">
        <ele>282</ele>
        <time>2012-03-04T08:43:16Z</time>
      </trkpt>
      <trkpt lat="45.76342" lon="4.82141">
        <ele>281</ele>
        <time>2012-03-04T08:43:53Z</time>
      </trkpt>
      <trkpt lat="45.7634" lon="4.82142">
        <ele>281</ele>
        <time>2012-03-04T08:44:24Z</time>
      </trkpt>
      <trkpt lat="45.76338" lon="4.82142">
        <ele>282</ele>
        <time>2012-03-04T08:44:29Z</time>
      </trkpt>
      <trkpt lat="45.76338" lon="4.82147">
        <ele>283</ele>
        <time>2012-03-04T08:44:45Z</time>
      </trkpt>
      <trkpt lat="45.7634" lon="4.82159">
        <ele>288</ele>
        <time>2012-03-04T08:44:51Z</time>
      </trkpt>
      <trkpt lat="45.76342" lon="4.82166">
        <ele>289</ele>
        <time>2012-03-04T08:44:57Z</time>
      </trkpt>
      <trkpt lat="45.76341" lon="4.82165">
        <ele>289</ele>
        <time>2012-03-04T08:44:58Z</time>
      </trkpt>
      <trkpt lat="45.76341" lon="4.8216">
        <ele>288</ele>
        <time>2012-03-04T08:45:02Z</time>
      </trkpt>
      <trkpt lat="45.76341" lon="4.82159">
        <ele>288</ele>
        <time>2012-03-04T08:45:09Z</time>
      </trkpt>
      <trkpt lat="45.76338" lon="4.82158">
        <ele>288</ele>
        <time>2012-03-04T08:45:35Z</time>
      </trkpt>
      <trkpt lat="45.76334" lon="4.82156">
        <ele>288</ele>
        <time>2012-03-04T08:45:38Z</time>
      </trkpt>
      <trkpt lat="45.7633" lon="4.82153">
        <ele>292</ele>
        <time>2012-03-04T08:45:41Z</time>
      </trkpt>
      <trkpt lat="45.76326" lon="4.8215">
        <ele>291</ele>
        <time>2012-03-04T08:45:44Z</time>
      </trkpt>
      <trkpt lat="45.76326" lon="4.82145">
        <ele>290</ele>
        <time>2012-03-04T08:45:47Z</time>
      </trkpt>
      <trkpt lat="45.76325" lon="4.82142">
        <ele>290</ele>
        <time>2012-03-04T08:45:49Z</time>
      </trkpt>
      <trkpt lat="45.76324" lon="4.82138">
        <ele>289</ele>
        <time>2012-03-04T08:45:53Z</time>
      </trkpt>
      <trkpt lat="45.76323" lon="4.82137">
        <ele>289</ele>
        <time>2012-03-04T08:45:54Z</time>
      </trkpt>
      <trkpt lat="45.76323" lon="4.82135">
        <ele>288</ele>
        <time>2012-03-04T08:45:57Z</time>
      </trkpt>
      <trkpt lat="45.76322" lon="4.82133">
        <ele>288</ele>
        <time>2012-03-04T08:45:59Z</time>
      </trkpt>
      <trkpt lat="45.76322" lon="4.82132">
        <ele>288</ele>
        <time>2012-03-04T08:47:25Z</time>
      </trkpt>
      <trkpt lat="45.76323" lon="4.8213">
        <ele>288</ele>
        <time>2012-03-04T08:47:45Z</time>
      </trkpt>
      <trkpt lat="45.76323" lon="4.82124">
        <ele>287</ele>
        <time>2012-03-04T08:47:47Z</time>
      </trkpt>
      <trkpt lat="45.76322" lon="4.82115">
        <ele>285</ele>
        <time>2012-03-04T08:47:49Z</time>
      </trkpt>
      <trkpt lat="45.7632" lon="4.82102">
        <ele>283</ele>
        <time>2012-03-04T08:47:52Z</time>
      </trkpt>
      <trkpt lat="45.76316" lon="4.82089">
        <ele>281</ele>
        <time>2012-03-04T08:47:55Z</time>
      </trkpt>
      <trkpt lat="45.76314" lon="4.82076">
        <ele>276</ele>
        <time>2012-03-04T08:47:58Z</time>
      </trkpt>
      <trkpt lat="45.76309" lon="4.82062">
        <ele>276</ele>
        <time>2012-03-04T08:48:01Z</time>
      </trkpt>
      <trkpt lat="45.76306" lon="4.82053">
        <ele>276</ele>
        <time>2012-03-04T08:48:03Z</time>
      </trkpt>
      <trkpt lat="45.76302" lon="4.82045">
        <ele>276</ele>
        <time>2012-03-04T08:48:07Z</time>
      </trkpt>
      <trkpt lat="45.76303" lon="4.82041">
        <ele>276</ele>
        <time>2012-03-04T08:48:10Z</time>
      </trkpt>
      <trkpt lat="45.76304" lon="4.8204">
        <ele>276</ele>
        <time>2012-03-04T08:48:12Z</time>
      </trkpt>
      <trkpt lat="45.76304" lon="4.82038">
        <ele>276</ele>
        <time>2012-03-04T08:48:14Z</time>
      </trkpt>
      <trkpt lat="45.76303" lon="4.82036">
        <ele>276</ele>
        <time>2012-03-04T08:48:17Z</time>
      </trkpt>
      <trkpt lat="45.76302" lon="4.82038">
        <ele>276</ele>
        <time>2012-03-04T08:48:23Z</time>
      </trkpt>
      <trkpt lat="45.76299" lon="4.82035">
        <ele>276</ele>
        <time>2012-03-04T08:48:27Z</time>
      </trkpt>
      <trkpt lat="45.76299" lon="4.82031">
        <ele>276</ele>
        <time>2012-03-04T08:48:29Z</time>
      </trkpt>
      <trkpt lat="45.76298" lon="4.82016">
        <ele>275</ele>
        <time>2012-03-04T08:48:33Z</time>
      </trkpt>
      <trkpt lat="45.763" lon="4.81989">
        <ele>273</ele>
        <time>2012-03-04T08:48:38Z</time>
      </trkpt>
      <trkpt lat="45.76302" lon="4.81978">
        <ele>272</ele>
        <time>2012-03-04T08:48:42Z</time>
      </trkpt>
      <trkpt lat="45.76302" lon="4.81976">
        <ele>272</ele>
        <time>2012-03-04T08:48:47Z</time>
      </trkpt>
      <trkpt lat="45.76303" lon="4.81973">
        <ele>272</ele>
        <time>2012-03-04T08:49:00Z</time>
      </trkpt>
      <trkpt lat="45.76304" lon="4.81972">
        <ele>272</ele>
        <time>2012-03-04T08:49:11Z</time>
      </trkpt>
      <trkpt lat="45.76307" lon="4.81973">
        <ele>272</ele>
        <time>2012-03-04T08:49:49Z</time>
      </trkpt>
      <trkpt lat="45.76307" lon="4.81974">
        <ele>272</ele>
        <time>2012-03-04T08:49:51Z</time>
      </trkpt>
      <trkpt lat="45.76307" lon="4.81976">
        <ele>272</ele>
        <time>2012-03-04T08:49:56Z</time>
      </trkpt>
      <trkpt lat="45.76307" lon="4.81975">
        <ele>272</ele>
        <time>2012-03-04T08:50:11Z</time>
      </trkpt>
      <trkpt lat="45.76307" lon="4.8197">
        <ele>272</ele>
        <time>2012-03-04T08:50:17Z</time>
      </trkpt>
      <trkpt lat="45.76307" lon="4.81959">
        <ele>272</ele>
        <time>2012-03-04T08:50:22Z</time>
      </trkpt>
      <trkpt lat="45.76307" lon="4.81953">
        <ele>272</ele>
        <time>2012-03-04T08:50:24Z</time>
      </trkpt>
      <trkpt lat="45.76308" lon="4.81951">
        <ele>272</ele>
        <time>2012-03-04T08:50:25Z</time>
      </trkpt>
      <trkpt lat="45.76309" lon="4.81948">
        <ele>272</ele>
        <time>2012-03-04T08:50:26Z</time>
      </trkpt>
      <trkpt lat="45.76313" lon="4.81936">
        <ele>271</ele>
        <time>2012-03-04T08:50:30Z</time>
      </trkpt>
      <trkpt lat="45.76316" lon="4.81927">
        <ele>271</ele>
        <time>2012-03-04T08:50:33Z</time>
      </trkpt>
      <trkpt lat="45.76318" lon="4.81919">
        <ele>270</ele>
        <time>2012-03-04T08:50:35Z</time>
      </trkpt>
      <trkpt lat="45.76325" lon="4.81902">
        <ele>272</ele>
        <time>2012-03-04T08:50:40Z</time>
      </trkpt>
      <trkpt lat="45.76328" lon="4.81891">
        <ele>273</ele>
        <time>2012-03-04T08:50:45Z</time>
      </trkpt>
      <trkpt lat="45.7633" lon="4.81886">
        <ele>274</ele>
        <time>2012-03-04T08:50:49Z</time>
      </trkpt>
      <trkpt lat="45.7633" lon="4.81886">
        <ele>274</ele>
        <time>2012-03-04T08:50:51Z</time>
      </trkpt>
      <trkpt lat="45.76333" lon="4.81879">
        <ele>275</ele>
        <time>2012-03-04T08:50:58Z</time>
      </trkpt>
      <trkpt lat="45.76335" lon="4.81865">
        <ele>263</ele>
        <time>2012-03-04T08:51:03Z</time>
      </trkpt>
      <trkpt lat="45.76335" lon="4.81853">
        <ele>267</ele>
        <time>2012-03-04T08:51:07Z</time>
      </trkpt>
      <trkpt lat="45.76336" lon="4.8185">
        <ele>268</ele>
        <time>2012-03-04T08:51:08Z</time>
      </trkpt>
      <trkpt lat="45.76338" lon="4.81841">
        <ele>271</ele>
        <time>2012-03-04T08:51:11Z</time>
      </trkpt>
      <trkpt lat="45.76339" lon="4.81835">
        <ele>273</ele>
        <time>2012-03-04T08:51:13Z</time>
      </trkpt>
      <trkpt lat="45.76339" lon="4.81827">
        <ele>273</ele>
        <time>2012-03-04T08:51:16Z</time>
      </trkpt>
      <trkpt lat="45.76339" lon="4.81823">
        <ele>272</ele>
        <time>2012-03-04T08:51:18Z</time>
      </trkpt>
      <trkpt lat="45.76338" lon="4.81819">
        <ele>271</ele>
        <time>2012-03-04T08:51:22Z</time>
      </trkpt>
      <trkpt lat="45.76337" lon="4.81818">
        <ele>271</ele>
        <time>2012-03-04T08:51:24Z</time>
      </trkpt>
      <trkpt lat="45.76333" lon="4.8181">
        <ele>281</ele>
        <time>2012-03-04T08:51:39Z</time>
      </trkpt>
      <trkpt lat="45.76327" lon="4.81809">
        <ele>281</ele>
        <time>2012-03-04T08:51:59Z</time>
      </trkpt>
      <trkpt lat="45.76332" lon="4.81804">
        <ele>281</ele>
        <time>2012-03-04T08:52:37Z</time>
      </trkpt>
      <trkpt lat="45.76332" lon="4.81797">
        <ele>282</ele>
        <time>2012-03-04T08:52:39Z</time>
      </trkpt>
      <trkpt lat="45.76329" lon="4.81774">
        <ele>283</ele>
        <time>2012-03-04T08:52:43Z</time>
      </trkpt>
      <trkpt lat="45.7633" lon="4.81744">
        <ele>284</ele>
        <time>2012-03-04T08:52:48Z</time>
      </trkpt>
      <trkpt lat="45.76333" lon="4.81727">
        <ele>274</ele>
        <time>2012-03-04T08:52:51Z</time>
      </trkpt>
      <trkpt lat="45.76334" lon="4.81722">
        <ele>273</ele>
        <time>2012-03-04T08:52:52Z</time>
      </trkpt>
      <trkpt lat="45.76334" lon="4.81716">
        <ele>272</ele>
        <time>2012-03-04T08:52:53Z</time>
      </trkpt>
      <trkpt lat="45.76332" lon="4.81704">
        <ele>284</ele>
        <time>2012-03-04T08:52:55Z</time>
      </trkpt>
      <trkpt lat="45.76331" lon="4.81699">
        <ele>284</ele>
        <time>2012-03-04T08:52:56Z</time>
      </trkpt>
      <trkpt lat="45.76329" lon="4.81689">
        <ele>283</ele>
        <time>2012-03-04T08:52:58Z</time>
      </trkpt>
      <trkpt lat="45.76329" lon="4.81683">
        <ele>283</ele>
        <time>2012-03-04T08:53:00Z</time>
      </trkpt>
      <trkpt lat="45.76328" lon="4.8168">
        <ele>282</ele>
        <time>2012-03-04T08:53:02Z</time>
      </trkpt>
      <trkpt lat="45.76329" lon="4.81681">
        <ele>282</ele>
        <time>2012-03-04T08:53:04Z</time>
      </trkpt>
      <trkpt lat="45.76329" lon="4.81682">
        <ele>282</ele>
        <time>2012-03-04T08:53:05Z</time>
      </trkpt>
      <trkpt lat="45.76329" lon="4.81684">
        <ele>283</ele>
        <time>2012-03-04T08:53:11Z</time>
      </trkpt>
      <trkpt lat="45.7633" lon="4.81684">
        <ele>283</ele>
        <time>2012-03-04T08:53:12Z</time>
      </trkpt>
      <trkpt lat="45.76332" lon="4.81684">
        <ele>283</ele>
        <time>2012-03-04T08:53:16Z</time>
      </trkpt>
      <trkpt lat="45.76331" lon="4.81683">
        <ele>282</ele>
        <time>2012-03-04T08:53:22Z</time>
      </trkpt>
      <trkpt lat="45.76333" lon="4.81681">
        <ele>282</ele>
        <time>2012-03-04T08:53:27Z</time>
      </trkpt>
      <trkpt lat="45.7633" lon="4.81681">
        <ele>282</ele>
        <time>2012-03-04T08:53:31Z</time>
      </trkpt>
      <trkpt lat="45.76329" lon="4.81683">
        <ele>283</ele>
        <time>2012-03-04T08:53:42Z</time>
      </trkpt>
      <trkpt lat="45.76329" lon="4.81684">
        <ele>283</ele>
        <time>2012-03-04T08:54:13Z</time>
      </trkpt>
      <trkpt lat="45.7633" lon="4.81681">
        <ele>282</ele>
        <time>2012-03-04T08:54:18Z</time>
      </trkpt>
      <trkpt lat="45.7633" lon="4.81677">
        <ele>282</ele>
        <time>2012-03-04T08:54:28Z</time>
      </trkpt>
      <trkpt lat="45.76332" lon="4.81672">
        <ele>281</ele>
        <time>2012-03-04T08:54:34Z</time>
      </trkpt>
      <trkpt lat="45.76332" lon="4.81673">
        <ele>281</ele>
        <time>2012-03-04T08:54:39Z</time>
      </trkpt>
      <trkpt lat="45.7633" lon="4.81671">
        <ele>281</ele>
        <time>2012-03-04T08:54:56Z</time>
      </trkpt>
      <trkpt lat="45.76343" lon="4.81689">
        <ele>272</ele>
        <time>2012-03-04T08:55:48Z</time>
      </trkpt>
      <trkpt lat="45.76343" lon="4.8169">
        <ele>272</ele>
        <time>2012-03-04T08:55:49Z</time>
      </trkpt>
      <trkpt lat="45.7634" lon="4.81688">
        <ele>273</ele>
        <time>2012-03-04T08:55:56Z</time>
      </trkpt>
      <trkpt lat="45.76338" lon="4.81688">
        <ele>273</ele>
        <time>2012-03-04T08:56:00Z</time>
      </trkpt>
      <trkpt lat="45.76338" lon="4.81688">
        <ele>273</ele>
        <time>2012-03-04T08:56:04Z</time>
      </trkpt>
      <trkpt lat="45.76338" lon="4.81687">
        <ele>273</ele>
        <time>2012-03-04T08:56:05Z</time>
      </trkpt>
      <trkpt lat="45.76337" lon="4.81689">
        <ele>273</ele>
        <time>2012-03-04T08:56:11Z</time>
      </trkpt>
      <trkpt lat="45.7633" lon="4.81684">
        <ele>283</ele>
        <time>2012-03-04T08:56:19Z</time>
      </trkpt>
      <trkpt lat="45.76329" lon="4.8168">
        <ele>282</ele>
        <time>2012-03-04T08:56:23Z</time>
      </trkpt>
      <trkpt lat="45.7633" lon="4.81678">
        <ele>282</ele>
        <time>2012-03-04T08:56:32Z</time>
      </trkpt>
      <trkpt lat="45.76333" lon="4.81681">
        <ele>282</ele>
        <time>2012-03-04T08:56:36Z</time>
      </trkpt>
      <trkpt lat="45.76332" lon="4.81679">
        <ele>282</ele>
        <time>2012-03-04T08:56:55Z</time>
      </trkpt>
      <trkpt lat="45.76332" lon="4.81679">
        <ele>282</ele>
        <time>2012-03-04T08:56:58Z</time>
      </trkpt>
      <trkpt lat="45.76331" lon="4.81681">
        <ele>282</ele>
        <time>2012-03-04T08:56:59Z</time>
      </trkpt>
      <trkpt lat="45.76337" lon="4.8168">
        <ele>274</ele>
        <time>2012-03-04T08:57:16Z</time>
      </trkpt>
      <trkpt lat="45.76338" lon="4.81681">
        <ele>274</ele>
        <time>2012-03-04T08:57:17Z</time>
      </trkpt>
      <trkpt lat="45.76341" lon="4.81683">
        <ele>273</ele>
        <time>2012-03-04T08:57:27Z</time>
      </trkpt>
      <trkpt lat="45.76341" lon="4.81684">
        <ele>273</ele>
        <time>2012-03-04T08:57:33Z</time>
      </trkpt>
      <trkpt lat="45.76336" lon="4.81678">
        <ele>275</ele>
        <time>2012-03-04T08:57:43Z</time>
      </trkpt>
      <trkpt lat="45.76335" lon="4.81684">
        <ele>274</ele>
        <time>2012-03-04T08:57:53Z</time>
      </trkpt>
      <trkpt lat="45.76335" lon="4.81684">
        <ele>274</ele>
        <time>2012-03-04T08:57:54Z</time>
      </trkpt>
      <trkpt lat="45.76336" lon="4.81685">
        <ele>273</ele>
        <time>2012-03-04T08:58:06Z</time>
      </trkpt>
      <trkpt lat="45.76337" lon="4.81686">
        <ele>273</ele>
        <time>2012-03-04T08:58:09Z</time>
      </trkpt>
      <trkpt lat="45.76336" lon="4.81689">
        <ele>273</ele>
        <time>2012-03-04T08:58:11Z</time>
      </trkpt>
      <trkpt lat="45.76333" lon="4.81692">
        <ele>273</ele>
        <time>2012-03-04T08:58:15Z</time>
      </trkpt>
      <trkpt lat="45.76332" lon="4.81694">
        <ele>283</ele>
        <time>2012-03-04T08:58:18Z</time>
      </trkpt>
      <trkpt lat="45.76331" lon="4.81696">
        <ele>283</ele>
        <time>2012-03-04T08:58:21Z</time>
      </trkpt>
      <trkpt lat="45.76333" lon="4.81696">
        <ele>283</ele>
        <time>2012-03-04T08:58:22Z</time>
      </trkpt>
      <trkpt lat="45.76337" lon="4.81697">
        <ele>272</ele>
        <time>2012-03-04T08:58:26Z</time>
      </trkpt>
      <trkpt lat="45.76334" lon="4.81694">
        <ele>272</ele>
        <time>2012-03-04T08:58:32Z</time>
      </trkpt>
      <trkpt lat="45.76328" lon="4.81691">
        <ele>283</ele>
        <time>2012-03-04T08:58:39Z</time>
      </trkpt>
      <trkpt lat="45.76326" lon="4.81688">
        <ele>283</ele>
        <time>2012-03-04T08:58:47Z</time>
      </trkpt>
      <trkpt lat="45.76329" lon="4.81689">
        <ele>283</ele>
        <time>2012-03-04T08:58:54Z</time>
      </trkpt>
      <trkpt lat="45.76329" lon="4.81692">
        <ele>283</ele>
        <time>2012-03-04T08:59:01Z</time>
      </trkpt>
      <trkpt lat="45.7633" lon="4.81688">
        <ele>283</ele>
        <time>2012-03-04T08:59:07Z</time>
      </trkpt>
      <trkpt lat="45.76334" lon="4.81691">
        <ele>273</ele>
        <time>2012-03-04T08:59:18Z</time>
      </trkpt>
      <trkpt lat="45.76328" lon="4.81675">
        <ele>282</ele>
        <time>2012-03-04T08:59:37Z</time>
      </trkpt>
      <trkpt lat="45.76329" lon="4.81665">
        <ele>281</ele>
        <time>2012-03-04T08:59:40Z</time>
      </trkpt>
      <trkpt lat="45.76329" lon="4.81657">
        <ele>282</ele>
        <time>2012-03-04T08:59:42Z</time>
      </trkpt>
      <trkpt lat="45.7633" lon="4.81644">
        <ele>283</ele>
        <time>2012-03-04T08:59:46Z</time>
      </trkpt>
      <trkpt lat="45.76331" lon="4.81638">
        <ele>283</ele>
        <time>2012-03-04T08:59:48Z</time>
      </trkpt>
      <trkpt lat="45.76333" lon="4.81628">
        <ele>284</ele>
        <time>2012-03-04T08:59:51Z</time>
      </trkpt>
      <trkpt lat="45.76334" lon="4.8161">
        <ele>275</ele>
        <time>2012-03-04T08:59:56Z</time>
      </trkpt>
      <trkpt lat="45.76334" lon="4.81606">
        <ele>275</ele>
        <time>2012-03-04T08:59:57Z</time>
      </trkpt>
      <trkpt lat="45.76336" lon="4.81588">
        <ele>280</ele>
        <time>2012-03-04T09:00:02Z</time>
      </trkpt>
      <trkpt lat="45.76336" lon="4.81581">
        <ele>281</ele>
        <time>2012-03-04T09:00:04Z</time>
      </trkpt>
      <trkpt lat="45.76336" lon="4.81578">
        <ele>280</ele>
        <time>2012-03-04T09:00:06Z</time>
      </trkpt>
      <trkpt lat="45.76337" lon="4.81576">
        <ele>280</ele>
        <time>2012-03-04T09:00:08Z</time>
      </trkpt>
      <trkpt lat="45.76341" lon="4.81568">
        <ele>279</ele>
        <time>2012-03-04T09:00:13Z</time>
      </trkpt>
      <trkpt lat="45.76341" lon="4.8156">
        <ele>278</ele>
        <time>2012-03-04T09:00:15Z</time>
      </trkpt>
      <trkpt lat="45.7634" lon="4.81556">
        <ele>278</ele>
        <time>2012-03-04T09:00:16Z</time>
      </trkpt>
      <trkpt lat="45.76339" lon="4.8155">
        <ele>278</ele>
        <time>2012-03-04T09:00:18Z</time>
      </trkpt>
      <trkpt lat="45.76336" lon="4.81535">
        <ele>279</ele>
        <time>2012-03-04T09:00:23Z</time>
      </trkpt>
      <trkpt lat="45.76336" lon="4.81529">
        <ele>280</ele>
        <time>2012-03-04T09:00:25Z</time>
      </trkpt>
      <trkpt lat="45.76336" lon="4.81517">
        <ele>281</ele>
        <time>2012-03-04T09:00:29Z</time>
      </trkpt>
      <trkpt lat="45.76338" lon="4.81511">
        <ele>282</ele>
        <time>2012-03-04T09:00:33Z</time>
      </trkpt>
      <trkpt lat="45.7634" lon="4.81507">
        <ele>283</ele>
        <time>2012-03-04T09:00:34Z</time>
      </trkpt>
      <trkpt lat="45.76341" lon="4.81506">
        <ele>283</ele>
        <time>2012-03-04T09:00:35Z</time>
      </trkpt>
      <trkpt lat="45.76342" lon="4.81504">
        <ele>283</ele>
        <time>2012-03-04T09:00:37Z</time>
      </trkpt>
      <trkpt lat="45.76344" lon="4.81501">
        <ele>282</ele>
        <time>2012-03-04T09:00:39Z</time>
      </trkpt>
      <trkpt lat="45.76345" lon="4.81499">
        <ele>284</ele>
        <time>2012-03-04T09:00:41Z</time>
      </trkpt>
      <trkpt lat="45.76346" lon="4.81497">
        <ele>284</ele>
        <time>2012-03-04T09:00:43Z</time>
      </trkpt>
      <trkpt lat="45.76343" lon="4.81502">
        <ele>283</ele>
        <time>2012-03-04T09:00:48Z</time>
      </trkpt>
      <trkpt lat="45.76342" lon="4.81504">
        <ele>283</ele>
        <time>2012-03-04T09:00:54Z</time>
      </trkpt>
      <trkpt lat="45.76343" lon="4.81501">
        <ele>283</ele>
        <time>2012-03-04T09:00:58Z</time>
      </trkpt>
      <trkpt lat="45.76345" lon="4.81499">
        <ele>284</ele>
        <time>2012-03-04T09:01:05Z</time>
      </trkpt>
      <trkpt lat="45.76346" lon="4.8149">
        <ele>284</ele>
        <time>2012-03-04T09:01:31Z</time>
      </trkpt>
      <trkpt lat="45.76347" lon="4.81489">
        <ele>284</ele>
        <time>2012-03-04T09:01:37Z</time>
      </trkpt>
      <trkpt lat="45.76345" lon="4.81491">
        <ele>284</ele>
        <time>2012-03-04T09:01:44Z</time>
      </trkpt>
      <trkpt lat="45.76345" lon="4.8149">
        <ele>284</ele>
        <time>2012-03-04T09:01:46Z</time>
      </trkpt>
      <trkpt lat="45.76343" lon="4.8149">
        <ele>284</ele>
        <time>2012-03-04T09:01:58Z</time>
      </trkpt>
      <trkpt lat="45.76344" lon="4.81492">
        <ele>284</ele>
        <time>2012-03-04T09:02:19Z</time>
      </trkpt>
      <trkpt lat="45.76346" lon="4.81492">
        <ele>284</ele>
        <time>2012-03-04T09:02:24Z</time>
      </trkpt>
      <trkpt lat="45.76344" lon="4.81498">
        <ele>284</ele>
        <time>2012-03-04T09:03:27Z</time>
      </trkpt>
      <trkpt lat="45.76344" lon="4.81502">
        <ele>283</ele>
        <time>2012-03-04T09:03:32Z</time>
      </trkpt>
      <trkpt lat="45.76344" lon="4.81502">
        <ele>282</ele>
        <time>2012-03-04T09:03:38Z</time>
      </trkpt>
      <trkpt lat="45.76344" lon="4.815">
        <ele>284</ele>
        <time>2012-03-04T09:03:55Z</time>
      </trkpt>
      <trkpt lat="45.76348" lon="4.81498">
        <ele>284</ele>
        <time>2012-03-04T09:04:02Z</time>
      </trkpt>
      <trkpt lat="45.76349" lon="4.81496">
        <ele>284</ele>
        <time>2012-03-04T09:04:07Z</time>
      </trkpt>
      <trkpt lat="45.76348" lon="4.81502">
        <ele>282</ele>
        <time>2012-03-04T09:04:12Z</time>
      </trkpt>
      <trkpt lat="45.76345" lon="4.81515">
        <ele>281</ele>
        <time>2012-03-04T09:04:16Z</time>
      </trkpt>
      <trkpt lat="45.76343" lon="4.81539">
        <ele>278</ele>
        <time>2012-03-04T09:04:21Z</time>
      </trkpt>
      <trkpt lat="45.76343" lon="4.81546">
        <ele>278</ele>
        <time>2012-03-04T09:04:22Z</time>
      </trkpt>
      <trkpt lat="45.76344" lon="4.81565">
        <ele>278</ele>
        <time>2012-03-04T09:04:25Z</time>
      </trkpt>
      <trkpt lat="45.76344" lon="4.81576">
        <ele>279</ele>
        <time>2012-03-04T09:04:27Z</time>
      </trkpt>
      <trkpt lat="45.76346" lon="4.81583">
        <ele>279</ele>
        <time>2012-03-04T09:04:29Z</time>
      </trkpt>
      <trkpt lat="45.76352" lon="4.81599">
        <ele>274</ele>
        <time>2012-03-04T09:04:33Z</time>
      </trkpt>
      <trkpt lat="45.76356" lon="4.81615">
        <ele>272</ele>
        <time>2012-03-04T09:04:37Z</time>
      </trkpt>
      <trkpt lat="45.76359" lon="4.81613">
        <ele>272</ele>
        <time>2012-03-04T09:04:39Z</time>
      </trkpt>
      <trkpt lat="45.7636" lon="4.81607">
        <ele>272</ele>
        <time>2012-03-04T09:04:40Z</time>
      </trkpt>
      <trkpt lat="45.76366" lon="4.81594">
        <ele>271</ele>
        <time>2012-03-04T09:04:44Z</time>
      </trkpt>
      <trkpt lat="45.76373" lon="4.816">
        <ele>270</ele>
        <time>2012-03-04T09:04:46Z</time>
      </trkpt>
      <trkpt lat="45.76373" lon="4.81605">
        <ele>270</ele>
        <time>2012-03-04T09:04:47Z</time>
      </trkpt>
      <trkpt lat="45.76373" lon="4.81611">
        <ele>269</ele>
        <time>2012-03-04T09:04:48Z</time>
      </trkpt>
      <trkpt lat="45.76377" lon="4.81621">
        <ele>269</ele>
        <time>2012-03-04T09:04:51Z</time>
      </trkpt>
      <trkpt lat="45.76379" lon="4.81619">
        <ele>268</ele>
        <time>2012-03-04T09:04:52Z</time>
      </trkpt>
      <trkpt lat="45.76383" lon="4.81607">
        <ele>268</ele>
        <time>2012-03-04T09:04:55Z</time>
      </trkpt>
      <trkpt lat="45.76391" lon="4.81595">
        <ele>267</ele>
        <time>2012-03-04T09:04:59Z</time>
      </trkpt>
      <trkpt lat="45.764" lon="4.81599">
        <ele>265</ele>
        <time>2012-03-04T09:05:03Z</time>
      </trkpt>
      <trkpt lat="45.76401" lon="4.81605">
        <ele>265</ele>
        <time>2012-03-04T09:05:04Z</time>
      </trkpt>
      <trkpt lat="45.76402" lon="4.8162">
        <ele>265</ele>
        <time>2012-03-04T09:05:06Z</time>
      </trkpt>
      <trkpt lat="45.76402" lon="4.81626">
        <ele>265</ele>
        <time>2012-03-04T09:05:07Z</time>
      </trkpt>
      <trkpt lat="45.76401" lon="4.81631">
        <ele>265</ele>
        <time>2012-03-04T09:05:08Z</time>
      </trkpt>
      <trkpt lat="45.764" lon="4.81642">
        <ele>264</ele>
        <time>2012-03-04T09:05:10Z</time>
      </trkpt>
      <trkpt lat="45.764" lon="4.81646">
        <ele>263</ele>
        <time>2012-03-04T09:05:11Z</time>
      </trkpt>
      <trkpt lat="45.76403" lon="4.8164">
        <ele>264</ele>
        <time>2012-03-04T09:05:14Z</time>
      </trkpt>
      <trkpt lat="45.76404" lon="4.81635">
        <ele>264</ele>
        <time>2012-03-04T09:05:15Z</time>
      </trkpt>
      <trkpt lat="45.76406" lon="4.81621">
        <ele>265</ele>
        <time>2012-03-04T09:05:17Z</time>
      </trkpt>
      <trkpt lat="45.76408" lon="4.81618">
        <ele>265</ele>
        <time>2012-03-04T09:05:20Z</time>
      </trkpt>
      <trkpt lat="45.76409" lon="4.81623">
        <ele>265</ele>
        <time>2012-03-04T09:05:21Z</time>
      </trkpt>
      <trkpt lat="45.76407" lon="4.81639">
        <ele>263</ele>
        <time>2012-03-04T09:05:24Z</time>
      </trkpt>
      <trkpt lat="45.76408" lon="4.81648">
        <ele>262</ele>
        <time>2012-03-04T09:05:27Z</time>
      </trkpt>
      <trkpt lat="45.76409" lon="4.81649">
        <ele>261</ele>
        <time>2012-03-04T09:05:28Z</time>
      </trkpt>
      <trkpt lat="45.76412" lon="4.81648">
        <ele>261</ele>
        <time>2012-03-04T09:05:29Z</time>
      </trkpt>
      <trkpt lat="45.7642" lon="4.81636">
        <ele>249</ele>
        <time>2012-03-04T09:05:32Z</time>
      </trkpt>
      <trkpt lat="45.76423" lon="4.81634">
        <ele>249</ele>
        <time>2012-03-04T09:05:33Z</time>
      </trkpt>
      <trkpt lat="45.76427" lon="4.81638">
        <ele>249</ele>
        <time>2012-03-04T09:05:35Z</time>
      </trkpt>
      <trkpt lat="45.76425" lon="4.81647">
        <ele>249</ele>
        <time>2012-03-04T09:05:36Z</time>
      </trkpt>
      <trkpt lat="45.76423" lon="4.81655">
        <ele>250</ele>
        <time>2012-03-04T09:05:38Z</time>
      </trkpt>
      <trkpt lat="45.76424" lon="4.81661">
        <ele>251</ele>
        <time>2012-03-04T09:05:40Z</time>
      </trkpt>
      <trkpt lat="45.76429" lon="4.81657">
        <ele>249</ele>
        <time>2012-03-04T09:05:43Z</time>
      </trkpt>
      <trkpt lat="45.76434" lon="4.81649">
        <ele>248</ele>
        <time>2012-03-04T09:05:45Z</time>
      </trkpt>
      <trkpt lat="45.76437" lon="4.81646">
        <ele>248</ele>
        <time>2012-03-04T09:05:46Z</time>
      </trkpt>
      <trkpt lat="45.76444" lon="4.81653">
        <ele>246</ele>
        <time>2012-03-04T09:05:50Z</time>
      </trkpt>
      <trkpt lat="45.76449" lon="4.81661">
        <ele>246</ele>
        <time>2012-03-04T09:05:52Z</time>
      </trkpt>
      <trkpt lat="45.76451" lon="4.81667">
        <ele>245</ele>
        <time>2012-03-04T09:05:53Z</time>
      </trkpt>
      <trkpt lat="45.76454" lon="4.81677">
        <ele>240</ele>
        <time>2012-03-04T09:05:55Z</time>
      </trkpt>
      <trkpt lat="45.76456" lon="4.8168">
        <ele>239</ele>
        <time>2012-03-04T09:05:56Z</time>
      </trkpt>
      <trkpt lat="45.76458" lon="4.81689">
        <ele>239</ele>
        <time>2012-03-04T09:05:58Z</time>
      </trkpt>
      <trkpt lat="45.7646" lon="4.81693">
        <ele>238</ele>
        <time>2012-03-04T09:05:59Z</time>
      </trkpt>
      <trkpt lat="45.76464" lon="4.81697">
        <ele>238</ele>
        <time>2012-03-04T09:06:01Z</time>
      </trkpt>
      <trkpt lat="45.76469" lon="4.81699">
        <ele>237</ele>
        <time>2012-03-04T09:06:02Z</time>
      </trkpt>
      <trkpt lat="45.76472" lon="4.81698">
        <ele>237</ele>
        <time>2012-03-04T09:06:03Z</time>
      </trkpt>
      <trkpt lat="45.76475" lon="4.81694">
        <ele>236</ele>
        <time>2012-03-04T09:06:04Z</time>
      </trkpt>
      <trkpt lat="45.76479" lon="4.81686">
        <ele>235</ele>
        <time>2012-03-04T09:06:06Z</time>
      </trkpt>
      <trkpt lat="45.76487" lon="4.81687">
        <ele>234</ele>
        <time>2012-03-04T09:06:09Z</time>
      </trkpt>
      <trkpt lat="45.7649" lon="4.81689">
        <ele>234</ele>
        <time>2012-03-04T09:06:10Z</time>
      </trkpt>
      <trkpt lat="45.76497" lon="4.81693">
        <ele>234</ele>
        <time>2012-03-04T09:06:12Z</time>
      </trkpt>
      <trkpt lat="45.76505" lon="4.81696">
        <ele>220</ele>
        <time>2012-03-04T09:06:14Z</time>
      </trkpt>
      <trkpt lat="45.76511" lon="4.81696">
        <ele>219</ele>
        <time>2012-03-04T09:06:15Z</time>
      </trkpt>
      <trkpt lat="45.76522" lon="4.81693">
        <ele>218</ele>
        <time>2012-03-04T09:06:18Z</time>
      </trkpt>
      <trkpt lat="45.7653" lon="4.81687">
        <ele>217</ele>
        <time>2012-03-04T09:06:21Z</time>
      </trkpt>
      <trkpt lat="45.76535" lon="4.81687">
        <ele>217</ele>
        <time>2012-03-04T09:06:23Z</time>
      </trkpt>
      <trkpt lat="45.76543" lon="4.81695">
        <ele>215</ele>
        <time>2012-03-04T09:06:27Z</time>
      </trkpt>
      <trkpt lat="45.76544" lon="4.81697">
        <ele>215</ele>
        <time>2012-03-04T09:06:28Z</time>
      </trkpt>
      <trkpt lat="45.76545" lon="4.817">
        <ele>215</ele>
        <time>2012-03-04T09:06:29Z</time>
      </trkpt>
      <trkpt lat="45.76544" lon="4.8171">
        <ele>214</ele>
        <time>2012-03-04T09:06:32Z</time>
      </trkpt>
      <trkpt lat="45.76539" lon="4.81724">
        <ele>215</ele>
        <time>2012-03-04T09:06:37Z</time>
      </trkpt>
      <trkpt lat="45.76541" lon="4.8173">
        <ele>214</ele>
        <time>2012-03-04T09:06:40Z</time>
      </trkpt>
      <trkpt lat="45.76541" lon="4.8173">
        <ele>214</ele>
        <time>2012-03-04T09:06:41Z</time>
      </trkpt>
      <trkpt lat="45.76541" lon="4.8173">
        <ele>214</ele>
        <time>2012-03-04T09:06:42Z</time>
      </trkpt>
      <trkpt lat="45.76542" lon="4.81726">
        <ele>214</ele>
        <time>2012-03-04T09:06:44Z</time>
      </trkpt>
      <trkpt lat="45.76545" lon="4.81721">
        <ele>214</ele>
        <time>2012-03-04T09:06:46Z</time>
      </trkpt>
      <trkpt lat="45.76548" lon="4.81715">
        <ele>213</ele>
        <time>2012-03-04T09:06:48Z</time>
      </trkpt>
      <trkpt lat="45.76549" lon="4.81712">
        <ele>213</ele>
        <time>2012-03-04T09:06:49Z</time>
      </trkpt>
      <trkpt lat="45.76554" lon="4.81703">
        <ele>213</ele>
        <time>2012-03-04T09:06:53Z</time>
      </trkpt>
      <trkpt lat="45.76555" lon="4.81704">
        <ele>213</ele>
        <time>2012-03-04T09:06:54Z</time>
      </trkpt>
      <trkpt lat="45.76556" lon="4.81711">
        <ele>213</ele>
        <time>2012-03-04T09:06:57Z</time>
      </trkpt>
      <trkpt lat="45.76555" lon="4.81715">
        <ele>213</ele>
        <time>2012-03-04T09:06:58Z</time>
      </trkpt>
      <trkpt lat="45.76551" lon="4.81724">
        <ele>212</ele>
        <time>2012-03-04T09:07:01Z</time>
      </trkpt>
      <trkpt lat="45.7655" lon="4.81728">
        <ele>212</ele>
        <time>2012-03-04T09:07:02Z</time>
      </trkpt>
      <trkpt lat="45.76547" lon="4.81735">
        <ele>213</ele>
        <time>2012-03-04T09:07:04Z</time>
      </trkpt>
      <trkpt lat="45.76542" lon="4.81747">
        <ele>213</ele>
        <time>2012-03-04T09:07:07Z</time>
      </trkpt>
      <trkpt lat="45.76536" lon="4.81761">
        <ele>210</ele>
        <time>2012-03-04T09:07:11Z</time>
      </trkpt>
      <trkpt lat="45.76533" lon="4.81768">
        <ele>210</ele>
        <time>2012-03-04T09:07:13Z</time>
      </trkpt>
      <trkpt lat="45.76527" lon="4.81783">
        <ele>210</ele>
        <time>2012-03-04T09:07:18Z</time>
      </trkpt>
      <trkpt lat="45.76523" lon="4.81805">
        <ele>211</ele>
        <time>2012-03-04T09:07:24Z</time>
      </trkpt>
      <trkpt lat="45.76523" lon="4.81808">
        <ele>211</ele>
        <time>2012-03-04T09:07:25Z</time>
      </trkpt>
      <trkpt lat="45.76521" lon="4.81827">
        <ele>212</ele>
        <time>2012-03-04T09:07:30Z</time>
      </trkpt>
      <trkpt lat="45.7652" lon="4.81835">
        <ele>209</ele>
        <time>2012-03-04T09:07:32Z</time>
      </trkpt>
      <trkpt lat="45.76519" lon="4.81845">
        <ele>209</ele>
        <time>2012-03-04T09:07:35Z</time>
      </trkpt>
      <trkpt lat="45.76517" lon="4.8186">
        <ele>207</ele>
        <time>2012-03-04T09:07:39Z</time>
      </trkpt>
      <trkpt lat="45.76517" lon="4.81863">
        <ele>207</ele>
        <time>2012-03-04T09:07:40Z</time>
      </trkpt>
      <trkpt lat="45.76514" lon="4.81884">
        <ele>206</ele>
        <time>2012-03-04T09:07:46Z</time>
      </trkpt>
      <trkpt lat="45.76514" lon="4.81888">
        <ele>206</ele>
        <time>2012-03-04T09:07:47Z</time>
      </trkpt>
      <trkpt lat="45.76509" lon="4.81915">
        <ele>210</ele>
        <time>2012-03-04T09:07:55Z</time>
      </trkpt>
      <trkpt lat="45.76505" lon="4.81937">
        <ele>207</ele>
        <time>2012-03-04T09:08:01Z</time>
      </trkpt>
      <trkpt lat="45.76505" lon="4.81941">
        <ele>206</ele>
        <time>2012-03-04T09:08:02Z</time>
      </trkpt>
      <trkpt lat="45.76501" lon="4.8196">
        <ele>206</ele>
        <time>2012-03-04T09:08:07Z</time>
      </trkpt>
      <trkpt lat="45.76501" lon="4.81967">
        <ele>206</ele>
        <time>2012-03-04T09:08:09Z</time>
      </trkpt>
      <trkpt lat="45.76498" lon="4.81988">
        <ele>220</ele>
        <time>2012-03-04T09:08:14Z</time>
      </trkpt>
      <trkpt lat="45.76497" lon="4.81996">
        <ele>218</ele>
        <time>2012-03-04T09:08:16Z</time>
      </trkpt>
      <trkpt lat="45.76496" lon="4.82005">
        <ele>220</ele>
        <time>2012-03-04T09:08:19Z</time>
      </trkpt>
      <trkpt lat="45.76496" lon="4.8201">
        <ele>222</ele>
        <time>2012-03-04T09:08:21Z</time>
      </trkpt>
      <trkpt lat="45.76498" lon="4.82016">
        <ele>223</ele>
        <time>2012-03-04T09:08:23Z</time>
      </trkpt>
      <trkpt lat="45.765" lon="4.82021">
        <ele>225</ele>
        <time>2012-03-04T09:08:25Z</time>
      </trkpt>
      <trkpt lat="45.76502" lon="4.82026">
        <ele>213</ele>
        <time>2012-03-04T09:08:27Z</time>
      </trkpt>
      <trkpt lat="45.76504" lon="4.8203">
        <ele>213</ele>
        <time>2012-03-04T09:08:29Z</time>
      </trkpt>
      <trkpt lat="45.7651" lon="4.82039">
        <ele>213</ele>
        <time>2012-03-04T09:08:33Z</time>
      </trkpt>
      <trkpt lat="45.76511" lon="4.82041">
        <ele>214</ele>
        <time>2012-03-04T09:08:34Z</time>
      </trkpt>
      <trkpt lat="45.76517" lon="4.82049">
        <ele>214</ele>
        <time>2012-03-04T09:08:38Z</time>
      </trkpt>
      <trkpt lat="45.76519" lon="4.8205">
        <ele>214</ele>
        <time>2012-03-04T09:08:39Z</time>
      </trkpt>
      <trkpt lat="45.76525" lon="4.82057">
        <ele>214</ele>
        <time>2012-03-04T09:08:43Z</time>
      </trkpt>
      <trkpt lat="45.76532" lon="4.8207">
        <ele>214</ele>
        <time>2012-03-04T09:08:48Z</time>
      </trkpt>
      <trkpt lat="45.76536" lon="4.8208">
        <ele>214</ele>
        <time>2012-03-04T09:08:52Z</time>
      </trkpt>
      <trkpt lat="45.76537" lon="4.82083">
        <ele>214</ele>
        <time>2012-03-04T09:08:53Z</time>
      </trkpt>
      <trkpt lat="45.76549" lon="4.82095">
        <ele>224</ele>
        <time>2012-03-04T09:08:59Z</time>
      </trkpt>
      <trkpt lat="45.76551" lon="4.82098">
        <ele>224</ele>
        <time>2012-03-04T09:09:01Z</time>
      </trkpt>
      <trkpt lat="45.76557" lon="4.82104">
        <ele>224</ele>
        <time>2012-03-04T09:09:04Z</time>
      </trkpt>
      <trkpt lat="45.76564" lon="4.82111">
        <ele>224</ele>
        <time>2012-03-04T09:09:09Z</time>
      </trkpt>
      <trkpt lat="45.76568" lon="4.82113">
        <ele>224</ele>
        <time>2012-03-04T09:09:11Z</time>
      </trkpt>
      <trkpt lat="45.76574" lon="4.8212">
        <ele>224</ele>
        <time>2012-03-04T09:09:15Z</time>
      </trkpt>
      <trkpt lat="45.76577" lon="4.82121">
        <ele>224</ele>
        <time>2012-03-04T09:09:16Z</time>
      </trkpt>
      <trkpt lat="45.76584" lon="4.82124">
        <ele>207</ele>
        <time>2012-03-04T09:09:19Z</time>
      </trkpt>
      <trkpt lat="45.76588" lon="4.82126">
        <ele>207</ele>
        <time>2012-03-04T09:09:21Z</time>
      </trkpt>
      <trkpt lat="45.766" lon="4.82128">
        <ele>206</ele>
        <time>2012-03-04T09:09:26Z</time>
      </trkpt>
      <trkpt lat="45.76602" lon="4.82129">
        <ele>206</ele>
        <time>2012-03-04T09:09:27Z</time>
      </trkpt>
      <trkpt lat="45.76614" lon="4.82132">
        <ele>204</ele>
        <time>2012-03-04T09:09:32Z</time>
      </trkpt>
      <trkpt lat="45.76619" lon="4.82138">
        <ele>203</ele>
        <time>2012-03-04T09:09:35Z</time>
      </trkpt>
      <trkpt lat="45.76623" lon="4.82146">
        <ele>203</ele>
        <time>2012-03-04T09:09:38Z</time>
      </trkpt>
      <trkpt lat="45.76629" lon="4.8216">
        <ele>203</ele>
        <time>2012-03-04T09:09:44Z</time>
      </trkpt>
      <trkpt lat="45.76629" lon="4.82163">
        <ele>203</ele>
        <time>2012-03-04T09:09:45Z</time>
      </trkpt>
      <trkpt lat="45.76629" lon="4.82181">
        <ele>214</ele>
        <time>2012-03-04T09:09:50Z</time>
      </trkpt>
      <trkpt lat="45.76629" lon="4.82188">
        <ele>214</ele>
        <time>2012-03-04T09:09:52Z</time>
      </trkpt>
      <trkpt lat="45.76626" lon="4.82203">
        <ele>216</ele>
        <time>2012-03-04T09:09:56Z</time>
      </trkpt>
      <trkpt lat="45.76625" lon="4.82214">
        <ele>216</ele>
        <time>2012-03-04T09:09:59Z</time>
      </trkpt>
      <trkpt lat="45.76625" lon="4.82222">
        <ele>217</ele>
        <time>2012-03-04T09:10:01Z</time>
      </trkpt>
      <trkpt lat="45.76625" lon="4.82226">
        <ele>217</ele>
        <time>2012-03-04T09:10:02Z</time>
      </trkpt>
      <trkpt lat="45.76626" lon="4.82238">
        <ele>217</ele>
        <time>2012-03-04T09:10:05Z</time>
      </trkpt>
      <trkpt lat="45.76627" lon="4.82242">
        <ele>217</ele>
        <time>2012-03-04T09:10:06Z</time>
      </trkpt>
      <trkpt lat="45.76627" lon="4.82256">
        <ele>219</ele>
        <time>2012-03-04T09:10:10Z</time>
      </trkpt>
      <trkpt lat="45.76626" lon="4.82269">
        <ele>219</ele>
        <time>2012-03-04T09:10:13Z</time>
      </trkpt>
      <trkpt lat="45.76626" lon="4.82277">
        <ele>219</ele>
        <time>2012-03-04T09:10:15Z</time>
      </trkpt>
      <trkpt lat="45.76624" lon="4.82299">
        <ele>219</ele>
        <time>2012-03-04T09:10:21Z</time>
      </trkpt>
      <trkpt lat="45.76618" lon="4.82315">
        <ele>220</ele>
        <time>2012-03-04T09:10:26Z</time>
      </trkpt>
      <trkpt lat="45.76616" lon="4.82326">
        <ele>221</ele>
        <time>2012-03-04T09:10:29Z</time>
      </trkpt>
      <trkpt lat="45.76615" lon="4.8234">
        <ele>219</ele>
        <time>2012-03-04T09:10:32Z</time>
      </trkpt>
      <trkpt lat="45.76614" lon="4.82352">
        <ele>218</ele>
        <time>2012-03-04T09:10:35Z</time>
      </trkpt>
      <trkpt lat="45.76612" lon="4.82363">
        <ele>218</ele>
        <time>2012-03-04T09:10:38Z</time>
      </trkpt>
      <trkpt lat="45.76609" lon="4.82378">
        <ele>217</ele>
        <time>2012-03-04T09:10:42Z</time>
      </trkpt>
      <trkpt lat="45.76611" lon="4.82384">
        <ele>217</ele>
        <time>2012-03-04T09:10:44Z</time>
      </trkpt>
      <trkpt lat="45.76614" lon="4.82395">
        <ele>216</ele>
        <time>2012-03-04T09:10:47Z</time>
      </trkpt>
      <trkpt lat="45.76616" lon="4.82406">
        <ele>216</ele>
        <time>2012-03-04T09:10:50Z</time>
      </trkpt>
      <trkpt lat="45.76616" lon="4.82414">
        <ele>216</ele>
        <time>2012-03-04T09:10:52Z</time>
      </trkpt>
      <trkpt lat="45.76615" lon="4.82432">
        <ele>211</ele>
        <time>2012-03-04T09:10:57Z</time>
      </trkpt>
      <trkpt lat="45.76615" lon="4.82436">
        <ele>211</ele>
        <time>2012-03-04T09:10:58Z</time>
      </trkpt>
      <trkpt lat="45.76612" lon="4.82453">
        <ele>211</ele>
        <time>2012-03-04T09:11:03Z</time>
      </trkpt>
      <trkpt lat="45.76609" lon="4.82455">
        <ele>211</ele>
        <time>2012-03-04T09:11:06Z</time>
      </trkpt>
      <trkpt lat="45.76608" lon="4.8245">
        <ele>212</ele>
        <time>2012-03-04T09:11:14Z</time>
      </trkpt>
      <trkpt lat="45.76607" lon="4.8245">
        <ele>212</ele>
        <time>2012-03-04T09:11:15Z</time>
      </trkpt>
      <trkpt lat="45.76605" lon="4.82446">
        <ele>213</ele>
        <time>2012-03-04T09:11:18Z</time>
      </trkpt>
      <trkpt lat="45.76602" lon="4.82444">
        <ele>213</ele>
        <time>2012-03-04T09:11:20Z</time>
      </trkpt>
      <trkpt lat="45.76598" lon="4.82436">
        <ele>216</ele>
        <time>2012-03-04T09:11:25Z</time>
      </trkpt>
      <trkpt lat="45.76591" lon="4.8243">
        <ele>219</ele>
        <time>2012-03-04T09:11:31Z</time>
      </trkpt>
      <trkpt lat="45.76586" lon="4.82427">
        <ele>221</ele>
        <time>2012-03-04T09:11:35Z</time>
      </trkpt>
      <trkpt lat="45.76586" lon="4.82426">
        <ele>222</ele>
        <time>2012-03-04T09:11:36Z</time>
      </trkpt>
      <trkpt lat="45.76585" lon="4.82424">
        <ele>223</ele>
        <time>2012-03-04T09:11:38Z</time>
      </trkpt>
      <trkpt lat="45.76582" lon="4.82421">
        <ele>229</ele>
        <time>2012-03-04T09:11:41Z</time>
      </trkpt>
      <trkpt lat="45.7658" lon="4.8242">
        <ele>229</ele>
        <time>2012-03-04T09:11:42Z</time>
      </trkpt>
      <trkpt lat="45.76573" lon="4.82417">
        <ele>230</ele>
        <time>2012-03-04T09:11:47Z</time>
      </trkpt>
      <trkpt lat="45.76572" lon="4.82417">
        <ele>230</ele>
        <time>2012-03-04T09:11:48Z</time>
      </trkpt>
      <trkpt lat="45.7657" lon="4.82417">
        <ele>231</ele>
        <time>2012-03-04T09:11:50Z</time>
      </trkpt>
      <trkpt lat="45.76566" lon="4.82412">
        <ele>235</ele>
        <time>2012-03-04T09:11:54Z</time>
      </trkpt>
      <trkpt lat="45.76567" lon="4.82409">
        <ele>236</ele>
        <time>2012-03-04T09:11:57Z</time>
      </trkpt>
      <trkpt lat="45.76566" lon="4.82405">
        <ele>236</ele>
        <time>2012-03-04T09:11:59Z</time>
      </trkpt>
      <trkpt lat="45.76566" lon="4.82404">
        <ele>236</ele>
        <time>2012-03-04T09:12:00Z</time>
      </trkpt>
      <trkpt lat="45.76565" lon="4.82403">
        <ele>237</ele>
        <time>2012-03-04T09:12:01Z</time>
      </trkpt>
      <trkpt lat="45.7656" lon="4.82401">
        <ele>238</ele>
        <time>2012-03-04T09:12:05Z</time>
      </trkpt>
      <trkpt lat="45.7656" lon="4.82396">
        <ele>239</ele>
        <time>2012-03-04T09:12:08Z</time>
      </trkpt>
      <trkpt lat="45.7656" lon="4.82395">
        <ele>239</ele>
        <time>2012-03-04T09:12:11Z</time>
      </trkpt>
      <trkpt lat="45.76554" lon="4.82396">
        <ele>240</ele>
        <time>2012-03-04T09:12:17Z</time>
      </trkpt>
      <trkpt lat="45.76554" lon="4.82395">
        <ele>240</ele>
        <time>2012-03-04T09:12:18Z</time>
      </trkpt>
      <trkpt lat="45.76551" lon="4.82396">
        <ele>240</ele>
        <time>2012-03-04T09:12:20Z</time>
      </trkpt>
      <trkpt lat="45.76548" lon="4.82394">
        <ele>241</ele>
        <time>2012-03-04T09:12:22Z</time>
      </trkpt>
      <trkpt lat="45.76547" lon="4.82389">
        <ele>241</ele>
        <time>2012-03-04T09:12:25Z</time>
      </trkpt>
      <trkpt lat="45.76547" lon="4.82387">
        <ele>241</ele>
        <time>2012-03-04T09:12:26Z</time>
      </trkpt>
      <trkpt lat="45.76546" lon="4.82386">
        <ele>242</ele>
        <time>2012-03-04T09:12:27Z</time>
      </trkpt>
      <trkpt lat="45.76542" lon="4.82382">
        <ele>242</ele>
        <time>2012-03-04T09:12:30Z</time>
      </trkpt>
      <trkpt lat="45.76541" lon="4.8238">
        <ele>243</ele>
        <time>2012-03-04T09:12:32Z</time>
      </trkpt>
      <trkpt lat="45.76539" lon="4.82378">
        <ele>243</ele>
        <time>2012-03-04T09:12:34Z</time>
      </trkpt>
      <trkpt lat="45.76536" lon="4.82376">
        <ele>243</ele>
        <time>2012-03-04T09:12:38Z</time>
      </trkpt>
      <trkpt lat="45.76536" lon="4.82375">
        <ele>244</ele>
        <time>2012-03-04T09:12:39Z</time>
      </trkpt>
      <trkpt lat="45.76535" lon="4.82369">
        <ele>244</ele>
        <time>2012-03-04T09:12:45Z</time>
      </trkpt>
      <trkpt lat="45.76534" lon="4.82367">
        <ele>244</ele>
        <time>2012-03-04T09:12:50Z</time>
      </trkpt>
      <trkpt lat="45.76533" lon="4.82366">
        <ele>245</ele>
        <time>2012-03-04T09:12:51Z</time>
      </trkpt>
      <trkpt lat="45.76527" lon="4.82363">
        <ele>246</ele>
        <time>2012-03-04T09:12:55Z</time>
      </trkpt>
      <trkpt lat="45.76525" lon="4.82364">
        <ele>246</ele>
        <time>2012-03-04T09:12:57Z</time>
      </trkpt>
      <trkpt lat="45.76519" lon="4.82361">
        <ele>247</ele>
        <time>2012-03-04T09:13:03Z</time>
      </trkpt>
      <trkpt lat="45.76516" lon="4.82356">
        <ele>249</ele>
        <time>2012-03-04T09:13:09Z</time>
      </trkpt>
      <trkpt lat="45.76512" lon="4.82349">
        <ele>251</ele>
        <time>2012-03-04T09:13:15Z</time>
      </trkpt>
      <trkpt lat="45.7651" lon="4.82347">
        <ele>252</ele>
        <time>2012-03-04T09:13:17Z</time>
      </trkpt>
      <trkpt lat="45.76508" lon="4.82347">
        <ele>253</ele>
        <time>2012-03-04T09:13:20Z</time>
      </trkpt>
      <trkpt lat="45.76507" lon="4.82346">
        <ele>253</ele>
        <time>2012-03-04T09:13:23Z</time>
      </trkpt>
      <trkpt lat="45.76505" lon="4.82343">
        <ele>255</ele>
        <time>2012-03-04T09:13:27Z</time>
      </trkpt>
      <trkpt lat="45.76504" lon="4.82342">
        <ele>255</ele>
        <time>2012-03-04T09:13:29Z</time>
      </trkpt>
      <trkpt lat="45.76504" lon="4.82339">
        <ele>256</ele>
        <time>2012-03-04T09:13:31Z</time>
      </trkpt>
      <trkpt lat="45.76501" lon="4.82337">
        <ele>258</ele>
        <time>2012-03-04T09:13:35Z</time>
      </trkpt>
      <trkpt lat="45.76498" lon="4.82335">
        <ele>261</ele>
        <time>2012-03-04T09:13:38Z</time>
      </trkpt>
      <trkpt lat="45.76497" lon="4.82333">
        <ele>262</ele>
        <time>2012-03-04T09:13:39Z</time>
      </trkpt>
      <trkpt lat="45.76495" lon="4.82331">
        <ele>263</ele>
        <time>2012-03-04T09:13:42Z</time>
      </trkpt>
      <trkpt lat="45.76493" lon="4.82329">
        <ele>264</ele>
        <time>2012-03-04T09:13:45Z</time>
      </trkpt>
      <trkpt lat="45.76491" lon="4.82326">
        <ele>264</ele>
        <time>2012-03-04T09:13:48Z</time>
      </trkpt>
      <trkpt lat="45.76488" lon="4.82322">
        <ele>265</ele>
        <time>2012-03-04T09:13:54Z</time>
      </trkpt>
      <trkpt lat="45.76488" lon="4.8232">
        <ele>265</ele>
        <time>2012-03-04T09:13:55Z</time>
      </trkpt>
      <trkpt lat="45.76485" lon="4.82314">
        <ele>266</ele>
        <time>2012-03-04T09:14:00Z</time>
      </trkpt>
      <trkpt lat="45.76484" lon="4.82312">
        <ele>267</ele>
        <time>2012-03-04T09:14:01Z</time>
      </trkpt>
      <trkpt lat="45.76484" lon="4.82311">
        <ele>267</ele>
        <time>2012-03-04T09:14:03Z</time>
      </trkpt>
      <trkpt lat="45.76481" lon="4.82309">
        <ele>267</ele>
        <time>2012-03-04T09:14:05Z</time>
      </trkpt>
      <trkpt lat="45.7648" lon="4.82308">
        <ele>267</ele>
        <time>2012-03-04T09:14:06Z</time>
      </trkpt>
      <trkpt lat="45.76474" lon="4.82302">
        <ele>268</ele>
        <time>2012-03-04T09:14:13Z</time>
      </trkpt>
      <trkpt lat="45.76473" lon="4.823">
        <ele>268</ele>
        <time>2012-03-04T09:14:14Z</time>
      </trkpt>
      <trkpt lat="45.76473" lon="4.82299">
        <ele>268</ele>
        <time>2012-03-04T09:14:15Z</time>
      </trkpt>
      <trkpt lat="45.76469" lon="4.82298">
        <ele>269</ele>
        <time>2012-03-04T09:14:18Z</time>
      </trkpt>
      <trkpt lat="45.76467" lon="4.82296">
        <ele>269</ele>
        <time>2012-03-04T09:14:20Z</time>
      </trkpt>
      <trkpt lat="45.76462" lon="4.82294">
        <ele>270</ele>
        <time>2012-03-04T09:14:25Z</time>
      </trkpt>
      <trkpt lat="45.7646" lon="4.82294">
        <ele>270</ele>
        <time>2012-03-04T09:14:27Z</time>
      </trkpt>
      <trkpt lat="45.76458" lon="4.8229">
        <ele>270</ele>
        <time>2012-03-04T09:14:30Z</time>
      </trkpt>
      <trkpt lat="45.76457" lon="4.8229">
        <ele>270</ele>
        <time>2012-03-04T09:14:31Z</time>
      </trkpt>
      <trkpt lat="45.76454" lon="4.82286">
        <ele>271</ele>
        <time>2012-03-04T09:14:36Z</time>
      </trkpt>
      <trkpt lat="45.76452" lon="4.82285">
        <ele>271</ele>
        <time>2012-03-04T09:14:38Z</time>
      </trkpt>
      <trkpt lat="45.76447" lon="4.82282">
        <ele>272</ele>
        <time>2012-03-04T09:14:43Z</time>
      </trkpt>
      <trkpt lat="45.76444" lon="4.82283">
        <ele>272</ele>
        <time>2012-03-04T09:14:46Z</time>
      </trkpt>
      <trkpt lat="45.76442" lon="4.82281">
        <ele>272</ele>
        <time>2012-03-04T09:14:48Z</time>
      </trkpt>
      <trkpt lat="45.7644" lon="4.82283">
        <ele>272</ele>
        <time>2012-03-04T09:14:50Z</time>
      </trkpt>
      <trkpt lat="45.76437" lon="4.82283">
        <ele>273</ele>
        <time>2012-03-04T09:14:52Z</time>
      </trkpt>
      <trkpt lat="45.76435" lon="4.82281">
        <ele>273</ele>
        <time>2012-03-04T09:14:54Z</time>
      </trkpt>
      <trkpt lat="45.76425" lon="4.8228">
        <ele>274</ele>
        <time>2012-03-04T09:15:01Z</time>
      </trkpt>
      <trkpt lat="45.76424" lon="4.82281">
        <ele>274</ele>
        <time>2012-03-04T09:15:02Z</time>
      </trkpt>
      <trkpt lat="45.76424" lon="4.82276">
        <ele>275</ele>
        <time>2012-03-04T09:15:05Z</time>
      </trkpt>
      <trkpt lat="45.76424" lon="4.82275">
        <ele>275</ele>
        <time>2012-03-04T09:15:06Z</time>
      </trkpt>
      <trkpt lat="45.7642" lon="4.82273">
        <ele>276</ele>
        <time>2012-03-04T09:15:09Z</time>
      </trkpt>
      <trkpt lat="45.76418" lon="4.82269">
        <ele>277</ele>
        <time>2012-03-04T09:15:11Z</time>
      </trkpt>
      <trkpt lat="45.76411" lon="4.82265">
        <ele>284</ele>
        <time>2012-03-04T09:15:15Z</time>
      </trkpt>
      <trkpt lat="45.76403" lon="4.82267">
        <ele>284</ele>
        <time>2012-03-04T09:15:18Z</time>
      </trkpt>
      <trkpt lat="45.76399" lon="4.8227">
        <ele>284</ele>
        <time>2012-03-04T09:15:20Z</time>
      </trkpt>
      <trkpt lat="45.76388" lon="4.82274">
        <ele>284</ele>
        <time>2012-03-04T09:15:25Z</time>
      </trkpt>
      <trkpt lat="45.76386" lon="4.82273">
        <ele>284</ele>
        <time>2012-03-04T09:15:26Z</time>
      </trkpt>
      <trkpt lat="45.76385" lon="4.82273">
        <ele>284</ele>
        <time>2012-03-04T09:15:27Z</time>
      </trkpt>
      <trkpt lat="45.76383" lon="4.82272">
        <ele>284</ele>
        <time>2012-03-04T09:15:28Z</time>
      </trkpt>
      <trkpt lat="45.76382" lon="4.82269">
        <ele>285</ele>
        <time>2012-03-04T09:15:30Z</time>
      </trkpt>
      <trkpt lat="45.76382" lon="4.82264">
        <ele>285</ele>
        <time>2012-03-04T09:15:34Z</time>
      </trkpt>
      <trkpt lat="45.76381" lon="4.82249">
        <ele>288</ele>
        <time>2012-03-04T09:15:40Z</time>
      </trkpt>
      <trkpt lat="45.7638" lon="4.82247">
        <ele>288</ele>
        <time>2012-03-04T09:15:41Z</time>
      </trkpt>
      <trkpt lat="45.76381" lon="4.82232">
        <ele>287</ele>
        <time>2012-03-04T09:15:48Z</time>
      </trkpt>
      <trkpt lat="45.76378" lon="4.82226">
        <ele>287</ele>
        <time>2012-03-04T09:15:52Z</time>
      </trkpt>
      <trkpt lat="45.76377" lon="4.82225">
        <ele>287</ele>
        <time>2012-03-04T09:15:53Z</time>
      </trkpt>
      <trkpt lat="45.76376" lon="4.82225">
        <ele>288</ele>
        <time>2012-03-04T09:15:54Z</time>
      </trkpt>
      <trkpt lat="45.76368" lon="4.82223">
        <ele>288</ele>
        <time>2012-03-04T09:15:58Z</time>
      </trkpt>
      <trkpt lat="45.76364" lon="4.82221">
        <ele>289</ele>
        <time>2012-03-04T09:16:00Z</time>
      </trkpt>
      <trkpt lat="45.76359" lon="4.82218">
        <ele>289</ele>
        <time>2012-03-04T09:16:02Z</time>
      </trkpt>
      <trkpt lat="45.76357" lon="4.82211">
        <ele>289</ele>
        <time>2012-03-04T09:16:04Z</time>
      </trkpt>
      <trkpt lat="45.76358" lon="4.82203">
        <ele>289</ele>
        <time>2012-03-04T09:16:06Z</time>
      </trkpt>
      <trkpt lat="45.76359" lon="4.82192">
        <ele>289</ele>
        <time>2012-03-04T09:16:09Z</time>
      </trkpt>
      <trkpt lat="45.76359" lon="4.82188">
        <ele>289</ele>
        <time>2012-03-04T09:16:10Z</time>
      </trkpt>
      <trkpt lat="45.76357" lon="4.82178">
        <ele>289</ele>
        <time>2012-03-04T09:16:13Z</time>
      </trkpt>
      <trkpt lat="45.76355" lon="4.82175">
        <ele>290</ele>
        <time>2012-03-04T09:16:14Z</time>
      </trkpt>
      <trkpt lat="45.76352" lon="4.82168">
        <ele>291</ele>
        <time>2012-03-04T09:16:16Z</time>
      </trkpt>
      <trkpt lat="45.76345" lon="4.82154">
        <ele>285</ele>
        <time>2012-03-04T09:16:20Z</time>
      </trkpt>
      <trkpt lat="45.76339" lon="4.82148">
        <ele>284</ele>
        <time>2012-03-04T09:16:23Z</time>
      </trkpt>
      <trkpt lat="45.76334" lon="4.82145">
        <ele>283</ele>
        <time>2012-03-04T09:16:25Z</time>
      </trkpt>
      <trkpt lat="45.76332" lon="4.82143">
        <ele>290</ele>
        <time>2012-03-04T09:16:26Z</time>
      </trkpt>
      <trkpt lat="45.76328" lon="4.82132">
        <ele>288</ele>
        <time>2012-03-04T09:16:29Z</time>
      </trkpt>
      <trkpt lat="45.76327" lon="4.82128">
        <ele>287</ele>
        <time>2012-03-04T09:16:30Z</time>
      </trkpt>
      <trkpt lat="45.76321" lon="4.82108">
        <ele>284</ele>
        <time>2012-03-04T09:16:35Z</time>
      </trkpt>
      <trkpt lat="45.7632" lon="4.82103">
        <ele>283</ele>
        <time>2012-03-04T09:16:36Z</time>
      </trkpt>
      <trkpt lat="45.76316" lon="4.82087">
        <ele>281</ele>
        <time>2012-03-04T09:16:40Z</time>
      </trkpt>
      <trkpt lat="45.76314" lon="4.82079">
        <ele>276</ele>
        <time>2012-03-04T09:16:42Z</time>
      </trkpt>
      <trkpt lat="45.7631" lon="4.82062">
        <ele>276</ele>
        <time>2012-03-04T09:16:46Z</time>
      </trkpt>
      <trkpt lat="45.76307" lon="4.82054">
        <ele>276</ele>
        <time>2012-03-04T09:16:48Z</time>
      </trkpt>
      <trkpt lat="45.76304" lon="4.82043">
        <ele>276</ele>
        <time>2012-03-04T09:16:51Z</time>
      </trkpt>
      <trkpt lat="45.763" lon="4.82027">
        <ele>276</ele>
        <time>2012-03-04T09:16:55Z</time>
      </trkpt>
      <trkpt lat="45.76297" lon="4.82001">
        <ele>275</ele>
        <time>2012-03-04T09:17:01Z</time>
      </trkpt>
      <trkpt lat="45.76302" lon="4.81977">
        <ele>272</ele>
        <time>2012-03-04T09:17:07Z</time>
      </trkpt>
      <trkpt lat="45.76308" lon="4.81956">
        <ele>272</ele>
        <time>2012-03-04T09:17:12Z</time>
      </trkpt>
      <trkpt lat="45.76309" lon="4.81953">
        <ele>272</ele>
        <time>2012-03-04T09:17:13Z</time>
      </trkpt>
      <trkpt lat="45.76316" lon="4.8193">
        <ele>271</ele>
        <time>2012-03-04T09:17:19Z</time>
      </trkpt>
      <trkpt lat="45.76317" lon="4.81926">
        <ele>271</ele>
        <time>2012-03-04T09:17:20Z</time>
      </trkpt>
      <trkpt lat="45.76323" lon="4.81908">
        <ele>271</ele>
        <time>2012-03-04T09:17:25Z</time>
      </trkpt>
      <trkpt lat="45.76325" lon="4.819">
        <ele>272</ele>
        <time>2012-03-04T09:17:27Z</time>
      </trkpt>
      <trkpt lat="45.76331" lon="4.81881">
        <ele>274</ele>
        <time>2012-03-04T09:17:32Z</time>
      </trkpt>
      <trkpt lat="45.76332" lon="4.81877">
        <ele>275</ele>
        <time>2012-03-04T09:17:33Z</time>
      </trkpt>
      <trkpt lat="45.76336" lon="4.81859">
        <ele>265</ele>
        <time>2012-03-04T09:17:38Z</time>
      </trkpt>
      <trkpt lat="45.76336" lon="4.81848">
        <ele>268</ele>
        <time>2012-03-04T09:17:41Z</time>
      </trkpt>
      <trkpt lat="45.76336" lon="4.81838">
        <ele>274</ele>
        <time>2012-03-04T09:17:44Z</time>
      </trkpt>
      <trkpt lat="45.76336" lon="4.81819">
        <ele>272</ele>
        <time>2012-03-04T09:17:49Z</time>
      </trkpt>
      <trkpt lat="45.76335" lon="4.81816">
        <ele>271</ele>
        <time>2012-03-04T09:17:50Z</time>
      </trkpt>
      <trkpt lat="45.76336" lon="4.81805">
        <ele>269</ele>
        <time>2012-03-04T09:17:53Z</time>
      </trkpt>
      <trkpt lat="45.76337" lon="4.81798">
        <ele>269</ele>
        <time>2012-03-04T09:17:55Z</time>
      </trkpt>
      <trkpt lat="45.76337" lon="4.81794">
        <ele>269</ele>
        <time>2012-03-04T09:17:56Z</time>
      </trkpt>
      <trkpt lat="45.76336" lon="4.81778">
        <ele>271</ele>
        <time>2012-03-04T09:18:00Z</time>
      </trkpt>
      <trkpt lat="45.76335" lon="4.81774">
        <ele>272</ele>
        <time>2012-03-04T09:18:01Z</time>
      </trkpt>
      <trkpt lat="45.76336" lon="4.81767">
        <ele>273</ele>
        <time>2012-03-04T09:18:03Z</time>
      </trkpt>
      <trkpt lat="45.76336" lon="4.81764">
        <ele>274</ele>
        <time>2012-03-04T09:18:04Z</time>
      </trkpt>
      <trkpt lat="45.76338" lon="4.81758">
        <ele>277</ele>
        <time>2012-03-04T09:18:06Z</time>
      </trkpt>
      <trkpt lat="45.76342" lon="4.81741">
        <ele>276</ele>
        <time>2012-03-04T09:18:11Z</time>
      </trkpt>
      <trkpt lat="45.76337" lon="4.8172">
        <ele>272</ele>
        <time>2012-03-04T09:18:16Z</time>
      </trkpt>
      <trkpt lat="45.76336" lon="4.81712">
        <ele>272</ele>
        <time>2012-03-04T09:18:18Z</time>
      </trkpt>
      <trkpt lat="45.76335" lon="4.81701">
        <ele>272</ele>
        <time>2012-03-04T09:18:21Z</time>
      </trkpt>
      <trkpt lat="45.76332" lon="4.81686">
        <ele>283</ele>
        <time>2012-03-04T09:18:25Z</time>
      </trkpt>
      <trkpt lat="45.76332" lon="4.8168">
        <ele>282</ele>
        <time>2012-03-04T09:18:27Z</time>
      </trkpt>
      <trkpt lat="45.76328" lon="4.81659">
        <ele>282</ele>
        <time>2012-03-04T09:18:33Z</time>
      </trkpt>
      <trkpt lat="45.76328" lon="4.81654">
        <ele>282</ele>
        <time>2012-03-04T09:18:35Z</time>
      </trkpt>
      <trkpt lat="45.76329" lon="4.81647">
        <ele>283</ele>
        <time>2012-03-04T09:18:37Z</time>
      </trkpt>
      <trkpt lat="45.76331" lon="4.81633">
        <ele>283</ele>
        <time>2012-03-04T09:18:41Z</time>
      </trkpt>
      <trkpt lat="45.76333" lon="4.81622">
        <ele>284</ele>
        <time>2012-03-04T09:18:44Z</time>
      </trkpt>
      <trkpt lat="45.76333" lon="4.81604">
        <ele>275</ele>
        <time>2012-03-04T09:18:48Z</time>
      </trkpt>
      <trkpt lat="45.76334" lon="4.816">
        <ele>276</ele>
        <time>2012-03-04T09:18:49Z</time>
      </trkpt>
      <trkpt lat="45.76335" lon="4.81579">
        <ele>281</ele>
        <time>2012-03-04T09:18:55Z</time>
      </trkpt>
      <trkpt lat="45.76336" lon="4.81577">
        <ele>280</ele>
        <time>2012-03-04T09:18:56Z</time>
      </trkpt>
      <trkpt lat="45.76338" lon="4.81573">
        <ele>280</ele>
        <time>2012-03-04T09:18:59Z</time>
      </trkpt>
      <trkpt lat="45.76339" lon="4.81563">
        <ele>279</ele>
        <time>2012-03-04T09:19:02Z</time>
      </trkpt>
      <trkpt lat="45.76338" lon="4.81552">
        <ele>278</ele>
        <time>2012-03-04T09:19:05Z</time>
      </trkpt>
      <trkpt lat="45.76338" lon="4.81545">
        <ele>278</ele>
        <time>2012-03-04T09:19:07Z</time>
      </trkpt>
      <trkpt lat="45.76335" lon="4.81526">
        <ele>280</ele>
        <time>2012-03-04T09:19:12Z</time>
      </trkpt>
      <trkpt lat="45.76334" lon="4.81521">
        <ele>281</ele>
        <time>2012-03-04T09:19:13Z</time>
      </trkpt>
      <trkpt lat="45.76334" lon="4.81521">
        <ele>281</ele>
        <time>2012-03-04T09:19:13Z</time>
      </trkpt>
      <trkpt lat="45.76333" lon="4.81514">
        <ele>287</ele>
        <time>2012-03-04T09:19:15Z</time>
      </trkpt>
      <trkpt lat="45.76334" lon="4.81509">
        <ele>283</ele>
        <time>2012-03-04T09:19:17Z</time>
      </trkpt>
      <trkpt lat="45.76338" lon="4.81502">
        <ele>284</ele>
        <time>2012-03-04T09:19:22Z</time>
      </trkpt>
      <trkpt lat="45.76342" lon="4.81496">
        <ele>285</ele>
        <time>2012-03-04T09:19:27Z</time>
      </trkpt>
      <trkpt lat="45.76344" lon="4.81493">
        <ele>284</ele>
        <time>2012-03-04T09:19:32Z</time>
      </trkpt>
      <trkpt lat="45.76344" lon="4.81491">
        <ele>284</ele>
        <time>2012-03-04T09:19:46Z</time>
      </trkpt>
      <trkpt lat="45.76346" lon="4.81491">
        <ele>284</ele>
        <time>2012-03-04T09:19:51Z</time>
      </trkpt>
      <trkpt lat="45.76346" lon="4.81494">
        <ele>284</ele>
        <time>2012-03-04T09:19:59Z</time>
      </trkpt>
      <trkpt lat="45.76347" lon="4.81494">
        <ele>284</ele>
        <time>2012-03-04T09:20:05Z</time>
      </trkpt>
      <trkpt lat="45.7635" lon="4.81493">
        <ele>284</ele>
        <time>2012-03-04T09:20:13Z</time>
      </trkpt>
      <trkpt lat="45.76351" lon="4.81492">
        <ele>284</ele>
        <time>2012-03-04T09:20:14Z</time>
      </trkpt>
      <trkpt lat="45.76357" lon="4.81489">
        <ele>283</ele>
        <time>2012-03-04T09:20:19Z</time>
      </trkpt>
      <trkpt lat="45.76365" lon="4.81488">
        <ele>282</ele>
        <time>2012-03-04T09:20:23Z</time>
      </trkpt>
      <trkpt lat="45.76368" lon="4.81487">
        <ele>282</ele>
        <time>2012-03-04T09:20:25Z</time>
      </trkpt>
      <trkpt lat="45.76369" lon="4.81486">
        <ele>282</ele>
        <time>2012-03-04T09:20:26Z</time>
      </trkpt>
      <trkpt lat="45.7637" lon="4.81487">
        <ele>282</ele>
        <time>2012-03-04T09:20:28Z</time>
      </trkpt>
      <trkpt lat="45.76363" lon="4.81493">
        <ele>282</ele>
        <time>2012-03-04T09:20:59Z</time>
      </trkpt>
      <trkpt lat="45.76357" lon="4.81493">
        <ele>283</ele>
        <time>2012-03-04T09:21:02Z</time>
      </trkpt>
      <trkpt lat="45.76353" lon="4.81494">
        <ele>283</ele>
        <time>2012-03-04T09:21:05Z</time>
      </trkpt>
      <trkpt lat="45.76352" lon="4.81494">
        <ele>284</ele>
        <time>2012-03-04T09:21:06Z</time>
      </trkpt>
      <trkpt lat="45.76347" lon="4.81495">
        <ele>284</ele>
        <time>2012-03-04T09:21:12Z</time>
      </trkpt>
      <trkpt lat="45.7635" lon="4.81491">
        <ele>284</ele>
        <time>2012-03-04T09:21:20Z</time>
      </trkpt>
      <trkpt lat="45.76347" lon="4.8149">
        <ele>284</ele>
        <time>2012-03-04T09:21:25Z</time>
      </trkpt>
      <trkpt lat="45.76346" lon="4.81488">
        <ele>284</ele>
        <time>2012-03-04T09:21:31Z</time>
      </trkpt>
      <trkpt lat="45.76345" lon="4.81487">
        <ele>284</ele>
        <time>2012-03-04T09:21:33Z</time>
      </trkpt>
      <trkpt lat="45.76344" lon="4.81488">
        <ele>284</ele>
        <time>2012-03-04T09:21:37Z</time>
      </trkpt>
      <trkpt lat="45.76343" lon="4.81494">
        <ele>284</ele>
        <time>2012-03-04T09:21:51Z</time>
      </trkpt>
      <trkpt lat="45.76345" lon="4.81494">
        <ele>284</ele>
        <time>2012-03-04T09:21:55Z</time>
      </trkpt>
      <trkpt lat="45.76347" lon="4.8149">
        <ele>284</ele>
        <time>2012-03-04T09:22:01Z</time>
      </trkpt>
      <trkpt lat="45.76347" lon="4.81487">
        <ele>284</ele>
        <time>2012-03-04T09:22:11Z</time>
      </trkpt>
      <trkpt lat="45.76348" lon="4.81498">
        <ele>284</ele>
        <time>2012-03-04T09:22:48Z</time>
      </trkpt>
      <trkpt lat="45.76348" lon="4.81507">
        <ele>281</ele>
        <time>2012-03-04T09:22:54Z</time>
      </trkpt>
      <trkpt lat="45.7635" lon="4.81495">
        <ele>284</ele>
        <time>2012-03-04T09:23:34Z</time>
      </trkpt>
      <trkpt lat="45.76351" lon="4.81498">
        <ele>284</ele>
        <time>2012-03-04T09:23:37Z</time>
      </trkpt>
      <trkpt lat="45.76351" lon="4.815">
        <ele>284</ele>
        <time>2012-03-04T09:23:39Z</time>
      </trkpt>
      <trkpt lat="45.76349" lon="4.81501">
        <ele>281</ele>
        <time>2012-03-04T09:23:40Z</time>
      </trkpt>
      <trkpt lat="45.76348" lon="4.81502">
        <ele>281</ele>
        <time>2012-03-04T09:23:41Z</time>
      </trkpt>
      <trkpt lat="45.76347" lon="4.81502">
        <ele>282</ele>
        <time>2012-03-04T09:23:43Z</time>
      </trkpt>
      <trkpt lat="45.76345" lon="4.81506">
        <ele>282</ele>
        <time>2012-03-04T09:23:49Z</time>
      </trkpt>
      <trkpt lat="45.76345" lon="4.81506">
        <ele>282</ele>
        <time>2012-03-04T09:23:49Z</time>
      </trkpt>
      <trkpt lat="45.76345" lon="4.81508">
        <ele>282</ele>
        <time>2012-03-04T09:23:50Z</time>
      </trkpt>
      <trkpt lat="45.76343" lon="4.81525">
        <ele>280</ele>
        <time>2012-03-04T09:23:56Z</time>
      </trkpt>
      <trkpt lat="45.76343" lon="4.81538">
        <ele>278</ele>
        <time>2012-03-04T09:23:59Z</time>
      </trkpt>
      <trkpt lat="45.76345" lon="4.81549">
        <ele>278</ele>
        <time>2012-03-04T09:24:01Z</time>
      </trkpt>
      <trkpt lat="45.76346" lon="4.8157">
        <ele>278</ele>
        <time>2012-03-04T09:24:05Z</time>
      </trkpt>
      <trkpt lat="45.76349" lon="4.81578">
        <ele>278</ele>
        <time>2012-03-04T09:24:07Z</time>
      </trkpt>
      <trkpt lat="45.76352" lon="4.81591">
        <ele>275</ele>
        <time>2012-03-04T09:24:10Z</time>
      </trkpt>
      <trkpt lat="45.76356" lon="4.81607">
        <ele>272</ele>
        <time>2012-03-04T09:24:14Z</time>
      </trkpt>
      <trkpt lat="45.76356" lon="4.81611">
        <ele>272</ele>
        <time>2012-03-04T09:24:15Z</time>
      </trkpt>
      <trkpt lat="45.76358" lon="4.8161">
        <ele>272</ele>
        <time>2012-03-04T09:24:17Z</time>
      </trkpt>
      <trkpt lat="45.76359" lon="4.81606">
        <ele>272</ele>
        <time>2012-03-04T09:24:19Z</time>
      </trkpt>
      <trkpt lat="45.76364" lon="4.81595">
        <ele>272</ele>
        <time>2012-03-04T09:24:21Z</time>
      </trkpt>
      <trkpt lat="45.76365" lon="4.81594">
        <ele>271</ele>
        <time>2012-03-04T09:24:22Z</time>
      </trkpt>
      <trkpt lat="45.76372" lon="4.81607">
        <ele>270</ele>
        <time>2012-03-04T09:24:26Z</time>
      </trkpt>
      <trkpt lat="45.76373" lon="4.81612">
        <ele>269</ele>
        <time>2012-03-04T09:24:27Z</time>
      </trkpt>
      <trkpt lat="45.76375" lon="4.81622">
        <ele>269</ele>
        <time>2012-03-04T09:24:30Z</time>
      </trkpt>
      <trkpt lat="45.7638" lon="4.81618">
        <ele>268</ele>
        <time>2012-03-04T09:24:33Z</time>
      </trkpt>
      <trkpt lat="45.76383" lon="4.81611">
        <ele>268</ele>
        <time>2012-03-04T09:24:35Z</time>
      </trkpt>
      <trkpt lat="45.76384" lon="4.81602">
        <ele>268</ele>
        <time>2012-03-04T09:24:37Z</time>
      </trkpt>
      <trkpt lat="45.76391" lon="4.81594">
        <ele>266</ele>
        <time>2012-03-04T09:24:40Z</time>
      </trkpt>
      <trkpt lat="45.76394" lon="4.81593">
        <ele>266</ele>
        <time>2012-03-04T09:24:41Z</time>
      </trkpt>
      <trkpt lat="45.76399" lon="4.81604">
        <ele>266</ele>
        <time>2012-03-04T09:24:44Z</time>
      </trkpt>
      <trkpt lat="45.76399" lon="4.81609">
        <ele>266</ele>
        <time>2012-03-04T09:24:45Z</time>
      </trkpt>
      <trkpt lat="45.76399" lon="4.81615">
        <ele>266</ele>
        <time>2012-03-04T09:24:46Z</time>
      </trkpt>
      <trkpt lat="45.76398" lon="4.81626">
        <ele>266</ele>
        <time>2012-03-04T09:24:48Z</time>
      </trkpt>
      <trkpt lat="45.76397" lon="4.81636">
        <ele>265</ele>
        <time>2012-03-04T09:24:51Z</time>
      </trkpt>
      <trkpt lat="45.76397" lon="4.81639">
        <ele>265</ele>
        <time>2012-03-04T09:24:52Z</time>
      </trkpt>
      <trkpt lat="45.76398" lon="4.81642">
        <ele>264</ele>
        <time>2012-03-04T09:24:53Z</time>
      </trkpt>
      <trkpt lat="45.76401" lon="4.81639">
        <ele>264</ele>
        <time>2012-03-04T09:24:56Z</time>
      </trkpt>
      <trkpt lat="45.76402" lon="4.81634">
        <ele>264</ele>
        <time>2012-03-04T09:24:57Z</time>
      </trkpt>
      <trkpt lat="45.76406" lon="4.81621">
        <ele>265</ele>
        <time>2012-03-04T09:25:00Z</time>
      </trkpt>
      <trkpt lat="45.76408" lon="4.81618">
        <ele>265</ele>
        <time>2012-03-04T09:25:01Z</time>
      </trkpt>
      <trkpt lat="45.76413" lon="4.81629">
        <ele>264</ele>
        <time>2012-03-04T09:25:05Z</time>
      </trkpt>
      <trkpt lat="45.76411" lon="4.81634">
        <ele>264</ele>
        <time>2012-03-04T09:25:06Z</time>
      </trkpt>
      <trkpt lat="45.76409" lon="4.81638">
        <ele>263</ele>
        <time>2012-03-04T09:25:07Z</time>
      </trkpt>
      <trkpt lat="45.76408" lon="4.81642">
        <ele>263</ele>
        <time>2012-03-04T09:25:08Z</time>
      </trkpt>
      <trkpt lat="45.76414" lon="4.81648">
        <ele>261</ele>
        <time>2012-03-04T09:25:13Z</time>
      </trkpt>
      <trkpt lat="45.76417" lon="4.81645">
        <ele>249</ele>
        <time>2012-03-04T09:25:14Z</time>
      </trkpt>
      <trkpt lat="45.76424" lon="4.81636">
        <ele>249</ele>
        <time>2012-03-04T09:25:17Z</time>
      </trkpt>
      <trkpt lat="45.7643" lon="4.81633">
        <ele>248</ele>
        <time>2012-03-04T09:25:19Z</time>
      </trkpt>
      <trkpt lat="45.76429" lon="4.81643">
        <ele>248</ele>
        <time>2012-03-04T09:25:21Z</time>
      </trkpt>
      <trkpt lat="45.76425" lon="4.81664">
        <ele>250</ele>
        <time>2012-03-04T09:25:25Z</time>
      </trkpt>
      <trkpt lat="45.76429" lon="4.81663">
        <ele>250</ele>
        <time>2012-03-04T09:25:28Z</time>
      </trkpt>
      <trkpt lat="45.76431" lon="4.81661">
        <ele>249</ele>
        <time>2012-03-04T09:25:29Z</time>
      </trkpt>
      <trkpt lat="45.76436" lon="4.81653">
        <ele>248</ele>
        <time>2012-03-04T09:25:31Z</time>
      </trkpt>
      <trkpt lat="45.7644" lon="4.81647">
        <ele>247</ele>
        <time>2012-03-04T09:25:33Z</time>
      </trkpt>
      <trkpt lat="45.76446" lon="4.81649">
        <ele>246</ele>
        <time>2012-03-04T09:25:36Z</time>
      </trkpt>
      <trkpt lat="45.76452" lon="4.81664">
        <ele>245</ele>
        <time>2012-03-04T09:25:39Z</time>
      </trkpt>
      <trkpt lat="45.76456" lon="4.81673">
        <ele>240</ele>
        <time>2012-03-04T09:25:42Z</time>
      </trkpt>
      <trkpt lat="45.76457" lon="4.81681">
        <ele>239</ele>
        <time>2012-03-04T09:25:43Z</time>
      </trkpt>
      <trkpt lat="45.76465" lon="4.81699">
        <ele>237</ele>
        <time>2012-03-04T09:25:48Z</time>
      </trkpt>
      <trkpt lat="45.76471" lon="4.81699">
        <ele>237</ele>
        <time>2012-03-04T09:25:50Z</time>
      </trkpt>
      <trkpt lat="45.76474" lon="4.81693">
        <ele>236</ele>
        <time>2012-03-04T09:25:51Z</time>
      </trkpt>
      <trkpt lat="45.76485" lon="4.81685">
        <ele>234</ele>
        <time>2012-03-04T09:25:54Z</time>
      </trkpt>
      <trkpt lat="45.76499" lon="4.81694">
        <ele>234</ele>
        <time>2012-03-04T09:25:59Z</time>
      </trkpt>
      <trkpt lat="45.76506" lon="4.81697">
        <ele>220</ele>
        <time>2012-03-04T09:26:01Z</time>
      </trkpt>
      <trkpt lat="45.7652" lon="4.81697">
        <ele>218</ele>
        <time>2012-03-04T09:26:03Z</time>
      </trkpt>
      <trkpt lat="45.76528" lon="4.81694">
        <ele>217</ele>
        <time>2012-03-04T09:26:06Z</time>
      </trkpt>
      <trkpt lat="45.76532" lon="4.81689">
        <ele>217</ele>
        <time>2012-03-04T09:26:07Z</time>
      </trkpt>
      <trkpt lat="45.76539" lon="4.81688">
        <ele>216</ele>
        <time>2012-03-04T09:26:11Z</time>
      </trkpt>
      <trkpt lat="45.76541" lon="4.8169">
        <ele>216</ele>
        <time>2012-03-04T09:26:12Z</time>
      </trkpt>
      <trkpt lat="45.76546" lon="4.81697">
        <ele>215</ele>
        <time>2012-03-04T09:26:14Z</time>
      </trkpt>
      <trkpt lat="45.76546" lon="4.81704">
        <ele>214</ele>
        <time>2012-03-04T09:26:16Z</time>
      </trkpt>
      <trkpt lat="45.76544" lon="4.8171">
        <ele>214</ele>
        <time>2012-03-04T09:26:19Z</time>
      </trkpt>
      <trkpt lat="45.7654" lon="4.81719">
        <ele>215</ele>
        <time>2012-03-04T09:26:21Z</time>
      </trkpt>
      <trkpt lat="45.76539" lon="4.81722">
        <ele>215</ele>
        <time>2012-03-04T09:26:22Z</time>
      </trkpt>
      <trkpt lat="45.76542" lon="4.81726">
        <ele>214</ele>
        <time>2012-03-04T09:26:25Z</time>
      </trkpt>
      <trkpt lat="45.76544" lon="4.81723">
        <ele>214</ele>
        <time>2012-03-04T09:26:27Z</time>
      </trkpt>
      <trkpt lat="45.76549" lon="4.81716">
        <ele>213</ele>
        <time>2012-03-04T09:26:29Z</time>
      </trkpt>
      <trkpt lat="45.76551" lon="4.81713">
        <ele>213</ele>
        <time>2012-03-04T09:26:30Z</time>
      </trkpt>
      <trkpt lat="45.76556" lon="4.81702">
        <ele>213</ele>
        <time>2012-03-04T09:26:33Z</time>
      </trkpt>
      <trkpt lat="45.76558" lon="4.81703">
        <ele>213</ele>
        <time>2012-03-04T09:26:35Z</time>
      </trkpt>
      <trkpt lat="45.76555" lon="4.81713">
        <ele>213</ele>
        <time>2012-03-04T09:26:39Z</time>
      </trkpt>
      <trkpt lat="45.76551" lon="4.81724">
        <ele>212</ele>
        <time>2012-03-04T09:26:42Z</time>
      </trkpt>
      <trkpt lat="45.76548" lon="4.8173">
        <ele>213</ele>
        <time>2012-03-04T09:26:44Z</time>
      </trkpt>
      <trkpt lat="45.7654" lon="4.81747">
        <ele>214</ele>
        <time>2012-03-04T09:26:49Z</time>
      </trkpt>
      <trkpt lat="45.76539" lon="4.8175">
        <ele>209</ele>
        <time>2012-03-04T09:26:50Z</time>
      </trkpt>
      <trkpt lat="45.76535" lon="4.8176">
        <ele>210</ele>
        <time>2012-03-04T09:26:53Z</time>
      </trkpt>
      <trkpt lat="45.76534" lon="4.81767">
        <ele>210</ele>
        <time>2012-03-04T09:26:55Z</time>
      </trkpt>
      <trkpt lat="45.76532" lon="4.81773">
        <ele>210</ele>
        <time>2012-03-04T09:26:57Z</time>
      </trkpt>
      <trkpt lat="45.76529" lon="4.81781">
        <ele>210</ele>
        <time>2012-03-04T09:27:00Z</time>
      </trkpt>
      <trkpt lat="45.76525" lon="4.81798">
        <ele>210</ele>
        <time>2012-03-04T09:27:06Z</time>
      </trkpt>
      <trkpt lat="45.76523" lon="4.81815">
        <ele>211</ele>
        <time>2012-03-04T09:27:12Z</time>
      </trkpt>
      <trkpt lat="45.76522" lon="4.81826">
        <ele>212</ele>
        <time>2012-03-04T09:27:15Z</time>
      </trkpt>
      <trkpt lat="45.76521" lon="4.81837">
        <ele>209</ele>
        <time>2012-03-04T09:27:18Z</time>
      </trkpt>
      <trkpt lat="45.76519" lon="4.81854">
        <ele>207</ele>
        <time>2012-03-04T09:27:23Z</time>
      </trkpt>
      <trkpt lat="45.76519" lon="4.8186">
        <ele>206</ele>
        <time>2012-03-04T09:27:25Z</time>
      </trkpt>
      <trkpt lat="45.76517" lon="4.8188">
        <ele>205</ele>
        <time>2012-03-04T09:27:31Z</time>
      </trkpt>
      <trkpt lat="45.76514" lon="4.819">
        <ele>207</ele>
        <time>2012-03-04T09:27:37Z</time>
      </trkpt>
      <trkpt lat="45.76513" lon="4.81907">
        <ele>208</ele>
        <time>2012-03-04T09:27:39Z</time>
      </trkpt>
      <trkpt lat="45.7651" lon="4.81924">
        <ele>208</ele>
        <time>2012-03-04T09:27:44Z</time>
      </trkpt>
      <trkpt lat="45.76509" lon="4.81935">
        <ele>207</ele>
        <time>2012-03-04T09:27:47Z</time>
      </trkpt>
      <trkpt lat="45.76507" lon="4.81941">
        <ele>206</ele>
        <time>2012-03-04T09:27:49Z</time>
      </trkpt>
      <trkpt lat="45.76503" lon="4.81961">
        <ele>206</ele>
        <time>2012-03-04T09:27:55Z</time>
      </trkpt>
      <trkpt lat="45.76503" lon="4.81965">
        <ele>206</ele>
        <time>2012-03-04T09:27:56Z</time>
      </trkpt>
      <trkpt lat="45.76499" lon="4.81986">
        <ele>220</ele>
        <time>2012-03-04T09:28:02Z</time>
      </trkpt>
      <trkpt lat="45.76498" lon="4.8199">
        <ele>219</ele>
        <time>2012-03-04T09:28:03Z</time>
      </trkpt>
      <trkpt lat="45.76498" lon="4.82008">
        <ele>221</ele>
        <time>2012-03-04T09:28:09Z</time>
      </trkpt>
      <trkpt lat="45.76499" lon="4.82013">
        <ele>223</ele>
        <time>2012-03-04T09:28:11Z</time>
      </trkpt>
      <trkpt lat="45.765" lon="4.82016">
        <ele>223</ele>
        <time>2012-03-04T09:28:12Z</time>
      </trkpt>
      <trkpt lat="45.76502" lon="4.8202">
        <ele>213</ele>
        <time>2012-03-04T09:28:14Z</time>
      </trkpt>
      <trkpt lat="45.76509" lon="4.8203">
        <ele>213</ele>
        <time>2012-03-04T09:28:19Z</time>
      </trkpt>
      <trkpt lat="45.76511" lon="4.82034">
        <ele>213</ele>
        <time>2012-03-04T09:28:21Z</time>
      </trkpt>
      <trkpt lat="45.76516" lon="4.8204">
        <ele>213</ele>
        <time>2012-03-04T09:28:24Z</time>
      </trkpt>
      <trkpt lat="45.7652" lon="4.8205">
        <ele>214</ele>
        <time>2012-03-04T09:28:29Z</time>
      </trkpt>
      <trkpt lat="45.76522" lon="4.82056">
        <ele>214</ele>
        <time>2012-03-04T09:28:31Z</time>
      </trkpt>
      <trkpt lat="45.76526" lon="4.82063">
        <ele>215</ele>
        <time>2012-03-04T09:28:33Z</time>
      </trkpt>
      <trkpt lat="45.76533" lon="4.82076">
        <ele>215</ele>
        <time>2012-03-04T09:28:39Z</time>
      </trkpt>
      <trkpt lat="45.76535" lon="4.82078">
        <ele>214</ele>
        <time>2012-03-04T09:28:40Z</time>
      </trkpt>
      <trkpt lat="45.76543" lon="4.82089">
        <ele>224</ele>
        <time>2012-03-04T09:28:45Z</time>
      </trkpt>
      <trkpt lat="45.76549" lon="4.82099">
        <ele>224</ele>
        <time>2012-03-04T09:28:49Z</time>
      </trkpt>
      <trkpt lat="45.76551" lon="4.82102">
        <ele>224</ele>
        <time>2012-03-04T09:28:50Z</time>
      </trkpt>
      <trkpt lat="45.76556" lon="4.82111">
        <ele>225</ele>
        <time>2012-03-04T09:28:55Z</time>
      </trkpt>
      <trkpt lat="45.76562" lon="4.82119">
        <ele>225</ele>
        <time>2012-03-04T09:28:59Z</time>
      </trkpt>
      <trkpt lat="45.76564" lon="4.8212">
        <ele>225</ele>
        <time>2012-03-04T09:29:00Z</time>
      </trkpt>
      <trkpt lat="45.76576" lon="4.82122">
        <ele>225</ele>
        <time>2012-03-04T09:29:05Z</time>
      </trkpt>
      <trkpt lat="45.76581" lon="4.82122">
        <ele>224</ele>
        <time>2012-03-04T09:29:07Z</time>
      </trkpt>
      <trkpt lat="45.76591" lon="4.82122">
        <ele>206</ele>
        <time>2012-03-04T09:29:11Z</time>
      </trkpt>
      <trkpt lat="45.766" lon="4.82124">
        <ele>205</ele>
        <time>2012-03-04T09:29:15Z</time>
      </trkpt>
      <trkpt lat="45.76607" lon="4.82125">
        <ele>204</ele>
        <time>2012-03-04T09:29:18Z</time>
      </trkpt>
      <trkpt lat="45.76616" lon="4.8213">
        <ele>203</ele>
        <time>2012-03-04T09:29:22Z</time>
      </trkpt>
      <trkpt lat="45.76618" lon="4.82131">
        <ele>203</ele>
        <time>2012-03-04T09:29:23Z</time>
      </trkpt>
      <trkpt lat="45.76625" lon="4.82144">
        <ele>203</ele>
        <time>2012-03-04T09:29:28Z</time>
      </trkpt>
      <trkpt lat="45.76626" lon="4.82147">
        <ele>203</ele>
        <time>2012-03-04T09:29:29Z</time>
      </trkpt>
      <trkpt lat="45.76629" lon="4.82153">
        <ele>203</ele>
        <time>2012-03-04T09:29:31Z</time>
      </trkpt>
      <trkpt lat="45.76629" lon="4.82156">
        <ele>203</ele>
        <time>2012-03-04T09:29:32Z</time>
      </trkpt>
      <trkpt lat="45.7663" lon="4.8216">
        <ele>203</ele>
        <time>2012-03-04T09:29:33Z</time>
      </trkpt>
      <trkpt lat="45.76631" lon="4.82182">
        <ele>214</ele>
        <time>2012-03-04T09:29:39Z</time>
      </trkpt>
      <trkpt lat="45.76628" lon="4.82203">
        <ele>215</ele>
        <time>2012-03-04T09:29:45Z</time>
      </trkpt>
      <trkpt lat="45.76627" lon="4.82209">
        <ele>216</ele>
        <time>2012-03-04T09:29:47Z</time>
      </trkpt>
      <trkpt lat="45.76627" lon="4.8222">
        <ele>216</ele>
        <time>2012-03-04T09:29:50Z</time>
      </trkpt>
      <trkpt lat="45.76627" lon="4.82234">
        <ele>217</ele>
        <time>2012-03-04T09:29:54Z</time>
      </trkpt>
      <trkpt lat="45.76627" lon="4.82237">
        <ele>217</ele>
        <time>2012-03-04T09:29:55Z</time>
      </trkpt>
      <trkpt lat="45.76628" lon="4.82255">
        <ele>218</ele>
        <time>2012-03-04T09:30:00Z</time>
      </trkpt>
      <trkpt lat="45.76629" lon="4.82265">
        <ele>218</ele>
        <time>2012-03-04T09:30:03Z</time>
      </trkpt>
      <trkpt lat="45.76628" lon="4.82273">
        <ele>218</ele>
        <time>2012-03-04T09:30:05Z</time>
      </trkpt>
      <trkpt lat="45.76627" lon="4.82288">
        <ele>219</ele>
        <time>2012-03-04T09:30:09Z</time>
      </trkpt>
      <trkpt lat="45.76626" lon="4.8229">
        <ele>219</ele>
        <time>2012-03-04T09:30:10Z</time>
      </trkpt>
      <trkpt lat="45.76621" lon="4.82306">
        <ele>220</ele>
        <time>2012-03-04T09:30:14Z</time>
      </trkpt>
      <trkpt lat="45.76618" lon="4.82311">
        <ele>220</ele>
        <time>2012-03-04T09:30:16Z</time>
      </trkpt>
      <trkpt lat="45.76617" lon="4.82313">
        <ele>221</ele>
        <time>2012-03-04T09:30:17Z</time>
      </trkpt>
      <trkpt lat="45.76616" lon="4.82315">
        <ele>221</ele>
        <time>2012-03-04T09:30:18Z</time>
      </trkpt>
      <trkpt lat="45.76614" lon="4.82326">
        <ele>222</ele>
        <time>2012-03-04T09:30:22Z</time>
      </trkpt>
      <trkpt lat="45.7661" lon="4.82337">
        <ele>220</ele>
        <time>2012-03-04T09:30:26Z</time>
      </trkpt>
      <trkpt lat="45.76609" lon="4.82341">
        <ele>221</ele>
        <time>2012-03-04T09:30:27Z</time>
      </trkpt>
      <trkpt lat="45.76608" lon="4.82344">
        <ele>220</ele>
        <time>2012-03-04T09:30:28Z</time>
      </trkpt>
      <trkpt lat="45.76609" lon="4.8236">
        <ele>219</ele>
        <time>2012-03-04T09:30:32Z</time>
      </trkpt>
      <trkpt lat="45.76609" lon="4.82365">
        <ele>218</ele>
        <time>2012-03-04T09:30:33Z</time>
      </trkpt>
      <trkpt lat="45.76612" lon="4.82382">
        <ele>217</ele>
        <time>2012-03-04T09:30:37Z</time>
      </trkpt>
      <trkpt lat="45.76614" lon="4.82391">
        <ele>216</ele>
        <time>2012-03-04T09:30:39Z</time>
      </trkpt>
      <trkpt lat="45.76615" lon="4.82398">
        <ele>216</ele>
        <time>2012-03-04T09:30:41Z</time>
      </trkpt>
      <trkpt lat="45.76617" lon="4.82419">
        <ele>211</ele>
        <time>2012-03-04T09:30:47Z</time>
      </trkpt>
      <trkpt lat="45.76615" lon="4.82431">
        <ele>211</ele>
        <time>2012-03-04T09:30:50Z</time>
      </trkpt>
      <trkpt lat="45.76615" lon="4.82442">
        <ele>211</ele>
        <time>2012-03-04T09:30:53Z</time>
      </trkpt>
      <trkpt lat="45.76615" lon="4.82446">
        <ele>210</ele>
        <time>2012-03-04T09:30:54Z</time>
      </trkpt>
      <trkpt lat="45.76613" lon="4.82454">
        <ele>210</ele>
        <time>2012-03-04T09:30:57Z</time>
      </trkpt>
      <trkpt lat="45.76608" lon="4.82453">
        <ele>211</ele>
        <time>2012-03-04T09:31:01Z</time>
      </trkpt>
      <trkpt lat="45.76607" lon="4.82452">
        <ele>212</ele>
        <time>2012-03-04T09:31:02Z</time>
      </trkpt>
      <trkpt lat="45.76607" lon="4.82451">
        <ele>212</ele>
        <time>2012-03-04T09:31:03Z</time>
      </trkpt>
      <trkpt lat="45.76604" lon="4.8245">
        <ele>212</ele>
        <time>2012-03-04T09:31:07Z</time>
      </trkpt>
      <trkpt lat="45.76602" lon="4.82451">
        <ele>213</ele>
        <time>2012-03-04T09:31:08Z</time>
      </trkpt>
      <trkpt lat="45.76601" lon="4.8245">
        <ele>213</ele>
        <time>2012-03-04T09:31:09Z</time>
      </trkpt>
      <trkpt lat="45.76597" lon="4.82445">
        <ele>214</ele>
        <time>2012-03-04T09:31:12Z</time>
      </trkpt>
      <trkpt lat="45.76592" lon="4.82442">
        <ele>216</ele>
        <time>2012-03-04T09:31:17Z</time>
      </trkpt>
      <trkpt lat="45.76591" lon="4.8244">
        <ele>216</ele>
        <time>2012-03-04T09:31:18Z</time>
      </trkpt>
      <trkpt lat="45.76588" lon="4.82436">
        <ele>218</ele>
        <time>2012-03-04T09:31:21Z</time>
      </trkpt>
      <trkpt lat="45.76586" lon="4.82434">
        <ele>218</ele>
        <time>2012-03-04T09:31:22Z</time>
      </trkpt>
      <trkpt lat="45.76585" lon="4.82431">
        <ele>220</ele>
        <time>2012-03-04T09:31:24Z</time>
      </trkpt>
      <trkpt lat="45.76584" lon="4.8243">
        <ele>220</ele>
        <time>2012-03-04T09:31:25Z</time>
      </trkpt>
      <trkpt lat="45.76583" lon="4.82427">
        <ele>230</ele>
        <time>2012-03-04T09:31:30Z</time>
      </trkpt>
      <trkpt lat="45.76582" lon="4.82426">
        <ele>230</ele>
        <time>2012-03-04T09:31:31Z</time>
      </trkpt>
      <trkpt lat="45.7658" lon="4.82422">
        <ele>229</ele>
        <time>2012-03-04T09:31:35Z</time>
      </trkpt>
      <trkpt lat="45.76575" lon="4.82418">
        <ele>230</ele>
        <time>2012-03-04T09:31:40Z</time>
      </trkpt>
      <trkpt lat="45.76573" lon="4.82415">
        <ele>233</ele>
        <time>2012-03-04T09:31:43Z</time>
      </trkpt>
      <trkpt lat="45.76573" lon="4.82414">
        <ele>233</ele>
        <time>2012-03-04T09:31:44Z</time>
      </trkpt>
      <trkpt lat="45.76569" lon="4.82413">
        <ele>234</ele>
        <time>2012-03-04T09:31:47Z</time>
      </trkpt>
      <trkpt lat="45.76566" lon="4.8241">
        <ele>236</ele>
        <time>2012-03-04T09:31:53Z</time>
      </trkpt>
      <trkpt lat="45.76563" lon="4.82407">
        <ele>237</ele>
        <time>2012-03-04T09:31:57Z</time>
      </trkpt>
      <trkpt lat="45.76563" lon="4.82406">
        <ele>237</ele>
        <time>2012-03-04T09:31:58Z</time>
      </trkpt>
      <trkpt lat="45.76561" lon="4.82402">
        <ele>238</ele>
        <time>2012-03-04T09:32:01Z</time>
      </trkpt>
      <trkpt lat="45.76558" lon="4.824">
        <ele>239</ele>
        <time>2012-03-04T09:32:05Z</time>
      </trkpt>
      <trkpt lat="45.76555" lon="4.82394">
        <ele>239</ele>
        <time>2012-03-04T09:32:10Z</time>
      </trkpt>
      <trkpt lat="45.76553" lon="4.8239">
        <ele>240</ele>
        <time>2012-03-04T09:32:18Z</time>
      </trkpt>
      <trkpt lat="45.76552" lon="4.82388">
        <ele>241</ele>
        <time>2012-03-04T09:32:19Z</time>
      </trkpt>
      <trkpt lat="45.76552" lon="4.82387">
        <ele>241</ele>
        <time>2012-03-04T09:32:21Z</time>
      </trkpt>
      <trkpt lat="45.76552" lon="4.82387">
        <ele>241</ele>
        <time>2012-03-04T09:32:24Z</time>
      </trkpt>
      <trkpt lat="45.7655" lon="4.82388">
        <ele>241</ele>
        <time>2012-03-04T09:32:26Z</time>
      </trkpt>
      <trkpt lat="45.76548" lon="4.82387">
        <ele>241</ele>
        <time>2012-03-04T09:32:30Z</time>
      </trkpt>
      <trkpt lat="45.76546" lon="4.82389">
        <ele>241</ele>
        <time>2012-03-04T09:32:33Z</time>
      </trkpt>
      <trkpt lat="45.76544" lon="4.82388">
        <ele>242</ele>
        <time>2012-03-04T09:32:34Z</time>
      </trkpt>
      <trkpt lat="45.76543" lon="4.82384">
        <ele>242</ele>
        <time>2012-03-04T09:32:37Z</time>
      </trkpt>
      <trkpt lat="45.76542" lon="4.82383">
        <ele>242</ele>
        <time>2012-03-04T09:32:38Z</time>
      </trkpt>
      <trkpt lat="45.7654" lon="4.8238">
        <ele>243</ele>
        <time>2012-03-04T09:32:41Z</time>
      </trkpt>
      <trkpt lat="45.76539" lon="4.82378">
        <ele>243</ele>
        <time>2012-03-04T09:32:43Z</time>
      </trkpt>
      <trkpt lat="45.76534" lon="4.82373">
        <ele>244</ele>
        <time>2012-03-04T09:32:47Z</time>
      </trkpt>
      <trkpt lat="45.76533" lon="4.82372">
        <ele>244</ele>
        <time>2012-03-04T09:32:48Z</time>
      </trkpt>
      <trkpt lat="45.76532" lon="4.82368">
        <ele>245</ele>
        <time>2012-03-04T09:32:55Z</time>
      </trkpt>
      <trkpt lat="45.76531" lon="4.82367">
        <ele>245</ele>
        <time>2012-03-04T09:32:56Z</time>
      </trkpt>
      <trkpt lat="45.76527" lon="4.82364">
        <ele>246</ele>
        <time>2012-03-04T09:33:00Z</time>
      </trkpt>
      <trkpt lat="45.76526" lon="4.8236">
        <ele>246</ele>
        <time>2012-03-04T09:33:07Z</time>
      </trkpt>
      <trkpt lat="45.76522" lon="4.82359">
        <ele>247</ele>
        <time>2012-03-04T09:33:12Z</time>
      </trkpt>
      <trkpt lat="45.76521" lon="4.82358">
        <ele>247</ele>
        <time>2012-03-04T09:33:13Z</time>
      </trkpt>
      <trkpt lat="45.76519" lon="4.82358">
        <ele>248</ele>
        <time>2012-03-04T09:33:15Z</time>
      </trkpt>
      <trkpt lat="45.76516" lon="4.82357">
        <ele>249</ele>
        <time>2012-03-04T09:33:19Z</time>
      </trkpt>
      <trkpt lat="45.76517" lon="4.82355">
        <ele>249</ele>
        <time>2012-03-04T09:33:20Z</time>
      </trkpt>
      <trkpt lat="45.76514" lon="4.82352">
        <ele>250</ele>
        <time>2012-03-04T09:33:23Z</time>
      </trkpt>
      <trkpt lat="45.76512" lon="4.82351">
        <ele>251</ele>
        <time>2012-03-04T09:33:26Z</time>
      </trkpt>
      <trkpt lat="45.7651" lon="4.82348">
        <ele>252</ele>
        <time>2012-03-04T09:33:29Z</time>
      </trkpt>
      <trkpt lat="45.76506" lon="4.82345">
        <ele>253</ele>
        <time>2012-03-04T09:33:32Z</time>
      </trkpt>
      <trkpt lat="45.76504" lon="4.82341">
        <ele>256</ele>
        <time>2012-03-04T09:33:37Z</time>
      </trkpt>
      <trkpt lat="45.765" lon="4.82337">
        <ele>261</ele>
        <time>2012-03-04T09:33:42Z</time>
      </trkpt>
      <trkpt lat="45.76496" lon="4.82332">
        <ele>262</ele>
        <time>2012-03-04T09:33:46Z</time>
      </trkpt>
      <trkpt lat="45.76492" lon="4.82326">
        <ele>264</ele>
        <time>2012-03-04T09:33:52Z</time>
      </trkpt>
      <trkpt lat="45.76492" lon="4.82323">
        <ele>265</ele>
        <time>2012-03-04T09:33:57Z</time>
      </trkpt>
      <trkpt lat="45.76491" lon="4.82322">
        <ele>265</ele>
        <time>2012-03-04T09:33:58Z</time>
      </trkpt>
      <trkpt lat="45.7649" lon="4.82321">
        <ele>265</ele>
        <time>2012-03-04T09:33:59Z</time>
      </trkpt>
      <trkpt lat="45.76489" lon="4.82318">
        <ele>265</ele>
        <time>2012-03-04T09:34:07Z</time>
      </trkpt>
      <trkpt lat="45.76488" lon="4.82314">
        <ele>266</ele>
        <time>2012-03-04T09:34:11Z</time>
      </trkpt>
      <trkpt lat="45.76485" lon="4.82313">
        <ele>266</ele>
        <time>2012-03-04T09:34:13Z</time>
      </trkpt>
      <trkpt lat="45.76482" lon="4.82311">
        <ele>267</ele>
        <time>2012-03-04T09:34:16Z</time>
      </trkpt>
      <trkpt lat="45.76477" lon="4.82307">
        <ele>268</ele>
        <time>2012-03-04T09:34:21Z</time>
      </trkpt>
      <trkpt lat="45.76476" lon="4.82306">
        <ele>268</ele>
        <time>2012-03-04T09:34:22Z</time>
      </trkpt>
      <trkpt lat="45.76475" lon="4.82305">
        <ele>268</ele>
        <time>2012-03-04T09:34:23Z</time>
      </trkpt>
      <trkpt lat="45.76474" lon="4.82301">
        <ele>268</ele>
        <time>2012-03-04T09:34:27Z</time>
      </trkpt>
      <trkpt lat="45.76473" lon="4.82301">
        <ele>268</ele>
        <time>2012-03-04T09:34:28Z</time>
      </trkpt>
      <trkpt lat="45.76472" lon="4.823">
        <ele>268</ele>
        <time>2012-03-04T09:34:29Z</time>
      </trkpt>
      <trkpt lat="45.76468" lon="4.82294">
        <ele>269</ele>
        <time>2012-03-04T09:34:34Z</time>
      </trkpt>
      <trkpt lat="45.76464" lon="4.8229">
        <ele>269</ele>
        <time>2012-03-04T09:34:39Z</time>
      </trkpt>
      <trkpt lat="45.76463" lon="4.82291">
        <ele>270</ele>
        <time>2012-03-04T09:34:40Z</time>
      </trkpt>
      <trkpt lat="45.76462" lon="4.82291">
        <ele>270</ele>
        <time>2012-03-04T09:34:41Z</time>
      </trkpt>
      <trkpt lat="45.76459" lon="4.82288">
        <ele>270</ele>
        <time>2012-03-04T09:34:47Z</time>
      </trkpt>
      <trkpt lat="45.76455" lon="4.82284">
        <ele>271</ele>
        <time>2012-03-04T09:34:53Z</time>
      </trkpt>
      <trkpt lat="45.76453" lon="4.82279">
        <ele>271</ele>
        <time>2012-03-04T09:34:59Z</time>
      </trkpt>
      <trkpt lat="45.76447" lon="4.82276">
        <ele>272</ele>
        <time>2012-03-04T09:35:06Z</time>
      </trkpt>
      <trkpt lat="45.76439" lon="4.82272">
        <ele>274</ele>
        <time>2012-03-04T09:35:14Z</time>
      </trkpt>
      <trkpt lat="45.76431" lon="4.82267">
        <ele>276</ele>
        <time>2012-03-04T09:35:21Z</time>
      </trkpt>
      <trkpt lat="45.7643" lon="4.82267">
        <ele>276</ele>
        <time>2012-03-04T09:35:22Z</time>
      </trkpt>
      <trkpt lat="45.76428" lon="4.82266">
        <ele>276</ele>
        <time>2012-03-04T09:35:24Z</time>
      </trkpt>
      <trkpt lat="45.76426" lon="4.82265">
        <ele>277</ele>
        <time>2012-03-04T09:35:27Z</time>
      </trkpt>
      <trkpt lat="45.76423" lon="4.82264">
        <ele>278</ele>
        <time>2012-03-04T09:35:31Z</time>
      </trkpt>
      <trkpt lat="45.76422" lon="4.82264">
        <ele>278</ele>
        <time>2012-03-04T09:35:32Z</time>
      </trkpt>
      <trkpt lat="45.76412" lon="4.82266">
        <ele>284</ele>
        <time>2012-03-04T09:35:39Z</time>
      </trkpt>
      <trkpt lat="45.76411" lon="4.82266">
        <ele>284</ele>
        <time>2012-03-04T09:35:40Z</time>
      </trkpt>
      <trkpt lat="45.7641" lon="4.82266">
        <ele>284</ele>
        <time>2012-03-04T09:35:41Z</time>
      </trkpt>
      <trkpt lat="45.76407" lon="4.82263">
        <ele>284</ele>
        <time>2012-03-04T09:35:44Z</time>
      </trkpt>
      <trkpt lat="45.76405" lon="4.82263">
        <ele>284</ele>
        <time>2012-03-04T09:35:45Z</time>
      </trkpt>
      <trkpt lat="45.76394" lon="4.82266">
        <ele>284</ele>
        <time>2012-03-04T09:35:50Z</time>
      </trkpt>
      <trkpt lat="45.76382" lon="4.82268">
        <ele>285</ele>
        <time>2012-03-04T09:35:56Z</time>
      </trkpt>
      <trkpt lat="45.76378" lon="4.82263">
        <ele>285</ele>
        <time>2012-03-04T09:35:59Z</time>
      </trkpt>
      <trkpt lat="45.76378" lon="4.82261">
        <ele>285</ele>
        <time>2012-03-04T09:36:00Z</time>
      </trkpt>
      <trkpt lat="45.76378" lon="4.82249">
        <ele>288</ele>
        <time>2012-03-04T09:36:04Z</time>
      </trkpt>
      <trkpt lat="45.76379" lon="4.82241">
        <ele>288</ele>
        <time>2012-03-04T09:36:07Z</time>
      </trkpt>
      <trkpt lat="45.7638" lon="4.82235">
        <ele>287</ele>
        <time>2012-03-04T09:36:09Z</time>
      </trkpt>
      <trkpt lat="45.76377" lon="4.82224">
        <ele>287</ele>
        <time>2012-03-04T09:36:13Z</time>
      </trkpt>
      <trkpt lat="45.76368" lon="4.82221">
        <ele>288</ele>
        <time>2012-03-04T09:36:17Z</time>
      </trkpt>
      <trkpt lat="45.76365" lon="4.82221">
        <ele>289</ele>
        <time>2012-03-04T09:36:18Z</time>
      </trkpt>
      <trkpt lat="45.76359" lon="4.82221">
        <ele>289</ele>
        <time>2012-03-04T09:36:20Z</time>
      </trkpt>
      <trkpt lat="45.7635" lon="4.8222">
        <ele>290</ele>
        <time>2012-03-04T09:36:23Z</time>
      </trkpt>
      <trkpt lat="45.76347" lon="4.8222">
        <ele>290</ele>
        <time>2012-03-04T09:36:24Z</time>
      </trkpt>
      <trkpt lat="45.76335" lon="4.82218">
        <ele>291</ele>
        <time>2012-03-04T09:36:29Z</time>
      </trkpt>
      <trkpt lat="45.76327" lon="4.82215">
        <ele>296</ele>
        <time>2012-03-04T09:36:32Z</time>
      </trkpt>
      <trkpt lat="45.76321" lon="4.82214">
        <ele>296</ele>
        <time>2012-03-04T09:36:35Z</time>
      </trkpt>
      <trkpt lat="45.76308" lon="4.82214">
        <ele>296</ele>
        <time>2012-03-04T09:36:40Z</time>
      </trkpt>
      <trkpt lat="45.76306" lon="4.82213">
        <ele>296</ele>
        <time>2012-03-04T09:36:41Z</time>
      </trkpt>
      <trkpt lat="45.76295" lon="4.82214">
        <ele>296</ele>
        <time>2012-03-04T09:36:45Z</time>
      </trkpt>
      <trkpt lat="45.76289" lon="4.82215">
        <ele>296</ele>
        <time>2012-03-04T09:36:47Z</time>
      </trkpt>
      <trkpt lat="45.76281" lon="4.82218">
        <ele>296</ele>
        <time>2012-03-04T09:36:52Z</time>
      </trkpt>
      <trkpt lat="45.76284" lon="4.8223">
        <ele>297</ele>
        <time>2012-03-04T09:36:55Z</time>
      </trkpt>
      <trkpt lat="45.76283" lon="4.82235">
        <ele>297</ele>
        <time>2012-03-04T09:36:56Z</time>
      </trkpt>
      <trkpt lat="45.76283" lon="4.82239">
        <ele>297</ele>
        <time>2012-03-04T09:36:57Z</time>
      </trkpt>
      <trkpt lat="45.76283" lon="4.82245">
        <ele>297</ele>
        <time>2012-03-04T09:36:59Z</time>
      </trkpt>
      <trkpt lat="45.76283" lon="4.82248">
        <ele>297</ele>
        <time>2012-03-04T09:37:00Z</time>
      </trkpt>
      <trkpt lat="45.76283" lon="4.82261">
        <ele>291</ele>
        <time>2012-03-04T09:37:04Z</time>
      </trkpt>
      <trkpt lat="45.76283" lon="4.82264">
        <ele>291</ele>
        <time>2012-03-04T09:37:05Z</time>
      </trkpt>
      <trkpt lat="45.76284" lon="4.82269">
        <ele>290</ele>
        <time>2012-03-04T09:37:07Z</time>
      </trkpt>
      <trkpt lat="45.76285" lon="4.82274">
        <ele>290</ele>
        <time>2012-03-04T09:37:09Z</time>
      </trkpt>
      <trkpt lat="45.76286" lon="4.82288">
        <ele>288</ele>
        <time>2012-03-04T09:37:13Z</time>
      </trkpt>
      <trkpt lat="45.76285" lon="4.8229">
        <ele>288</ele>
        <time>2012-03-04T09:37:14Z</time>
      </trkpt>
      <trkpt lat="45.76284" lon="4.82296">
        <ele>287</ele>
        <time>2012-03-04T09:37:20Z</time>
      </trkpt>
      <trkpt lat="45.76284" lon="4.823">
        <ele>286</ele>
        <time>2012-03-04T09:37:28Z</time>
      </trkpt>
      <trkpt lat="45.76283" lon="4.82302">
        <ele>286</ele>
        <time>2012-03-04T09:37:32Z</time>
      </trkpt>
      <trkpt lat="45.76283" lon="4.82303">
        <ele>286</ele>
        <time>2012-03-04T09:37:41Z</time>
      </trkpt>
      <trkpt lat="45.7628" lon="4.82302">
        <ele>286</ele>
        <time>2012-03-04T09:37:54Z</time>
      </trkpt>
      <trkpt lat="45.76274" lon="4.82303">
        <ele>286</ele>
        <time>2012-03-04T09:37:58Z</time>
      </trkpt>
      <trkpt lat="45.7627" lon="4.82302">
        <ele>286</ele>
        <time>2012-03-04T09:37:59Z</time>
      </trkpt>
      <trkpt lat="45.76255" lon="4.82295">
        <ele>286</ele>
        <time>2012-03-04T09:38:04Z</time>
      </trkpt>
      <trkpt lat="45.76253" lon="4.82294">
        <ele>287</ele>
        <time>2012-03-04T09:38:05Z</time>
      </trkpt>
      <trkpt lat="45.76247" lon="4.82294">
        <ele>286</ele>
        <time>2012-03-04T09:38:08Z</time>
      </trkpt>
      <trkpt lat="45.76243" lon="4.82297">
        <ele>286</ele>
        <time>2012-03-04T09:38:11Z</time>
      </trkpt>
      <trkpt lat="45.76241" lon="4.82298">
        <ele>285</ele>
        <time>2012-03-04T09:38:13Z</time>
      </trkpt>
      <trkpt lat="45.76242" lon="4.82299">
        <ele>285</ele>
        <time>2012-03-04T09:38:14Z</time>
      </trkpt>
      <trkpt lat="45.76243" lon="4.82301">
        <ele>285</ele>
        <time>2012-03-04T09:38:15Z</time>
      </trkpt>
      <trkpt lat="45.76245" lon="4.82304">
        <ele>284</ele>
        <time>2012-03-04T09:38:16Z</time>
      </trkpt>
      <trkpt lat="45.76252" lon="4.82308">
        <ele>284</ele>
        <time>2012-03-04T09:38:19Z</time>
      </trkpt>
      <trkpt lat="45.76263" lon="4.82314">
        <ele>283</ele>
        <time>2012-03-04T09:38:23Z</time>
      </trkpt>
      <trkpt lat="45.76267" lon="4.82316">
        <ele>283</ele>
        <time>2012-03-04T09:38:24Z</time>
      </trkpt>
      <trkpt lat="45.7628" lon="4.8232">
        <ele>284</ele>
        <time>2012-03-04T09:38:28Z</time>
      </trkpt>
      <trkpt lat="45.76283" lon="4.82321">
        <ele>284</ele>
        <time>2012-03-04T09:38:29Z</time>
      </trkpt>
      <trkpt lat="45.76289" lon="4.82329">
        <ele>284</ele>
        <time>2012-03-04T09:38:32Z</time>
      </trkpt>
      <trkpt lat="45.76284" lon="4.82335">
        <ele>270</ele>
        <time>2012-03-04T09:38:35Z</time>
      </trkpt>
      <trkpt lat="45.76281" lon="4.82334">
        <ele>270</ele>
        <time>2012-03-04T09:38:36Z</time>
      </trkpt>
      <trkpt lat="45.76278" lon="4.82333">
        <ele>283</ele>
        <time>2012-03-04T09:38:37Z</time>
      </trkpt>
      <trkpt lat="45.76269" lon="4.82332">
        <ele>281</ele>
        <time>2012-03-04T09:38:40Z</time>
      </trkpt>
      <trkpt lat="45.76263" lon="4.82332">
        <ele>280</ele>
        <time>2012-03-04T09:38:42Z</time>
      </trkpt>
      <trkpt lat="45.7625" lon="4.82332">
        <ele>276</ele>
        <time>2012-03-04T09:38:46Z</time>
      </trkpt>
      <trkpt lat="45.76245" lon="4.82331">
        <ele>277</ele>
        <time>2012-03-04T09:38:48Z</time>
      </trkpt>
      <trkpt lat="45.76234" lon="4.82328">
        <ele>281</ele>
        <time>2012-03-04T09:38:52Z</time>
      </trkpt>
      <trkpt lat="45.76231" lon="4.82334">
        <ele>268</ele>
        <time>2012-03-04T09:38:56Z</time>
      </trkpt>
      <trkpt lat="45.76232" lon="4.82338">
        <ele>268</ele>
        <time>2012-03-04T09:38:57Z</time>
      </trkpt>
      <trkpt lat="45.76243" lon="4.82348">
        <ele>268</ele>
        <time>2012-03-04T09:39:01Z</time>
      </trkpt>
      <trkpt lat="45.76249" lon="4.82351">
        <ele>267</ele>
        <time>2012-03-04T09:39:03Z</time>
      </trkpt>
      <trkpt lat="45.76256" lon="4.82354">
        <ele>269</ele>
        <time>2012-03-04T09:39:05Z</time>
      </trkpt>
      <trkpt lat="45.76267" lon="4.82362">
        <ele>267</ele>
        <time>2012-03-04T09:39:09Z</time>
      </trkpt>
      <trkpt lat="45.76269" lon="4.82364">
        <ele>267</ele>
        <time>2012-03-04T09:39:10Z</time>
      </trkpt>
      <trkpt lat="45.76276" lon="4.82369">
        <ele>266</ele>
        <time>2012-03-04T09:39:13Z</time>
      </trkpt>
      <trkpt lat="45.76276" lon="4.8237">
        <ele>266</ele>
        <time>2012-03-04T09:39:14Z</time>
      </trkpt>
      <trkpt lat="45.76268" lon="4.82371">
        <ele>265</ele>
        <time>2012-03-04T09:39:17Z</time>
      </trkpt>
      <trkpt lat="45.76251" lon="4.82369">
        <ele>265</ele>
        <time>2012-03-04T09:39:23Z</time>
      </trkpt>
      <trkpt lat="45.76248" lon="4.82369">
        <ele>262</ele>
        <time>2012-03-04T09:39:24Z</time>
      </trkpt>
      <trkpt lat="45.76238" lon="4.82364">
        <ele>263</ele>
        <time>2012-03-04T09:39:28Z</time>
      </trkpt>
      <trkpt lat="45.7623" lon="4.82363">
        <ele>263</ele>
        <time>2012-03-04T09:39:31Z</time>
      </trkpt>
      <trkpt lat="45.76228" lon="4.82364">
        <ele>263</ele>
        <time>2012-03-04T09:39:32Z</time>
      </trkpt>
      <trkpt lat="45.76228" lon="4.82365">
        <ele>262</ele>
        <time>2012-03-04T09:39:33Z</time>
      </trkpt>
      <trkpt lat="45.76228" lon="4.82383">
        <ele>259</ele>
        <time>2012-03-04T09:39:38Z</time>
      </trkpt>
      <trkpt lat="45.76229" lon="4.82386">
        <ele>258</ele>
        <time>2012-03-04T09:39:39Z</time>
      </trkpt>
      <trkpt lat="45.76238" lon="4.82397">
        <ele>255</ele>
        <time>2012-03-04T09:39:44Z</time>
      </trkpt>
      <trkpt lat="45.76241" lon="4.824">
        <ele>255</ele>
        <time>2012-03-04T09:39:45Z</time>
      </trkpt>
      <trkpt lat="45.76243" lon="4.82403">
        <ele>254</ele>
        <time>2012-03-04T09:39:46Z</time>
      </trkpt>
      <trkpt lat="45.76252" lon="4.82413">
        <ele>251</ele>
        <time>2012-03-04T09:39:49Z</time>
      </trkpt>
      <trkpt lat="45.76258" lon="4.82416">
        <ele>253</ele>
        <time>2012-03-04T09:39:51Z</time>
      </trkpt>
      <trkpt lat="45.7626" lon="4.82418">
        <ele>246</ele>
        <time>2012-03-04T09:39:52Z</time>
      </trkpt>
      <trkpt lat="45.76262" lon="4.8242">
        <ele>245</ele>
        <time>2012-03-04T09:39:53Z</time>
      </trkpt>
      <trkpt lat="45.76262" lon="4.82427">
        <ele>245</ele>
        <time>2012-03-04T09:39:56Z</time>
      </trkpt>
      <trkpt lat="45.76253" lon="4.82424">
        <ele>246</ele>
        <time>2012-03-04T09:39:59Z</time>
      </trkpt>
      <trkpt lat="45.76246" lon="4.82418">
        <ele>245</ele>
        <time>2012-03-04T09:40:02Z</time>
      </trkpt>
      <trkpt lat="45.76243" lon="4.82417">
        <ele>244</ele>
        <time>2012-03-04T09:40:03Z</time>
      </trkpt>
      <trkpt lat="45.76235" lon="4.82413">
        <ele>253</ele>
        <time>2012-03-04T09:40:06Z</time>
      </trkpt>
      <trkpt lat="45.76228" lon="4.8241">
        <ele>254</ele>
        <time>2012-03-04T09:40:09Z</time>
      </trkpt>
      <trkpt lat="45.76219" lon="4.82409">
        <ele>255</ele>
        <time>2012-03-04T09:40:14Z</time>
      </trkpt>
      <trkpt lat="45.76218" lon="4.82412">
        <ele>254</ele>
        <time>2012-03-04T09:40:15Z</time>
      </trkpt>
      <trkpt lat="45.76219" lon="4.82422">
        <ele>236</ele>
        <time>2012-03-04T09:40:18Z</time>
      </trkpt>
      <trkpt lat="45.76223" lon="4.8243">
        <ele>236</ele>
        <time>2012-03-04T09:40:21Z</time>
      </trkpt>
      <trkpt lat="45.76226" lon="4.82435">
        <ele>236</ele>
        <time>2012-03-04T09:40:23Z</time>
      </trkpt>
      <trkpt lat="45.76228" lon="4.82437">
        <ele>235</ele>
        <time>2012-03-04T09:40:24Z</time>
      </trkpt>
      <trkpt lat="45.76232" lon="4.82452">
        <ele>233</ele>
        <time>2012-03-04T09:40:28Z</time>
      </trkpt>
      <trkpt lat="45.76236" lon="4.82458">
        <ele>232</ele>
        <time>2012-03-04T09:40:30Z</time>
      </trkpt>
      <trkpt lat="45.76237" lon="4.82461">
        <ele>231</ele>
        <time>2012-03-04T09:40:31Z</time>
      </trkpt>
      <trkpt lat="45.7624" lon="4.82463">
        <ele>231</ele>
        <time>2012-03-04T09:40:32Z</time>
      </trkpt>
      <trkpt lat="45.76244" lon="4.82475">
        <ele>228</ele>
        <time>2012-03-04T09:40:37Z</time>
      </trkpt>
      <trkpt lat="45.76243" lon="4.82482">
        <ele>227</ele>
        <time>2012-03-04T09:40:40Z</time>
      </trkpt>
      <trkpt lat="45.76242" lon="4.82494">
        <ele>225</ele>
        <time>2012-03-04T09:40:43Z</time>
      </trkpt>
      <trkpt lat="45.76244" lon="4.82502">
        <ele>218</ele>
        <time>2012-03-04T09:40:45Z</time>
      </trkpt>
      <trkpt lat="45.76247" lon="4.82508">
        <ele>217</ele>
        <time>2012-03-04T09:40:47Z</time>
      </trkpt>
      <trkpt lat="45.76258" lon="4.82518">
        <ele>219</ele>
        <time>2012-03-04T09:40:52Z</time>
      </trkpt>
      <trkpt lat="45.76262" lon="4.82524">
        <ele>218</ele>
        <time>2012-03-04T09:40:54Z</time>
      </trkpt>
      <trkpt lat="45.76264" lon="4.82528">
        <ele>218</ele>
        <time>2012-03-04T09:40:56Z</time>
      </trkpt>
      <trkpt lat="45.76267" lon="4.82529">
        <ele>217</ele>
        <time>2012-03-04T09:40:58Z</time>
      </trkpt>
      <trkpt lat="45.76267" lon="4.82532">
        <ele>217</ele>
        <time>2012-03-04T09:41:01Z</time>
      </trkpt>
      <trkpt lat="45.76263" lon="4.82538">
        <ele>216</ele>
        <time>2012-03-04T09:41:05Z</time>
      </trkpt>
      <trkpt lat="45.7626" lon="4.82542">
        <ele>215</ele>
        <time>2012-03-04T09:41:07Z</time>
      </trkpt>
      <trkpt lat="45.76259" lon="4.82543">
        <ele>215</ele>
        <time>2012-03-04T09:41:08Z</time>
      </trkpt>
      <trkpt lat="45.76256" lon="4.82548">
        <ele>214</ele>
        <time>2012-03-04T09:41:11Z</time>
      </trkpt>
      <trkpt lat="45.76248" lon="4.82555">
        <ele>205</ele>
        <time>2012-03-04T09:41:17Z</time>
      </trkpt>
      <trkpt lat="45.76246" lon="4.82559">
        <ele>205</ele>
        <time>2012-03-04T09:41:20Z</time>
      </trkpt>
      <trkpt lat="45.76241" lon="4.82566">
        <ele>204</ele>
        <time>2012-03-04T09:41:25Z</time>
      </trkpt>
      <trkpt lat="45.76233" lon="4.82577">
        <ele>203</ele>
        <time>2012-03-04T09:41:32Z</time>
      </trkpt>
      <trkpt lat="45.76232" lon="4.82578">
        <ele>203</ele>
        <time>2012-03-04T09:41:33Z</time>
      </trkpt>
      <trkpt lat="45.76226" lon="4.82586">
        <ele>194</ele>
        <time>2012-03-04T09:41:40Z</time>
      </trkpt>
      <trkpt lat="45.76218" lon="4.82597">
        <ele>192</ele>
        <time>2012-03-04T09:41:47Z</time>
      </trkpt>
      <trkpt lat="45.76211" lon="4.82614">
        <ele>190</ele>
        <time>2012-03-04T09:41:53Z</time>
      </trkpt>
      <trkpt lat="45.76207" lon="4.82616">
        <ele>190</ele>
        <time>2012-03-04T09:41:55Z</time>
      </trkpt>
      <trkpt lat="45.76203" lon="4.8262">
        <ele>189</ele>
        <time>2012-03-04T09:41:58Z</time>
      </trkpt>
      <trkpt lat="45.76201" lon="4.82623">
        <ele>189</ele>
        <time>2012-03-04T09:42:03Z</time>
      </trkpt>
      <trkpt lat="45.76193" lon="4.82615">
        <ele>189</ele>
        <time>2012-03-04T09:42:08Z</time>
      </trkpt>
      <trkpt lat="45.76186" lon="4.8261">
        <ele>189</ele>
        <time>2012-03-04T09:42:12Z</time>
      </trkpt>
      <trkpt lat="45.76177" lon="4.82604">
        <ele>188</ele>
        <time>2012-03-04T09:42:17Z</time>
      </trkpt>
      <trkpt lat="45.76175" lon="4.82604">
        <ele>188</ele>
        <time>2012-03-04T09:42:18Z</time>
      </trkpt>
      <trkpt lat="45.76166" lon="4.826">
        <ele>184</ele>
        <time>2012-03-04T09:42:21Z</time>
      </trkpt>
      <trkpt lat="45.76162" lon="4.82599">
        <ele>184</ele>
        <time>2012-03-04T09:42:22Z</time>
      </trkpt>
      <trkpt lat="45.76156" lon="4.82593">
        <ele>184</ele>
        <time>2012-03-04T09:42:25Z</time>
      </trkpt>
      <trkpt lat="45.76149" lon="4.82585">
        <ele>184</ele>
        <time>2012-03-04T09:42:28Z</time>
      </trkpt>
      <trkpt lat="45.76136" lon="4.82575">
        <ele>191</ele>
        <time>2012-03-04T09:42:31Z</time>
      </trkpt>
      <trkpt lat="45.76127" lon="4.82567">
        <ele>191</ele>
        <time>2012-03-04T09:42:33Z</time>
      </trkpt>
      <trkpt lat="45.76117" lon="4.82557">
        <ele>192</ele>
        <time>2012-03-04T09:42:36Z</time>
      </trkpt>
      <trkpt lat="45.76114" lon="4.82553">
        <ele>192</ele>
        <time>2012-03-04T09:42:37Z</time>
      </trkpt>
      <trkpt lat="45.76098" lon="4.82541">
        <ele>193</ele>
        <time>2012-03-04T09:42:41Z</time>
      </trkpt>
      <trkpt lat="45.76094" lon="4.82538">
        <ele>194</ele>
        <time>2012-03-04T09:42:42Z</time>
      </trkpt>
      <trkpt lat="45.76089" lon="4.82534">
        <ele>195</ele>
        <time>2012-03-04T09:42:43Z</time>
      </trkpt>
      <trkpt lat="45.76081" lon="4.82533">
        <ele>193</ele>
        <time>2012-03-04T09:42:46Z</time>
      </trkpt>
      <trkpt lat="45.76084" lon="4.82552">
        <ele>190</ele>
        <time>2012-03-04T09:42:49Z</time>
      </trkpt>
      <trkpt lat="45.76094" lon="4.82587">
        <ele>180</ele>
        <time>2012-03-04T09:42:53Z</time>
      </trkpt>
      <trkpt lat="45.76096" lon="4.82594">
        <ele>180</ele>
        <time>2012-03-04T09:42:54Z</time>
      </trkpt>
      <trkpt lat="45.76094" lon="4.82616">
        <ele>181</ele>
        <time>2012-03-04T09:42:59Z</time>
      </trkpt>
      <trkpt lat="45.76092" lon="4.82624">
        <ele>181</ele>
        <time>2012-03-04T09:43:01Z</time>
      </trkpt>
      <trkpt lat="45.76097" lon="4.82636">
        <ele>181</ele>
        <time>2012-03-04T09:43:03Z</time>
      </trkpt>
      <trkpt lat="45.76093" lon="4.82641">
        <ele>181</ele>
        <time>2012-03-04T09:43:04Z</time>
      </trkpt>
      <trkpt lat="45.76084" lon="4.82646">
        <ele>180</ele>
        <time>2012-03-04T09:43:06Z</time>
      </trkpt>
      <trkpt lat="45.76075" lon="4.82652">
        <ele>180</ele>
        <time>2012-03-04T09:43:09Z</time>
      </trkpt>
      <trkpt lat="45.7607" lon="4.82657">
        <ele>180</ele>
        <time>2012-03-04T09:43:11Z</time>
      </trkpt>
      <trkpt lat="45.76067" lon="4.82658">
        <ele>180</ele>
        <time>2012-03-04T09:43:12Z</time>
      </trkpt>
      <trkpt lat="45.76057" lon="4.82656">
        <ele>180</ele>
        <time>2012-03-04T09:43:15Z</time>
      </trkpt>
      <trkpt lat="45.76055" lon="4.82655">
        <ele>180</ele>
        <time>2012-03-04T09:43:16Z</time>
      </trkpt>
      <trkpt lat="45.76049" lon="4.82652">
        <ele>180</ele>
        <time>2012-03-04T09:43:18Z</time>
      </trkpt>
      <trkpt lat="45.76043" lon="4.82651">
        <ele>180</ele>
        <time>2012-03-04T09:43:20Z</time>
      </trkpt>
      <trkpt lat="45.76033" lon="4.82647">
        <ele>180</ele>
        <time>2012-03-04T09:43:24Z</time>
      </trkpt>
      <trkpt lat="45.76031" lon="4.82647">
        <ele>180</ele>
        <time>2012-03-04T09:43:25Z</time>
      </trkpt>
      <trkpt lat="45.76026" lon="4.82646">
        <ele>180</ele>
        <time>2012-03-04T09:43:27Z</time>
      </trkpt>
      <trkpt lat="45.76022" lon="4.82648">
        <ele>180</ele>
        <time>2012-03-04T09:43:29Z</time>
      </trkpt>
      <trkpt lat="45.76016" lon="4.82649">
        <ele>181</ele>
        <time>2012-03-04T09:43:31Z</time>
      </trkpt>
      <trkpt lat="45.76014" lon="4.82648">
        <ele>181</ele>
        <time>2012-03-04T09:43:32Z</time>
      </trkpt>
      <trkpt lat="45.75999" lon="4.8264">
        <ele>181</ele>
        <time>2012-03-04T09:43:37Z</time>
      </trkpt>
      <trkpt lat="45.75995" lon="4.82642">
        <ele>181</ele>
        <time>2012-03-04T09:43:38Z</time>
      </trkpt>
      <trkpt lat="45.75986" lon="4.82642">
        <ele>181</ele>
        <time>2012-03-04T09:43:42Z</time>
      </trkpt>
      <trkpt lat="45.75976" lon="4.82637">
        <ele>180</ele>
        <time>2012-03-04T09:43:46Z</time>
      </trkpt>
      <trkpt lat="45.75975" lon="4.82634">
        <ele>180</ele>
        <time>2012-03-04T09:43:47Z</time>
      </trkpt>
      <trkpt lat="45.75974" lon="4.82622">
        <ele>181</ele>
        <time>2012-03-04T09:43:51Z</time>
      </trkpt>
      <trkpt lat="45.75977" lon="4.82611">
        <ele>181</ele>
        <time>2012-03-04T09:43:55Z</time>
      </trkpt>
      <trkpt lat="45.75977" lon="4.82607">
        <ele>181</ele>
        <time>2012-03-04T09:43:56Z</time>
      </trkpt>
      <trkpt lat="45.75977" lon="4.82603">
        <ele>181</ele>
        <time>2012-03-04T09:43:57Z</time>
      </trkpt>
      <trkpt lat="45.75973" lon="4.82587">
        <ele>181</ele>
        <time>2012-03-04T09:44:02Z</time>
      </trkpt>
      <trkpt lat="45.75973" lon="4.82584">
        <ele>181</ele>
        <time>2012-03-04T09:44:03Z</time>
      </trkpt>
      <trkpt lat="45.75973" lon="4.82573">
        <ele>187</ele>
        <time>2012-03-04T09:44:07Z</time>
      </trkpt>
      <trkpt lat="45.75973" lon="4.82571">
        <ele>187</ele>
        <time>2012-03-04T09:44:08Z</time>
      </trkpt>
      <trkpt lat="45.75966" lon="4.82563">
        <ele>188</ele>
        <time>2012-03-04T09:44:12Z</time>
      </trkpt>
      <trkpt lat="45.75957" lon="4.82561">
        <ele>188</ele>
        <time>2012-03-04T09:44:16Z</time>
      </trkpt>
      <trkpt lat="45.75954" lon="4.8256">
        <ele>188</ele>
        <time>2012-03-04T09:44:17Z</time>
      </trkpt>
      <trkpt lat="45.75945" lon="4.82557">
        <ele>188</ele>
        <time>2012-03-04T09:44:20Z</time>
      </trkpt>
      <trkpt lat="45.75941" lon="4.82554">
        <ele>188</ele>
        <time>2012-03-04T09:44:22Z</time>
      </trkpt>
      <trkpt lat="45.75938" lon="4.8254">
        <ele>190</ele>
        <time>2012-03-04T09:44:28Z</time>
      </trkpt>
      <trkpt lat="45.75936" lon="4.82534">
        <ele>190</ele>
        <time>2012-03-04T09:44:30Z</time>
      </trkpt>
      <trkpt lat="45.75933" lon="4.8253">
        <ele>191</ele>
        <time>2012-03-04T09:44:33Z</time>
      </trkpt>
      <trkpt lat="45.75931" lon="4.82528">
        <ele>191</ele>
        <time>2012-03-04T09:44:34Z</time>
      </trkpt>
      <trkpt lat="45.75926" lon="4.82522">
        <ele>192</ele>
        <time>2012-03-04T09:44:38Z</time>
      </trkpt>
      <trkpt lat="45.75925" lon="4.82523">
        <ele>192</ele>
        <time>2012-03-04T09:44:39Z</time>
      </trkpt>
      <trkpt lat="45.75925" lon="4.82523">
        <ele>192</ele>
        <time>2012-03-04T09:44:40Z</time>
      </trkpt>
      <trkpt lat="45.7592" lon="4.8252">
        <ele>192</ele>
        <time>2012-03-04T09:44:43Z</time>
      </trkpt>
      <trkpt lat="45.75915" lon="4.82515">
        <ele>191</ele>
        <time>2012-03-04T09:44:47Z</time>
      </trkpt>
      <trkpt lat="45.7591" lon="4.82505">
        <ele>193</ele>
        <time>2012-03-04T09:44:53Z</time>
      </trkpt>
      <trkpt lat="45.75909" lon="4.82503">
        <ele>193</ele>
        <time>2012-03-04T09:44:54Z</time>
      </trkpt>
      <trkpt lat="45.75908" lon="4.825">
        <ele>198</ele>
        <time>2012-03-04T09:44:56Z</time>
      </trkpt>
      <trkpt lat="45.75905" lon="4.82495">
        <ele>199</ele>
        <time>2012-03-04T09:44:59Z</time>
      </trkpt>
      <trkpt lat="45.75904" lon="4.82493">
        <ele>199</ele>
        <time>2012-03-04T09:45:00Z</time>
      </trkpt>
      <trkpt lat="45.75897" lon="4.82486">
        <ele>200</ele>
        <time>2012-03-04T09:45:05Z</time>
      </trkpt>
      <trkpt lat="45.75894" lon="4.82483">
        <ele>201</ele>
        <time>2012-03-04T09:45:09Z</time>
      </trkpt>
      <trkpt lat="45.75891" lon="4.82481">
        <ele>201</ele>
        <time>2012-03-04T09:45:11Z</time>
      </trkpt>
      <trkpt lat="45.75889" lon="4.8248">
        <ele>201</ele>
        <time>2012-03-04T09:45:12Z</time>
      </trkpt>
      <trkpt lat="45.75882" lon="4.82475">
        <ele>201</ele>
        <time>2012-03-04T09:45:17Z</time>
      </trkpt>
      <trkpt lat="45.75875" lon="4.82472">
        <ele>201</ele>
        <time>2012-03-04T09:45:23Z</time>
      </trkpt>
      <trkpt lat="45.75866" lon="4.82465">
        <ele>202</ele>
        <time>2012-03-04T09:45:29Z</time>
      </trkpt>
      <trkpt lat="45.75858" lon="4.8246">
        <ele>202</ele>
        <time>2012-03-04T09:45:35Z</time>
      </trkpt>
      <trkpt lat="45.75856" lon="4.8246">
        <ele>202</ele>
        <time>2012-03-04T09:45:37Z</time>
      </trkpt>
      <trkpt lat="45.75852" lon="4.82458">
        <ele>202</ele>
        <time>2012-03-04T09:45:40Z</time>
      </trkpt>
      <trkpt lat="45.7585" lon="4.82454">
        <ele>203</ele>
        <time>2012-03-04T09:45:43Z</time>
      </trkpt>
      <trkpt lat="45.75847" lon="4.8245">
        <ele>203</ele>
        <time>2012-03-04T09:45:46Z</time>
      </trkpt>
      <trkpt lat="45.75844" lon="4.82445">
        <ele>204</ele>
        <time>2012-03-04T09:45:49Z</time>
      </trkpt>
      <trkpt lat="45.75843" lon="4.82437">
        <ele>206</ele>
        <time>2012-03-04T09:45:53Z</time>
      </trkpt>
      <trkpt lat="45.75843" lon="4.82422">
        <ele>208</ele>
        <time>2012-03-04T09:46:00Z</time>
      </trkpt>
      <trkpt lat="45.75843" lon="4.82418">
        <ele>209</ele>
        <time>2012-03-04T09:46:02Z</time>
      </trkpt>
      <trkpt lat="45.75842" lon="4.8241">
        <ele>217</ele>
        <time>2012-03-04T09:46:05Z</time>
      </trkpt>
      <trkpt lat="45.75841" lon="4.82408">
        <ele>217</ele>
        <time>2012-03-04T09:46:06Z</time>
      </trkpt>
      <trkpt lat="45.75838" lon="4.82401">
        <ele>219</ele>
        <time>2012-03-04T09:46:10Z</time>
      </trkpt>
      <trkpt lat="45.75836" lon="4.82399">
        <ele>220</ele>
        <time>2012-03-04T09:46:12Z</time>
      </trkpt>
      <trkpt lat="45.75835" lon="4.82396">
        <ele>221</ele>
        <time>2012-03-04T09:46:14Z</time>
      </trkpt>
      <trkpt lat="45.75833" lon="4.82388">
        <ele>223</ele>
        <time>2012-03-04T09:46:17Z</time>
      </trkpt>
      <trkpt lat="45.75832" lon="4.82387">
        <ele>214</ele>
        <time>2012-03-04T09:46:18Z</time>
      </trkpt>
      <trkpt lat="45.75829" lon="4.82382">
        <ele>215</ele>
        <time>2012-03-04T09:46:23Z</time>
      </trkpt>
      <trkpt lat="45.75823" lon="4.82375">
        <ele>216</ele>
        <time>2012-03-04T09:46:29Z</time>
      </trkpt>
      <trkpt lat="45.7581" lon="4.8237">
        <ele>215</ele>
        <time>2012-03-04T09:46:35Z</time>
      </trkpt>
      <trkpt lat="45.75804" lon="4.82368">
        <ele>215</ele>
        <time>2012-03-04T09:46:37Z</time>
      </trkpt>
      <trkpt lat="45.75799" lon="4.82366">
        <ele>215</ele>
        <time>2012-03-04T09:46:40Z</time>
      </trkpt>
      <trkpt lat="45.7579" lon="4.82359">
        <ele>214</ele>
        <time>2012-03-04T09:46:45Z</time>
      </trkpt>
      <trkpt lat="45.75786" lon="4.82357">
        <ele>214</ele>
        <time>2012-03-04T09:46:47Z</time>
      </trkpt>
      <trkpt lat="45.75778" lon="4.82357">
        <ele>213</ele>
        <time>2012-03-04T09:46:51Z</time>
      </trkpt>
      <trkpt lat="45.75769" lon="4.82348">
        <ele>213</ele>
        <time>2012-03-04T09:46:57Z</time>
      </trkpt>
      <trkpt lat="45.75766" lon="4.82336">
        <ele>214</ele>
        <time>2012-03-04T09:47:01Z</time>
      </trkpt>
      <trkpt lat="45.75767" lon="4.82329">
        <ele>222</ele>
        <time>2012-03-04T09:47:03Z</time>
      </trkpt>
      <trkpt lat="45.75772" lon="4.82323">
        <ele>224</ele>
        <time>2012-03-04T09:47:06Z</time>
      </trkpt>
      <trkpt lat="45.75773" lon="4.82322">
        <ele>224</ele>
        <time>2012-03-04T09:47:07Z</time>
      </trkpt>
      <trkpt lat="45.75776" lon="4.82317">
        <ele>226</ele>
        <time>2012-03-04T09:47:11Z</time>
      </trkpt>
      <trkpt lat="45.75774" lon="4.82314">
        <ele>226</ele>
        <time>2012-03-04T09:47:13Z</time>
      </trkpt>
      <trkpt lat="45.75772" lon="4.82308">
        <ele>226</ele>
        <time>2012-03-04T09:47:16Z</time>
      </trkpt>
      <trkpt lat="45.75772" lon="4.82306">
        <ele>227</ele>
        <time>2012-03-04T09:47:17Z</time>
      </trkpt>
      <trkpt lat="45.75775" lon="4.82297">
        <ele>228</ele>
        <time>2012-03-04T09:47:21Z</time>
      </trkpt>
      <trkpt lat="45.75775" lon="4.82293">
        <ele>229</ele>
        <time>2012-03-04T09:47:23Z</time>
      </trkpt>
      <trkpt lat="45.75776" lon="4.82289">
        <ele>229</ele>
        <time>2012-03-04T09:47:25Z</time>
      </trkpt>
      <trkpt lat="45.75775" lon="4.82283">
        <ele>230</ele>
        <time>2012-03-04T09:47:28Z</time>
      </trkpt>
      <trkpt lat="45.75776" lon="4.82278">
        <ele>230</ele>
        <time>2012-03-04T09:47:30Z</time>
      </trkpt>
      <trkpt lat="45.75776" lon="4.82269">
        <ele>231</ele>
        <time>2012-03-04T09:47:34Z</time>
      </trkpt>
      <trkpt lat="45.75775" lon="4.82264">
        <ele>231</ele>
        <time>2012-03-04T09:47:36Z</time>
      </trkpt>
      <trkpt lat="45.75775" lon="4.82253">
        <ele>232</ele>
        <time>2012-03-04T09:47:41Z</time>
      </trkpt>
      <trkpt lat="45.75775" lon="4.8225">
        <ele>232</ele>
        <time>2012-03-04T09:47:42Z</time>
      </trkpt>
      <trkpt lat="45.75776" lon="4.82241">
        <ele>238</ele>
        <time>2012-03-04T09:47:46Z</time>
      </trkpt>
      <trkpt lat="45.75775" lon="4.82238">
        <ele>238</ele>
        <time>2012-03-04T09:47:47Z</time>
      </trkpt>
      <trkpt lat="45.75774" lon="4.82228">
        <ele>238</ele>
        <time>2012-03-04T09:47:52Z</time>
      </trkpt>
      <trkpt lat="45.75773" lon="4.82216">
        <ele>239</ele>
        <time>2012-03-04T09:47:57Z</time>
      </trkpt>
      <trkpt lat="45.75772" lon="4.82202">
        <ele>239</ele>
        <time>2012-03-04T09:48:03Z</time>
      </trkpt>
      <trkpt lat="45.75766" lon="4.8219">
        <ele>240</ele>
        <time>2012-03-04T09:48:09Z</time>
      </trkpt>
      <trkpt lat="45.75765" lon="4.82186">
        <ele>240</ele>
        <time>2012-03-04T09:48:11Z</time>
      </trkpt>
      <trkpt lat="45.7576" lon="4.82179">
        <ele>240</ele>
        <time>2012-03-04T09:48:14Z</time>
      </trkpt>
      <trkpt lat="45.75753" lon="4.82174">
        <ele>241</ele>
        <time>2012-03-04T09:48:18Z</time>
      </trkpt>
      <trkpt lat="45.75753" lon="4.82173">
        <ele>241</ele>
        <time>2012-03-04T09:48:19Z</time>
      </trkpt>
      <trkpt lat="45.75745" lon="4.82165">
        <ele>242</ele>
        <time>2012-03-04T09:48:25Z</time>
      </trkpt>
      <trkpt lat="45.75743" lon="4.82162">
        <ele>242</ele>
        <time>2012-03-04T09:48:27Z</time>
      </trkpt>
      <trkpt lat="45.75741" lon="4.82159">
        <ele>243</ele>
        <time>2012-03-04T09:48:29Z</time>
      </trkpt>
      <trkpt lat="45.75739" lon="4.82157">
        <ele>243</ele>
        <time>2012-03-04T09:48:30Z</time>
      </trkpt>
      <trkpt lat="45.75737" lon="4.82153">
        <ele>243</ele>
        <time>2012-03-04T09:48:34Z</time>
      </trkpt>
      <trkpt lat="45.75738" lon="4.82152">
        <ele>243</ele>
        <time>2012-03-04T09:48:35Z</time>
      </trkpt>
      <trkpt lat="45.75736" lon="4.82149">
        <ele>244</ele>
        <time>2012-03-04T09:48:39Z</time>
      </trkpt>
      <trkpt lat="45.75735" lon="4.82148">
        <ele>244</ele>
        <time>2012-03-04T09:48:41Z</time>
      </trkpt>
      <trkpt lat="45.75736" lon="4.82149">
        <ele>244</ele>
        <time>2012-03-04T09:48:43Z</time>
      </trkpt>
      <trkpt lat="45.75741" lon="4.82149">
        <ele>244</ele>
        <time>2012-03-04T09:48:46Z</time>
      </trkpt>
      <trkpt lat="45.75741" lon="4.82151">
        <ele>243</ele>
        <time>2012-03-04T09:48:50Z</time>
      </trkpt>
      <trkpt lat="45.75742" lon="4.82153">
        <ele>243</ele>
        <time>2012-03-04T09:48:51Z</time>
      </trkpt>
      <trkpt lat="45.75743" lon="4.82152">
        <ele>243</ele>
        <time>2012-03-04T09:49:00Z</time>
      </trkpt>
      <trkpt lat="45.75746" lon="4.82149">
        <ele>243</ele>
        <time>2012-03-04T09:49:03Z</time>
      </trkpt>
      <trkpt lat="45.75748" lon="4.82149">
        <ele>243</ele>
        <time>2012-03-04T09:49:04Z</time>
      </trkpt>
      <trkpt lat="45.75754" lon="4.82148">
        <ele>244</ele>
        <time>2012-03-04T09:49:07Z</time>
      </trkpt>
      <trkpt lat="45.75758" lon="4.82144">
        <ele>244</ele>
        <time>2012-03-04T09:49:10Z</time>
      </trkpt>
      <trkpt lat="45.75759" lon="4.82142">
        <ele>244</ele>
        <time>2012-03-04T09:49:11Z</time>
      </trkpt>
      <trkpt lat="45.7576" lon="4.8214">
        <ele>245</ele>
        <time>2012-03-04T09:49:12Z</time>
      </trkpt>
      <trkpt lat="45.75763" lon="4.82131">
        <ele>245</ele>
        <time>2012-03-04T09:49:17Z</time>
      </trkpt>
      <trkpt lat="45.75764" lon="4.82127">
        <ele>246</ele>
        <time>2012-03-04T09:49:19Z</time>
      </trkpt>
      <trkpt lat="45.75769" lon="4.82122">
        <ele>246</ele>
        <time>2012-03-04T09:49:23Z</time>
      </trkpt>
      <trkpt lat="45.7577" lon="4.82121">
        <ele>246</ele>
        <time>2012-03-04T09:49:24Z</time>
      </trkpt>
      <trkpt lat="45.75778" lon="4.82117">
        <ele>246</ele>
        <time>2012-03-04T09:49:29Z</time>
      </trkpt>
      <trkpt lat="45.75786" lon="4.82113">
        <ele>246</ele>
        <time>2012-03-04T09:49:34Z</time>
      </trkpt>
      <trkpt lat="45.75788" lon="4.82113">
        <ele>246</ele>
        <time>2012-03-04T09:49:36Z</time>
      </trkpt>
      <trkpt lat="45.75787" lon="4.82109">
        <ele>247</ele>
        <time>2012-03-04T09:49:43Z</time>
      </trkpt>
      <trkpt lat="45.75787" lon="4.82108">
        <ele>247</ele>
        <time>2012-03-04T09:49:44Z</time>
      </trkpt>
      <trkpt lat="45.75784" lon="4.82106">
        <ele>247</ele>
        <time>2012-03-04T09:49:48Z</time>
      </trkpt>
      <trkpt lat="45.75785" lon="4.82109">
        <ele>247</ele>
        <time>2012-03-04T09:49:49Z</time>
      </trkpt>
      <trkpt lat="45.75786" lon="4.82111">
        <ele>247</ele>
        <time>2012-03-04T09:49:52Z</time>
      </trkpt>
      <trkpt lat="45.75789" lon="4.8211">
        <ele>247</ele>
        <time>2012-03-04T09:49:54Z</time>
      </trkpt>
      <trkpt lat="45.75795" lon="4.82107">
        <ele>247</ele>
        <time>2012-03-04T09:49:59Z</time>
      </trkpt>
      <trkpt lat="45.75797" lon="4.82107">
        <ele>247</ele>
        <time>2012-03-04T09:50:00Z</time>
      </trkpt>
      <trkpt lat="45.75804" lon="4.82107">
        <ele>247</ele>
        <time>2012-03-04T09:50:05Z</time>
      </trkpt>
      <trkpt lat="45.75811" lon="4.82108">
        <ele>247</ele>
        <time>2012-03-04T09:50:10Z</time>
      </trkpt>
      <trkpt lat="45.75813" lon="4.82108">
        <ele>247</ele>
        <time>2012-03-04T09:50:12Z</time>
      </trkpt>
      <trkpt lat="45.75816" lon="4.82109">
        <ele>247</ele>
        <time>2012-03-04T09:50:14Z</time>
      </trkpt>
      <trkpt lat="45.75824" lon="4.82112">
        <ele>247</ele>
        <time>2012-03-04T09:50:19Z</time>
      </trkpt>
      <trkpt lat="45.75832" lon="4.82112">
        <ele>247</ele>
        <time>2012-03-04T09:50:25Z</time>
      </trkpt>
      <trkpt lat="45.75834" lon="4.82114">
        <ele>250</ele>
        <time>2012-03-04T09:50:27Z</time>
      </trkpt>
      <trkpt lat="45.75842" lon="4.82115">
        <ele>250</ele>
        <time>2012-03-04T09:50:32Z</time>
      </trkpt>
      <trkpt lat="45.75853" lon="4.82119">
        <ele>250</ele>
        <time>2012-03-04T09:50:40Z</time>
      </trkpt>
      <trkpt lat="45.75855" lon="4.82119">
        <ele>250</ele>
        <time>2012-03-04T09:50:42Z</time>
      </trkpt>
      <trkpt lat="45.75866" lon="4.82121">
        <ele>250</ele>
        <time>2012-03-04T09:50:50Z</time>
      </trkpt>
      <trkpt lat="45.75871" lon="4.82118">
        <ele>251</ele>
        <time>2012-03-04T09:50:53Z</time>
      </trkpt>
      <trkpt lat="45.75873" lon="4.82116">
        <ele>251</ele>
        <time>2012-03-04T09:50:54Z</time>
      </trkpt>
      <trkpt lat="45.75889" lon="4.82114">
        <ele>252</ele>
        <time>2012-03-04T09:51:00Z</time>
      </trkpt>
      <trkpt lat="45.75893" lon="4.82113">
        <ele>252</ele>
        <time>2012-03-04T09:51:02Z</time>
      </trkpt>
      <trkpt lat="45.75894" lon="4.8211">
        <ele>252</ele>
        <time>2012-03-04T09:51:04Z</time>
      </trkpt>
      <trkpt lat="45.75895" lon="4.82108">
        <ele>252</ele>
        <time>2012-03-04T09:51:05Z</time>
      </trkpt>
      <trkpt lat="45.75896" lon="4.821">
        <ele>253</ele>
        <time>2012-03-04T09:51:09Z</time>
      </trkpt>
      <trkpt lat="45.75896" lon="4.82093">
        <ele>253</ele>
        <time>2012-03-04T09:51:11Z</time>
      </trkpt>
      <trkpt lat="45.75897" lon="4.82087">
        <ele>254</ele>
        <time>2012-03-04T09:51:13Z</time>
      </trkpt>
      <trkpt lat="45.759" lon="4.82074">
        <ele>257</ele>
        <time>2012-03-04T09:51:18Z</time>
      </trkpt>
      <trkpt lat="45.75902" lon="4.82069">
        <ele>257</ele>
        <time>2012-03-04T09:51:20Z</time>
      </trkpt>
      <trkpt lat="45.75906" lon="4.82056">
        <ele>257</ele>
        <time>2012-03-04T09:51:25Z</time>
      </trkpt>
      <trkpt lat="45.75909" lon="4.82046">
        <ele>258</ele>
        <time>2012-03-04T09:51:30Z</time>
      </trkpt>
      <trkpt lat="45.7591" lon="4.82044">
        <ele>258</ele>
        <time>2012-03-04T09:51:31Z</time>
      </trkpt>
      <trkpt lat="45.75912" lon="4.82037">
        <ele>258</ele>
        <time>2012-03-04T09:51:35Z</time>
      </trkpt>
      <trkpt lat="45.75915" lon="4.82023">
        <ele>259</ele>
        <time>2012-03-04T09:51:42Z</time>
      </trkpt>
      <trkpt lat="45.75916" lon="4.82019">
        <ele>260</ele>
        <time>2012-03-04T09:51:44Z</time>
      </trkpt>
      <trkpt lat="45.7592" lon="4.8201">
        <ele>264</ele>
        <time>2012-03-04T09:51:48Z</time>
      </trkpt>
      <trkpt lat="45.75923" lon="4.81997">
        <ele>266</ele>
        <time>2012-03-04T09:51:54Z</time>
      </trkpt>
      <trkpt lat="45.75924" lon="4.81994">
        <ele>266</ele>
        <time>2012-03-04T09:51:56Z</time>
      </trkpt>
      <trkpt lat="45.75928" lon="4.81987">
        <ele>268</ele>
        <time>2012-03-04T09:52:02Z</time>
      </trkpt>
      <trkpt lat="45.75928" lon="4.81986">
        <ele>268</ele>
        <time>2012-03-04T09:52:03Z</time>
      </trkpt>
      <trkpt lat="45.7593" lon="4.81984">
        <ele>269</ele>
        <time>2012-03-04T09:52:08Z</time>
      </trkpt>
      <trkpt lat="45.75929" lon="4.81984">
        <ele>269</ele>
        <time>2012-03-04T09:52:13Z</time>
      </trkpt>
      <trkpt lat="45.75928" lon="4.81983">
        <ele>269</ele>
        <time>2012-03-04T09:52:15Z</time>
      </trkpt>
      <trkpt lat="45.75925" lon="4.8198">
        <ele>269</ele>
        <time>2012-03-04T09:52:18Z</time>
      </trkpt>
      <trkpt lat="45.75923" lon="4.81977">
        <ele>269</ele>
        <time>2012-03-04T09:52:20Z</time>
      </trkpt>
      <trkpt lat="45.75923" lon="4.81971">
        <ele>270</ele>
        <time>2012-03-04T09:52:24Z</time>
      </trkpt>
      <trkpt lat="45.75924" lon="4.8197">
        <ele>270</ele>
        <time>2012-03-04T09:52:25Z</time>
      </trkpt>
      <trkpt lat="45.75927" lon="4.81962">
        <ele>271</ele>
        <time>2012-03-04T09:52:33Z</time>
      </trkpt>
      <trkpt lat="45.75929" lon="4.81955">
        <ele>272</ele>
        <time>2012-03-04T09:52:41Z</time>
      </trkpt>
      <trkpt lat="45.7593" lon="4.81953">
        <ele>272</ele>
        <time>2012-03-04T09:52:43Z</time>
      </trkpt>
      <trkpt lat="45.75933" lon="4.81945">
        <ele>273</ele>
        <time>2012-03-04T09:52:50Z</time>
      </trkpt>
      <trkpt lat="45.75934" lon="4.81941">
        <ele>273</ele>
        <time>2012-03-04T09:52:57Z</time>
      </trkpt>
      <trkpt lat="45.75934" lon="4.8194">
        <ele>274</ele>
        <time>2012-03-04T09:52:58Z</time>
      </trkpt>
      <trkpt lat="45.75935" lon="4.81934">
        <ele>274</ele>
        <time>2012-03-04T09:53:03Z</time>
      </trkpt>
      <trkpt lat="45.75936" lon="4.81929">
        <ele>274</ele>
        <time>2012-03-04T09:53:07Z</time>
      </trkpt>
      <trkpt lat="45.75937" lon="4.81926">
        <ele>274</ele>
        <time>2012-03-04T09:53:10Z</time>
      </trkpt>
      <trkpt lat="45.75943" lon="4.81926">
        <ele>274</ele>
        <time>2012-03-04T09:53:18Z</time>
      </trkpt>
      <trkpt lat="45.75944" lon="4.81927">
        <ele>274</ele>
        <time>2012-03-04T09:53:19Z</time>
      </trkpt>
      <trkpt lat="45.75948" lon="4.81926">
        <ele>274</ele>
        <time>2012-03-04T09:53:28Z</time>
      </trkpt>
      <trkpt lat="45.75952" lon="4.81924">
        <ele>275</ele>
        <time>2012-03-04T09:53:32Z</time>
      </trkpt>
      <trkpt lat="45.75955" lon="4.81922">
        <ele>275</ele>
        <time>2012-03-04T09:53:34Z</time>
      </trkpt>
      <trkpt lat="45.75962" lon="4.81918">
        <ele>275</ele>
        <time>2012-03-04T09:53:40Z</time>
      </trkpt>
      <trkpt lat="45.7597" lon="4.81913">
        <ele>283</ele>
        <time>2012-03-04T09:53:45Z</time>
      </trkpt>
      <trkpt lat="45.75971" lon="4.81912">
        <ele>283</ele>
        <time>2012-03-04T09:53:46Z</time>
      </trkpt>
      <trkpt lat="45.75979" lon="4.81911">
        <ele>283</ele>
        <time>2012-03-04T09:53:52Z</time>
      </trkpt>
      <trkpt lat="45.75988" lon="4.81912">
        <ele>283</ele>
        <time>2012-03-04T09:53:59Z</time>
      </trkpt>
      <trkpt lat="45.75995" lon="4.81916">
        <ele>283</ele>
        <time>2012-03-04T09:54:05Z</time>
      </trkpt>
      <trkpt lat="45.76001" lon="4.81922">
        <ele>283</ele>
        <time>2012-03-04T09:54:11Z</time>
      </trkpt>
      <trkpt lat="45.76003" lon="4.81924">
        <ele>283</ele>
        <time>2012-03-04T09:54:12Z</time>
      </trkpt>
      <trkpt lat="45.76004" lon="4.81924">
        <ele>283</ele>
        <time>2012-03-04T09:54:13Z</time>
      </trkpt>
      <trkpt lat="45.76009" lon="4.81924">
        <ele>283</ele>
        <time>2012-03-04T09:54:17Z</time>
      </trkpt>
      <trkpt lat="45.76012" lon="4.81923">
        <ele>283</ele>
        <time>2012-03-04T09:54:19Z</time>
      </trkpt>
      <trkpt lat="45.76015" lon="4.81921">
        <ele>283</ele>
        <time>2012-03-04T09:54:21Z</time>
      </trkpt>
      <trkpt lat="45.76016" lon="4.81922">
        <ele>284</ele>
        <time>2012-03-04T09:54:22Z</time>
      </trkpt>
      <trkpt lat="45.76019" lon="4.81928">
        <ele>284</ele>
        <time>2012-03-04T09:54:26Z</time>
      </trkpt>
      <trkpt lat="45.76022" lon="4.81933">
        <ele>284</ele>
        <time>2012-03-04T09:54:29Z</time>
      </trkpt>
      <trkpt lat="45.76029" lon="4.81947">
        <ele>284</ele>
        <time>2012-03-04T09:54:37Z</time>
      </trkpt>
      <trkpt lat="45.76031" lon="4.8195">
        <ele>284</ele>
        <time>2012-03-04T09:54:39Z</time>
      </trkpt>
      <trkpt lat="45.76034" lon="4.81957">
        <ele>284</ele>
        <time>2012-03-04T09:54:43Z</time>
      </trkpt>
      <trkpt lat="45.7604" lon="4.81965">
        <ele>285</ele>
        <time>2012-03-04T09:54:49Z</time>
      </trkpt>
      <trkpt lat="45.76041" lon="4.81965">
        <ele>285</ele>
        <time>2012-03-04T09:54:50Z</time>
      </trkpt>
      <trkpt lat="45.76045" lon="4.81966">
        <ele>285</ele>
        <time>2012-03-04T09:54:53Z</time>
      </trkpt>
      <trkpt lat="45.76047" lon="4.81966">
        <ele>285</ele>
        <time>2012-03-04T09:54:55Z</time>
      </trkpt>
      <trkpt lat="45.76053" lon="4.81967">
        <ele>286</ele>
        <time>2012-03-04T09:54:59Z</time>
      </trkpt>
      <trkpt lat="45.76055" lon="4.81969">
        <ele>286</ele>
        <time>2012-03-04T09:55:01Z</time>
      </trkpt>
      <trkpt lat="45.7606" lon="4.81969">
        <ele>286</ele>
        <time>2012-03-04T09:55:05Z</time>
      </trkpt>
      <trkpt lat="45.76063" lon="4.81972">
        <ele>287</ele>
        <time>2012-03-04T09:55:07Z</time>
      </trkpt>
      <trkpt lat="45.76065" lon="4.81974">
        <ele>287</ele>
        <time>2012-03-04T09:55:08Z</time>
      </trkpt>
      <trkpt lat="45.76066" lon="4.81976">
        <ele>287</ele>
        <time>2012-03-04T09:55:09Z</time>
      </trkpt>
      <trkpt lat="45.76075" lon="4.81994">
        <ele>290</ele>
        <time>2012-03-04T09:55:15Z</time>
      </trkpt>
      <trkpt lat="45.76083" lon="4.82011">
        <ele>288</ele>
        <time>2012-03-04T09:55:21Z</time>
      </trkpt>
      <trkpt lat="45.76085" lon="4.82017">
        <ele>291</ele>
        <time>2012-03-04T09:55:23Z</time>
      </trkpt>
      <trkpt lat="45.76087" lon="4.82032">
        <ele>290</ele>
        <time>2012-03-04T09:55:26Z</time>
      </trkpt>
      <trkpt lat="45.7609" lon="4.82045">
        <ele>290</ele>
        <time>2012-03-04T09:55:29Z</time>
      </trkpt>
      <trkpt lat="45.76092" lon="4.82053">
        <ele>290</ele>
        <time>2012-03-04T09:55:31Z</time>
      </trkpt>
      <trkpt lat="45.76094" lon="4.82056">
        <ele>290</ele>
        <time>2012-03-04T09:55:32Z</time>
      </trkpt>
      <trkpt lat="45.76097" lon="4.82061">
        <ele>290</ele>
        <time>2012-03-04T09:55:34Z</time>
      </trkpt>
      <trkpt lat="45.761" lon="4.82067">
        <ele>290</ele>
        <time>2012-03-04T09:55:36Z</time>
      </trkpt>
      <trkpt lat="45.76105" lon="4.82072">
        <ele>290</ele>
        <time>2012-03-04T09:55:39Z</time>
      </trkpt>
      <trkpt lat="45.76115" lon="4.82079">
        <ele>290</ele>
        <time>2012-03-04T09:55:45Z</time>
      </trkpt>
      <trkpt lat="45.76117" lon="4.82079">
        <ele>290</ele>
        <time>2012-03-04T09:55:46Z</time>
      </trkpt>
      <trkpt lat="45.76124" lon="4.82081">
        <ele>290</ele>
        <time>2012-03-04T09:55:49Z</time>
      </trkpt>
      <trkpt lat="45.76128" lon="4.82082">
        <ele>290</ele>
        <time>2012-03-04T09:55:51Z</time>
      </trkpt>
      <trkpt lat="45.76135" lon="4.82086">
        <ele>292</ele>
        <time>2012-03-04T09:55:54Z</time>
      </trkpt>
      <trkpt lat="45.76148" lon="4.82091">
        <ele>292</ele>
        <time>2012-03-04T09:56:00Z</time>
      </trkpt>
      <trkpt lat="45.76152" lon="4.82097">
        <ele>292</ele>
        <time>2012-03-04T09:56:02Z</time>
      </trkpt>
      <trkpt lat="45.76156" lon="4.82105">
        <ele>292</ele>
        <time>2012-03-04T09:56:04Z</time>
      </trkpt>
      <trkpt lat="45.76158" lon="4.82107">
        <ele>292</ele>
        <time>2012-03-04T09:56:05Z</time>
      </trkpt>
      <trkpt lat="45.76166" lon="4.82111">
        <ele>292</ele>
        <time>2012-03-04T09:56:09Z</time>
      </trkpt>
      <trkpt lat="45.76169" lon="4.82112">
        <ele>292</ele>
        <time>2012-03-04T09:56:10Z</time>
      </trkpt>
      <trkpt lat="45.76179" lon="4.82115">
        <ele>292</ele>
        <time>2012-03-04T09:56:14Z</time>
      </trkpt>
      <trkpt lat="45.76187" lon="4.82119">
        <ele>292</ele>
        <time>2012-03-04T09:56:18Z</time>
      </trkpt>
      <trkpt lat="45.762" lon="4.82124">
        <ele>292</ele>
        <time>2012-03-04T09:56:23Z</time>
      </trkpt>
      <trkpt lat="45.76204" lon="4.82127">
        <ele>292</ele>
        <time>2012-03-04T09:56:25Z</time>
      </trkpt>
      <trkpt lat="45.76213" lon="4.82138">
        <ele>292</ele>
        <time>2012-03-04T09:56:29Z</time>
      </trkpt>
      <trkpt lat="45.7622" lon="4.82143">
        <ele>293</ele>
        <time>2012-03-04T09:56:32Z</time>
      </trkpt>
      <trkpt lat="45.76225" lon="4.82146">
        <ele>293</ele>
        <time>2012-03-04T09:56:34Z</time>
      </trkpt>
      <trkpt lat="45.7624" lon="4.82153">
        <ele>293</ele>
        <time>2012-03-04T09:56:39Z</time>
      </trkpt>
      <trkpt lat="45.76248" lon="4.8216">
        <ele>293</ele>
        <time>2012-03-04T09:56:43Z</time>
      </trkpt>
      <trkpt lat="45.76259" lon="4.82164">
        <ele>292</ele>
        <time>2012-03-04T09:56:48Z</time>
      </trkpt>
      <trkpt lat="45.76261" lon="4.82166">
        <ele>292</ele>
        <time>2012-03-04T09:56:49Z</time>
      </trkpt>
      <trkpt lat="45.76265" lon="4.82178">
        <ele>295</ele>
        <time>2012-03-04T09:56:53Z</time>
      </trkpt>
      <trkpt lat="45.76264" lon="4.82185">
        <ele>295</ele>
        <time>2012-03-04T09:56:55Z</time>
      </trkpt>
      <trkpt lat="45.76264" lon="4.82189">
        <ele>296</ele>
        <time>2012-03-04T09:56:56Z</time>
      </trkpt>
      <trkpt lat="45.76261" lon="4.82201">
        <ele>296</ele>
        <time>2012-03-04T09:56:59Z</time>
      </trkpt>
      <trkpt lat="45.76264" lon="4.82217">
        <ele>296</ele>
        <time>2012-03-04T09:57:04Z</time>
      </trkpt>
      <trkpt lat="45.76271" lon="4.82229">
        <ele>297</ele>
        <time>2012-03-04T09:57:09Z</time>
      </trkpt>
      <trkpt lat="45.76273" lon="4.82232">
        <ele>297</ele>
        <time>2012-03-04T09:57:10Z</time>
      </trkpt>
      <trkpt lat="45.76274" lon="4.82238">
        <ele>297</ele>
        <time>2012-03-04T09:57:12Z</time>
      </trkpt>
      <trkpt lat="45.76275" lon="4.82242">
        <ele>297</ele>
        <time>2012-03-04T09:57:13Z</time>
      </trkpt>
      <trkpt lat="45.76274" lon="4.82262">
        <ele>291</ele>
        <time>2012-03-04T09:57:19Z</time>
      </trkpt>
      <trkpt lat="45.76274" lon="4.82265">
        <ele>291</ele>
        <time>2012-03-04T09:57:20Z</time>
      </trkpt>
      <trkpt lat="45.76276" lon="4.82282">
        <ele>289</ele>
        <time>2012-03-04T09:57:25Z</time>
      </trkpt>
      <trkpt lat="45.76277" lon="4.82294">
        <ele>287</ele>
        <time>2012-03-04T09:57:29Z</time>
      </trkpt>
      <trkpt lat="45.76278" lon="4.82297">
        <ele>287</ele>
        <time>2012-03-04T09:57:30Z</time>
      </trkpt>
      <trkpt lat="45.76279" lon="4.82302">
        <ele>286</ele>
        <time>2012-03-04T09:57:33Z</time>
      </trkpt>
      <trkpt lat="45.76279" lon="4.82303">
        <ele>286</ele>
        <time>2012-03-04T09:57:34Z</time>
      </trkpt>
      <trkpt lat="45.7628" lon="4.82304">
        <ele>286</ele>
        <time>2012-03-04T09:57:43Z</time>
      </trkpt>
      <trkpt lat="45.76284" lon="4.82301">
        <ele>286</ele>
        <time>2012-03-04T09:57:50Z</time>
      </trkpt>
      <trkpt lat="45.76286" lon="4.82306">
        <ele>286</ele>
        <time>2012-03-04T09:57:55Z</time>
      </trkpt>
      <trkpt lat="45.76285" lon="4.82307">
        <ele>286</ele>
        <time>2012-03-04T09:58:01Z</time>
      </trkpt>
      <trkpt lat="45.76285" lon="4.82301">
        <ele>286</ele>
        <time>2012-03-04T09:58:15Z</time>
      </trkpt>
      <trkpt lat="45.76286" lon="4.823">
        <ele>286</ele>
        <time>2012-03-04T09:58:16Z</time>
      </trkpt>
      <trkpt lat="45.76291" lon="4.82299">
        <ele>287</ele>
        <time>2012-03-04T09:58:21Z</time>
      </trkpt>
      <trkpt lat="45.76293" lon="4.82298">
        <ele>287</ele>
        <time>2012-03-04T09:58:23Z</time>
      </trkpt>
      <trkpt lat="45.76294" lon="4.82298">
        <ele>287</ele>
        <time>2012-03-04T09:58:24Z</time>
      </trkpt>
      <trkpt lat="45.76293" lon="4.82297">
        <ele>287</ele>
        <time>2012-03-04T09:58:26Z</time>
      </trkpt>
      <trkpt lat="45.76291" lon="4.82294">
        <ele>287</ele>
        <time>2012-03-04T09:58:31Z</time>
      </trkpt>
      <trkpt lat="45.7629" lon="4.82292">
        <ele>287</ele>
        <time>2012-03-04T09:58:32Z</time>
      </trkpt>
      <trkpt lat="45.76287" lon="4.82284">
        <ele>288</ele>
        <time>2012-03-04T09:58:35Z</time>
      </trkpt>
      <trkpt lat="45.76286" lon="4.82277">
        <ele>289</ele>
        <time>2012-03-04T09:58:37Z</time>
      </trkpt>
      <trkpt lat="45.76285" lon="4.82271">
        <ele>290</ele>
        <time>2012-03-04T09:58:39Z</time>
      </trkpt>
      <trkpt lat="45.76284" lon="4.82268">
        <ele>290</ele>
        <time>2012-03-04T09:58:40Z</time>
      </trkpt>
      <trkpt lat="45.76281" lon="4.82261">
        <ele>291</ele>
        <time>2012-03-04T09:58:42Z</time>
      </trkpt>
      <trkpt lat="45.76281" lon="4.82253">
        <ele>292</ele>
        <time>2012-03-04T09:58:44Z</time>
      </trkpt>
      <trkpt lat="45.76281" lon="4.82242">
        <ele>297</ele>
        <time>2012-03-04T09:58:47Z</time>
      </trkpt>
      <trkpt lat="45.76282" lon="4.82239">
        <ele>297</ele>
        <time>2012-03-04T09:58:48Z</time>
      </trkpt>
      <trkpt lat="45.76286" lon="4.82221">
        <ele>296</ele>
        <time>2012-03-04T09:58:54Z</time>
      </trkpt>
      <trkpt lat="45.76288" lon="4.82219">
        <ele>296</ele>
        <time>2012-03-04T09:58:55Z</time>
      </trkpt>
      <trkpt lat="45.76296" lon="4.82217">
        <ele>296</ele>
        <time>2012-03-04T09:58:58Z</time>
      </trkpt>
      <trkpt lat="45.76308" lon="4.82214">
        <ele>296</ele>
        <time>2012-03-04T09:59:02Z</time>
      </trkpt>
      <trkpt lat="45.7631" lon="4.82214">
        <ele>296</ele>
        <time>2012-03-04T09:59:03Z</time>
      </trkpt>
      <trkpt lat="45.76319" lon="4.82213">
        <ele>296</ele>
        <time>2012-03-04T09:59:08Z</time>
      </trkpt>
      <trkpt lat="45.76328" lon="4.82213">
        <ele>296</ele>
        <time>2012-03-04T09:59:11Z</time>
      </trkpt>
      <trkpt lat="45.76332" lon="4.82213">
        <ele>296</ele>
        <time>2012-03-04T09:59:13Z</time>
      </trkpt>
      <trkpt lat="45.76343" lon="4.82217">
        <ele>290</ele>
        <time>2012-03-04T09:59:18Z</time>
      </trkpt>
      <trkpt lat="45.76347" lon="4.82217">
        <ele>290</ele>
        <time>2012-03-04T09:59:20Z</time>
      </trkpt>
      <trkpt lat="45.76353" lon="4.82212">
        <ele>289</ele>
        <time>2012-03-04T09:59:23Z</time>
      </trkpt>
      <trkpt lat="45.76354" lon="4.82208">
        <ele>289</ele>
        <time>2012-03-04T09:59:24Z</time>
      </trkpt>
      <trkpt lat="45.76355" lon="4.82196">
        <ele>289</ele>
        <time>2012-03-04T09:59:27Z</time>
      </trkpt>
      <trkpt lat="45.76353" lon="4.82177">
        <ele>290</ele>
        <time>2012-03-04T09:59:32Z</time>
      </trkpt>
      <trkpt lat="45.7635" lon="4.82168">
        <ele>291</ele>
        <time>2012-03-04T09:59:35Z</time>
      </trkpt>
      <trkpt lat="45.76345" lon="4.82157">
        <ele>286</ele>
        <time>2012-03-04T09:59:39Z</time>
      </trkpt>
      <trkpt lat="45.76339" lon="4.82147">
        <ele>283</ele>
        <time>2012-03-04T09:59:43Z</time>
      </trkpt>
      <trkpt lat="45.76337" lon="4.82146">
        <ele>283</ele>
        <time>2012-03-04T09:59:44Z</time>
      </trkpt>
      <trkpt lat="45.76329" lon="4.82144">
        <ele>290</ele>
        <time>2012-03-04T09:59:48Z</time>
      </trkpt>
      <trkpt lat="45.76327" lon="4.82141">
        <ele>289</ele>
        <time>2012-03-04T09:59:49Z</time>
      </trkpt>
      <trkpt lat="45.76326" lon="4.82134">
        <ele>288</ele>
        <time>2012-03-04T09:59:51Z</time>
      </trkpt>
      <trkpt lat="45.76325" lon="4.8213">
        <ele>288</ele>
        <time>2012-03-04T09:59:52Z</time>
      </trkpt>
      <trkpt lat="45.76323" lon="4.82123">
        <ele>286</ele>
        <time>2012-03-04T09:59:54Z</time>
      </trkpt>
      <trkpt lat="45.76319" lon="4.82106">
        <ele>283</ele>
        <time>2012-03-04T09:59:59Z</time>
      </trkpt>
      <trkpt lat="45.76318" lon="4.82098">
        <ele>282</ele>
        <time>2012-03-04T10:00:01Z</time>
      </trkpt>
      <trkpt lat="45.76314" lon="4.8208">
        <ele>276</ele>
        <time>2012-03-04T10:00:06Z</time>
      </trkpt>
      <trkpt lat="45.76308" lon="4.8206">
        <ele>276</ele>
        <time>2012-03-04T10:00:11Z</time>
      </trkpt>
      <trkpt lat="45.76307" lon="4.82056">
        <ele>276</ele>
        <time>2012-03-04T10:00:12Z</time>
      </trkpt>
      <trkpt lat="45.76299" lon="4.82028">
        <ele>276</ele>
        <time>2012-03-04T10:00:19Z</time>
      </trkpt>
      <trkpt lat="45.76298" lon="4.82024">
        <ele>276</ele>
        <time>2012-03-04T10:00:20Z</time>
      </trkpt>
      <trkpt lat="45.76295" lon="4.82003">
        <ele>275</ele>
        <time>2012-03-04T10:00:25Z</time>
      </trkpt>
      <trkpt lat="45.76295" lon="4.81999">
        <ele>273</ele>
        <time>2012-03-04T10:00:26Z</time>
      </trkpt>
      <trkpt lat="45.76297" lon="4.81979">
        <ele>273</ele>
        <time>2012-03-04T10:00:31Z</time>
      </trkpt>
      <trkpt lat="45.76299" lon="4.81971">
        <ele>273</ele>
        <time>2012-03-04T10:00:33Z</time>
      </trkpt>
      <trkpt lat="45.76304" lon="4.81957">
        <ele>272</ele>
        <time>2012-03-04T10:00:37Z</time>
      </trkpt>
      <trkpt lat="45.76308" lon="4.81946">
        <ele>272</ele>
        <time>2012-03-04T10:00:40Z</time>
      </trkpt>
      <trkpt lat="45.76309" lon="4.81942">
        <ele>272</ele>
        <time>2012-03-04T10:00:41Z</time>
      </trkpt>
      <trkpt lat="45.76314" lon="4.81924">
        <ele>271</ele>
        <time>2012-03-04T10:00:46Z</time>
      </trkpt>
      <trkpt lat="45.76315" lon="4.81921">
        <ele>271</ele>
        <time>2012-03-04T10:00:47Z</time>
      </trkpt>
      <trkpt lat="45.76321" lon="4.81902">
        <ele>272</ele>
        <time>2012-03-04T10:00:52Z</time>
      </trkpt>
      <trkpt lat="45.76322" lon="4.81897">
        <ele>273</ele>
        <time>2012-03-04T10:00:53Z</time>
      </trkpt>
      <trkpt lat="45.76323" lon="4.81893">
        <ele>273</ele>
        <time>2012-03-04T10:00:54Z</time>
      </trkpt>
      <trkpt lat="45.76326" lon="4.81885">
        <ele>274</ele>
        <time>2012-03-04T10:00:56Z</time>
      </trkpt>
      <trkpt lat="45.76331" lon="4.81866">
        <ele>276</ele>
        <time>2012-03-04T10:01:01Z</time>
      </trkpt>
      <trkpt lat="45.76332" lon="4.81863">
        <ele>276</ele>
        <time>2012-03-04T10:01:02Z</time>
      </trkpt>
      <trkpt lat="45.76333" lon="4.81845">
        <ele>277</ele>
        <time>2012-03-04T10:01:07Z</time>
      </trkpt>
      <trkpt lat="45.76333" lon="4.81841">
        <ele>277</ele>
        <time>2012-03-04T10:01:08Z</time>
      </trkpt>
      <trkpt lat="45.76332" lon="4.81826">
        <ele>279</ele>
        <time>2012-03-04T10:01:12Z</time>
      </trkpt>
      <trkpt lat="45.76331" lon="4.81814">
        <ele>281</ele>
        <time>2012-03-04T10:01:15Z</time>
      </trkpt>
      <trkpt lat="45.76331" lon="4.81807">
        <ele>281</ele>
        <time>2012-03-04T10:01:17Z</time>
      </trkpt>
      <trkpt lat="45.76331" lon="4.81804">
        <ele>281</ele>
        <time>2012-03-04T10:01:18Z</time>
      </trkpt>
      <trkpt lat="45.76332" lon="4.81787">
        <ele>282</ele>
        <time>2012-03-04T10:01:23Z</time>
      </trkpt>
      <trkpt lat="45.76331" lon="4.81763">
        <ele>283</ele>
        <time>2012-03-04T10:01:29Z</time>
      </trkpt>
      <trkpt lat="45.76331" lon="4.8176">
        <ele>283</ele>
        <time>2012-03-04T10:01:30Z</time>
      </trkpt>
      <trkpt lat="45.76331" lon="4.81748">
        <ele>283</ele>
        <time>2012-03-04T10:01:34Z</time>
      </trkpt>
      <trkpt lat="45.76332" lon="4.81732">
        <ele>284</ele>
        <time>2012-03-04T10:01:39Z</time>
      </trkpt>
      <trkpt lat="45.76332" lon="4.81729">
        <ele>284</ele>
        <time>2012-03-04T10:01:40Z</time>
      </trkpt>
      <trkpt lat="45.76332" lon="4.81707">
        <ele>284</ele>
        <time>2012-03-04T10:01:47Z</time>
      </trkpt>
      <trkpt lat="45.76332" lon="4.81704">
        <ele>284</ele>
        <time>2012-03-04T10:01:48Z</time>
      </trkpt>
      <trkpt lat="45.76331" lon="4.81688">
        <ele>283</ele>
        <time>2012-03-04T10:01:53Z</time>
      </trkpt>
      <trkpt lat="45.7633" lon="4.81676">
        <ele>282</ele>
        <time>2012-03-04T10:01:58Z</time>
      </trkpt>
      <trkpt lat="45.76329" lon="4.8166">
        <ele>281</ele>
        <time>2012-03-04T10:02:03Z</time>
      </trkpt>
      <trkpt lat="45.76329" lon="4.81649">
        <ele>283</ele>
        <time>2012-03-04T10:02:06Z</time>
      </trkpt>
      <trkpt lat="45.7633" lon="4.81642">
        <ele>283</ele>
        <time>2012-03-04T10:02:08Z</time>
      </trkpt>
      <trkpt lat="45.76328" lon="4.81624">
        <ele>284</ele>
        <time>2012-03-04T10:02:12Z</time>
      </trkpt>
      <trkpt lat="45.76328" lon="4.8162">
        <ele>284</ele>
        <time>2012-03-04T10:02:13Z</time>
      </trkpt>
      <trkpt lat="45.7633" lon="4.81597">
        <ele>283</ele>
        <time>2012-03-04T10:02:19Z</time>
      </trkpt>
      <trkpt lat="45.76332" lon="4.8158">
        <ele>283</ele>
        <time>2012-03-04T10:02:24Z</time>
      </trkpt>
      <trkpt lat="45.76334" lon="4.81575">
        <ele>280</ele>
        <time>2012-03-04T10:02:26Z</time>
      </trkpt>
      <trkpt lat="45.76336" lon="4.81574">
        <ele>280</ele>
        <time>2012-03-04T10:02:28Z</time>
      </trkpt>
      <trkpt lat="45.76337" lon="4.81564">
        <ele>279</ele>
        <time>2012-03-04T10:02:33Z</time>
      </trkpt>
      <trkpt lat="45.76338" lon="4.81558">
        <ele>278</ele>
        <time>2012-03-04T10:02:35Z</time>
      </trkpt>
      <trkpt lat="45.76338" lon="4.81548">
        <ele>278</ele>
        <time>2012-03-04T10:02:38Z</time>
      </trkpt>
      <trkpt lat="45.76337" lon="4.81544">
        <ele>278</ele>
        <time>2012-03-04T10:02:39Z</time>
      </trkpt>
      <trkpt lat="45.76334" lon="4.81531">
        <ele>279</ele>
        <time>2012-03-04T10:02:43Z</time>
      </trkpt>
      <trkpt lat="45.76332" lon="4.81521">
        <ele>287</ele>
        <time>2012-03-04T10:02:46Z</time>
      </trkpt>
      <trkpt lat="45.76331" lon="4.81514">
        <ele>287</ele>
        <time>2012-03-04T10:02:48Z</time>
      </trkpt>
      <trkpt lat="45.76331" lon="4.81511">
        <ele>287</ele>
        <time>2012-03-04T10:02:49Z</time>
      </trkpt>
      <trkpt lat="45.76334" lon="4.81508">
        <ele>283</ele>
        <time>2012-03-04T10:02:52Z</time>
      </trkpt>
      <trkpt lat="45.7634" lon="4.81504">
        <ele>283</ele>
        <time>2012-03-04T10:02:58Z</time>
      </trkpt>
      <trkpt lat="45.76341" lon="4.81503">
        <ele>283</ele>
        <time>2012-03-04T10:03:00Z</time>
      </trkpt>
      <trkpt lat="45.76344" lon="4.81501">
        <ele>282</ele>
        <time>2012-03-04T10:03:04Z</time>
      </trkpt>
      <trkpt lat="45.76352" lon="4.81501">
        <ele>281</ele>
        <time>2012-03-04T10:03:17Z</time>
      </trkpt>
      <trkpt lat="45.76357" lon="4.81499">
        <ele>283</ele>
        <time>2012-03-04T10:03:21Z</time>
      </trkpt>
      <trkpt lat="45.76359" lon="4.815">
        <ele>283</ele>
        <time>2012-03-04T10:03:22Z</time>
      </trkpt>
      <trkpt lat="45.7636" lon="4.81501">
        <ele>279</ele>
        <time>2012-03-04T10:03:23Z</time>
      </trkpt>
      <trkpt lat="45.76364" lon="4.81506">
        <ele>279</ele>
        <time>2012-03-04T10:03:30Z</time>
      </trkpt>
      <trkpt lat="45.76364" lon="4.81506">
        <ele>278</ele>
        <time>2012-03-04T10:03:34Z</time>
      </trkpt>
      <trkpt lat="45.76362" lon="4.8151">
        <ele>279</ele>
        <time>2012-03-04T10:03:38Z</time>
      </trkpt>
      <trkpt lat="45.76357" lon="4.81514">
        <ele>279</ele>
        <time>2012-03-04T10:03:40Z</time>
      </trkpt>
      <trkpt lat="45.76351" lon="4.81519">
        <ele>279</ele>
        <time>2012-03-04T10:03:42Z</time>
      </trkpt>
      <trkpt lat="45.76348" lon="4.81522">
        <ele>279</ele>
        <time>2012-03-04T10:03:43Z</time>
      </trkpt>
      <trkpt lat="45.76345" lon="4.81533">
        <ele>279</ele>
        <time>2012-03-04T10:03:46Z</time>
      </trkpt>
      <trkpt lat="45.76348" lon="4.81558">
        <ele>278</ele>
        <time>2012-03-04T10:03:51Z</time>
      </trkpt>
      <trkpt lat="45.76354" lon="4.81581">
        <ele>278</ele>
        <time>2012-03-04T10:03:56Z</time>
      </trkpt>
      <trkpt lat="45.76355" lon="4.81584">
        <ele>274</ele>
        <time>2012-03-04T10:03:57Z</time>
      </trkpt>
      <trkpt lat="45.76357" lon="4.81593">
        <ele>273</ele>
        <time>2012-03-04T10:04:00Z</time>
      </trkpt>
      <trkpt lat="45.76361" lon="4.81607">
        <ele>272</ele>
        <time>2012-03-04T10:04:03Z</time>
      </trkpt>
      <trkpt lat="45.76362" lon="4.81614">
        <ele>271</ele>
        <time>2012-03-04T10:04:05Z</time>
      </trkpt>
      <trkpt lat="45.76362" lon="4.81614">
        <ele>271</ele>
        <time>2012-03-04T10:04:06Z</time>
      </trkpt>
      <trkpt lat="45.76363" lon="4.81607">
        <ele>271</ele>
        <time>2012-03-04T10:04:08Z</time>
      </trkpt>
      <trkpt lat="45.76368" lon="4.81598">
        <ele>271</ele>
        <time>2012-03-04T10:04:11Z</time>
      </trkpt>
      <trkpt lat="45.7637" lon="4.816">
        <ele>270</ele>
        <time>2012-03-04T10:04:12Z</time>
      </trkpt>
      <trkpt lat="45.76375" lon="4.81606">
        <ele>269</ele>
        <time>2012-03-04T10:04:14Z</time>
      </trkpt>
      <trkpt lat="45.76377" lon="4.81614">
        <ele>269</ele>
        <time>2012-03-04T10:04:16Z</time>
      </trkpt>
      <trkpt lat="45.76379" lon="4.8162">
        <ele>268</ele>
        <time>2012-03-04T10:04:18Z</time>
      </trkpt>
      <trkpt lat="45.7638" lon="4.81623">
        <ele>268</ele>
        <time>2012-03-04T10:04:19Z</time>
      </trkpt>
      <trkpt lat="45.76383" lon="4.8162">
        <ele>268</ele>
        <time>2012-03-04T10:04:21Z</time>
      </trkpt>
      <trkpt lat="45.76386" lon="4.81604">
        <ele>267</ele>
        <time>2012-03-04T10:04:25Z</time>
      </trkpt>
      <trkpt lat="45.76393" lon="4.81595">
        <ele>266</ele>
        <time>2012-03-04T10:04:28Z</time>
      </trkpt>
      <trkpt lat="45.76403" lon="4.81596">
        <ele>265</ele>
        <time>2012-03-04T10:04:31Z</time>
      </trkpt>
      <trkpt lat="45.76404" lon="4.81611">
        <ele>265</ele>
        <time>2012-03-04T10:04:34Z</time>
      </trkpt>
      <trkpt lat="45.76404" lon="4.81616">
        <ele>265</ele>
        <time>2012-03-04T10:04:35Z</time>
      </trkpt>
      <trkpt lat="45.76404" lon="4.81624">
        <ele>265</ele>
        <time>2012-03-04T10:04:37Z</time>
      </trkpt>
      <trkpt lat="45.76403" lon="4.81634">
        <ele>264</ele>
        <time>2012-03-04T10:04:39Z</time>
      </trkpt>
      <trkpt lat="45.76402" lon="4.81638">
        <ele>264</ele>
        <time>2012-03-04T10:04:40Z</time>
      </trkpt>
      <trkpt lat="45.76401" lon="4.81647">
        <ele>263</ele>
        <time>2012-03-04T10:04:44Z</time>
      </trkpt>
      <trkpt lat="45.76402" lon="4.81643">
        <ele>263</ele>
        <time>2012-03-04T10:04:46Z</time>
      </trkpt>
      <trkpt lat="45.76403" lon="4.8164">
        <ele>264</ele>
        <time>2012-03-04T10:04:47Z</time>
      </trkpt>
      <trkpt lat="45.76406" lon="4.81624">
        <ele>265</ele>
        <time>2012-03-04T10:04:51Z</time>
      </trkpt>
      <trkpt lat="45.76411" lon="4.81625">
        <ele>264</ele>
        <time>2012-03-04T10:04:53Z</time>
      </trkpt>
      <trkpt lat="45.76413" lon="4.81626">
        <ele>264</ele>
        <time>2012-03-04T10:04:54Z</time>
      </trkpt>
      <trkpt lat="45.76411" lon="4.8164">
        <ele>263</ele>
        <time>2012-03-04T10:04:58Z</time>
      </trkpt>
      <trkpt lat="45.7641" lon="4.8165">
        <ele>261</ele>
        <time>2012-03-04T10:05:02Z</time>
      </trkpt>
      <trkpt lat="45.76411" lon="4.81652">
        <ele>260</ele>
        <time>2012-03-04T10:05:03Z</time>
      </trkpt>
      <trkpt lat="45.76416" lon="4.81647">
        <ele>261</ele>
        <time>2012-03-04T10:05:06Z</time>
      </trkpt>
      <trkpt lat="45.76424" lon="4.81639">
        <ele>249</ele>
        <time>2012-03-04T10:05:10Z</time>
      </trkpt>
      <trkpt lat="45.76427" lon="4.8164">
        <ele>249</ele>
        <time>2012-03-04T10:05:11Z</time>
      </trkpt>
      <trkpt lat="45.76427" lon="4.81649">
        <ele>249</ele>
        <time>2012-03-04T10:05:14Z</time>
      </trkpt>
      <trkpt lat="45.76426" lon="4.81653">
        <ele>249</ele>
        <time>2012-03-04T10:05:15Z</time>
      </trkpt>
      <trkpt lat="45.76425" lon="4.81661">
        <ele>250</ele>
        <time>2012-03-04T10:05:17Z</time>
      </trkpt>
      <trkpt lat="45.76426" lon="4.81665">
        <ele>250</ele>
        <time>2012-03-04T10:05:19Z</time>
      </trkpt>
      <trkpt lat="45.76433" lon="4.8166">
        <ele>249</ele>
        <time>2012-03-04T10:05:23Z</time>
      </trkpt>
      <trkpt lat="45.76435" lon="4.81657">
        <ele>248</ele>
        <time>2012-03-04T10:05:24Z</time>
      </trkpt>
      <trkpt lat="45.7644" lon="4.81654">
        <ele>247</ele>
        <time>2012-03-04T10:05:26Z</time>
      </trkpt>
      <trkpt lat="45.76442" lon="4.81657">
        <ele>247</ele>
        <time>2012-03-04T10:05:27Z</time>
      </trkpt>
      <trkpt lat="45.76451" lon="4.81675">
        <ele>241</ele>
        <time>2012-03-04T10:05:31Z</time>
      </trkpt>
      <trkpt lat="45.76458" lon="4.817">
        <ele>239</ele>
        <time>2012-03-04T10:05:36Z</time>
      </trkpt>
      <trkpt lat="45.7646" lon="4.81704">
        <ele>238</ele>
        <time>2012-03-04T10:05:37Z</time>
      </trkpt>
      <trkpt lat="45.76466" lon="4.81706">
        <ele>237</ele>
        <time>2012-03-04T10:05:40Z</time>
      </trkpt>
      <trkpt lat="45.76474" lon="4.81695">
        <ele>236</ele>
        <time>2012-03-04T10:05:43Z</time>
      </trkpt>
      <trkpt lat="45.76485" lon="4.81696">
        <ele>235</ele>
        <time>2012-03-04T10:05:46Z</time>
      </trkpt>
      <trkpt lat="45.76493" lon="4.81701">
        <ele>234</ele>
        <time>2012-03-04T10:05:48Z</time>
      </trkpt>
      <trkpt lat="45.76505" lon="4.81705">
        <ele>219</ele>
        <time>2012-03-04T10:05:51Z</time>
      </trkpt>
      <trkpt lat="45.76512" lon="4.81706">
        <ele>218</ele>
        <time>2012-03-04T10:05:53Z</time>
      </trkpt>
      <trkpt lat="45.76523" lon="4.81702">
        <ele>218</ele>
        <time>2012-03-04T10:05:56Z</time>
      </trkpt>
      <trkpt lat="45.76526" lon="4.81699">
        <ele>217</ele>
        <time>2012-03-04T10:05:57Z</time>
      </trkpt>
      <trkpt lat="45.76532" lon="4.81696">
        <ele>217</ele>
        <time>2012-03-04T10:05:59Z</time>
      </trkpt>
      <trkpt lat="45.76536" lon="4.81696">
        <ele>216</ele>
        <time>2012-03-04T10:06:01Z</time>
      </trkpt>
      <trkpt lat="45.76545" lon="4.81705">
        <ele>215</ele>
        <time>2012-03-04T10:06:05Z</time>
      </trkpt>
      <trkpt lat="45.76545" lon="4.81708">
        <ele>214</ele>
        <time>2012-03-04T10:06:06Z</time>
      </trkpt>
      <trkpt lat="45.76545" lon="4.81711">
        <ele>214</ele>
        <time>2012-03-04T10:06:07Z</time>
      </trkpt>
      <trkpt lat="45.76544" lon="4.81717">
        <ele>214</ele>
        <time>2012-03-04T10:06:09Z</time>
      </trkpt>
      <trkpt lat="45.76542" lon="4.81721">
        <ele>214</ele>
        <time>2012-03-04T10:06:11Z</time>
      </trkpt>
      <trkpt lat="45.7654" lon="4.81726">
        <ele>214</ele>
        <time>2012-03-04T10:06:13Z</time>
      </trkpt>
      <trkpt lat="45.76543" lon="4.81729">
        <ele>214</ele>
        <time>2012-03-04T10:06:16Z</time>
      </trkpt>
      <trkpt lat="45.76544" lon="4.81726">
        <ele>213</ele>
        <time>2012-03-04T10:06:17Z</time>
      </trkpt>
      <trkpt lat="45.76549" lon="4.81715">
        <ele>213</ele>
        <time>2012-03-04T10:06:20Z</time>
      </trkpt>
      <trkpt lat="45.76555" lon="4.81707">
        <ele>213</ele>
        <time>2012-03-04T10:06:23Z</time>
      </trkpt>
      <trkpt lat="45.76556" lon="4.81706">
        <ele>213</ele>
        <time>2012-03-04T10:06:24Z</time>
      </trkpt>
      <trkpt lat="45.76558" lon="4.81706">
        <ele>213</ele>
        <time>2012-03-04T10:06:25Z</time>
      </trkpt>
      <trkpt lat="45.76562" lon="4.8171">
        <ele>212</ele>
        <time>2012-03-04T10:06:30Z</time>
      </trkpt>
      <trkpt lat="45.76563" lon="4.8171">
        <ele>212</ele>
        <time>2012-03-04T10:06:31Z</time>
      </trkpt>
      <trkpt lat="45.76566" lon="4.8171">
        <ele>211</ele>
        <time>2012-03-04T10:06:34Z</time>
      </trkpt>
      <trkpt lat="45.76567" lon="4.81709">
        <ele>211</ele>
        <time>2012-03-04T10:06:35Z</time>
      </trkpt>
      <trkpt lat="45.76568" lon="4.81705">
        <ele>212</ele>
        <time>2012-03-04T10:06:40Z</time>
      </trkpt>
      <trkpt lat="45.76571" lon="4.817">
        <ele>212</ele>
        <time>2012-03-04T10:06:43Z</time>
      </trkpt>
      <trkpt lat="45.76572" lon="4.81693">
        <ele>212</ele>
        <time>2012-03-04T10:06:45Z</time>
      </trkpt>
      <trkpt lat="45.76575" lon="4.8168">
        <ele>211</ele>
        <time>2012-03-04T10:06:49Z</time>
      </trkpt>
      <trkpt lat="45.76576" lon="4.8168">
        <ele>211</ele>
        <time>2012-03-04T10:06:50Z</time>
      </trkpt>
      <trkpt lat="45.76578" lon="4.81681">
        <ele>211</ele>
        <time>2012-03-04T10:06:53Z</time>
      </trkpt>
      <trkpt lat="45.76578" lon="4.8168">
        <ele>211</ele>
        <time>2012-03-04T10:07:27Z</time>
      </trkpt>
      <trkpt lat="45.76578" lon="4.81675">
        <ele>211</ele>
        <time>2012-03-04T10:07:39Z</time>
      </trkpt>
      <trkpt lat="45.76579" lon="4.81669">
        <ele>210</ele>
        <time>2012-03-04T10:07:43Z</time>
      </trkpt>
      <trkpt lat="45.7658" lon="4.81664">
        <ele>211</ele>
        <time>2012-03-04T10:07:45Z</time>
      </trkpt>
      <trkpt lat="45.76581" lon="4.81657">
        <ele>214</ele>
        <time>2012-03-04T10:07:47Z</time>
      </trkpt>
      <trkpt lat="45.76585" lon="4.81642">
        <ele>204</ele>
        <time>2012-03-04T10:07:51Z</time>
      </trkpt>
      <trkpt lat="45.76586" lon="4.81631">
        <ele>204</ele>
        <time>2012-03-04T10:07:54Z</time>
      </trkpt>
      <trkpt lat="45.76588" lon="4.81616">
        <ele>205</ele>
        <time>2012-03-04T10:07:58Z</time>
      </trkpt>
      <trkpt lat="45.7659" lon="4.81605">
        <ele>207</ele>
        <time>2012-03-04T10:08:01Z</time>
      </trkpt>
      <trkpt lat="45.76591" lon="4.81595">
        <ele>209</ele>
        <time>2012-03-04T10:08:04Z</time>
      </trkpt>
      <trkpt lat="45.76592" lon="4.81588">
        <ele>211</ele>
        <time>2012-03-04T10:08:06Z</time>
      </trkpt>
      <trkpt lat="45.76593" lon="4.81581">
        <ele>212</ele>
        <time>2012-03-04T10:08:08Z</time>
      </trkpt>
      <trkpt lat="45.76593" lon="4.81577">
        <ele>211</ele>
        <time>2012-03-04T10:08:09Z</time>
      </trkpt>
      <trkpt lat="45.76594" lon="4.81574">
        <ele>211</ele>
        <time>2012-03-04T10:08:10Z</time>
      </trkpt>
      <trkpt lat="45.76595" lon="4.8156">
        <ele>208</ele>
        <time>2012-03-04T10:08:14Z</time>
      </trkpt>
      <trkpt lat="45.76596" lon="4.81551">
        <ele>207</ele>
        <time>2012-03-04T10:08:17Z</time>
      </trkpt>
      <trkpt lat="45.76596" lon="4.81543">
        <ele>207</ele>
        <time>2012-03-04T10:08:20Z</time>
      </trkpt>
      <trkpt lat="45.76595" lon="4.8153">
        <ele>208</ele>
        <time>2012-03-04T10:08:26Z</time>
      </trkpt>
      <trkpt lat="45.76597" lon="4.81525">
        <ele>208</ele>
        <time>2012-03-04T10:08:29Z</time>
      </trkpt>
      <trkpt lat="45.76598" lon="4.81525">
        <ele>208</ele>
        <time>2012-03-04T10:08:30Z</time>
      </trkpt>
      <trkpt lat="45.76598" lon="4.81525">
        <ele>208</ele>
        <time>2012-03-04T10:08:31Z</time>
      </trkpt>
      <trkpt lat="45.766" lon="4.81526">
        <ele>208</ele>
        <time>2012-03-04T10:08:32Z</time>
      </trkpt>
      <trkpt lat="45.76602" lon="4.8153">
        <ele>207</ele>
        <time>2012-03-04T10:08:36Z</time>
      </trkpt>
      <trkpt lat="45.76603" lon="4.81531">
        <ele>207</ele>
        <time>2012-03-04T10:08:37Z</time>
      </trkpt>
      <trkpt lat="45.76607" lon="4.81534">
        <ele>206</ele>
        <time>2012-03-04T10:08:40Z</time>
      </trkpt>
      <trkpt lat="45.76611" lon="4.81536">
        <ele>205</ele>
        <time>2012-03-04T10:08:42Z</time>
      </trkpt>
      <trkpt lat="45.76614" lon="4.81538">
        <ele>204</ele>
        <time>2012-03-04T10:08:44Z</time>
      </trkpt>
      <trkpt lat="45.76615" lon="4.81539">
        <ele>204</ele>
        <time>2012-03-04T10:08:45Z</time>
      </trkpt>
      <trkpt lat="45.76616" lon="4.8154">
        <ele>204</ele>
        <time>2012-03-04T10:08:46Z</time>
      </trkpt>
      <trkpt lat="45.76619" lon="4.81541">
        <ele>203</ele>
        <time>2012-03-04T10:08:48Z</time>
      </trkpt>
      <trkpt lat="45.76626" lon="4.8154">
        <ele>202</ele>
        <time>2012-03-04T10:08:52Z</time>
      </trkpt>
      <trkpt lat="45.76627" lon="4.81541">
        <ele>202</ele>
        <time>2012-03-04T10:08:53Z</time>
      </trkpt>
      <trkpt lat="45.76629" lon="4.81542">
        <ele>201</ele>
        <time>2012-03-04T10:08:55Z</time>
      </trkpt>
      <trkpt lat="45.7663" lon="4.81543">
        <ele>201</ele>
        <time>2012-03-04T10:08:57Z</time>
      </trkpt>
      <trkpt lat="45.76632" lon="4.81545">
        <ele>201</ele>
        <time>2012-03-04T10:08:59Z</time>
      </trkpt>
      <trkpt lat="45.76631" lon="4.81548">
        <ele>201</ele>
        <time>2012-03-04T10:09:02Z</time>
      </trkpt>
      <trkpt lat="45.76631" lon="4.8155">
        <ele>201</ele>
        <time>2012-03-04T10:09:03Z</time>
      </trkpt>
      <trkpt lat="45.76633" lon="4.81553">
        <ele>200</ele>
        <time>2012-03-04T10:09:06Z</time>
      </trkpt>
      <trkpt lat="45.76634" lon="4.81554">
        <ele>200</ele>
        <time>2012-03-04T10:09:08Z</time>
      </trkpt>
      <trkpt lat="45.76635" lon="4.81555">
        <ele>200</ele>
        <time>2012-03-04T10:09:09Z</time>
      </trkpt>
      <trkpt lat="45.76635" lon="4.81559">
        <ele>200</ele>
        <time>2012-03-04T10:09:13Z</time>
      </trkpt>
      <trkpt lat="45.76636" lon="4.81559">
        <ele>200</ele>
        <time>2012-03-04T10:09:14Z</time>
      </trkpt>
      <trkpt lat="45.76638" lon="4.81562">
        <ele>199</ele>
        <time>2012-03-04T10:09:17Z</time>
      </trkpt>
      <trkpt lat="45.76641" lon="4.81563">
        <ele>198</ele>
        <time>2012-03-04T10:09:19Z</time>
      </trkpt>
      <trkpt lat="45.76645" lon="4.81566">
        <ele>197</ele>
        <time>2012-03-04T10:09:22Z</time>
      </trkpt>
      <trkpt lat="45.76648" lon="4.81569">
        <ele>196</ele>
        <time>2012-03-04T10:09:26Z</time>
      </trkpt>
      <trkpt lat="45.7665" lon="4.81569">
        <ele>196</ele>
        <time>2012-03-04T10:09:27Z</time>
      </trkpt>
      <trkpt lat="45.76651" lon="4.8157">
        <ele>195</ele>
        <time>2012-03-04T10:09:32Z</time>
      </trkpt>
      <trkpt lat="45.76654" lon="4.81564">
        <ele>195</ele>
        <time>2012-03-04T10:09:35Z</time>
      </trkpt>
      <trkpt lat="45.76656" lon="4.81563">
        <ele>195</ele>
        <time>2012-03-04T10:09:37Z</time>
      </trkpt>
      <trkpt lat="45.76658" lon="4.81564">
        <ele>195</ele>
        <time>2012-03-04T10:09:39Z</time>
      </trkpt>
      <trkpt lat="45.76663" lon="4.81565">
        <ele>194</ele>
        <time>2012-03-04T10:09:41Z</time>
      </trkpt>
      <trkpt lat="45.76667" lon="4.81568">
        <ele>182</ele>
        <time>2012-03-04T10:09:44Z</time>
      </trkpt>
      <trkpt lat="45.76677" lon="4.81578">
        <ele>182</ele>
        <time>2012-03-04T10:09:50Z</time>
      </trkpt>
      <trkpt lat="45.76675" lon="4.81578">
        <ele>182</ele>
        <time>2012-03-04T10:09:54Z</time>
      </trkpt>
      <trkpt lat="45.76675" lon="4.81578">
        <ele>182</ele>
        <time>2012-03-04T10:09:55Z</time>
      </trkpt>
      <trkpt lat="45.76681" lon="4.81577">
        <ele>181</ele>
        <time>2012-03-04T10:10:05Z</time>
      </trkpt>
      <trkpt lat="45.76683" lon="4.81573">
        <ele>180</ele>
        <time>2012-03-04T10:10:11Z</time>
      </trkpt>
      <trkpt lat="45.76687" lon="4.81559">
        <ele>178</ele>
        <time>2012-03-04T10:10:15Z</time>
      </trkpt>
      <trkpt lat="45.76689" lon="4.81551">
        <ele>178</ele>
        <time>2012-03-04T10:10:17Z</time>
      </trkpt>
      <trkpt lat="45.76693" lon="4.81533">
        <ele>177</ele>
        <time>2012-03-04T10:10:22Z</time>
      </trkpt>
      <trkpt lat="45.76703" lon="4.81513">
        <ele>176</ele>
        <time>2012-03-04T10:10:28Z</time>
      </trkpt>
      <trkpt lat="45.76704" lon="4.81509">
        <ele>176</ele>
        <time>2012-03-04T10:10:29Z</time>
      </trkpt>
      <trkpt lat="45.76705" lon="4.81494">
        <ele>176</ele>
        <time>2012-03-04T10:10:33Z</time>
      </trkpt>
      <trkpt lat="45.76709" lon="4.81485">
        <ele>175</ele>
        <time>2012-03-04T10:10:36Z</time>
      </trkpt>
      <trkpt lat="45.76713" lon="4.81474">
        <ele>174</ele>
        <time>2012-03-04T10:10:39Z</time>
      </trkpt>
      <trkpt lat="45.76716" lon="4.81466">
        <ele>174</ele>
        <time>2012-03-04T10:10:42Z</time>
      </trkpt>
      <trkpt lat="45.76718" lon="4.81461">
        <ele>174</ele>
        <time>2012-03-04T10:10:44Z</time>
      </trkpt>
      <trkpt lat="45.76717" lon="4.81459">
        <ele>174</ele>
        <time>2012-03-04T10:10:45Z</time>
      </trkpt>
      <trkpt lat="45.76714" lon="4.81455">
        <ele>174</ele>
        <time>2012-03-04T10:10:49Z</time>
      </trkpt>
      <trkpt lat="45.76709" lon="4.81446">
        <ele>175</ele>
        <time>2012-03-04T10:10:54Z</time>
      </trkpt>
      <trkpt lat="45.76703" lon="4.81445">
        <ele>175</ele>
        <time>2012-03-04T10:10:59Z</time>
      </trkpt>
      <trkpt lat="45.76696" lon="4.81444">
        <ele>176</ele>
        <time>2012-03-04T10:11:05Z</time>
      </trkpt>
      <trkpt lat="45.76689" lon="4.81442">
        <ele>177</ele>
        <time>2012-03-04T10:11:12Z</time>
      </trkpt>
      <trkpt lat="45.76686" lon="4.81442">
        <ele>177</ele>
        <time>2012-03-04T10:11:16Z</time>
      </trkpt>
      <trkpt lat="45.76684" lon="4.81442">
        <ele>177</ele>
        <time>2012-03-04T10:11:18Z</time>
      </trkpt>
      <trkpt lat="45.76684" lon="4.81441">
        <ele>178</ele>
        <time>2012-03-04T10:11:19Z</time>
      </trkpt>
      <trkpt lat="45.7668" lon="4.8144">
        <ele>178</ele>
        <time>2012-03-04T10:11:26Z</time>
      </trkpt>
      <trkpt lat="45.76677" lon="4.81439">
        <ele>178</ele>
        <time>2012-03-04T10:11:31Z</time>
      </trkpt>
      <trkpt lat="45.76673" lon="4.81443">
        <ele>178</ele>
        <time>2012-03-04T10:11:34Z</time>
      </trkpt>
      <trkpt lat="45.7667" lon="4.81444">
        <ele>178</ele>
        <time>2012-03-04T10:11:37Z</time>
      </trkpt>
      <trkpt lat="45.76665" lon="4.81445">
        <ele>193</ele>
        <time>2012-03-04T10:11:41Z</time>
      </trkpt>
      <trkpt lat="45.76664" lon="4.81445">
        <ele>193</ele>
        <time>2012-03-04T10:11:42Z</time>
      </trkpt>
      <trkpt lat="45.76661" lon="4.81446">
        <ele>194</ele>
        <time>2012-03-04T10:11:45Z</time>
      </trkpt>
      <trkpt lat="45.76653" lon="4.81445">
        <ele>195</ele>
        <time>2012-03-04T10:11:53Z</time>
      </trkpt>
      <trkpt lat="45.76653" lon="4.81444">
        <ele>195</ele>
        <time>2012-03-04T10:11:54Z</time>
      </trkpt>
      <trkpt lat="45.76649" lon="4.81441">
        <ele>195</ele>
        <time>2012-03-04T10:11:59Z</time>
      </trkpt>
      <trkpt lat="45.76648" lon="4.8144">
        <ele>195</ele>
        <time>2012-03-04T10:12:00Z</time>
      </trkpt>
      <trkpt lat="45.76643" lon="4.81439">
        <ele>196</ele>
        <time>2012-03-04T10:12:06Z</time>
      </trkpt>
      <trkpt lat="45.76642" lon="4.81439">
        <ele>196</ele>
        <time>2012-03-04T10:12:07Z</time>
      </trkpt>
      <trkpt lat="45.7664" lon="4.81439">
        <ele>197</ele>
        <time>2012-03-04T10:12:10Z</time>
      </trkpt>
      <trkpt lat="45.76637" lon="4.81439">
        <ele>197</ele>
        <time>2012-03-04T10:12:13Z</time>
      </trkpt>
      <trkpt lat="45.76635" lon="4.81439">
        <ele>198</ele>
        <time>2012-03-04T10:12:15Z</time>
      </trkpt>
      <trkpt lat="45.76635" lon="4.81439">
        <ele>198</ele>
        <time>2012-03-04T10:12:16Z</time>
      </trkpt>
      <trkpt lat="45.76631" lon="4.81439">
        <ele>199</ele>
        <time>2012-03-04T10:12:19Z</time>
      </trkpt>
      <trkpt lat="45.76629" lon="4.81438">
        <ele>199</ele>
        <time>2012-03-04T10:12:20Z</time>
      </trkpt>
      <trkpt lat="45.76627" lon="4.81436">
        <ele>199</ele>
        <time>2012-03-04T10:12:23Z</time>
      </trkpt>
      <trkpt lat="45.76623" lon="4.81435">
        <ele>200</ele>
        <time>2012-03-04T10:12:27Z</time>
      </trkpt>
      <trkpt lat="45.76621" lon="4.81436">
        <ele>201</ele>
        <time>2012-03-04T10:12:29Z</time>
      </trkpt>
      <trkpt lat="45.7662" lon="4.81436">
        <ele>201</ele>
        <time>2012-03-04T10:12:31Z</time>
      </trkpt>
      <trkpt lat="45.76619" lon="4.81435">
        <ele>201</ele>
        <time>2012-03-04T10:12:32Z</time>
      </trkpt>
      <trkpt lat="45.76616" lon="4.81433">
        <ele>202</ele>
        <time>2012-03-04T10:12:37Z</time>
      </trkpt>
      <trkpt lat="45.76614" lon="4.81432">
        <ele>202</ele>
        <time>2012-03-04T10:12:38Z</time>
      </trkpt>
      <trkpt lat="45.76611" lon="4.81431">
        <ele>203</ele>
        <time>2012-03-04T10:12:43Z</time>
      </trkpt>
      <trkpt lat="45.76605" lon="4.81432">
        <ele>205</ele>
        <time>2012-03-04T10:12:49Z</time>
      </trkpt>
      <trkpt lat="45.76603" lon="4.81433">
        <ele>205</ele>
        <time>2012-03-04T10:12:50Z</time>
      </trkpt>
      <trkpt lat="45.76598" lon="4.81435">
        <ele>206</ele>
        <time>2012-03-04T10:12:54Z</time>
      </trkpt>
      <trkpt lat="45.76598" lon="4.81435">
        <ele>206</ele>
        <time>2012-03-04T10:12:55Z</time>
      </trkpt>
      <trkpt lat="45.76597" lon="4.81435">
        <ele>206</ele>
        <time>2012-03-04T10:12:56Z</time>
      </trkpt>
      <trkpt lat="45.76594" lon="4.81432">
        <ele>207</ele>
        <time>2012-03-04T10:13:00Z</time>
      </trkpt>
      <trkpt lat="45.76593" lon="4.81433">
        <ele>207</ele>
        <time>2012-03-04T10:13:02Z</time>
      </trkpt>
      <trkpt lat="45.76589" lon="4.81428">
        <ele>208</ele>
        <time>2012-03-04T10:13:12Z</time>
      </trkpt>
      <trkpt lat="45.76582" lon="4.81425">
        <ele>219</ele>
        <time>2012-03-04T10:13:19Z</time>
      </trkpt>
      <trkpt lat="45.76577" lon="4.81424">
        <ele>220</ele>
        <time>2012-03-04T10:13:26Z</time>
      </trkpt>
      <trkpt lat="45.76574" lon="4.81423">
        <ele>221</ele>
        <time>2012-03-04T10:13:31Z</time>
      </trkpt>
      <trkpt lat="45.76569" lon="4.81419">
        <ele>223</ele>
        <time>2012-03-04T10:13:40Z</time>
      </trkpt>
      <trkpt lat="45.76563" lon="4.81417">
        <ele>225</ele>
        <time>2012-03-04T10:13:48Z</time>
      </trkpt>
      <trkpt lat="45.7656" lon="4.81415">
        <ele>225</ele>
        <time>2012-03-04T10:13:54Z</time>
      </trkpt>
      <trkpt lat="45.76559" lon="4.81414">
        <ele>225</ele>
        <time>2012-03-04T10:13:56Z</time>
      </trkpt>
      <trkpt lat="45.76555" lon="4.81412">
        <ele>227</ele>
        <time>2012-03-04T10:14:05Z</time>
      </trkpt>
      <trkpt lat="45.7655" lon="4.81415">
        <ele>228</ele>
        <time>2012-03-04T10:14:14Z</time>
      </trkpt>
      <trkpt lat="45.76544" lon="4.81413">
        <ele>230</ele>
        <time>2012-03-04T10:14:28Z</time>
      </trkpt>
      <trkpt lat="45.76541" lon="4.81412">
        <ele>231</ele>
        <time>2012-03-04T10:14:36Z</time>
      </trkpt>
      <trkpt lat="45.7654" lon="4.81411">
        <ele>232</ele>
        <time>2012-03-04T10:14:37Z</time>
      </trkpt>
      <trkpt lat="45.76538" lon="4.81412">
        <ele>232</ele>
        <time>2012-03-04T10:14:41Z</time>
      </trkpt>
      <trkpt lat="45.76534" lon="4.81414">
        <ele>233</ele>
        <time>2012-03-04T10:14:50Z</time>
      </trkpt>
      <trkpt lat="45.76536" lon="4.81424">
        <ele>235</ele>
        <time>2012-03-04T10:14:56Z</time>
      </trkpt>
      <trkpt lat="45.76538" lon="4.81429">
        <ele>234</ele>
        <time>2012-03-04T10:14:59Z</time>
      </trkpt>
      <trkpt lat="45.76543" lon="4.81442">
        <ele>233</ele>
        <time>2012-03-04T10:15:06Z</time>
      </trkpt>
      <trkpt lat="45.76549" lon="4.81452">
        <ele>233</ele>
        <time>2012-03-04T10:15:11Z</time>
      </trkpt>
      <trkpt lat="45.7655" lon="4.81455">
        <ele>233</ele>
        <time>2012-03-04T10:15:12Z</time>
      </trkpt>
      <trkpt lat="45.76559" lon="4.81468">
        <ele>231</ele>
        <time>2012-03-04T10:15:18Z</time>
      </trkpt>
      <trkpt lat="45.76563" lon="4.81472">
        <ele>230</ele>
        <time>2012-03-04T10:15:20Z</time>
      </trkpt>
      <trkpt lat="45.76565" lon="4.81477">
        <ele>230</ele>
        <time>2012-03-04T10:15:22Z</time>
      </trkpt>
      <trkpt lat="45.76566" lon="4.81482">
        <ele>229</ele>
        <time>2012-03-04T10:15:24Z</time>
      </trkpt>
      <trkpt lat="45.76567" lon="4.81488">
        <ele>228</ele>
        <time>2012-03-04T10:15:26Z</time>
      </trkpt>
      <trkpt lat="45.76567" lon="4.81491">
        <ele>228</ele>
        <time>2012-03-04T10:15:27Z</time>
      </trkpt>
      <trkpt lat="45.76566" lon="4.81495">
        <ele>228</ele>
        <time>2012-03-04T10:15:29Z</time>
      </trkpt>
      <trkpt lat="45.76565" lon="4.81498">
        <ele>228</ele>
        <time>2012-03-04T10:15:31Z</time>
      </trkpt>
      <trkpt lat="45.76562" lon="4.81502">
        <ele>229</ele>
        <time>2012-03-04T10:15:34Z</time>
      </trkpt>
      <trkpt lat="45.76556" lon="4.81503">
        <ele>231</ele>
        <time>2012-03-04T10:15:41Z</time>
      </trkpt>
      <trkpt lat="45.76553" lon="4.81504">
        <ele>231</ele>
        <time>2012-03-04T10:15:46Z</time>
      </trkpt>
      <trkpt lat="45.7655" lon="4.81503">
        <ele>232</ele>
        <time>2012-03-04T10:15:53Z</time>
      </trkpt>
      <trkpt lat="45.76548" lon="4.815">
        <ele>233</ele>
        <time>2012-03-04T10:15:57Z</time>
      </trkpt>
      <trkpt lat="45.76545" lon="4.81501">
        <ele>234</ele>
        <time>2012-03-04T10:16:01Z</time>
      </trkpt>
      <trkpt lat="45.76542" lon="4.81502">
        <ele>235</ele>
        <time>2012-03-04T10:16:06Z</time>
      </trkpt>
      <trkpt lat="45.76539" lon="4.81501">
        <ele>236</ele>
        <time>2012-03-04T10:16:13Z</time>
      </trkpt>
      <trkpt lat="45.76535" lon="4.815">
        <ele>238</ele>
        <time>2012-03-04T10:16:18Z</time>
      </trkpt>
      <trkpt lat="45.76531" lon="4.81499">
        <ele>239</ele>
        <time>2012-03-04T10:16:25Z</time>
      </trkpt>
      <trkpt lat="45.7653" lon="4.81499">
        <ele>240</ele>
        <time>2012-03-04T10:16:27Z</time>
      </trkpt>
      <trkpt lat="45.76527" lon="4.81498">
        <ele>241</ele>
        <time>2012-03-04T10:16:31Z</time>
      </trkpt>
      <trkpt lat="45.76524" lon="4.81498">
        <ele>242</ele>
        <time>2012-03-04T10:16:36Z</time>
      </trkpt>
      <trkpt lat="45.76522" lon="4.815">
        <ele>243</ele>
        <time>2012-03-04T10:16:41Z</time>
      </trkpt>
      <trkpt lat="45.76517" lon="4.81506">
        <ele>244</ele>
        <time>2012-03-04T10:16:54Z</time>
      </trkpt>
      <trkpt lat="45.76513" lon="4.81506">
        <ele>246</ele>
        <time>2012-03-04T10:16:59Z</time>
      </trkpt>
      <trkpt lat="45.76512" lon="4.81507">
        <ele>246</ele>
        <time>2012-03-04T10:17:00Z</time>
      </trkpt>
      <trkpt lat="45.76509" lon="4.81505">
        <ele>248</ele>
        <time>2012-03-04T10:17:06Z</time>
      </trkpt>
      <trkpt lat="45.76504" lon="4.81504">
        <ele>251</ele>
        <time>2012-03-04T10:17:14Z</time>
      </trkpt>
      <trkpt lat="45.765" lon="4.815">
        <ele>256</ele>
        <time>2012-03-04T10:17:22Z</time>
      </trkpt>
      <trkpt lat="45.76495" lon="4.81497">
        <ele>258</ele>
        <time>2012-03-04T10:17:28Z</time>
      </trkpt>
      <trkpt lat="45.76495" lon="4.81496">
        <ele>258</ele>
        <time>2012-03-04T10:17:29Z</time>
      </trkpt>
      <trkpt lat="45.76492" lon="4.81494">
        <ele>259</ele>
        <time>2012-03-04T10:17:33Z</time>
      </trkpt>
      <trkpt lat="45.7649" lon="4.81492">
        <ele>260</ele>
        <time>2012-03-04T10:17:36Z</time>
      </trkpt>
      <trkpt lat="45.76487" lon="4.81489">
        <ele>260</ele>
        <time>2012-03-04T10:17:41Z</time>
      </trkpt>
      <trkpt lat="45.76483" lon="4.81488">
        <ele>261</ele>
        <time>2012-03-04T10:17:46Z</time>
      </trkpt>
      <trkpt lat="45.76482" lon="4.81488">
        <ele>261</ele>
        <time>2012-03-04T10:17:48Z</time>
      </trkpt>
      <trkpt lat="45.76478" lon="4.81489">
        <ele>262</ele>
        <time>2012-03-04T10:17:54Z</time>
      </trkpt>
      <trkpt lat="45.76476" lon="4.81485">
        <ele>262</ele>
        <time>2012-03-04T10:18:00Z</time>
      </trkpt>
      <trkpt lat="45.76474" lon="4.81483">
        <ele>263</ele>
        <time>2012-03-04T10:18:08Z</time>
      </trkpt>
      <trkpt lat="45.76471" lon="4.8148">
        <ele>263</ele>
        <time>2012-03-04T10:18:13Z</time>
      </trkpt>
      <trkpt lat="45.76468" lon="4.81483">
        <ele>264</ele>
        <time>2012-03-04T10:18:18Z</time>
      </trkpt>
      <trkpt lat="45.76466" lon="4.81482">
        <ele>264</ele>
        <time>2012-03-04T10:18:20Z</time>
      </trkpt>
      <trkpt lat="45.76463" lon="4.81483">
        <ele>264</ele>
        <time>2012-03-04T10:18:24Z</time>
      </trkpt>
      <trkpt lat="45.76461" lon="4.81483">
        <ele>265</ele>
        <time>2012-03-04T10:18:26Z</time>
      </trkpt>
      <trkpt lat="45.76459" lon="4.81483">
        <ele>265</ele>
        <time>2012-03-04T10:18:28Z</time>
      </trkpt>
      <trkpt lat="45.76458" lon="4.81483">
        <ele>265</ele>
        <time>2012-03-04T10:18:31Z</time>
      </trkpt>
      <trkpt lat="45.76453" lon="4.81481">
        <ele>266</ele>
        <time>2012-03-04T10:18:38Z</time>
      </trkpt>
      <trkpt lat="45.76449" lon="4.81481">
        <ele>267</ele>
        <time>2012-03-04T10:18:44Z</time>
      </trkpt>
      <trkpt lat="45.76447" lon="4.81481">
        <ele>267</ele>
        <time>2012-03-04T10:18:46Z</time>
      </trkpt>
      <trkpt lat="45.76445" lon="4.8148">
        <ele>267</ele>
        <time>2012-03-04T10:18:48Z</time>
      </trkpt>
      <trkpt lat="45.76444" lon="4.8148">
        <ele>267</ele>
        <time>2012-03-04T10:18:50Z</time>
      </trkpt>
      <trkpt lat="45.7644" lon="4.81477">
        <ele>268</ele>
        <time>2012-03-04T10:18:57Z</time>
      </trkpt>
      <trkpt lat="45.76433" lon="4.81477">
        <ele>269</ele>
        <time>2012-03-04T10:19:03Z</time>
      </trkpt>
      <trkpt lat="45.7643" lon="4.81478">
        <ele>269</ele>
        <time>2012-03-04T10:19:05Z</time>
      </trkpt>
      <trkpt lat="45.76428" lon="4.81479">
        <ele>269</ele>
        <time>2012-03-04T10:19:07Z</time>
      </trkpt>
      <trkpt lat="45.76421" lon="4.81478">
        <ele>270</ele>
        <time>2012-03-04T10:19:12Z</time>
      </trkpt>
      <trkpt lat="45.76413" lon="4.8147">
        <ele>280</ele>
        <time>2012-03-04T10:19:20Z</time>
      </trkpt>
      <trkpt lat="45.76412" lon="4.81466">
        <ele>280</ele>
        <time>2012-03-04T10:19:22Z</time>
      </trkpt>
      <trkpt lat="45.76408" lon="4.81457">
        <ele>281</ele>
        <time>2012-03-04T10:19:28Z</time>
      </trkpt>
      <trkpt lat="45.76407" lon="4.81455">
        <ele>281</ele>
        <time>2012-03-04T10:19:29Z</time>
      </trkpt>
      <trkpt lat="45.76406" lon="4.8145">
        <ele>281</ele>
        <time>2012-03-04T10:19:32Z</time>
      </trkpt>
      <trkpt lat="45.76405" lon="4.81445">
        <ele>281</ele>
        <time>2012-03-04T10:19:35Z</time>
      </trkpt>
      <trkpt lat="45.76405" lon="4.81442">
        <ele>282</ele>
        <time>2012-03-04T10:19:37Z</time>
      </trkpt>
      <trkpt lat="45.76405" lon="4.8144">
        <ele>282</ele>
        <time>2012-03-04T10:19:38Z</time>
      </trkpt>
      <trkpt lat="45.76406" lon="4.81435">
        <ele>282</ele>
        <time>2012-03-04T10:19:41Z</time>
      </trkpt>
      <trkpt lat="45.76404" lon="4.81421">
        <ele>282</ele>
        <time>2012-03-04T10:19:49Z</time>
      </trkpt>
      <trkpt lat="45.76404" lon="4.81416">
        <ele>282</ele>
        <time>2012-03-04T10:19:52Z</time>
      </trkpt>
      <trkpt lat="45.76403" lon="4.81408">
        <ele>282</ele>
        <time>2012-03-04T10:19:57Z</time>
      </trkpt>
      <trkpt lat="45.76402" lon="4.81401">
        <ele>282</ele>
        <time>2012-03-04T10:20:00Z</time>
      </trkpt>
      <trkpt lat="45.76401" lon="4.81395">
        <ele>282</ele>
        <time>2012-03-04T10:20:02Z</time>
      </trkpt>
      <trkpt lat="45.76401" lon="4.81391">
        <ele>282</ele>
        <time>2012-03-04T10:20:03Z</time>
      </trkpt>
      <trkpt lat="45.76401" lon="4.81388">
        <ele>282</ele>
        <time>2012-03-04T10:20:04Z</time>
      </trkpt>
      <trkpt lat="45.76401" lon="4.81377">
        <ele>282</ele>
        <time>2012-03-04T10:20:08Z</time>
      </trkpt>
      <trkpt lat="45.764" lon="4.81363">
        <ele>281</ele>
        <time>2012-03-04T10:20:12Z</time>
      </trkpt>
      <trkpt lat="45.764" lon="4.81356">
        <ele>281</ele>
        <time>2012-03-04T10:20:14Z</time>
      </trkpt>
      <trkpt lat="45.76396" lon="4.8134">
        <ele>280</ele>
        <time>2012-03-04T10:20:19Z</time>
      </trkpt>
      <trkpt lat="45.76394" lon="4.81337">
        <ele>280</ele>
        <time>2012-03-04T10:20:20Z</time>
      </trkpt>
      <trkpt lat="45.76386" lon="4.81334">
        <ele>281</ele>
        <time>2012-03-04T10:20:23Z</time>
      </trkpt>
      <trkpt lat="45.76375" lon="4.81332">
        <ele>280</ele>
        <time>2012-03-04T10:20:27Z</time>
      </trkpt>
      <trkpt lat="45.76371" lon="4.81331">
        <ele>280</ele>
        <time>2012-03-04T10:20:29Z</time>
      </trkpt>
      <trkpt lat="45.76359" lon="4.81331">
        <ele>281</ele>
        <time>2012-03-04T10:20:34Z</time>
      </trkpt>
      <trkpt lat="45.76357" lon="4.81331">
        <ele>281</ele>
        <time>2012-03-04T10:20:35Z</time>
      </trkpt>
      <trkpt lat="45.76345" lon="4.81328">
        <ele>282</ele>
        <time>2012-03-04T10:20:40Z</time>
      </trkpt>
      <trkpt lat="45.76337" lon="4.81325">
        <ele>283</ele>
        <time>2012-03-04T10:20:44Z</time>
      </trkpt>
      <trkpt lat="45.7633" lon="4.81324">
        <ele>284</ele>
        <time>2012-03-04T10:20:47Z</time>
      </trkpt>
      <trkpt lat="45.76317" lon="4.81321">
        <ele>285</ele>
        <time>2012-03-04T10:20:53Z</time>
      </trkpt>
      <trkpt lat="45.76315" lon="4.81321">
        <ele>285</ele>
        <time>2012-03-04T10:20:54Z</time>
      </trkpt>
      <trkpt lat="45.76303" lon="4.81315">
        <ele>285</ele>
        <time>2012-03-04T10:21:00Z</time>
      </trkpt>
      <trkpt lat="45.76299" lon="4.81314">
        <ele>285</ele>
        <time>2012-03-04T10:21:02Z</time>
      </trkpt>
      <trkpt lat="45.76291" lon="4.81314">
        <ele>286</ele>
        <time>2012-03-04T10:21:06Z</time>
      </trkpt>
      <trkpt lat="45.76283" lon="4.81316">
        <ele>286</ele>
        <time>2012-03-04T10:21:13Z</time>
      </trkpt>
      <trkpt lat="45.76282" lon="4.81316">
        <ele>286</ele>
        <time>2012-03-04T10:21:15Z</time>
      </trkpt>
      <trkpt lat="45.76282" lon="4.81315">
        <ele>286</ele>
        <time>2012-03-04T10:21:20Z</time>
      </trkpt>
      <trkpt lat="45.76281" lon="4.81318">
        <ele>286</ele>
        <time>2012-03-04T10:21:27Z</time>
      </trkpt>
      <trkpt lat="45.7628" lon="4.81312">
        <ele>286</ele>
        <time>2012-03-04T10:22:31Z</time>
      </trkpt>
      <trkpt lat="45.7628" lon="4.81303">
        <ele>286</ele>
        <time>2012-03-04T10:23:06Z</time>
      </trkpt>
      <trkpt lat="45.76279" lon="4.81301">
        <ele>286</ele>
        <time>2012-03-04T10:23:07Z</time>
      </trkpt>
      <trkpt lat="45.76277" lon="4.81299">
        <ele>286</ele>
        <time>2012-03-04T10:23:08Z</time>
      </trkpt>
      <trkpt lat="45.76273" lon="4.81293">
        <ele>286</ele>
        <time>2012-03-04T10:23:10Z</time>
      </trkpt>
      <trkpt lat="45.76264" lon="4.81282">
        <ele>285</ele>
        <time>2012-03-04T10:23:15Z</time>
      </trkpt>
      <trkpt lat="45.76262" lon="4.81279">
        <ele>285</ele>
        <time>2012-03-04T10:23:16Z</time>
      </trkpt>
      <trkpt lat="45.76258" lon="4.81277">
        <ele>285</ele>
        <time>2012-03-04T10:23:18Z</time>
      </trkpt>
      <trkpt lat="45.76254" lon="4.81278">
        <ele>285</ele>
        <time>2012-03-04T10:23:20Z</time>
      </trkpt>
      <trkpt lat="45.76245" lon="4.81279">
        <ele>288</ele>
        <time>2012-03-04T10:23:25Z</time>
      </trkpt>
      <trkpt lat="45.76243" lon="4.81279">
        <ele>288</ele>
        <time>2012-03-04T10:23:26Z</time>
      </trkpt>
      <trkpt lat="45.76231" lon="4.8128">
        <ele>289</ele>
        <time>2012-03-04T10:23:35Z</time>
      </trkpt>
      <trkpt lat="45.76226" lon="4.8128">
        <ele>289</ele>
        <time>2012-03-04T10:23:39Z</time>
      </trkpt>
      <trkpt lat="45.76216" lon="4.81282">
        <ele>289</ele>
        <time>2012-03-04T10:23:48Z</time>
      </trkpt>
      <trkpt lat="45.76207" lon="4.81282">
        <ele>290</ele>
        <time>2012-03-04T10:23:57Z</time>
      </trkpt>
      <trkpt lat="45.76207" lon="4.81282">
        <ele>290</ele>
        <time>2012-03-04T10:23:58Z</time>
      </trkpt>
      <trkpt lat="45.76194" lon="4.81285">
        <ele>290</ele>
        <time>2012-03-04T10:24:06Z</time>
      </trkpt>
      <trkpt lat="45.76188" lon="4.81286">
        <ele>290</ele>
        <time>2012-03-04T10:24:08Z</time>
      </trkpt>
      <trkpt lat="45.76179" lon="4.81287">
        <ele>291</ele>
        <time>2012-03-04T10:24:11Z</time>
      </trkpt>
      <trkpt lat="45.76169" lon="4.81288">
        <ele>291</ele>
        <time>2012-03-04T10:24:14Z</time>
      </trkpt>
      <trkpt lat="45.76166" lon="4.81284">
        <ele>291</ele>
        <time>2012-03-04T10:24:16Z</time>
      </trkpt>
      <trkpt lat="45.76158" lon="4.81265">
        <ele>291</ele>
        <time>2012-03-04T10:24:21Z</time>
      </trkpt>
      <trkpt lat="45.76147" lon="4.81246">
        <ele>286</ele>
        <time>2012-03-04T10:24:27Z</time>
      </trkpt>
      <trkpt lat="45.76146" lon="4.81243">
        <ele>286</ele>
        <time>2012-03-04T10:24:28Z</time>
      </trkpt>
      <trkpt lat="45.76138" lon="4.81231">
        <ele>284</ele>
        <time>2012-03-04T10:24:32Z</time>
      </trkpt>
      <trkpt lat="45.76131" lon="4.81227">
        <ele>284</ele>
        <time>2012-03-04T10:24:35Z</time>
      </trkpt>
      <trkpt lat="45.76126" lon="4.81225">
        <ele>283</ele>
        <time>2012-03-04T10:24:37Z</time>
      </trkpt>
      <trkpt lat="45.76123" lon="4.81224">
        <ele>283</ele>
        <time>2012-03-04T10:24:38Z</time>
      </trkpt>
      <trkpt lat="45.76116" lon="4.81227">
        <ele>283</ele>
        <time>2012-03-04T10:24:41Z</time>
      </trkpt>
      <trkpt lat="45.76114" lon="4.81228">
        <ele>283</ele>
        <time>2012-03-04T10:24:42Z</time>
      </trkpt>
      <trkpt lat="45.76104" lon="4.81233">
        <ele>284</ele>
        <time>2012-03-04T10:24:46Z</time>
      </trkpt>
      <trkpt lat="45.76095" lon="4.81241">
        <ele>285</ele>
        <time>2012-03-04T10:24:50Z</time>
      </trkpt>
      <trkpt lat="45.76085" lon="4.81245">
        <ele>286</ele>
        <time>2012-03-04T10:24:54Z</time>
      </trkpt>
      <trkpt lat="45.76076" lon="4.8125">
        <ele>288</ele>
        <time>2012-03-04T10:24:59Z</time>
      </trkpt>
      <trkpt lat="45.76069" lon="4.81254">
        <ele>288</ele>
        <time>2012-03-04T10:25:02Z</time>
      </trkpt>
      <trkpt lat="45.76058" lon="4.81259">
        <ele>288</ele>
        <time>2012-03-04T10:25:07Z</time>
      </trkpt>
      <trkpt lat="45.76044" lon="4.81268">
        <ele>288</ele>
        <time>2012-03-04T10:25:13Z</time>
      </trkpt>
      <trkpt lat="45.7604" lon="4.81269">
        <ele>288</ele>
        <time>2012-03-04T10:25:15Z</time>
      </trkpt>
      <trkpt lat="45.76031" lon="4.81274">
        <ele>288</ele>
        <time>2012-03-04T10:25:19Z</time>
      </trkpt>
      <trkpt lat="45.76021" lon="4.8128">
        <ele>288</ele>
        <time>2012-03-04T10:25:23Z</time>
      </trkpt>
      <trkpt lat="45.76014" lon="4.81284">
        <ele>288</ele>
        <time>2012-03-04T10:25:26Z</time>
      </trkpt>
      <trkpt lat="45.76003" lon="4.8129">
        <ele>289</ele>
        <time>2012-03-04T10:25:31Z</time>
      </trkpt>
      <trkpt lat="45.7599" lon="4.81299">
        <ele>286</ele>
        <time>2012-03-04T10:25:37Z</time>
      </trkpt>
      <trkpt lat="45.75986" lon="4.81304">
        <ele>286</ele>
        <time>2012-03-04T10:25:39Z</time>
      </trkpt>
      <trkpt lat="45.75982" lon="4.81313">
        <ele>287</ele>
        <time>2012-03-04T10:25:42Z</time>
      </trkpt>
      <trkpt lat="45.75976" lon="4.81328">
        <ele>287</ele>
        <time>2012-03-04T10:25:46Z</time>
      </trkpt>
      <trkpt lat="45.75975" lon="4.81332">
        <ele>287</ele>
        <time>2012-03-04T10:25:47Z</time>
      </trkpt>
      <trkpt lat="45.75967" lon="4.81351">
        <ele>291</ele>
        <time>2012-03-04T10:25:52Z</time>
      </trkpt>
      <trkpt lat="45.75965" lon="4.81354">
        <ele>291</ele>
        <time>2012-03-04T10:25:53Z</time>
      </trkpt>
      <trkpt lat="45.75959" lon="4.81369">
        <ele>291</ele>
        <time>2012-03-04T10:25:58Z</time>
      </trkpt>
      <trkpt lat="45.7596" lon="4.81375">
        <ele>291</ele>
        <time>2012-03-04T10:26:01Z</time>
      </trkpt>
      <trkpt lat="45.75959" lon="4.8138">
        <ele>291</ele>
        <time>2012-03-04T10:26:03Z</time>
      </trkpt>
      <trkpt lat="45.75952" lon="4.81398">
        <ele>292</ele>
        <time>2012-03-04T10:26:09Z</time>
      </trkpt>
      <trkpt lat="45.7595" lon="4.81401">
        <ele>292</ele>
        <time>2012-03-04T10:26:10Z</time>
      </trkpt>
      <trkpt lat="45.75935" lon="4.81414">
        <ele>292</ele>
        <time>2012-03-04T10:26:16Z</time>
      </trkpt>
      <trkpt lat="45.7592" lon="4.8142">
        <ele>292</ele>
        <time>2012-03-04T10:26:22Z</time>
      </trkpt>
      <trkpt lat="45.75917" lon="4.81421">
        <ele>292</ele>
        <time>2012-03-04T10:26:23Z</time>
      </trkpt>
      <trkpt lat="45.75908" lon="4.81428">
        <ele>289</ele>
        <time>2012-03-04T10:26:27Z</time>
      </trkpt>
      <trkpt lat="45.75901" lon="4.81436">
        <ele>287</ele>
        <time>2012-03-04T10:26:31Z</time>
      </trkpt>
      <trkpt lat="45.75896" lon="4.81441">
        <ele>287</ele>
        <time>2012-03-04T10:26:34Z</time>
      </trkpt>
      <trkpt lat="45.75889" lon="4.81455">
        <ele>286</ele>
        <time>2012-03-04T10:26:40Z</time>
      </trkpt>
      <trkpt lat="45.75889" lon="4.81459">
        <ele>286</ele>
        <time>2012-03-04T10:26:41Z</time>
      </trkpt>
      <trkpt lat="45.75886" lon="4.81469">
        <ele>286</ele>
        <time>2012-03-04T10:26:45Z</time>
      </trkpt>
      <trkpt lat="45.7588" lon="4.81467">
        <ele>285</ele>
        <time>2012-03-04T10:26:49Z</time>
      </trkpt>
      <trkpt lat="45.75875" lon="4.81462">
        <ele>285</ele>
        <time>2012-03-04T10:26:52Z</time>
      </trkpt>
      <trkpt lat="45.75871" lon="4.81458">
        <ele>284</ele>
        <time>2012-03-04T10:26:55Z</time>
      </trkpt>
      <trkpt lat="45.75864" lon="4.8145">
        <ele>283</ele>
        <time>2012-03-04T10:26:59Z</time>
      </trkpt>
      <trkpt lat="45.75862" lon="4.81447">
        <ele>283</ele>
        <time>2012-03-04T10:27:00Z</time>
      </trkpt>
      <trkpt lat="45.75856" lon="4.81444">
        <ele>282</ele>
        <time>2012-03-04T10:27:03Z</time>
      </trkpt>
      <trkpt lat="45.75853" lon="4.8144">
        <ele>281</ele>
        <time>2012-03-04T10:27:05Z</time>
      </trkpt>
      <trkpt lat="45.7585" lon="4.81438">
        <ele>281</ele>
        <time>2012-03-04T10:27:07Z</time>
      </trkpt>
      <trkpt lat="45.75848" lon="4.81436">
        <ele>280</ele>
        <time>2012-03-04T10:27:09Z</time>
      </trkpt>
      <trkpt lat="45.75842" lon="4.81433">
        <ele>279</ele>
        <time>2012-03-04T10:27:13Z</time>
      </trkpt>
      <trkpt lat="45.75833" lon="4.81424">
        <ele>273</ele>
        <time>2012-03-04T10:27:17Z</time>
      </trkpt>
      <trkpt lat="45.75829" lon="4.81418">
        <ele>273</ele>
        <time>2012-03-04T10:27:19Z</time>
      </trkpt>
      <trkpt lat="45.75819" lon="4.81406">
        <ele>272</ele>
        <time>2012-03-04T10:27:24Z</time>
      </trkpt>
      <trkpt lat="45.75814" lon="4.81402">
        <ele>272</ele>
        <time>2012-03-04T10:27:26Z</time>
      </trkpt>
      <trkpt lat="45.75806" lon="4.81393">
        <ele>272</ele>
        <time>2012-03-04T10:27:30Z</time>
      </trkpt>
      <trkpt lat="45.75802" lon="4.81389">
        <ele>272</ele>
        <time>2012-03-04T10:27:32Z</time>
      </trkpt>
      <trkpt lat="45.75802" lon="4.81386">
        <ele>272</ele>
        <time>2012-03-04T10:27:33Z</time>
      </trkpt>
      <trkpt lat="45.75804" lon="4.81372">
        <ele>272</ele>
        <time>2012-03-04T10:27:35Z</time>
      </trkpt>
      <trkpt lat="45.75811" lon="4.81365">
        <ele>272</ele>
        <time>2012-03-04T10:27:38Z</time>
      </trkpt>
      <trkpt lat="45.75818" lon="4.8135">
        <ele>272</ele>
        <time>2012-03-04T10:27:42Z</time>
      </trkpt>
      <trkpt lat="45.75823" lon="4.81341">
        <ele>272</ele>
        <time>2012-03-04T10:27:45Z</time>
      </trkpt>
      <trkpt lat="45.75829" lon="4.81331">
        <ele>272</ele>
        <time>2012-03-04T10:27:48Z</time>
      </trkpt>
      <trkpt lat="45.75835" lon="4.81318">
        <ele>274</ele>
        <time>2012-03-04T10:27:52Z</time>
      </trkpt>
      <trkpt lat="45.75837" lon="4.81316">
        <ele>274</ele>
        <time>2012-03-04T10:27:53Z</time>
      </trkpt>
      <trkpt lat="45.75847" lon="4.81301">
        <ele>275</ele>
        <time>2012-03-04T10:27:58Z</time>
      </trkpt>
      <trkpt lat="45.75849" lon="4.81298">
        <ele>275</ele>
        <time>2012-03-04T10:27:59Z</time>
      </trkpt>
      <trkpt lat="45.75854" lon="4.81287">
        <ele>275</ele>
        <time>2012-03-04T10:28:03Z</time>
      </trkpt>
      <trkpt lat="45.75859" lon="4.81273">
        <ele>274</ele>
        <time>2012-03-04T10:28:07Z</time>
      </trkpt>
      <trkpt lat="45.75862" lon="4.81266">
        <ele>274</ele>
        <time>2012-03-04T10:28:09Z</time>
      </trkpt>
      <trkpt lat="45.75868" lon="4.81248">
        <ele>269</ele>
        <time>2012-03-04T10:28:14Z</time>
      </trkpt>
      <trkpt lat="45.75871" lon="4.81242">
        <ele>269</ele>
        <time>2012-03-04T10:28:16Z</time>
      </trkpt>
      <trkpt lat="45.75878" lon="4.81224">
        <ele>268</ele>
        <time>2012-03-04T10:28:21Z</time>
      </trkpt>
      <trkpt lat="45.75879" lon="4.81221">
        <ele>268</ele>
        <time>2012-03-04T10:28:22Z</time>
      </trkpt>
      <trkpt lat="45.75889" lon="4.81201">
        <ele>267</ele>
        <time>2012-03-04T10:28:28Z</time>
      </trkpt>
      <trkpt lat="45.75894" lon="4.81185">
        <ele>265</ele>
        <time>2012-03-04T10:28:32Z</time>
      </trkpt>
      <trkpt lat="45.75898" lon="4.81175">
        <ele>264</ele>
        <time>2012-03-04T10:28:35Z</time>
      </trkpt>
      <trkpt lat="45.75903" lon="4.81165">
        <ele>261</ele>
        <time>2012-03-04T10:28:38Z</time>
      </trkpt>
      <trkpt lat="45.75909" lon="4.81152">
        <ele>261</ele>
        <time>2012-03-04T10:28:42Z</time>
      </trkpt>
      <trkpt lat="45.75913" lon="4.81146">
        <ele>261</ele>
        <time>2012-03-04T10:28:44Z</time>
      </trkpt>
      <trkpt lat="45.75924" lon="4.81134">
        <ele>260</ele>
        <time>2012-03-04T10:28:49Z</time>
      </trkpt>
      <trkpt lat="45.75927" lon="4.81132">
        <ele>260</ele>
        <time>2012-03-04T10:28:50Z</time>
      </trkpt>
      <trkpt lat="45.75938" lon="4.8112">
        <ele>260</ele>
        <time>2012-03-04T10:28:55Z</time>
      </trkpt>
      <trkpt lat="45.7594" lon="4.81118">
        <ele>260</ele>
        <time>2012-03-04T10:28:56Z</time>
      </trkpt>
      <trkpt lat="45.75953" lon="4.81103">
        <ele>259</ele>
        <time>2012-03-04T10:29:02Z</time>
      </trkpt>
      <trkpt lat="45.75955" lon="4.81101">
        <ele>259</ele>
        <time>2012-03-04T10:29:03Z</time>
      </trkpt>
      <trkpt lat="45.75964" lon="4.81089">
        <ele>259</ele>
        <time>2012-03-04T10:29:08Z</time>
      </trkpt>
      <trkpt lat="45.75968" lon="4.81082">
        <ele>257</ele>
        <time>2012-03-04T10:29:11Z</time>
      </trkpt>
      <trkpt lat="45.75973" lon="4.81073">
        <ele>257</ele>
        <time>2012-03-04T10:29:14Z</time>
      </trkpt>
      <trkpt lat="45.75974" lon="4.81057">
        <ele>257</ele>
        <time>2012-03-04T10:29:19Z</time>
      </trkpt>
      <trkpt lat="45.75974" lon="4.81053">
        <ele>257</ele>
        <time>2012-03-04T10:29:20Z</time>
      </trkpt>
      <trkpt lat="45.75981" lon="4.81035">
        <ele>256</ele>
        <time>2012-03-04T10:29:25Z</time>
      </trkpt>
      <trkpt lat="45.75981" lon="4.81032">
        <ele>256</ele>
        <time>2012-03-04T10:29:26Z</time>
      </trkpt>
      <trkpt lat="45.75986" lon="4.81015">
        <ele>256</ele>
        <time>2012-03-04T10:29:31Z</time>
      </trkpt>
      <trkpt lat="45.75989" lon="4.81007">
        <ele>256</ele>
        <time>2012-03-04T10:29:33Z</time>
      </trkpt>
      <trkpt lat="45.75991" lon="4.80994">
        <ele>255</ele>
        <time>2012-03-04T10:29:37Z</time>
      </trkpt>
      <trkpt lat="45.75992" lon="4.80987">
        <ele>255</ele>
        <time>2012-03-04T10:29:40Z</time>
      </trkpt>
      <trkpt lat="45.75993" lon="4.80983">
        <ele>255</ele>
        <time>2012-03-04T10:29:42Z</time>
      </trkpt>
      <trkpt lat="45.75994" lon="4.8098">
        <ele>255</ele>
        <time>2012-03-04T10:29:44Z</time>
      </trkpt>
      <trkpt lat="45.75994" lon="4.80979">
        <ele>255</ele>
        <time>2012-03-04T10:29:45Z</time>
      </trkpt>
      <trkpt lat="45.75994" lon="4.80977">
        <ele>255</ele>
        <time>2012-03-04T10:29:46Z</time>
      </trkpt>
      <trkpt lat="45.75993" lon="4.80978">
        <ele>255</ele>
        <time>2012-03-04T10:29:47Z</time>
      </trkpt>
      <trkpt lat="45.7599" lon="4.80991">
        <ele>255</ele>
        <time>2012-03-04T10:29:53Z</time>
      </trkpt>
      <trkpt lat="45.75988" lon="4.80998">
        <ele>255</ele>
        <time>2012-03-04T10:29:55Z</time>
      </trkpt>
      <trkpt lat="45.75988" lon="4.81001">
        <ele>256</ele>
        <time>2012-03-04T10:29:56Z</time>
      </trkpt>
      <trkpt lat="45.75986" lon="4.8101">
        <ele>256</ele>
        <time>2012-03-04T10:29:59Z</time>
      </trkpt>
      <trkpt lat="45.75983" lon="4.81024">
        <ele>256</ele>
        <time>2012-03-04T10:30:03Z</time>
      </trkpt>
      <trkpt lat="45.75981" lon="4.81032">
        <ele>256</ele>
        <time>2012-03-04T10:30:05Z</time>
      </trkpt>
      <trkpt lat="45.7598" lon="4.81045">
        <ele>256</ele>
        <time>2012-03-04T10:30:09Z</time>
      </trkpt>
      <trkpt lat="45.7598" lon="4.81053">
        <ele>256</ele>
        <time>2012-03-04T10:30:12Z</time>
      </trkpt>
      <trkpt lat="45.7598" lon="4.8106">
        <ele>256</ele>
        <time>2012-03-04T10:30:15Z</time>
      </trkpt>
      <trkpt lat="45.7598" lon="4.81063">
        <ele>256</ele>
        <time>2012-03-04T10:30:17Z</time>
      </trkpt>
      <trkpt lat="45.75979" lon="4.8107">
        <ele>256</ele>
        <time>2012-03-04T10:30:20Z</time>
      </trkpt>
      <trkpt lat="45.75976" lon="4.81078">
        <ele>257</ele>
        <time>2012-03-04T10:30:24Z</time>
      </trkpt>
      <trkpt lat="45.75974" lon="4.8108">
        <ele>257</ele>
        <time>2012-03-04T10:30:26Z</time>
      </trkpt>
      <trkpt lat="45.75971" lon="4.81081">
        <ele>257</ele>
        <time>2012-03-04T10:30:28Z</time>
      </trkpt>
      <trkpt lat="45.75967" lon="4.81084">
        <ele>259</ele>
        <time>2012-03-04T10:30:32Z</time>
      </trkpt>
      <trkpt lat="45.75967" lon="4.81084">
        <ele>259</ele>
        <time>2012-03-04T10:30:33Z</time>
      </trkpt>
      <trkpt lat="45.75966" lon="4.81085">
        <ele>259</ele>
        <time>2012-03-04T10:30:35Z</time>
      </trkpt>
      <trkpt lat="45.75962" lon="4.81089">
        <ele>259</ele>
        <time>2012-03-04T10:30:40Z</time>
      </trkpt>
      <trkpt lat="45.75959" lon="4.81092">
        <ele>259</ele>
        <time>2012-03-04T10:30:43Z</time>
      </trkpt>
      <trkpt lat="45.75955" lon="4.81095">
        <ele>259</ele>
        <time>2012-03-04T10:30:47Z</time>
      </trkpt>
      <trkpt lat="45.75958" lon="4.81093">
        <ele>259</ele>
        <time>2012-03-04T10:31:12Z</time>
      </trkpt>
      <trkpt lat="45.75963" lon="4.81088">
        <ele>259</ele>
        <time>2012-03-04T10:31:14Z</time>
      </trkpt>
      <trkpt lat="45.75968" lon="4.8108">
        <ele>257</ele>
        <time>2012-03-04T10:31:17Z</time>
      </trkpt>
      <trkpt lat="45.75977" lon="4.81069">
        <ele>257</ele>
        <time>2012-03-04T10:31:21Z</time>
      </trkpt>
      <trkpt lat="45.75979" lon="4.81067">
        <ele>256</ele>
        <time>2012-03-04T10:31:22Z</time>
      </trkpt>
      <trkpt lat="45.75988" lon="4.81057">
        <ele>256</ele>
        <time>2012-03-04T10:31:26Z</time>
      </trkpt>
      <trkpt lat="45.75992" lon="4.81051">
        <ele>256</ele>
        <time>2012-03-04T10:31:28Z</time>
      </trkpt>
      <trkpt lat="45.75999" lon="4.81042">
        <ele>256</ele>
        <time>2012-03-04T10:31:31Z</time>
      </trkpt>
      <trkpt lat="45.76008" lon="4.81032">
        <ele>254</ele>
        <time>2012-03-04T10:31:35Z</time>
      </trkpt>
      <trkpt lat="45.76011" lon="4.81029">
        <ele>254</ele>
        <time>2012-03-04T10:31:36Z</time>
      </trkpt>
      <trkpt lat="45.76023" lon="4.81015">
        <ele>254</ele>
        <time>2012-03-04T10:31:41Z</time>
      </trkpt>
      <trkpt lat="45.76035" lon="4.80999">
        <ele>251</ele>
        <time>2012-03-04T10:31:46Z</time>
      </trkpt>
      <trkpt lat="45.76037" lon="4.80996">
        <ele>251</ele>
        <time>2012-03-04T10:31:47Z</time>
      </trkpt>
      <trkpt lat="45.76046" lon="4.80983">
        <ele>251</ele>
        <time>2012-03-04T10:31:51Z</time>
      </trkpt>
      <trkpt lat="45.7605" lon="4.80977">
        <ele>250</ele>
        <time>2012-03-04T10:31:53Z</time>
      </trkpt>
      <trkpt lat="45.76061" lon="4.80962">
        <ele>250</ele>
        <time>2012-03-04T10:31:58Z</time>
      </trkpt>
      <trkpt lat="45.76063" lon="4.8096">
        <ele>250</ele>
        <time>2012-03-04T10:31:59Z</time>
      </trkpt>
      <trkpt lat="45.76073" lon="4.80946">
        <ele>249</ele>
        <time>2012-03-04T10:32:04Z</time>
      </trkpt>
      <trkpt lat="45.76077" lon="4.80941">
        <ele>248</ele>
        <time>2012-03-04T10:32:06Z</time>
      </trkpt>
      <trkpt lat="45.76083" lon="4.80935">
        <ele>248</ele>
        <time>2012-03-04T10:32:09Z</time>
      </trkpt>
      <trkpt lat="45.76085" lon="4.80931">
        <ele>246</ele>
        <time>2012-03-04T10:32:12Z</time>
      </trkpt>
      <trkpt lat="45.76085" lon="4.80927">
        <ele>246</ele>
        <time>2012-03-04T10:32:14Z</time>
      </trkpt>
      <trkpt lat="45.76086" lon="4.80922">
        <ele>246</ele>
        <time>2012-03-04T10:32:18Z</time>
      </trkpt>
      <trkpt lat="45.76087" lon="4.80921">
        <ele>246</ele>
        <time>2012-03-04T10:32:19Z</time>
      </trkpt>
      <trkpt lat="45.76087" lon="4.8092">
        <ele>245</ele>
        <time>2012-03-04T10:32:21Z</time>
      </trkpt>
      <trkpt lat="45.76087" lon="4.80919">
        <ele>245</ele>
        <time>2012-03-04T10:32:22Z</time>
      </trkpt>
      <trkpt lat="45.76088" lon="4.80915">
        <ele>245</ele>
        <time>2012-03-04T10:32:25Z</time>
      </trkpt>
      <trkpt lat="45.76089" lon="4.80909">
        <ele>244</ele>
        <time>2012-03-04T10:32:29Z</time>
      </trkpt>
      <trkpt lat="45.7609" lon="4.80895">
        <ele>244</ele>
        <time>2012-03-04T10:32:38Z</time>
      </trkpt>
      <trkpt lat="45.76092" lon="4.8088">
        <ele>244</ele>
        <time>2012-03-04T10:32:42Z</time>
      </trkpt>
      <trkpt lat="45.76094" lon="4.80869">
        <ele>244</ele>
        <time>2012-03-04T10:32:45Z</time>
      </trkpt>
      <trkpt lat="45.76096" lon="4.80865">
        <ele>244</ele>
        <time>2012-03-04T10:32:46Z</time>
      </trkpt>
      <trkpt lat="45.76099" lon="4.80846">
        <ele>244</ele>
        <time>2012-03-04T10:32:51Z</time>
      </trkpt>
      <trkpt lat="45.761" lon="4.80842">
        <ele>244</ele>
        <time>2012-03-04T10:32:52Z</time>
      </trkpt>
      <trkpt lat="45.76106" lon="4.80828">
        <ele>244</ele>
        <time>2012-03-04T10:32:56Z</time>
      </trkpt>
      <trkpt lat="45.7611" lon="4.80818">
        <ele>244</ele>
        <time>2012-03-04T10:32:59Z</time>
      </trkpt>
      <trkpt lat="45.76116" lon="4.80809">
        <ele>244</ele>
        <time>2012-03-04T10:33:02Z</time>
      </trkpt>
      <trkpt lat="45.76124" lon="4.80799">
        <ele>244</ele>
        <time>2012-03-04T10:33:06Z</time>
      </trkpt>
      <trkpt lat="45.76128" lon="4.80794">
        <ele>244</ele>
        <time>2012-03-04T10:33:08Z</time>
      </trkpt>
      <trkpt lat="45.76138" lon="4.8078">
        <ele>243</ele>
        <time>2012-03-04T10:33:13Z</time>
      </trkpt>
      <trkpt lat="45.76145" lon="4.80765">
        <ele>243</ele>
        <time>2012-03-04T10:33:18Z</time>
      </trkpt>
      <trkpt lat="45.76147" lon="4.80754">
        <ele>242</ele>
        <time>2012-03-04T10:33:21Z</time>
      </trkpt>
      <trkpt lat="45.76148" lon="4.80744">
        <ele>243</ele>
        <time>2012-03-04T10:33:24Z</time>
      </trkpt>
      <trkpt lat="45.7615" lon="4.80727">
        <ele>244</ele>
        <time>2012-03-04T10:33:29Z</time>
      </trkpt>
      <trkpt lat="45.76159" lon="4.80709">
        <ele>245</ele>
        <time>2012-03-04T10:33:35Z</time>
      </trkpt>
      <trkpt lat="45.76161" lon="4.80706">
        <ele>245</ele>
        <time>2012-03-04T10:33:36Z</time>
      </trkpt>
      <trkpt lat="45.76165" lon="4.80692">
        <ele>245</ele>
        <time>2012-03-04T10:33:40Z</time>
      </trkpt>
      <trkpt lat="45.76168" lon="4.80682">
        <ele>241</ele>
        <time>2012-03-04T10:33:43Z</time>
      </trkpt>
      <trkpt lat="45.76172" lon="4.80669">
        <ele>242</ele>
        <time>2012-03-04T10:33:47Z</time>
      </trkpt>
      <trkpt lat="45.76175" lon="4.80655">
        <ele>243</ele>
        <time>2012-03-04T10:33:51Z</time>
      </trkpt>
      <trkpt lat="45.76177" lon="4.80648">
        <ele>242</ele>
        <time>2012-03-04T10:33:53Z</time>
      </trkpt>
      <trkpt lat="45.76181" lon="4.80627">
        <ele>242</ele>
        <time>2012-03-04T10:33:59Z</time>
      </trkpt>
      <trkpt lat="45.76183" lon="4.80613">
        <ele>242</ele>
        <time>2012-03-04T10:34:05Z</time>
      </trkpt>
      <trkpt lat="45.76182" lon="4.806">
        <ele>242</ele>
        <time>2012-03-04T10:34:13Z</time>
      </trkpt>
      <trkpt lat="45.76182" lon="4.80596">
        <ele>243</ele>
        <time>2012-03-04T10:34:15Z</time>
      </trkpt>
      <trkpt lat="45.76182" lon="4.80585">
        <ele>243</ele>
        <time>2012-03-04T10:34:23Z</time>
      </trkpt>
      <trkpt lat="45.7618" lon="4.80574">
        <ele>244</ele>
        <time>2012-03-04T10:34:31Z</time>
      </trkpt>
      <trkpt lat="45.76179" lon="4.80572">
        <ele>244</ele>
        <time>2012-03-04T10:34:32Z</time>
      </trkpt>
      <trkpt lat="45.76176" lon="4.80555">
        <ele>243</ele>
        <time>2012-03-04T10:34:44Z</time>
      </trkpt>
      <trkpt lat="45.76175" lon="4.80548">
        <ele>243</ele>
        <time>2012-03-04T10:34:48Z</time>
      </trkpt>
      <trkpt lat="45.76171" lon="4.80537">
        <ele>243</ele>
        <time>2012-03-04T10:34:55Z</time>
      </trkpt>
      <trkpt lat="45.76166" lon="4.80531">
        <ele>244</ele>
        <time>2012-03-04T10:35:02Z</time>
      </trkpt>
      <trkpt lat="45.76163" lon="4.80531">
        <ele>244</ele>
        <time>2012-03-04T10:35:04Z</time>
      </trkpt>
      <trkpt lat="45.76154" lon="4.80531">
        <ele>244</ele>
        <time>2012-03-04T10:35:10Z</time>
      </trkpt>
      <trkpt lat="45.76146" lon="4.80532">
        <ele>245</ele>
        <time>2012-03-04T10:35:14Z</time>
      </trkpt>
      <trkpt lat="45.76141" lon="4.80532">
        <ele>245</ele>
        <time>2012-03-04T10:35:16Z</time>
      </trkpt>
      <trkpt lat="45.76126" lon="4.80532">
        <ele>246</ele>
        <time>2012-03-04T10:35:22Z</time>
      </trkpt>
      <trkpt lat="45.76114" lon="4.80531">
        <ele>246</ele>
        <time>2012-03-04T10:35:27Z</time>
      </trkpt>
      <trkpt lat="45.76106" lon="4.80532">
        <ele>246</ele>
        <time>2012-03-04T10:35:31Z</time>
      </trkpt>
      <trkpt lat="45.76102" lon="4.80532">
        <ele>246</ele>
        <time>2012-03-04T10:35:33Z</time>
      </trkpt>
      <trkpt lat="45.76095" lon="4.80536">
        <ele>247</ele>
        <time>2012-03-04T10:35:37Z</time>
      </trkpt>
      <trkpt lat="45.76087" lon="4.80539">
        <ele>247</ele>
        <time>2012-03-04T10:35:42Z</time>
      </trkpt>
      <trkpt lat="45.76079" lon="4.80543">
        <ele>250</ele>
        <time>2012-03-04T10:35:47Z</time>
      </trkpt>
      <trkpt lat="45.76079" lon="4.80549">
        <ele>251</ele>
        <time>2012-03-04T10:35:52Z</time>
      </trkpt>
      <trkpt lat="45.76078" lon="4.80551">
        <ele>251</ele>
        <time>2012-03-04T10:35:53Z</time>
      </trkpt>
      <trkpt lat="45.76078" lon="4.80552">
        <ele>251</ele>
        <time>2012-03-04T10:35:54Z</time>
      </trkpt>
      <trkpt lat="45.76076" lon="4.80558">
        <ele>251</ele>
        <time>2012-03-04T10:35:57Z</time>
      </trkpt>
      <trkpt lat="45.76075" lon="4.80562">
        <ele>251</ele>
        <time>2012-03-04T10:35:59Z</time>
      </trkpt>
      <trkpt lat="45.76072" lon="4.80581">
        <ele>250</ele>
        <time>2012-03-04T10:36:10Z</time>
      </trkpt>
      <trkpt lat="45.76072" lon="4.80585">
        <ele>250</ele>
        <time>2012-03-04T10:36:12Z</time>
      </trkpt>
      <trkpt lat="45.76069" lon="4.80602">
        <ele>251</ele>
        <time>2012-03-04T10:36:21Z</time>
      </trkpt>
      <trkpt lat="45.76068" lon="4.80609">
        <ele>251</ele>
        <time>2012-03-04T10:36:25Z</time>
      </trkpt>
      <trkpt lat="45.76064" lon="4.80626">
        <ele>251</ele>
        <time>2012-03-04T10:36:31Z</time>
      </trkpt>
      <trkpt lat="45.76063" lon="4.80634">
        <ele>251</ele>
        <time>2012-03-04T10:36:33Z</time>
      </trkpt>
      <trkpt lat="45.76062" lon="4.80642">
        <ele>251</ele>
        <time>2012-03-04T10:36:35Z</time>
      </trkpt>
      <trkpt lat="45.76059" lon="4.80661">
        <ele>251</ele>
        <time>2012-03-04T10:36:40Z</time>
      </trkpt>
      <trkpt lat="45.76057" lon="4.80668">
        <ele>251</ele>
        <time>2012-03-04T10:36:42Z</time>
      </trkpt>
      <trkpt lat="45.76053" lon="4.80687">
        <ele>251</ele>
        <time>2012-03-04T10:36:47Z</time>
      </trkpt>
      <trkpt lat="45.76052" lon="4.80695">
        <ele>252</ele>
        <time>2012-03-04T10:36:49Z</time>
      </trkpt>
      <trkpt lat="45.7605" lon="4.80714">
        <ele>252</ele>
        <time>2012-03-04T10:36:55Z</time>
      </trkpt>
      <trkpt lat="45.76049" lon="4.80727">
        <ele>252</ele>
        <time>2012-03-04T10:37:00Z</time>
      </trkpt>
      <trkpt lat="45.76048" lon="4.80736">
        <ele>252</ele>
        <time>2012-03-04T10:37:07Z</time>
      </trkpt>
      <trkpt lat="45.76053" lon="4.80739">
        <ele>252</ele>
        <time>2012-03-04T10:37:33Z</time>
      </trkpt>
      <trkpt lat="45.7605" lon="4.80738">
        <ele>252</ele>
        <time>2012-03-04T10:37:35Z</time>
      </trkpt>
      <trkpt lat="45.76048" lon="4.80736">
        <ele>252</ele>
        <time>2012-03-04T10:37:36Z</time>
      </trkpt>
      <trkpt lat="45.76039" lon="4.80736">
        <ele>252</ele>
        <time>2012-03-04T10:37:42Z</time>
      </trkpt>
      <trkpt lat="45.76035" lon="4.80736">
        <ele>252</ele>
        <time>2012-03-04T10:37:45Z</time>
      </trkpt>
      <trkpt lat="45.76032" lon="4.80736">
        <ele>252</ele>
        <time>2012-03-04T10:37:47Z</time>
      </trkpt>
      <trkpt lat="45.76028" lon="4.80737">
        <ele>253</ele>
        <time>2012-03-04T10:37:50Z</time>
      </trkpt>
      <trkpt lat="45.76026" lon="4.80738">
        <ele>253</ele>
        <time>2012-03-04T10:37:52Z</time>
      </trkpt>
      <trkpt lat="45.76021" lon="4.80741">
        <ele>253</ele>
        <time>2012-03-04T10:37:56Z</time>
      </trkpt>
      <trkpt lat="45.7602" lon="4.80742">
        <ele>253</ele>
        <time>2012-03-04T10:37:57Z</time>
      </trkpt>
      <trkpt lat="45.76019" lon="4.80742">
        <ele>253</ele>
        <time>2012-03-04T10:37:59Z</time>
      </trkpt>
      <trkpt lat="45.76017" lon="4.80743">
        <ele>253</ele>
        <time>2012-03-04T10:38:01Z</time>
      </trkpt>
      <trkpt lat="45.76015" lon="4.80744">
        <ele>253</ele>
        <time>2012-03-04T10:38:03Z</time>
      </trkpt>
      <trkpt lat="45.76007" lon="4.80749">
        <ele>254</ele>
        <time>2012-03-04T10:38:09Z</time>
      </trkpt>
      <trkpt lat="45.76005" lon="4.80749">
        <ele>254</ele>
        <time>2012-03-04T10:38:11Z</time>
      </trkpt>
      <trkpt lat="45.76002" lon="4.80751">
        <ele>254</ele>
        <time>2012-03-04T10:38:14Z</time>
      </trkpt>
      <trkpt lat="45.76001" lon="4.80753">
        <ele>254</ele>
        <time>2012-03-04T10:38:15Z</time>
      </trkpt>
      <trkpt lat="45.75999" lon="4.80755">
        <ele>254</ele>
        <time>2012-03-04T10:38:17Z</time>
      </trkpt>
      <trkpt lat="45.75994" lon="4.80758">
        <ele>254</ele>
        <time>2012-03-04T10:38:21Z</time>
      </trkpt>
      <trkpt lat="45.75993" lon="4.8076">
        <ele>254</ele>
        <time>2012-03-04T10:38:22Z</time>
      </trkpt>
      <trkpt lat="45.75982" lon="4.80764">
        <ele>255</ele>
        <time>2012-03-04T10:38:28Z</time>
      </trkpt>
      <trkpt lat="45.7598" lon="4.80765">
        <ele>255</ele>
        <time>2012-03-04T10:38:29Z</time>
      </trkpt>
      <trkpt lat="45.7597" lon="4.80765">
        <ele>255</ele>
        <time>2012-03-04T10:38:35Z</time>
      </trkpt>
      <trkpt lat="45.75965" lon="4.80765">
        <ele>255</ele>
        <time>2012-03-04T10:38:41Z</time>
      </trkpt>
      <trkpt lat="45.75965" lon="4.80763">
        <ele>255</ele>
        <time>2012-03-04T10:38:48Z</time>
      </trkpt>
      <trkpt lat="45.75961" lon="4.80761">
        <ele>255</ele>
        <time>2012-03-04T10:39:21Z</time>
      </trkpt>
      <trkpt lat="45.75962" lon="4.80763">
        <ele>255</ele>
        <time>2012-03-04T10:39:23Z</time>
      </trkpt>
      <trkpt lat="45.75962" lon="4.80766">
        <ele>255</ele>
        <time>2012-03-04T10:39:25Z</time>
      </trkpt>
      <trkpt lat="45.75962" lon="4.80768">
        <ele>255</ele>
        <time>2012-03-04T10:39:31Z</time>
      </trkpt>
      <trkpt lat="45.7596" lon="4.80767">
        <ele>255</ele>
        <time>2012-03-04T10:39:40Z</time>
      </trkpt>
      <trkpt lat="45.75964" lon="4.80761">
        <ele>255</ele>
        <time>2012-03-04T10:40:16Z</time>
      </trkpt>
      <trkpt lat="45.75966" lon="4.80755">
        <ele>255</ele>
        <time>2012-03-04T10:40:18Z</time>
      </trkpt>
      <trkpt lat="45.75968" lon="4.80748">
        <ele>256</ele>
        <time>2012-03-04T10:40:20Z</time>
      </trkpt>
      <trkpt lat="45.75972" lon="4.80737">
        <ele>256</ele>
        <time>2012-03-04T10:40:23Z</time>
      </trkpt>
      <trkpt lat="45.75975" lon="4.80729">
        <ele>256</ele>
        <time>2012-03-04T10:40:25Z</time>
      </trkpt>
      <trkpt lat="45.75983" lon="4.80709">
        <ele>256</ele>
        <time>2012-03-04T10:40:30Z</time>
      </trkpt>
      <trkpt lat="45.75985" lon="4.80706">
        <ele>256</ele>
        <time>2012-03-04T10:40:31Z</time>
      </trkpt>
      <trkpt lat="45.75993" lon="4.80689">
        <ele>255</ele>
        <time>2012-03-04T10:40:36Z</time>
      </trkpt>
      <trkpt lat="45.75995" lon="4.80685">
        <ele>255</ele>
        <time>2012-03-04T10:40:37Z</time>
      </trkpt>
      <trkpt lat="45.75997" lon="4.80677">
        <ele>255</ele>
        <time>2012-03-04T10:40:39Z</time>
      </trkpt>
      <trkpt lat="45.76003" lon="4.80659">
        <ele>253</ele>
        <time>2012-03-04T10:40:44Z</time>
      </trkpt>
      <trkpt lat="45.76009" lon="4.80641">
        <ele>252</ele>
        <time>2012-03-04T10:40:49Z</time>
      </trkpt>
      <trkpt lat="45.76011" lon="4.80633">
        <ele>252</ele>
        <time>2012-03-04T10:40:51Z</time>
      </trkpt>
      <trkpt lat="45.76014" lon="4.80622">
        <ele>252</ele>
        <time>2012-03-04T10:40:54Z</time>
      </trkpt>
      <trkpt lat="45.76016" lon="4.80607">
        <ele>252</ele>
        <time>2012-03-04T10:40:58Z</time>
      </trkpt>
      <trkpt lat="45.76016" lon="4.80599">
        <ele>252</ele>
        <time>2012-03-04T10:41:00Z</time>
      </trkpt>
      <trkpt lat="45.76018" lon="4.8058">
        <ele>252</ele>
        <time>2012-03-04T10:41:05Z</time>
      </trkpt>
      <trkpt lat="45.76019" lon="4.80573">
        <ele>252</ele>
        <time>2012-03-04T10:41:07Z</time>
      </trkpt>
      <trkpt lat="45.7602" lon="4.80554">
        <ele>252</ele>
        <time>2012-03-04T10:41:12Z</time>
      </trkpt>
      <trkpt lat="45.7602" lon="4.8055">
        <ele>252</ele>
        <time>2012-03-04T10:41:13Z</time>
      </trkpt>
      <trkpt lat="45.76026" lon="4.80528">
        <ele>252</ele>
        <time>2012-03-04T10:41:19Z</time>
      </trkpt>
      <trkpt lat="45.76036" lon="4.80506">
        <ele>252</ele>
        <time>2012-03-04T10:41:26Z</time>
      </trkpt>
      <trkpt lat="45.76044" lon="4.80491">
        <ele>252</ele>
        <time>2012-03-04T10:41:31Z</time>
      </trkpt>
      <trkpt lat="45.76048" lon="4.80485">
        <ele>252</ele>
        <time>2012-03-04T10:41:33Z</time>
      </trkpt>
      <trkpt lat="45.76053" lon="4.80476">
        <ele>252</ele>
        <time>2012-03-04T10:41:36Z</time>
      </trkpt>
      <trkpt lat="45.76061" lon="4.80466">
        <ele>251</ele>
        <time>2012-03-04T10:41:40Z</time>
      </trkpt>
      <trkpt lat="45.76062" lon="4.80465">
        <ele>251</ele>
        <time>2012-03-04T10:41:41Z</time>
      </trkpt>
      <trkpt lat="45.76062" lon="4.80459">
        <ele>251</ele>
        <time>2012-03-04T10:41:45Z</time>
      </trkpt>
      <trkpt lat="45.76062" lon="4.80454">
        <ele>251</ele>
        <time>2012-03-04T10:41:47Z</time>
      </trkpt>
      <trkpt lat="45.76061" lon="4.80451">
        <ele>251</ele>
        <time>2012-03-04T10:41:49Z</time>
      </trkpt>
      <trkpt lat="45.76058" lon="4.80443">
        <ele>251</ele>
        <time>2012-03-04T10:41:55Z</time>
      </trkpt>
      <trkpt lat="45.76058" lon="4.80438">
        <ele>251</ele>
        <time>2012-03-04T10:41:59Z</time>
      </trkpt>
      <trkpt lat="45.76059" lon="4.80437">
        <ele>251</ele>
        <time>2012-03-04T10:42:00Z</time>
      </trkpt>
      <trkpt lat="45.7606" lon="4.80431">
        <ele>251</ele>
        <time>2012-03-04T10:42:09Z</time>
      </trkpt>
      <trkpt lat="45.7606" lon="4.8043">
        <ele>251</ele>
        <time>2012-03-04T10:42:31Z</time>
      </trkpt>
      <trkpt lat="45.76062" lon="4.80438">
        <ele>251</ele>
        <time>2012-03-04T10:42:35Z</time>
      </trkpt>
      <trkpt lat="45.76065" lon="4.80439">
        <ele>251</ele>
        <time>2012-03-04T10:42:39Z</time>
      </trkpt>
      <trkpt lat="45.76065" lon="4.80438">
        <ele>251</ele>
        <time>2012-03-04T10:42:40Z</time>
      </trkpt>
      <trkpt lat="45.76062" lon="4.80441">
        <ele>251</ele>
        <time>2012-03-04T10:42:49Z</time>
      </trkpt>
      <trkpt lat="45.76061" lon="4.80431">
        <ele>251</ele>
        <time>2012-03-04T10:42:53Z</time>
      </trkpt>
      <trkpt lat="45.76059" lon="4.80422">
        <ele>251</ele>
        <time>2012-03-04T10:42:56Z</time>
      </trkpt>
      <trkpt lat="45.76059" lon="4.80416">
        <ele>252</ele>
        <time>2012-03-04T10:42:58Z</time>
      </trkpt>
      <trkpt lat="45.76057" lon="4.80398">
        <ele>252</ele>
        <time>2012-03-04T10:43:03Z</time>
      </trkpt>
      <trkpt lat="45.76057" lon="4.80394">
        <ele>252</ele>
        <time>2012-03-04T10:43:04Z</time>
      </trkpt>
      <trkpt lat="45.76057" lon="4.80379">
        <ele>253</ele>
        <time>2012-03-04T10:43:08Z</time>
      </trkpt>
      <trkpt lat="45.76055" lon="4.80368">
        <ele>253</ele>
        <time>2012-03-04T10:43:11Z</time>
      </trkpt>
      <trkpt lat="45.76052" lon="4.80361">
        <ele>253</ele>
        <time>2012-03-04T10:43:13Z</time>
      </trkpt>
      <trkpt lat="45.76044" lon="4.80343">
        <ele>254</ele>
        <time>2012-03-04T10:43:18Z</time>
      </trkpt>
      <trkpt lat="45.76034" lon="4.80324">
        <ele>256</ele>
        <time>2012-03-04T10:43:24Z</time>
      </trkpt>
      <trkpt lat="45.76032" lon="4.80322">
        <ele>256</ele>
        <time>2012-03-04T10:43:25Z</time>
      </trkpt>
      <trkpt lat="45.76023" lon="4.80309">
        <ele>256</ele>
        <time>2012-03-04T10:43:30Z</time>
      </trkpt>
      <trkpt lat="45.76018" lon="4.80301">
        <ele>257</ele>
        <time>2012-03-04T10:43:33Z</time>
      </trkpt>
      <trkpt lat="45.76013" lon="4.80292">
        <ele>257</ele>
        <time>2012-03-04T10:43:36Z</time>
      </trkpt>
      <trkpt lat="45.76006" lon="4.8028">
        <ele>257</ele>
        <time>2012-03-04T10:43:40Z</time>
      </trkpt>
      <trkpt lat="45.76005" lon="4.80278">
        <ele>257</ele>
        <time>2012-03-04T10:43:41Z</time>
      </trkpt>
      <trkpt lat="45.76007" lon="4.8028">
        <ele>257</ele>
        <time>2012-03-04T10:43:43Z</time>
      </trkpt>
      <trkpt lat="45.7601" lon="4.80284">
        <ele>257</ele>
        <time>2012-03-04T10:43:45Z</time>
      </trkpt>
      <trkpt lat="45.76018" lon="4.80297">
        <ele>257</ele>
        <time>2012-03-04T10:43:50Z</time>
      </trkpt>
      <trkpt lat="45.76019" lon="4.803">
        <ele>257</ele>
        <time>2012-03-04T10:43:51Z</time>
      </trkpt>
      <trkpt lat="45.76027" lon="4.80311">
        <ele>256</ele>
        <time>2012-03-04T10:43:56Z</time>
      </trkpt>
      <trkpt lat="45.76032" lon="4.80318">
        <ele>256</ele>
        <time>2012-03-04T10:43:59Z</time>
      </trkpt>
      <trkpt lat="45.76037" lon="4.80323">
        <ele>256</ele>
        <time>2012-03-04T10:44:02Z</time>
      </trkpt>
      <trkpt lat="45.76044" lon="4.80337">
        <ele>254</ele>
        <time>2012-03-04T10:44:08Z</time>
      </trkpt>
      <trkpt lat="45.76046" lon="4.80339">
        <ele>254</ele>
        <time>2012-03-04T10:44:09Z</time>
      </trkpt>
      <trkpt lat="45.76048" lon="4.80341">
        <ele>253</ele>
        <time>2012-03-04T10:44:10Z</time>
      </trkpt>
      <trkpt lat="45.76052" lon="4.80349">
        <ele>253</ele>
        <time>2012-03-04T10:44:13Z</time>
      </trkpt>
      <trkpt lat="45.76055" lon="4.80355">
        <ele>253</ele>
        <time>2012-03-04T10:44:15Z</time>
      </trkpt>
      <trkpt lat="45.76056" lon="4.80359">
        <ele>253</ele>
        <time>2012-03-04T10:44:16Z</time>
      </trkpt>
      <trkpt lat="45.76057" lon="4.80364">
        <ele>253</ele>
        <time>2012-03-04T10:44:17Z</time>
      </trkpt>
      <trkpt lat="45.76061" lon="4.80383">
        <ele>252</ele>
        <time>2012-03-04T10:44:22Z</time>
      </trkpt>
      <trkpt lat="45.76062" lon="4.80388">
        <ele>252</ele>
        <time>2012-03-04T10:44:23Z</time>
      </trkpt>
      <trkpt lat="45.76062" lon="4.80402">
        <ele>252</ele>
        <time>2012-03-04T10:44:27Z</time>
      </trkpt>
      <trkpt lat="45.76061" lon="4.80405">
        <ele>252</ele>
        <time>2012-03-04T10:44:28Z</time>
      </trkpt>
      <trkpt lat="45.76062" lon="4.80414">
        <ele>251</ele>
        <time>2012-03-04T10:44:30Z</time>
      </trkpt>
      <trkpt lat="45.76062" lon="4.80422">
        <ele>251</ele>
        <time>2012-03-04T10:44:32Z</time>
      </trkpt>
      <trkpt lat="45.76064" lon="4.80429">
        <ele>251</ele>
        <time>2012-03-04T10:44:34Z</time>
      </trkpt>
      <trkpt lat="45.76065" lon="4.8044">
        <ele>251</ele>
        <time>2012-03-04T10:44:37Z</time>
      </trkpt>
      <trkpt lat="45.76066" lon="4.80441">
        <ele>251</ele>
        <time>2012-03-04T10:44:38Z</time>
      </trkpt>
      <trkpt lat="45.76067" lon="4.80441">
        <ele>251</ele>
        <time>2012-03-04T10:44:39Z</time>
      </trkpt>
      <trkpt lat="45.76073" lon="4.80437">
        <ele>250</ele>
        <time>2012-03-04T10:44:43Z</time>
      </trkpt>
      <trkpt lat="45.76077" lon="4.80435">
        <ele>250</ele>
        <time>2012-03-04T10:44:45Z</time>
      </trkpt>
      <trkpt lat="45.76082" lon="4.8043">
        <ele>249</ele>
        <time>2012-03-04T10:44:48Z</time>
      </trkpt>
      <trkpt lat="45.76086" lon="4.80424">
        <ele>246</ele>
        <time>2012-03-04T10:44:51Z</time>
      </trkpt>
      <trkpt lat="45.76087" lon="4.80418">
        <ele>247</ele>
        <time>2012-03-04T10:44:53Z</time>
      </trkpt>
      <trkpt lat="45.76087" lon="4.80413">
        <ele>247</ele>
        <time>2012-03-04T10:44:55Z</time>
      </trkpt>
      <trkpt lat="45.76085" lon="4.80406">
        <ele>246</ele>
        <time>2012-03-04T10:44:58Z</time>
      </trkpt>
      <trkpt lat="45.76082" lon="4.80401">
        <ele>250</ele>
        <time>2012-03-04T10:45:01Z</time>
      </trkpt>
      <trkpt lat="45.76078" lon="4.80388">
        <ele>251</ele>
        <time>2012-03-04T10:45:06Z</time>
      </trkpt>
      <trkpt lat="45.76076" lon="4.80384">
        <ele>252</ele>
        <time>2012-03-04T10:45:08Z</time>
      </trkpt>
      <trkpt lat="45.76076" lon="4.80374">
        <ele>252</ele>
        <time>2012-03-04T10:45:12Z</time>
      </trkpt>
      <trkpt lat="45.76074" lon="4.80367">
        <ele>252</ele>
        <time>2012-03-04T10:45:18Z</time>
      </trkpt>
      <trkpt lat="45.76077" lon="4.80365">
        <ele>252</ele>
        <time>2012-03-04T10:45:35Z</time>
      </trkpt>
      <trkpt lat="45.76078" lon="4.80363">
        <ele>252</ele>
        <time>2012-03-04T10:45:36Z</time>
      </trkpt>
      <trkpt lat="45.76078" lon="4.80361">
        <ele>252</ele>
        <time>2012-03-04T10:45:37Z</time>
      </trkpt>
      <trkpt lat="45.76081" lon="4.80353">
        <ele>252</ele>
        <time>2012-03-04T10:45:42Z</time>
      </trkpt>
      <trkpt lat="45.76083" lon="4.80339">
        <ele>249</ele>
        <time>2012-03-04T10:45:51Z</time>
      </trkpt>
      <trkpt lat="45.76085" lon="4.80336">
        <ele>249</ele>
        <time>2012-03-04T10:45:52Z</time>
      </trkpt>
      <trkpt lat="45.76089" lon="4.80318">
        <ele>251</ele>
        <time>2012-03-04T10:45:57Z</time>
      </trkpt>
      <trkpt lat="45.76092" lon="4.80312">
        <ele>251</ele>
        <time>2012-03-04T10:45:59Z</time>
      </trkpt>
      <trkpt lat="45.76093" lon="4.80304">
        <ele>252</ele>
        <time>2012-03-04T10:46:01Z</time>
      </trkpt>
      <trkpt lat="45.76101" lon="4.80288">
        <ele>253</ele>
        <time>2012-03-04T10:46:06Z</time>
      </trkpt>
      <trkpt lat="45.76108" lon="4.80266">
        <ele>254</ele>
        <time>2012-03-04T10:46:13Z</time>
      </trkpt>
      <trkpt lat="45.76109" lon="4.80262">
        <ele>254</ele>
        <time>2012-03-04T10:46:14Z</time>
      </trkpt>
      <trkpt lat="45.76111" lon="4.8025">
        <ele>261</ele>
        <time>2012-03-04T10:46:18Z</time>
      </trkpt>
      <trkpt lat="45.76113" lon="4.80246">
        <ele>261</ele>
        <time>2012-03-04T10:46:20Z</time>
      </trkpt>
      <trkpt lat="45.76112" lon="4.80241">
        <ele>262</ele>
        <time>2012-03-04T10:46:24Z</time>
      </trkpt>
      <trkpt lat="45.76115" lon="4.80242">
        <ele>262</ele>
        <time>2012-03-04T10:46:29Z</time>
      </trkpt>
      <trkpt lat="45.76118" lon="4.80241">
        <ele>262</ele>
        <time>2012-03-04T10:46:30Z</time>
      </trkpt>
      <trkpt lat="45.76126" lon="4.80231">
        <ele>262</ele>
        <time>2012-03-04T10:46:34Z</time>
      </trkpt>
      <trkpt lat="45.76133" lon="4.80221">
        <ele>262</ele>
        <time>2012-03-04T10:46:38Z</time>
      </trkpt>
      <trkpt lat="45.76135" lon="4.80218">
        <ele>263</ele>
        <time>2012-03-04T10:46:39Z</time>
      </trkpt>
      <trkpt lat="45.76147" lon="4.80203">
        <ele>264</ele>
        <time>2012-03-04T10:46:44Z</time>
      </trkpt>
      <trkpt lat="45.76151" lon="4.80197">
        <ele>264</ele>
        <time>2012-03-04T10:46:46Z</time>
      </trkpt>
      <trkpt lat="45.76162" lon="4.80183">
        <ele>266</ele>
        <time>2012-03-04T10:46:51Z</time>
      </trkpt>
      <trkpt lat="45.76175" lon="4.80165">
        <ele>267</ele>
        <time>2012-03-04T10:46:57Z</time>
      </trkpt>
      <trkpt lat="45.76185" lon="4.80151">
        <ele>265</ele>
        <time>2012-03-04T10:47:02Z</time>
      </trkpt>
      <trkpt lat="45.76189" lon="4.80146">
        <ele>265</ele>
        <time>2012-03-04T10:47:04Z</time>
      </trkpt>
      <trkpt lat="45.76199" lon="4.80138">
        <ele>265</ele>
        <time>2012-03-04T10:47:08Z</time>
      </trkpt>
      <trkpt lat="45.76201" lon="4.80135">
        <ele>264</ele>
        <time>2012-03-04T10:47:09Z</time>
      </trkpt>
      <trkpt lat="45.76204" lon="4.8013">
        <ele>264</ele>
        <time>2012-03-04T10:47:11Z</time>
      </trkpt>
      <trkpt lat="45.76206" lon="4.80127">
        <ele>264</ele>
        <time>2012-03-04T10:47:12Z</time>
      </trkpt>
      <trkpt lat="45.76212" lon="4.80105">
        <ele>265</ele>
        <time>2012-03-04T10:47:18Z</time>
      </trkpt>
      <trkpt lat="45.76214" lon="4.80101">
        <ele>265</ele>
        <time>2012-03-04T10:47:19Z</time>
      </trkpt>
      <trkpt lat="45.76223" lon="4.8008">
        <ele>267</ele>
        <time>2012-03-04T10:47:25Z</time>
      </trkpt>
      <trkpt lat="45.76228" lon="4.80072">
        <ele>266</ele>
        <time>2012-03-04T10:47:29Z</time>
      </trkpt>
      <trkpt lat="45.76236" lon="4.8006">
        <ele>266</ele>
        <time>2012-03-04T10:47:33Z</time>
      </trkpt>
      <trkpt lat="45.76237" lon="4.80058">
        <ele>266</ele>
        <time>2012-03-04T10:47:34Z</time>
      </trkpt>
      <trkpt lat="45.7624" lon="4.8005">
        <ele>267</ele>
        <time>2012-03-04T10:47:37Z</time>
      </trkpt>
      <trkpt lat="45.76241" lon="4.80041">
        <ele>267</ele>
        <time>2012-03-04T10:47:40Z</time>
      </trkpt>
      <trkpt lat="45.76242" lon="4.80035">
        <ele>267</ele>
        <time>2012-03-04T10:47:42Z</time>
      </trkpt>
      <trkpt lat="45.76242" lon="4.80023">
        <ele>267</ele>
        <time>2012-03-04T10:47:45Z</time>
      </trkpt>
      <trkpt lat="45.76243" lon="4.80013">
        <ele>267</ele>
        <time>2012-03-04T10:47:48Z</time>
      </trkpt>
      <trkpt lat="45.76243" lon="4.80009">
        <ele>267</ele>
        <time>2012-03-04T10:47:49Z</time>
      </trkpt>
      <trkpt lat="45.76243" lon="4.80001">
        <ele>267</ele>
        <time>2012-03-04T10:47:51Z</time>
      </trkpt>
      <trkpt lat="45.76247" lon="4.79983">
        <ele>268</ele>
        <time>2012-03-04T10:47:56Z</time>
      </trkpt>
      <trkpt lat="45.76251" lon="4.79964">
        <ele>262</ele>
        <time>2012-03-04T10:48:01Z</time>
      </trkpt>
      <trkpt lat="45.76252" lon="4.79956">
        <ele>262</ele>
        <time>2012-03-04T10:48:03Z</time>
      </trkpt>
      <trkpt lat="45.76253" lon="4.79941">
        <ele>262</ele>
        <time>2012-03-04T10:48:08Z</time>
      </trkpt>
      <trkpt lat="45.76253" lon="4.7993">
        <ele>263</ele>
        <time>2012-03-04T10:48:12Z</time>
      </trkpt>
      <trkpt lat="45.76253" lon="4.79928">
        <ele>264</ele>
        <time>2012-03-04T10:48:13Z</time>
      </trkpt>
      <trkpt lat="45.76249" lon="4.7991">
        <ele>267</ele>
        <time>2012-03-04T10:48:17Z</time>
      </trkpt>
      <trkpt lat="45.76249" lon="4.79906">
        <ele>267</ele>
        <time>2012-03-04T10:48:18Z</time>
      </trkpt>
      <trkpt lat="45.7625" lon="4.79884">
        <ele>267</ele>
        <time>2012-03-04T10:48:22Z</time>
      </trkpt>
      <trkpt lat="45.76249" lon="4.7988">
        <ele>267</ele>
        <time>2012-03-04T10:48:23Z</time>
      </trkpt>
      <trkpt lat="45.76246" lon="4.79853">
        <ele>266</ele>
        <time>2012-03-04T10:48:28Z</time>
      </trkpt>
      <trkpt lat="45.76242" lon="4.79837">
        <ele>264</ele>
        <time>2012-03-04T10:48:32Z</time>
      </trkpt>
      <trkpt lat="45.76243" lon="4.79824">
        <ele>263</ele>
        <time>2012-03-04T10:48:34Z</time>
      </trkpt>
      <trkpt lat="45.76243" lon="4.79813">
        <ele>263</ele>
        <time>2012-03-04T10:48:37Z</time>
      </trkpt>
      <trkpt lat="45.76243" lon="4.7981">
        <ele>263</ele>
        <time>2012-03-04T10:48:38Z</time>
      </trkpt>
      <trkpt lat="45.76242" lon="4.79798">
        <ele>262</ele>
        <time>2012-03-04T10:48:41Z</time>
      </trkpt>
      <trkpt lat="45.7624" lon="4.79782">
        <ele>261</ele>
        <time>2012-03-04T10:48:45Z</time>
      </trkpt>
      <trkpt lat="45.76238" lon="4.79773">
        <ele>261</ele>
        <time>2012-03-04T10:48:47Z</time>
      </trkpt>
      <trkpt lat="45.76237" lon="4.7976">
        <ele>259</ele>
        <time>2012-03-04T10:48:50Z</time>
      </trkpt>
      <trkpt lat="45.76233" lon="4.79744">
        <ele>257</ele>
        <time>2012-03-04T10:48:54Z</time>
      </trkpt>
      <trkpt lat="45.76228" lon="4.79725">
        <ele>258</ele>
        <time>2012-03-04T10:48:59Z</time>
      </trkpt>
      <trkpt lat="45.76225" lon="4.79717">
        <ele>258</ele>
        <time>2012-03-04T10:49:01Z</time>
      </trkpt>
      <trkpt lat="45.76223" lon="4.79706">
        <ele>258</ele>
        <time>2012-03-04T10:49:04Z</time>
      </trkpt>
      <trkpt lat="45.76219" lon="4.7969">
        <ele>258</ele>
        <time>2012-03-04T10:49:08Z</time>
      </trkpt>
      <trkpt lat="45.76217" lon="4.79686">
        <ele>258</ele>
        <time>2012-03-04T10:49:09Z</time>
      </trkpt>
      <trkpt lat="45.7621" lon="4.79664">
        <ele>257</ele>
        <time>2012-03-04T10:49:15Z</time>
      </trkpt>
      <trkpt lat="45.76207" lon="4.79648">
        <ele>257</ele>
        <time>2012-03-04T10:49:19Z</time>
      </trkpt>
      <trkpt lat="45.76206" lon="4.79637">
        <ele>257</ele>
        <time>2012-03-04T10:49:22Z</time>
      </trkpt>
      <trkpt lat="45.76203" lon="4.79626">
        <ele>257</ele>
        <time>2012-03-04T10:49:25Z</time>
      </trkpt>
      <trkpt lat="45.76199" lon="4.79611">
        <ele>257</ele>
        <time>2012-03-04T10:49:29Z</time>
      </trkpt>
      <trkpt lat="45.76199" lon="4.79607">
        <ele>257</ele>
        <time>2012-03-04T10:49:30Z</time>
      </trkpt>
      <trkpt lat="45.76195" lon="4.79586">
        <ele>258</ele>
        <time>2012-03-04T10:49:36Z</time>
      </trkpt>
      <trkpt lat="45.76195" lon="4.79583">
        <ele>258</ele>
        <time>2012-03-04T10:49:37Z</time>
      </trkpt>
      <trkpt lat="45.76196" lon="4.79569">
        <ele>258</ele>
        <time>2012-03-04T10:49:41Z</time>
      </trkpt>
      <trkpt lat="45.76196" lon="4.79562">
        <ele>258</ele>
        <time>2012-03-04T10:49:44Z</time>
      </trkpt>
      <trkpt lat="45.76195" lon="4.79556">
        <ele>258</ele>
        <time>2012-03-04T10:49:48Z</time>
      </trkpt>
      <trkpt lat="45.76195" lon="4.79554">
        <ele>258</ele>
        <time>2012-03-04T10:49:49Z</time>
      </trkpt>
      <trkpt lat="45.76193" lon="4.79543">
        <ele>258</ele>
        <time>2012-03-04T10:49:59Z</time>
      </trkpt>
      <trkpt lat="45.7619" lon="4.79537">
        <ele>259</ele>
        <time>2012-03-04T10:50:20Z</time>
      </trkpt>
      <trkpt lat="45.7619" lon="4.79534">
        <ele>259</ele>
        <time>2012-03-04T10:50:22Z</time>
      </trkpt>
      <trkpt lat="45.76191" lon="4.79531">
        <ele>259</ele>
        <time>2012-03-04T10:50:24Z</time>
      </trkpt>
      <trkpt lat="45.76191" lon="4.79527">
        <ele>259</ele>
        <time>2012-03-04T10:50:26Z</time>
      </trkpt>
      <trkpt lat="45.7619" lon="4.79525">
        <ele>259</ele>
        <time>2012-03-04T10:50:27Z</time>
      </trkpt>
      <trkpt lat="45.76185" lon="4.79511">
        <ele>260</ele>
        <time>2012-03-04T10:50:31Z</time>
      </trkpt>
      <trkpt lat="45.76184" lon="4.79506">
        <ele>260</ele>
        <time>2012-03-04T10:50:32Z</time>
      </trkpt>
      <trkpt lat="45.76181" lon="4.79488">
        <ele>261</ele>
        <time>2012-03-04T10:50:36Z</time>
      </trkpt>
      <trkpt lat="45.76179" lon="4.79481">
        <ele>261</ele>
        <time>2012-03-04T10:50:38Z</time>
      </trkpt>
      <trkpt lat="45.76178" lon="4.79472">
        <ele>260</ele>
        <time>2012-03-04T10:50:40Z</time>
      </trkpt>
      <trkpt lat="45.76173" lon="4.79455">
        <ele>260</ele>
        <time>2012-03-04T10:50:45Z</time>
      </trkpt>
      <trkpt lat="45.76173" lon="4.79451">
        <ele>260</ele>
        <time>2012-03-04T10:50:46Z</time>
      </trkpt>
      <trkpt lat="45.76168" lon="4.79435">
        <ele>261</ele>
        <time>2012-03-04T10:50:51Z</time>
      </trkpt>
      <trkpt lat="45.76167" lon="4.79431">
        <ele>265</ele>
        <time>2012-03-04T10:50:52Z</time>
      </trkpt>
      <trkpt lat="45.76163" lon="4.79414">
        <ele>264</ele>
        <time>2012-03-04T10:50:57Z</time>
      </trkpt>
      <trkpt lat="45.76159" lon="4.79405">
        <ele>265</ele>
        <time>2012-03-04T10:51:00Z</time>
      </trkpt>
      <trkpt lat="45.76159" lon="4.79396">
        <ele>265</ele>
        <time>2012-03-04T10:51:02Z</time>
      </trkpt>
      <trkpt lat="45.76157" lon="4.79379">
        <ele>266</ele>
        <time>2012-03-04T10:51:07Z</time>
      </trkpt>
      <trkpt lat="45.76157" lon="4.79375">
        <ele>266</ele>
        <time>2012-03-04T10:51:08Z</time>
      </trkpt>
      <trkpt lat="45.76157" lon="4.79371">
        <ele>266</ele>
        <time>2012-03-04T10:51:09Z</time>
      </trkpt>
      <trkpt lat="45.76157" lon="4.79363">
        <ele>266</ele>
        <time>2012-03-04T10:51:11Z</time>
      </trkpt>
      <trkpt lat="45.76156" lon="4.79348">
        <ele>265</ele>
        <time>2012-03-04T10:51:15Z</time>
      </trkpt>
      <trkpt lat="45.76156" lon="4.79344">
        <ele>265</ele>
        <time>2012-03-04T10:51:16Z</time>
      </trkpt>
      <trkpt lat="45.76156" lon="4.79339">
        <ele>265</ele>
        <time>2012-03-04T10:51:17Z</time>
      </trkpt>
      <trkpt lat="45.76158" lon="4.7932">
        <ele>265</ele>
        <time>2012-03-04T10:51:21Z</time>
      </trkpt>
      <trkpt lat="45.76158" lon="4.79314">
        <ele>266</ele>
        <time>2012-03-04T10:51:22Z</time>
      </trkpt>
      <trkpt lat="45.76158" lon="4.7931">
        <ele>266</ele>
        <time>2012-03-04T10:51:23Z</time>
      </trkpt>
      <trkpt lat="45.76156" lon="4.79299">
        <ele>266</ele>
        <time>2012-03-04T10:51:26Z</time>
      </trkpt>
      <trkpt lat="45.76156" lon="4.79293">
        <ele>266</ele>
        <time>2012-03-04T10:51:28Z</time>
      </trkpt>
      <trkpt lat="45.76154" lon="4.79277">
        <ele>266</ele>
        <time>2012-03-04T10:51:33Z</time>
      </trkpt>
      <trkpt lat="45.76153" lon="4.79266">
        <ele>266</ele>
        <time>2012-03-04T10:51:36Z</time>
      </trkpt>
      <trkpt lat="45.76152" lon="4.79258">
        <ele>265</ele>
        <time>2012-03-04T10:51:39Z</time>
      </trkpt>
      <trkpt lat="45.7615" lon="4.79238">
        <ele>266</ele>
        <time>2012-03-04T10:51:45Z</time>
      </trkpt>
      <trkpt lat="45.76152" lon="4.79211">
        <ele>267</ele>
        <time>2012-03-04T10:51:52Z</time>
      </trkpt>
      <trkpt lat="45.76149" lon="4.79192">
        <ele>266</ele>
        <time>2012-03-04T10:51:58Z</time>
      </trkpt>
      <trkpt lat="45.7615" lon="4.79185">
        <ele>266</ele>
        <time>2012-03-04T10:52:00Z</time>
      </trkpt>
      <trkpt lat="45.7615" lon="4.79176">
        <ele>266</ele>
        <time>2012-03-04T10:52:03Z</time>
      </trkpt>
      <trkpt lat="45.76146" lon="4.79162">
        <ele>266</ele>
        <time>2012-03-04T10:52:08Z</time>
      </trkpt>
      <trkpt lat="45.76146" lon="4.79159">
        <ele>266</ele>
        <time>2012-03-04T10:52:09Z</time>
      </trkpt>
      <trkpt lat="45.76142" lon="4.79147">
        <ele>266</ele>
        <time>2012-03-04T10:52:13Z</time>
      </trkpt>
      <trkpt lat="45.76142" lon="4.79139">
        <ele>266</ele>
        <time>2012-03-04T10:52:17Z</time>
      </trkpt>
      <trkpt lat="45.76144" lon="4.79135">
        <ele>266</ele>
        <time>2012-03-04T10:52:19Z</time>
      </trkpt>
      <trkpt lat="45.76143" lon="4.79131">
        <ele>266</ele>
        <time>2012-03-04T10:52:22Z</time>
      </trkpt>
      <trkpt lat="45.76142" lon="4.7913">
        <ele>266</ele>
        <time>2012-03-04T10:52:23Z</time>
      </trkpt>
      <trkpt lat="45.7614" lon="4.7912">
        <ele>266</ele>
        <time>2012-03-04T10:52:29Z</time>
      </trkpt>
      <trkpt lat="45.7614" lon="4.79119">
        <ele>266</ele>
        <time>2012-03-04T10:52:30Z</time>
      </trkpt>
      <trkpt lat="45.76141" lon="4.79117">
        <ele>266</ele>
        <time>2012-03-04T10:52:35Z</time>
      </trkpt>
      <trkpt lat="45.76139" lon="4.79117">
        <ele>267</ele>
        <time>2012-03-04T10:52:37Z</time>
      </trkpt>
      <trkpt lat="45.76141" lon="4.79116">
        <ele>266</ele>
        <time>2012-03-04T10:52:40Z</time>
      </trkpt>
      <trkpt lat="45.76143" lon="4.79115">
        <ele>266</ele>
        <time>2012-03-04T10:52:41Z</time>
      </trkpt>
      <trkpt lat="45.76146" lon="4.79113">
        <ele>266</ele>
        <time>2012-03-04T10:52:43Z</time>
      </trkpt>
      <trkpt lat="45.76154" lon="4.79112">
        <ele>265</ele>
        <time>2012-03-04T10:52:46Z</time>
      </trkpt>
      <trkpt lat="45.76156" lon="4.79111">
        <ele>265</ele>
        <time>2012-03-04T10:52:47Z</time>
      </trkpt>
      <trkpt lat="45.76165" lon="4.79109">
        <ele>265</ele>
        <time>2012-03-04T10:52:50Z</time>
      </trkpt>
      <trkpt lat="45.76168" lon="4.79108">
        <ele>257</ele>
        <time>2012-03-04T10:52:51Z</time>
      </trkpt>
      <trkpt lat="45.76179" lon="4.79107">
        <ele>257</ele>
        <time>2012-03-04T10:52:56Z</time>
      </trkpt>
      <trkpt lat="45.7618" lon="4.7911">
        <ele>257</ele>
        <time>2012-03-04T10:53:00Z</time>
      </trkpt>
      <trkpt lat="45.76181" lon="4.7911">
        <ele>257</ele>
        <time>2012-03-04T10:53:01Z</time>
      </trkpt>
      <trkpt lat="45.76182" lon="4.79109">
        <ele>257</ele>
        <time>2012-03-04T10:53:02Z</time>
      </trkpt>
      <trkpt lat="45.76188" lon="4.79108">
        <ele>256</ele>
        <time>2012-03-04T10:53:05Z</time>
      </trkpt>
      <trkpt lat="45.76198" lon="4.79107">
        <ele>255</ele>
        <time>2012-03-04T10:53:09Z</time>
      </trkpt>
      <trkpt lat="45.76202" lon="4.79107">
        <ele>255</ele>
        <time>2012-03-04T10:53:10Z</time>
      </trkpt>
      <trkpt lat="45.76215" lon="4.79103">
        <ele>253</ele>
        <time>2012-03-04T10:53:15Z</time>
      </trkpt>
      <trkpt lat="45.76218" lon="4.79103">
        <ele>253</ele>
        <time>2012-03-04T10:53:16Z</time>
      </trkpt>
      <trkpt lat="45.76226" lon="4.79101">
        <ele>252</ele>
        <time>2012-03-04T10:53:19Z</time>
      </trkpt>
      <trkpt lat="45.76237" lon="4.79101">
        <ele>251</ele>
        <time>2012-03-04T10:53:23Z</time>
      </trkpt>
      <trkpt lat="45.76239" lon="4.791">
        <ele>251</ele>
        <time>2012-03-04T10:53:24Z</time>
      </trkpt>
      <trkpt lat="45.76256" lon="4.79098">
        <ele>244</ele>
        <time>2012-03-04T10:53:31Z</time>
      </trkpt>
      <trkpt lat="45.7627" lon="4.79097">
        <ele>243</ele>
        <time>2012-03-04T10:53:36Z</time>
      </trkpt>
      <trkpt lat="45.76276" lon="4.79097">
        <ele>243</ele>
        <time>2012-03-04T10:53:38Z</time>
      </trkpt>
      <trkpt lat="45.7629" lon="4.79095">
        <ele>241</ele>
        <time>2012-03-04T10:53:43Z</time>
      </trkpt>
      <trkpt lat="45.76296" lon="4.79094">
        <ele>241</ele>
        <time>2012-03-04T10:53:45Z</time>
      </trkpt>
      <trkpt lat="45.763" lon="4.79091">
        <ele>241</ele>
        <time>2012-03-04T10:53:47Z</time>
      </trkpt>
      <trkpt lat="45.76311" lon="4.79092">
        <ele>240</ele>
        <time>2012-03-04T10:53:51Z</time>
      </trkpt>
      <trkpt lat="45.76314" lon="4.79093">
        <ele>239</ele>
        <time>2012-03-04T10:53:52Z</time>
      </trkpt>
      <trkpt lat="45.76326" lon="4.79092">
        <ele>238</ele>
        <time>2012-03-04T10:53:56Z</time>
      </trkpt>
      <trkpt lat="45.76332" lon="4.79092">
        <ele>238</ele>
        <time>2012-03-04T10:53:58Z</time>
      </trkpt>
      <trkpt lat="45.76344" lon="4.79095">
        <ele>236</ele>
        <time>2012-03-04T10:54:02Z</time>
      </trkpt>
      <trkpt lat="45.76351" lon="4.79095">
        <ele>236</ele>
        <time>2012-03-04T10:54:04Z</time>
      </trkpt>
      <trkpt lat="45.76359" lon="4.79094">
        <ele>236</ele>
        <time>2012-03-04T10:54:07Z</time>
      </trkpt>
      <trkpt lat="45.76369" lon="4.79093">
        <ele>236</ele>
        <time>2012-03-04T10:54:10Z</time>
      </trkpt>
      <trkpt lat="45.76377" lon="4.79093">
        <ele>235</ele>
        <time>2012-03-04T10:54:13Z</time>
      </trkpt>
      <trkpt lat="45.76389" lon="4.79093">
        <ele>235</ele>
        <time>2012-03-04T10:54:17Z</time>
      </trkpt>
      <trkpt lat="45.76395" lon="4.79092">
        <ele>235</ele>
        <time>2012-03-04T10:54:19Z</time>
      </trkpt>
      <trkpt lat="45.764" lon="4.79095">
        <ele>235</ele>
        <time>2012-03-04T10:54:21Z</time>
      </trkpt>
      <trkpt lat="45.76404" lon="4.79102">
        <ele>235</ele>
        <time>2012-03-04T10:54:23Z</time>
      </trkpt>
      <trkpt lat="45.76406" lon="4.79104">
        <ele>235</ele>
        <time>2012-03-04T10:54:24Z</time>
      </trkpt>
      <trkpt lat="45.76407" lon="4.79104">
        <ele>235</ele>
        <time>2012-03-04T10:54:25Z</time>
      </trkpt>
      <trkpt lat="45.76409" lon="4.79104">
        <ele>235</ele>
        <time>2012-03-04T10:54:26Z</time>
      </trkpt>
      <trkpt lat="45.76419" lon="4.79096">
        <ele>235</ele>
        <time>2012-03-04T10:54:31Z</time>
      </trkpt>
      <trkpt lat="45.76422" lon="4.79094">
        <ele>235</ele>
        <time>2012-03-04T10:54:32Z</time>
      </trkpt>
      <trkpt lat="45.76427" lon="4.79092">
        <ele>235</ele>
        <time>2012-03-04T10:54:34Z</time>
      </trkpt>
      <trkpt lat="45.76432" lon="4.7909">
        <ele>235</ele>
        <time>2012-03-04T10:54:36Z</time>
      </trkpt>
      <trkpt lat="45.7644" lon="4.79089">
        <ele>235</ele>
        <time>2012-03-04T10:54:39Z</time>
      </trkpt>
      <trkpt lat="45.76448" lon="4.79087">
        <ele>234</ele>
        <time>2012-03-04T10:54:42Z</time>
      </trkpt>
      <trkpt lat="45.7646" lon="4.79086">
        <ele>234</ele>
        <time>2012-03-04T10:54:46Z</time>
      </trkpt>
      <trkpt lat="45.76463" lon="4.79086">
        <ele>234</ele>
        <time>2012-03-04T10:54:47Z</time>
      </trkpt>
      <trkpt lat="45.76477" lon="4.79088">
        <ele>234</ele>
        <time>2012-03-04T10:54:52Z</time>
      </trkpt>
      <trkpt lat="45.76479" lon="4.79089">
        <ele>233</ele>
        <time>2012-03-04T10:54:53Z</time>
      </trkpt>
      <trkpt lat="45.76489" lon="4.79097">
        <ele>233</ele>
        <time>2012-03-04T10:54:57Z</time>
      </trkpt>
      <trkpt lat="45.76494" lon="4.79106">
        <ele>234</ele>
        <time>2012-03-04T10:55:00Z</time>
      </trkpt>
      <trkpt lat="45.76497" lon="4.79111">
        <ele>234</ele>
        <time>2012-03-04T10:55:02Z</time>
      </trkpt>
      <trkpt lat="45.7651" lon="4.79113">
        <ele>234</ele>
        <time>2012-03-04T10:55:07Z</time>
      </trkpt>
      <trkpt lat="45.76513" lon="4.79115">
        <ele>234</ele>
        <time>2012-03-04T10:55:08Z</time>
      </trkpt>
      <trkpt lat="45.76521" lon="4.79124">
        <ele>235</ele>
        <time>2012-03-04T10:55:11Z</time>
      </trkpt>
      <trkpt lat="45.76524" lon="4.79129">
        <ele>235</ele>
        <time>2012-03-04T10:55:13Z</time>
      </trkpt>
      <trkpt lat="45.7653" lon="4.79137">
        <ele>235</ele>
        <time>2012-03-04T10:55:16Z</time>
      </trkpt>
      <trkpt lat="45.76538" lon="4.79151">
        <ele>235</ele>
        <time>2012-03-04T10:55:21Z</time>
      </trkpt>
      <trkpt lat="45.76539" lon="4.79154">
        <ele>235</ele>
        <time>2012-03-04T10:55:22Z</time>
      </trkpt>
      <trkpt lat="45.76541" lon="4.79156">
        <ele>235</ele>
        <time>2012-03-04T10:55:23Z</time>
      </trkpt>
      <trkpt lat="45.76548" lon="4.79165">
        <ele>236</ele>
        <time>2012-03-04T10:55:27Z</time>
      </trkpt>
      <trkpt lat="45.76549" lon="4.79172">
        <ele>238</ele>
        <time>2012-03-04T10:55:29Z</time>
      </trkpt>
      <trkpt lat="45.7655" lon="4.79184">
        <ele>238</ele>
        <time>2012-03-04T10:55:32Z</time>
      </trkpt>
      <trkpt lat="45.76554" lon="4.79198">
        <ele>238</ele>
        <time>2012-03-04T10:55:37Z</time>
      </trkpt>
      <trkpt lat="45.7656" lon="4.79209">
        <ele>238</ele>
        <time>2012-03-04T10:55:42Z</time>
      </trkpt>
      <trkpt lat="45.76567" lon="4.79221">
        <ele>238</ele>
        <time>2012-03-04T10:55:47Z</time>
      </trkpt>
      <trkpt lat="45.76582" lon="4.7922">
        <ele>238</ele>
        <time>2012-03-04T10:55:52Z</time>
      </trkpt>
      <trkpt lat="45.76585" lon="4.79219">
        <ele>236</ele>
        <time>2012-03-04T10:55:53Z</time>
      </trkpt>
      <trkpt lat="45.76589" lon="4.79215">
        <ele>236</ele>
        <time>2012-03-04T10:55:55Z</time>
      </trkpt>
      <trkpt lat="45.76589" lon="4.79216">
        <ele>236</ele>
        <time>2012-03-04T10:55:56Z</time>
      </trkpt>
      <trkpt lat="45.766" lon="4.79207">
        <ele>235</ele>
        <time>2012-03-04T10:56:01Z</time>
      </trkpt>
      <trkpt lat="45.76602" lon="4.79205">
        <ele>235</ele>
        <time>2012-03-04T10:56:02Z</time>
      </trkpt>
      <trkpt lat="45.76611" lon="4.79195">
        <ele>235</ele>
        <time>2012-03-04T10:56:07Z</time>
      </trkpt>
      <trkpt lat="45.76613" lon="4.79193">
        <ele>235</ele>
        <time>2012-03-04T10:56:08Z</time>
      </trkpt>
      <trkpt lat="45.76617" lon="4.79188">
        <ele>235</ele>
        <time>2012-03-04T10:56:10Z</time>
      </trkpt>
      <trkpt lat="45.76623" lon="4.79183">
        <ele>234</ele>
        <time>2012-03-04T10:56:13Z</time>
      </trkpt>
      <trkpt lat="45.76633" lon="4.79175">
        <ele>233</ele>
        <time>2012-03-04T10:56:17Z</time>
      </trkpt>
      <trkpt lat="45.76636" lon="4.79174">
        <ele>233</ele>
        <time>2012-03-04T10:56:18Z</time>
      </trkpt>
      <trkpt lat="45.7665" lon="4.79168">
        <ele>231</ele>
        <time>2012-03-04T10:56:23Z</time>
      </trkpt>
      <trkpt lat="45.76653" lon="4.79166">
        <ele>229</ele>
        <time>2012-03-04T10:56:24Z</time>
      </trkpt>
      <trkpt lat="45.76667" lon="4.79157">
        <ele>229</ele>
        <time>2012-03-04T10:56:30Z</time>
      </trkpt>
      <trkpt lat="45.76671" lon="4.79154">
        <ele>228</ele>
        <time>2012-03-04T10:56:32Z</time>
      </trkpt>
      <trkpt lat="45.76683" lon="4.7915">
        <ele>229</ele>
        <time>2012-03-04T10:56:36Z</time>
      </trkpt>
      <trkpt lat="45.76691" lon="4.79148">
        <ele>229</ele>
        <time>2012-03-04T10:56:39Z</time>
      </trkpt>
      <trkpt lat="45.76693" lon="4.79148">
        <ele>229</ele>
        <time>2012-03-04T10:56:40Z</time>
      </trkpt>
      <trkpt lat="45.76695" lon="4.79146">
        <ele>229</ele>
        <time>2012-03-04T10:56:41Z</time>
      </trkpt>
      <trkpt lat="45.76709" lon="4.79137">
        <ele>229</ele>
        <time>2012-03-04T10:56:48Z</time>
      </trkpt>
      <trkpt lat="45.76718" lon="4.79141">
        <ele>230</ele>
        <time>2012-03-04T10:56:53Z</time>
      </trkpt>
      <trkpt lat="45.76721" lon="4.79146">
        <ele>230</ele>
        <time>2012-03-04T10:56:56Z</time>
      </trkpt>
      <trkpt lat="45.76721" lon="4.79148">
        <ele>230</ele>
        <time>2012-03-04T10:56:57Z</time>
      </trkpt>
      <trkpt lat="45.76722" lon="4.79154">
        <ele>231</ele>
        <time>2012-03-04T10:56:59Z</time>
      </trkpt>
      <trkpt lat="45.76723" lon="4.79163">
        <ele>231</ele>
        <time>2012-03-04T10:57:01Z</time>
      </trkpt>
      <trkpt lat="45.76724" lon="4.79182">
        <ele>233</ele>
        <time>2012-03-04T10:57:06Z</time>
      </trkpt>
      <trkpt lat="45.76725" lon="4.792">
        <ele>233</ele>
        <time>2012-03-04T10:57:11Z</time>
      </trkpt>
      <trkpt lat="45.76724" lon="4.79211">
        <ele>233</ele>
        <time>2012-03-04T10:57:14Z</time>
      </trkpt>
      <trkpt lat="45.76724" lon="4.79225">
        <ele>233</ele>
        <time>2012-03-04T10:57:18Z</time>
      </trkpt>
      <trkpt lat="45.76724" lon="4.79239">
        <ele>233</ele>
        <time>2012-03-04T10:57:22Z</time>
      </trkpt>
      <trkpt lat="45.76724" lon="4.7925">
        <ele>234</ele>
        <time>2012-03-04T10:57:25Z</time>
      </trkpt>
      <trkpt lat="45.76721" lon="4.79268">
        <ele>234</ele>
        <time>2012-03-04T10:57:30Z</time>
      </trkpt>
      <trkpt lat="45.7672" lon="4.79275">
        <ele>234</ele>
        <time>2012-03-04T10:57:32Z</time>
      </trkpt>
      <trkpt lat="45.76718" lon="4.79294">
        <ele>233</ele>
        <time>2012-03-04T10:57:37Z</time>
      </trkpt>
      <trkpt lat="45.76718" lon="4.79297">
        <ele>233</ele>
        <time>2012-03-04T10:57:38Z</time>
      </trkpt>
      <trkpt lat="45.76714" lon="4.79318">
        <ele>233</ele>
        <time>2012-03-04T10:57:44Z</time>
      </trkpt>
      <trkpt lat="45.76713" lon="4.79321">
        <ele>233</ele>
        <time>2012-03-04T10:57:45Z</time>
      </trkpt>
      <trkpt lat="45.76711" lon="4.79331">
        <ele>233</ele>
        <time>2012-03-04T10:57:48Z</time>
      </trkpt>
      <trkpt lat="45.76711" lon="4.79334">
        <ele>230</ele>
        <time>2012-03-04T10:57:49Z</time>
      </trkpt>
      <trkpt lat="45.7671" lon="4.7935">
        <ele>230</ele>
        <time>2012-03-04T10:57:53Z</time>
      </trkpt>
      <trkpt lat="45.76708" lon="4.79359">
        <ele>229</ele>
        <time>2012-03-04T10:57:56Z</time>
      </trkpt>
      <trkpt lat="45.76704" lon="4.79378">
        <ele>228</ele>
        <time>2012-03-04T10:58:02Z</time>
      </trkpt>
      <trkpt lat="45.76705" lon="4.7938">
        <ele>228</ele>
        <time>2012-03-04T10:58:03Z</time>
      </trkpt>
      <trkpt lat="45.76709" lon="4.79385">
        <ele>228</ele>
        <time>2012-03-04T10:58:07Z</time>
      </trkpt>
      <trkpt lat="45.76711" lon="4.79384">
        <ele>228</ele>
        <time>2012-03-04T10:58:08Z</time>
      </trkpt>
      <trkpt lat="45.76718" lon="4.79384">
        <ele>227</ele>
        <time>2012-03-04T10:58:11Z</time>
      </trkpt>
      <trkpt lat="45.76722" lon="4.79383">
        <ele>227</ele>
        <time>2012-03-04T10:58:13Z</time>
      </trkpt>
      <trkpt lat="45.76735" lon="4.79382">
        <ele>227</ele>
        <time>2012-03-04T10:58:19Z</time>
      </trkpt>
      <trkpt lat="45.76739" lon="4.79382">
        <ele>227</ele>
        <time>2012-03-04T10:58:20Z</time>
      </trkpt>
      <trkpt lat="45.7675" lon="4.7938">
        <ele>227</ele>
        <time>2012-03-04T10:58:24Z</time>
      </trkpt>
      <trkpt lat="45.76756" lon="4.79381">
        <ele>222</ele>
        <time>2012-03-04T10:58:27Z</time>
      </trkpt>
      <trkpt lat="45.76758" lon="4.7938">
        <ele>222</ele>
        <time>2012-03-04T10:58:28Z</time>
      </trkpt>
      <trkpt lat="45.76771" lon="4.79379">
        <ele>221</ele>
        <time>2012-03-04T10:58:33Z</time>
      </trkpt>
      <trkpt lat="45.76779" lon="4.79378">
        <ele>221</ele>
        <time>2012-03-04T10:58:36Z</time>
      </trkpt>
      <trkpt lat="45.76789" lon="4.79378">
        <ele>220</ele>
        <time>2012-03-04T10:58:40Z</time>
      </trkpt>
      <trkpt lat="45.76797" lon="4.79376">
        <ele>220</ele>
        <time>2012-03-04T10:58:45Z</time>
      </trkpt>
      <trkpt lat="45.76799" lon="4.79376">
        <ele>219</ele>
        <time>2012-03-04T10:58:48Z</time>
      </trkpt>
      <trkpt lat="45.76804" lon="4.79376">
        <ele>219</ele>
        <time>2012-03-04T10:58:51Z</time>
      </trkpt>
      <trkpt lat="45.76806" lon="4.79377">
        <ele>219</ele>
        <time>2012-03-04T10:58:52Z</time>
      </trkpt>
      <trkpt lat="45.76807" lon="4.79378">
        <ele>219</ele>
        <time>2012-03-04T10:58:55Z</time>
      </trkpt>
      <trkpt lat="45.76808" lon="4.79378">
        <ele>219</ele>
        <time>2012-03-04T10:58:56Z</time>
      </trkpt>
      <trkpt lat="45.76809" lon="4.79378">
        <ele>218</ele>
        <time>2012-03-04T10:59:00Z</time>
      </trkpt>
      <trkpt lat="45.76815" lon="4.79377">
        <ele>218</ele>
        <time>2012-03-04T10:59:04Z</time>
      </trkpt>
      <trkpt lat="45.76829" lon="4.79373">
        <ele>218</ele>
        <time>2012-03-04T10:59:10Z</time>
      </trkpt>
      <trkpt lat="45.76834" lon="4.79371">
        <ele>211</ele>
        <time>2012-03-04T10:59:12Z</time>
      </trkpt>
      <trkpt lat="45.76844" lon="4.79368">
        <ele>211</ele>
        <time>2012-03-04T10:59:16Z</time>
      </trkpt>
      <trkpt lat="45.76853" lon="4.79365">
        <ele>211</ele>
        <time>2012-03-04T10:59:19Z</time>
      </trkpt>
      <trkpt lat="45.76862" lon="4.79363">
        <ele>210</ele>
        <time>2012-03-04T10:59:22Z</time>
      </trkpt>
      <trkpt lat="45.76871" lon="4.79358">
        <ele>210</ele>
        <time>2012-03-04T10:59:25Z</time>
      </trkpt>
      <trkpt lat="45.76873" lon="4.79356">
        <ele>210</ele>
        <time>2012-03-04T10:59:26Z</time>
      </trkpt>
      <trkpt lat="45.76887" lon="4.79348">
        <ele>209</ele>
        <time>2012-03-04T10:59:31Z</time>
      </trkpt>
      <trkpt lat="45.76909" lon="4.79343">
        <ele>208</ele>
        <time>2012-03-04T10:59:36Z</time>
      </trkpt>
      <trkpt lat="45.76913" lon="4.79341">
        <ele>208</ele>
        <time>2012-03-04T10:59:37Z</time>
      </trkpt>
      <trkpt lat="45.76922" lon="4.79349">
        <ele>202</ele>
        <time>2012-03-04T10:59:41Z</time>
      </trkpt>
      <trkpt lat="45.76923" lon="4.79352">
        <ele>201</ele>
        <time>2012-03-04T10:59:42Z</time>
      </trkpt>
      <trkpt lat="45.76925" lon="4.79357">
        <ele>200</ele>
        <time>2012-03-04T10:59:43Z</time>
      </trkpt>
      <trkpt lat="45.7693" lon="4.79363">
        <ele>199</ele>
        <time>2012-03-04T10:59:45Z</time>
      </trkpt>
      <trkpt lat="45.76934" lon="4.79369">
        <ele>198</ele>
        <time>2012-03-04T10:59:47Z</time>
      </trkpt>
      <trkpt lat="45.76938" lon="4.79381">
        <ele>196</ele>
        <time>2012-03-04T10:59:50Z</time>
      </trkpt>
      <trkpt lat="45.76939" lon="4.79385">
        <ele>196</ele>
        <time>2012-03-04T10:59:51Z</time>
      </trkpt>
      <trkpt lat="45.76941" lon="4.79392">
        <ele>195</ele>
        <time>2012-03-04T10:59:53Z</time>
      </trkpt>
      <trkpt lat="45.76941" lon="4.79401">
        <ele>195</ele>
        <time>2012-03-04T10:59:56Z</time>
      </trkpt>
      <trkpt lat="45.7694" lon="4.79408">
        <ele>195</ele>
        <time>2012-03-04T10:59:58Z</time>
      </trkpt>
      <trkpt lat="45.76938" lon="4.79415">
        <ele>195</ele>
        <time>2012-03-04T11:00:00Z</time>
      </trkpt>
      <trkpt lat="45.76932" lon="4.79432">
        <ele>187</ele>
        <time>2012-03-04T11:00:05Z</time>
      </trkpt>
      <trkpt lat="45.7693" lon="4.79436">
        <ele>187</ele>
        <time>2012-03-04T11:00:06Z</time>
      </trkpt>
      <trkpt lat="45.76928" lon="4.79445">
        <ele>185</ele>
        <time>2012-03-04T11:00:09Z</time>
      </trkpt>
      <trkpt lat="45.76923" lon="4.79456">
        <ele>184</ele>
        <time>2012-03-04T11:00:12Z</time>
      </trkpt>
      <trkpt lat="45.76916" lon="4.79471">
        <ele>189</ele>
        <time>2012-03-04T11:00:17Z</time>
      </trkpt>
      <trkpt lat="45.76912" lon="4.79479">
        <ele>187</ele>
        <time>2012-03-04T11:00:20Z</time>
      </trkpt>
      <trkpt lat="45.76908" lon="4.79487">
        <ele>185</ele>
        <time>2012-03-04T11:00:23Z</time>
      </trkpt>
      <trkpt lat="45.76907" lon="4.79494">
        <ele>184</ele>
        <time>2012-03-04T11:00:25Z</time>
      </trkpt>
      <trkpt lat="45.76907" lon="4.79502">
        <ele>180</ele>
        <time>2012-03-04T11:00:27Z</time>
      </trkpt>
      <trkpt lat="45.76907" lon="4.79506">
        <ele>180</ele>
        <time>2012-03-04T11:00:28Z</time>
      </trkpt>
      <trkpt lat="45.76906" lon="4.79509">
        <ele>180</ele>
        <time>2012-03-04T11:00:29Z</time>
      </trkpt>
      <trkpt lat="45.76904" lon="4.79527">
        <ele>181</ele>
        <time>2012-03-04T11:00:34Z</time>
      </trkpt>
      <trkpt lat="45.76903" lon="4.79534">
        <ele>181</ele>
        <time>2012-03-04T11:00:36Z</time>
      </trkpt>
      <trkpt lat="45.76903" lon="4.79548">
        <ele>181</ele>
        <time>2012-03-04T11:00:40Z</time>
      </trkpt>
      <trkpt lat="45.769" lon="4.7956">
        <ele>180</ele>
        <time>2012-03-04T11:00:43Z</time>
      </trkpt>
      <trkpt lat="45.76898" lon="4.79573">
        <ele>179</ele>
        <time>2012-03-04T11:00:46Z</time>
      </trkpt>
      <trkpt lat="45.76897" lon="4.79587">
        <ele>176</ele>
        <time>2012-03-04T11:00:50Z</time>
      </trkpt>
      <trkpt lat="45.76896" lon="4.79594">
        <ele>177</ele>
        <time>2012-03-04T11:00:52Z</time>
      </trkpt>
      <trkpt lat="45.76897" lon="4.79606">
        <ele>177</ele>
        <time>2012-03-04T11:00:56Z</time>
      </trkpt>
      <trkpt lat="45.76898" lon="4.7961">
        <ele>177</ele>
        <time>2012-03-04T11:00:57Z</time>
      </trkpt>
      <trkpt lat="45.769" lon="4.79615">
        <ele>177</ele>
        <time>2012-03-04T11:00:59Z</time>
      </trkpt>
      <trkpt lat="45.76905" lon="4.79634">
        <ele>176</ele>
        <time>2012-03-04T11:01:05Z</time>
      </trkpt>
      <trkpt lat="45.76907" lon="4.79641">
        <ele>176</ele>
        <time>2012-03-04T11:01:07Z</time>
      </trkpt>
      <trkpt lat="45.76911" lon="4.79653">
        <ele>176</ele>
        <time>2012-03-04T11:01:11Z</time>
      </trkpt>
      <trkpt lat="45.76915" lon="4.79663">
        <ele>174</ele>
        <time>2012-03-04T11:01:14Z</time>
      </trkpt>
      <trkpt lat="45.76915" lon="4.79672">
        <ele>174</ele>
        <time>2012-03-04T11:01:16Z</time>
      </trkpt>
      <trkpt lat="45.7692" lon="4.79689">
        <ele>174</ele>
        <time>2012-03-04T11:01:21Z</time>
      </trkpt>
      <trkpt lat="45.76921" lon="4.79704">
        <ele>174</ele>
        <time>2012-03-04T11:01:25Z</time>
      </trkpt>
      <trkpt lat="45.76924" lon="4.79715">
        <ele>174</ele>
        <time>2012-03-04T11:01:28Z</time>
      </trkpt>
      <trkpt lat="45.76924" lon="4.79723">
        <ele>174</ele>
        <time>2012-03-04T11:01:30Z</time>
      </trkpt>
      <trkpt lat="45.76925" lon="4.79742">
        <ele>174</ele>
        <time>2012-03-04T11:01:35Z</time>
      </trkpt>
      <trkpt lat="45.76926" lon="4.79745">
        <ele>174</ele>
        <time>2012-03-04T11:01:36Z</time>
      </trkpt>
      <trkpt lat="45.7693" lon="4.79752">
        <ele>175</ele>
        <time>2012-03-04T11:01:39Z</time>
      </trkpt>
      <trkpt lat="45.76933" lon="4.79765">
        <ele>175</ele>
        <time>2012-03-04T11:01:42Z</time>
      </trkpt>
      <trkpt lat="45.76934" lon="4.79769">
        <ele>175</ele>
        <time>2012-03-04T11:01:43Z</time>
      </trkpt>
      <trkpt lat="45.76931" lon="4.79778">
        <ele>175</ele>
        <time>2012-03-04T11:01:46Z</time>
      </trkpt>
      <trkpt lat="45.76923" lon="4.79785">
        <ele>175</ele>
        <time>2012-03-04T11:01:50Z</time>
      </trkpt>
      <trkpt lat="45.76921" lon="4.79802">
        <ele>175</ele>
        <time>2012-03-04T11:01:55Z</time>
      </trkpt>
      <trkpt lat="45.76923" lon="4.79811">
        <ele>175</ele>
        <time>2012-03-04T11:01:59Z</time>
      </trkpt>
      <trkpt lat="45.76924" lon="4.79815">
        <ele>176</ele>
        <time>2012-03-04T11:02:00Z</time>
      </trkpt>
      <trkpt lat="45.76926" lon="4.79832">
        <ele>176</ele>
        <time>2012-03-04T11:02:05Z</time>
      </trkpt>
      <trkpt lat="45.76927" lon="4.79836">
        <ele>176</ele>
        <time>2012-03-04T11:02:06Z</time>
      </trkpt>
      <trkpt lat="45.76926" lon="4.79847">
        <ele>176</ele>
        <time>2012-03-04T11:02:09Z</time>
      </trkpt>
      <trkpt lat="45.76926" lon="4.79866">
        <ele>176</ele>
        <time>2012-03-04T11:02:14Z</time>
      </trkpt>
      <trkpt lat="45.76926" lon="4.79875">
        <ele>175</ele>
        <time>2012-03-04T11:02:16Z</time>
      </trkpt>
      <trkpt lat="45.76926" lon="4.79893">
        <ele>175</ele>
        <time>2012-03-04T11:02:20Z</time>
      </trkpt>
      <trkpt lat="45.76926" lon="4.79897">
        <ele>175</ele>
        <time>2012-03-04T11:02:21Z</time>
      </trkpt>
      <trkpt lat="45.76929" lon="4.79915">
        <ele>175</ele>
        <time>2012-03-04T11:02:26Z</time>
      </trkpt>
      <trkpt lat="45.7693" lon="4.79921">
        <ele>175</ele>
        <time>2012-03-04T11:02:28Z</time>
      </trkpt>
      <trkpt lat="45.76932" lon="4.79934">
        <ele>175</ele>
        <time>2012-03-04T11:02:32Z</time>
      </trkpt>
      <trkpt lat="45.76932" lon="4.79938">
        <ele>175</ele>
        <time>2012-03-04T11:02:33Z</time>
      </trkpt>
      <trkpt lat="45.76932" lon="4.79948">
        <ele>175</ele>
        <time>2012-03-04T11:02:36Z</time>
      </trkpt>
      <trkpt lat="45.76933" lon="4.79964">
        <ele>176</ele>
        <time>2012-03-04T11:02:41Z</time>
      </trkpt>
      <trkpt lat="45.76933" lon="4.79975">
        <ele>176</ele>
        <time>2012-03-04T11:02:44Z</time>
      </trkpt>
      <trkpt lat="45.76933" lon="4.79979">
        <ele>176</ele>
        <time>2012-03-04T11:02:45Z</time>
      </trkpt>
      <trkpt lat="45.76934" lon="4.79997">
        <ele>176</ele>
        <time>2012-03-04T11:02:50Z</time>
      </trkpt>
      <trkpt lat="45.76935" lon="4.80001">
        <ele>176</ele>
        <time>2012-03-04T11:02:51Z</time>
      </trkpt>
      <trkpt lat="45.76937" lon="4.80018">
        <ele>175</ele>
        <time>2012-03-04T11:02:56Z</time>
      </trkpt>
      <trkpt lat="45.76938" lon="4.80025">
        <ele>175</ele>
        <time>2012-03-04T11:02:58Z</time>
      </trkpt>
      <trkpt lat="45.76938" lon="4.8003">
        <ele>175</ele>
        <time>2012-03-04T11:02:59Z</time>
      </trkpt>
      <trkpt lat="45.76938" lon="4.80037">
        <ele>175</ele>
        <time>2012-03-04T11:03:01Z</time>
      </trkpt>
      <trkpt lat="45.7694" lon="4.80055">
        <ele>175</ele>
        <time>2012-03-04T11:03:06Z</time>
      </trkpt>
      <trkpt lat="45.7694" lon="4.80058">
        <ele>175</ele>
        <time>2012-03-04T11:03:07Z</time>
      </trkpt>
      <trkpt lat="45.76939" lon="4.80062">
        <ele>175</ele>
        <time>2012-03-04T11:03:08Z</time>
      </trkpt>
      <trkpt lat="45.76937" lon="4.80075">
        <ele>175</ele>
        <time>2012-03-04T11:03:11Z</time>
      </trkpt>
      <trkpt lat="45.76938" lon="4.80085">
        <ele>174</ele>
        <time>2012-03-04T11:03:14Z</time>
      </trkpt>
      <trkpt lat="45.7694" lon="4.8009">
        <ele>174</ele>
        <time>2012-03-04T11:03:16Z</time>
      </trkpt>
      <trkpt lat="45.76942" lon="4.80091">
        <ele>174</ele>
        <time>2012-03-04T11:03:17Z</time>
      </trkpt>
      <trkpt lat="45.76949" lon="4.80093">
        <ele>174</ele>
        <time>2012-03-04T11:03:20Z</time>
      </trkpt>
      <trkpt lat="45.76952" lon="4.80093">
        <ele>174</ele>
        <time>2012-03-04T11:03:21Z</time>
      </trkpt>
      <trkpt lat="45.76955" lon="4.80092">
        <ele>174</ele>
        <time>2012-03-04T11:03:22Z</time>
      </trkpt>
      <trkpt lat="45.76964" lon="4.80092">
        <ele>174</ele>
        <time>2012-03-04T11:03:25Z</time>
      </trkpt>
      <trkpt lat="45.76974" lon="4.8009">
        <ele>174</ele>
        <time>2012-03-04T11:03:28Z</time>
      </trkpt>
      <trkpt lat="45.76982" lon="4.80087">
        <ele>174</ele>
        <time>2012-03-04T11:03:31Z</time>
      </trkpt>
      <trkpt lat="45.76993" lon="4.80085">
        <ele>175</ele>
        <time>2012-03-04T11:03:35Z</time>
      </trkpt>
      <trkpt lat="45.76998" lon="4.80084">
        <ele>175</ele>
        <time>2012-03-04T11:03:37Z</time>
      </trkpt>
      <trkpt lat="45.77012" lon="4.80082">
        <ele>175</ele>
        <time>2012-03-04T11:03:42Z</time>
      </trkpt>
      <trkpt lat="45.77019" lon="4.80081">
        <ele>175</ele>
        <time>2012-03-04T11:03:44Z</time>
      </trkpt>
      <trkpt lat="45.77032" lon="4.80081">
        <ele>175</ele>
        <time>2012-03-04T11:03:49Z</time>
      </trkpt>
      <trkpt lat="45.7704" lon="4.80098">
        <ele>174</ele>
        <time>2012-03-04T11:03:54Z</time>
      </trkpt>
      <trkpt lat="45.77041" lon="4.80104">
        <ele>174</ele>
        <time>2012-03-04T11:03:56Z</time>
      </trkpt>
      <trkpt lat="45.77044" lon="4.80115">
        <ele>174</ele>
        <time>2012-03-04T11:03:59Z</time>
      </trkpt>
      <trkpt lat="45.77052" lon="4.80126">
        <ele>174</ele>
        <time>2012-03-04T11:04:03Z</time>
      </trkpt>
      <trkpt lat="45.77057" lon="4.80138">
        <ele>174</ele>
        <time>2012-03-04T11:04:07Z</time>
      </trkpt>
      <trkpt lat="45.77063" lon="4.80147">
        <ele>174</ele>
        <time>2012-03-04T11:04:10Z</time>
      </trkpt>
      <trkpt lat="45.77065" lon="4.8015">
        <ele>174</ele>
        <time>2012-03-04T11:04:11Z</time>
      </trkpt>
      <trkpt lat="45.77074" lon="4.80171">
        <ele>174</ele>
        <time>2012-03-04T11:04:17Z</time>
      </trkpt>
      <trkpt lat="45.77074" lon="4.80171">
        <ele>174</ele>
        <time>2012-03-04T11:04:18Z</time>
      </trkpt>
      <trkpt lat="45.7708" lon="4.80188">
        <ele>174</ele>
        <time>2012-03-04T11:04:24Z</time>
      </trkpt>
      <trkpt lat="45.77082" lon="4.80195">
        <ele>174</ele>
        <time>2012-03-04T11:04:26Z</time>
      </trkpt>
      <trkpt lat="45.77087" lon="4.80207">
        <ele>174</ele>
        <time>2012-03-04T11:04:30Z</time>
      </trkpt>
      <trkpt lat="45.77093" lon="4.80219">
        <ele>174</ele>
        <time>2012-03-04T11:04:34Z</time>
      </trkpt>
      <trkpt lat="45.77097" lon="4.80225">
        <ele>175</ele>
        <time>2012-03-04T11:04:37Z</time>
      </trkpt>
      <trkpt lat="45.77099" lon="4.80225">
        <ele>174</ele>
        <time>2012-03-04T11:04:38Z</time>
      </trkpt>
      <trkpt lat="45.77108" lon="4.80223">
        <ele>174</ele>
        <time>2012-03-04T11:04:41Z</time>
      </trkpt>
      <trkpt lat="45.77111" lon="4.80223">
        <ele>174</ele>
        <time>2012-03-04T11:04:42Z</time>
      </trkpt>
      <trkpt lat="45.77123" lon="4.80216">
        <ele>174</ele>
        <time>2012-03-04T11:04:47Z</time>
      </trkpt>
      <trkpt lat="45.77127" lon="4.80212">
        <ele>174</ele>
        <time>2012-03-04T11:04:49Z</time>
      </trkpt>
      <trkpt lat="45.77135" lon="4.80207">
        <ele>174</ele>
        <time>2012-03-04T11:04:52Z</time>
      </trkpt>
      <trkpt lat="45.77144" lon="4.80199">
        <ele>174</ele>
        <time>2012-03-04T11:04:56Z</time>
      </trkpt>
      <trkpt lat="45.77149" lon="4.80197">
        <ele>174</ele>
        <time>2012-03-04T11:04:58Z</time>
      </trkpt>
      <trkpt lat="45.77159" lon="4.80192">
        <ele>174</ele>
        <time>2012-03-04T11:05:03Z</time>
      </trkpt>
      <trkpt lat="45.77163" lon="4.8019">
        <ele>174</ele>
        <time>2012-03-04T11:05:05Z</time>
      </trkpt>
      <trkpt lat="45.77172" lon="4.80184">
        <ele>174</ele>
        <time>2012-03-04T11:05:09Z</time>
      </trkpt>
      <trkpt lat="45.7718" lon="4.80178">
        <ele>174</ele>
        <time>2012-03-04T11:05:12Z</time>
      </trkpt>
      <trkpt lat="45.77185" lon="4.80175">
        <ele>174</ele>
        <time>2012-03-04T11:05:14Z</time>
      </trkpt>
      <trkpt lat="45.77199" lon="4.8017">
        <ele>174</ele>
        <time>2012-03-04T11:05:19Z</time>
      </trkpt>
      <trkpt lat="45.77214" lon="4.80167">
        <ele>174</ele>
        <time>2012-03-04T11:05:25Z</time>
      </trkpt>
      <trkpt lat="45.77219" lon="4.80166">
        <ele>175</ele>
        <time>2012-03-04T11:05:27Z</time>
      </trkpt>
      <trkpt lat="45.77227" lon="4.80165">
        <ele>175</ele>
        <time>2012-03-04T11:05:30Z</time>
      </trkpt>
      <trkpt lat="45.77239" lon="4.80168">
        <ele>174</ele>
        <time>2012-03-04T11:05:35Z</time>
      </trkpt>
      <trkpt lat="45.77251" lon="4.80165">
        <ele>174</ele>
        <time>2012-03-04T11:05:40Z</time>
      </trkpt>
      <trkpt lat="45.77259" lon="4.80164">
        <ele>175</ele>
        <time>2012-03-04T11:05:43Z</time>
      </trkpt>
      <trkpt lat="45.77265" lon="4.80158">
        <ele>175</ele>
        <time>2012-03-04T11:05:46Z</time>
      </trkpt>
      <trkpt lat="45.77276" lon="4.80148">
        <ele>176</ele>
        <time>2012-03-04T11:05:51Z</time>
      </trkpt>
      <trkpt lat="45.77278" lon="4.80146">
        <ele>176</ele>
        <time>2012-03-04T11:05:52Z</time>
      </trkpt>
      <trkpt lat="45.77282" lon="4.80142">
        <ele>176</ele>
        <time>2012-03-04T11:05:54Z</time>
      </trkpt>
      <trkpt lat="45.77286" lon="4.80137">
        <ele>176</ele>
        <time>2012-03-04T11:05:56Z</time>
      </trkpt>
      <trkpt lat="45.77291" lon="4.8013">
        <ele>176</ele>
        <time>2012-03-04T11:05:59Z</time>
      </trkpt>
      <trkpt lat="45.77295" lon="4.80126">
        <ele>176</ele>
        <time>2012-03-04T11:06:01Z</time>
      </trkpt>
      <trkpt lat="45.77297" lon="4.80124">
        <ele>176</ele>
        <time>2012-03-04T11:06:02Z</time>
      </trkpt>
      <trkpt lat="45.77307" lon="4.80112">
        <ele>176</ele>
        <time>2012-03-04T11:06:07Z</time>
      </trkpt>
      <trkpt lat="45.77317" lon="4.80102">
        <ele>176</ele>
        <time>2012-03-04T11:06:12Z</time>
      </trkpt>
      <trkpt lat="45.77322" lon="4.80093">
        <ele>176</ele>
        <time>2012-03-04T11:06:15Z</time>
      </trkpt>
      <trkpt lat="45.77325" lon="4.80088">
        <ele>176</ele>
        <time>2012-03-04T11:06:17Z</time>
      </trkpt>
      <trkpt lat="45.77327" lon="4.80086">
        <ele>176</ele>
        <time>2012-03-04T11:06:18Z</time>
      </trkpt>
      <trkpt lat="45.77331" lon="4.80079">
        <ele>176</ele>
        <time>2012-03-04T11:06:21Z</time>
      </trkpt>
      <trkpt lat="45.77334" lon="4.80074">
        <ele>175</ele>
        <time>2012-03-04T11:06:23Z</time>
      </trkpt>
      <trkpt lat="45.77341" lon="4.80063">
        <ele>174</ele>
        <time>2012-03-04T11:06:27Z</time>
      </trkpt>
      <trkpt lat="45.77347" lon="4.80055">
        <ele>174</ele>
        <time>2012-03-04T11:06:31Z</time>
      </trkpt>
      <trkpt lat="45.77354" lon="4.80048">
        <ele>174</ele>
        <time>2012-03-04T11:06:35Z</time>
      </trkpt>
      <trkpt lat="45.77357" lon="4.80049">
        <ele>174</ele>
        <time>2012-03-04T11:06:36Z</time>
      </trkpt>
      <trkpt lat="45.77363" lon="4.80053">
        <ele>174</ele>
        <time>2012-03-04T11:06:39Z</time>
      </trkpt>
      <trkpt lat="45.77367" lon="4.80058">
        <ele>174</ele>
        <time>2012-03-04T11:06:41Z</time>
      </trkpt>
      <trkpt lat="45.77377" lon="4.80071">
        <ele>173</ele>
        <time>2012-03-04T11:06:46Z</time>
      </trkpt>
      <trkpt lat="45.7738" lon="4.80076">
        <ele>173</ele>
        <time>2012-03-04T11:06:48Z</time>
      </trkpt>
      <trkpt lat="45.77382" lon="4.80079">
        <ele>173</ele>
        <time>2012-03-04T11:06:49Z</time>
      </trkpt>
      <trkpt lat="45.77388" lon="4.80086">
        <ele>174</ele>
        <time>2012-03-04T11:06:52Z</time>
      </trkpt>
      <trkpt lat="45.7739" lon="4.80089">
        <ele>174</ele>
        <time>2012-03-04T11:06:53Z</time>
      </trkpt>
      <trkpt lat="45.77391" lon="4.80092">
        <ele>174</ele>
        <time>2012-03-04T11:06:54Z</time>
      </trkpt>
      <trkpt lat="45.77397" lon="4.80099">
        <ele>173</ele>
        <time>2012-03-04T11:06:57Z</time>
      </trkpt>
      <trkpt lat="45.77404" lon="4.8011">
        <ele>174</ele>
        <time>2012-03-04T11:07:01Z</time>
      </trkpt>
      <trkpt lat="45.77406" lon="4.80116">
        <ele>174</ele>
        <time>2012-03-04T11:07:03Z</time>
      </trkpt>
      <trkpt lat="45.77416" lon="4.80132">
        <ele>174</ele>
        <time>2012-03-04T11:07:09Z</time>
      </trkpt>
      <trkpt lat="45.77418" lon="4.80135">
        <ele>172</ele>
        <time>2012-03-04T11:07:10Z</time>
      </trkpt>
      <trkpt lat="45.77428" lon="4.8015">
        <ele>173</ele>
        <time>2012-03-04T11:07:15Z</time>
      </trkpt>
      <trkpt lat="45.7743" lon="4.80154">
        <ele>173</ele>
        <time>2012-03-04T11:07:16Z</time>
      </trkpt>
      <trkpt lat="45.77437" lon="4.80166">
        <ele>173</ele>
        <time>2012-03-04T11:07:20Z</time>
      </trkpt>
      <trkpt lat="45.77438" lon="4.80176">
        <ele>174</ele>
        <time>2012-03-04T11:07:23Z</time>
      </trkpt>
      <trkpt lat="45.77438" lon="4.80187">
        <ele>174</ele>
        <time>2012-03-04T11:07:26Z</time>
      </trkpt>
      <trkpt lat="45.77439" lon="4.80205">
        <ele>174</ele>
        <time>2012-03-04T11:07:31Z</time>
      </trkpt>
      <trkpt lat="45.77437" lon="4.80228">
        <ele>175</ele>
        <time>2012-03-04T11:07:37Z</time>
      </trkpt>
      <trkpt lat="45.77437" lon="4.80235">
        <ele>175</ele>
        <time>2012-03-04T11:07:39Z</time>
      </trkpt>
      <trkpt lat="45.77434" lon="4.80246">
        <ele>175</ele>
        <time>2012-03-04T11:07:42Z</time>
      </trkpt>
      <trkpt lat="45.77431" lon="4.80262">
        <ele>175</ele>
        <time>2012-03-04T11:07:46Z</time>
      </trkpt>
      <trkpt lat="45.77426" lon="4.80285">
        <ele>175</ele>
        <time>2012-03-04T11:07:52Z</time>
      </trkpt>
      <trkpt lat="45.77425" lon="4.80289">
        <ele>175</ele>
        <time>2012-03-04T11:07:53Z</time>
      </trkpt>
      <trkpt lat="45.7742" lon="4.80308">
        <ele>174</ele>
        <time>2012-03-04T11:07:58Z</time>
      </trkpt>
      <trkpt lat="45.7742" lon="4.80312">
        <ele>174</ele>
        <time>2012-03-04T11:07:59Z</time>
      </trkpt>
    </trkseg>
  </trk>
</gpx>